<?xml version="1.0" encoding="UTF-8" standalone="no" ?>
<gpx xmlns="http://www.topografix.com/GPX/1/1" xmlns:xsi="http://www.w3.org/2001/XMLSchema-instance" xsi:schemaLocation="http://www.topografix.com/GPX/1/1 http://www.topografix.com/GPX/1/1/gpx.xsd" version="1.1" creator="VisuGPX - https://www.visugpx.com">
  <metadata>
    <name>Cochonduro 2014</name>
    <desc><![CDATA[Reco le samedi de l\'enduro COCHONDURO 2014 première édition à seillon source d\'argens...

]]></desc>
  </metadata>
  <trk>
    <name><![CDATA[Cochonduro 2014_1]]></name>
    <trkseg>
      <trkpt lat="43.49868" lon="5.88119">
        <ele>373</ele>
        <time>2014-03-08T09:42:37Z</time>
      </trkpt>
      <trkpt lat="43.49866" lon="5.88117">
        <ele>373.2</ele>
        <time>2014-03-08T09:42:40Z</time>
      </trkpt>
      <trkpt lat="43.49865" lon="5.8812">
        <ele>373.2</ele>
        <time>2014-03-08T09:42:42Z</time>
      </trkpt>
      <trkpt lat="43.49858" lon="5.88125">
        <ele>373.2</ele>
        <time>2014-03-08T09:42:48Z</time>
      </trkpt>
      <trkpt lat="43.49849" lon="5.8813">
        <ele>373.2</ele>
        <time>2014-03-08T09:42:55Z</time>
      </trkpt>
      <trkpt lat="43.49821" lon="5.88139">
        <ele>373.2</ele>
        <time>2014-03-08T09:43:08Z</time>
      </trkpt>
      <trkpt lat="43.49802" lon="5.88148">
        <ele>373.2</ele>
        <time>2014-03-08T09:43:16Z</time>
      </trkpt>
      <trkpt lat="43.49791" lon="5.88165">
        <ele>373.2</ele>
        <time>2014-03-08T09:43:23Z</time>
      </trkpt>
      <trkpt lat="43.49773" lon="5.88201">
        <ele>374</ele>
        <time>2014-03-08T09:43:36Z</time>
      </trkpt>
      <trkpt lat="43.49768" lon="5.88209">
        <ele>375.2</ele>
        <time>2014-03-08T09:43:39Z</time>
      </trkpt>
      <trkpt lat="43.4976" lon="5.88223">
        <ele>375.2</ele>
        <time>2014-03-08T09:43:44Z</time>
      </trkpt>
      <trkpt lat="43.49747" lon="5.88241">
        <ele>375.2</ele>
        <time>2014-03-08T09:43:51Z</time>
      </trkpt>
      <trkpt lat="43.4973" lon="5.88279">
        <ele>375.2</ele>
        <time>2014-03-08T09:44:06Z</time>
      </trkpt>
      <trkpt lat="43.49725" lon="5.88279">
        <ele>375.2</ele>
        <time>2014-03-08T09:44:11Z</time>
      </trkpt>
      <trkpt lat="43.4972" lon="5.88289">
        <ele>375.2</ele>
        <time>2014-03-08T09:44:14Z</time>
      </trkpt>
      <trkpt lat="43.49718" lon="5.88294">
        <ele>375.2</ele>
        <time>2014-03-08T09:44:15Z</time>
      </trkpt>
      <trkpt lat="43.49709" lon="5.8831">
        <ele>375.2</ele>
        <time>2014-03-08T09:44:20Z</time>
      </trkpt>
      <trkpt lat="43.49687" lon="5.88341">
        <ele>375.6</ele>
        <time>2014-03-08T09:44:31Z</time>
      </trkpt>
      <trkpt lat="43.49682" lon="5.8835">
        <ele>376.8</ele>
        <time>2014-03-08T09:44:34Z</time>
      </trkpt>
      <trkpt lat="43.49661" lon="5.88379">
        <ele>378.2</ele>
        <time>2014-03-08T09:44:46Z</time>
      </trkpt>
      <trkpt lat="43.49659" lon="5.88381">
        <ele>378.6</ele>
        <time>2014-03-08T09:44:47Z</time>
      </trkpt>
      <trkpt lat="43.49619" lon="5.88415">
        <ele>379.4</ele>
        <time>2014-03-08T09:45:02Z</time>
      </trkpt>
      <trkpt lat="43.49609" lon="5.88428">
        <ele>379.4</ele>
        <time>2014-03-08T09:45:07Z</time>
      </trkpt>
      <trkpt lat="43.49605" lon="5.88467">
        <ele>379.4</ele>
        <time>2014-03-08T09:45:19Z</time>
      </trkpt>
      <trkpt lat="43.49606" lon="5.88469">
        <ele>379.8</ele>
        <time>2014-03-08T09:45:20Z</time>
      </trkpt>
      <trkpt lat="43.49607" lon="5.8848">
        <ele>381.4</ele>
        <time>2014-03-08T09:45:24Z</time>
      </trkpt>
      <trkpt lat="43.49606" lon="5.88506">
        <ele>383</ele>
        <time>2014-03-08T09:45:34Z</time>
      </trkpt>
      <trkpt lat="43.49607" lon="5.88509">
        <ele>383.4</ele>
        <time>2014-03-08T09:45:35Z</time>
      </trkpt>
      <trkpt lat="43.49612" lon="5.88517">
        <ele>383.4</ele>
        <time>2014-03-08T09:45:40Z</time>
      </trkpt>
      <trkpt lat="43.49616" lon="5.88518">
        <ele>383.8</ele>
        <time>2014-03-08T09:45:42Z</time>
      </trkpt>
      <trkpt lat="43.49618" lon="5.88517">
        <ele>384.2</ele>
        <time>2014-03-08T09:45:43Z</time>
      </trkpt>
      <trkpt lat="43.49622" lon="5.88516">
        <ele>385.2</ele>
        <time>2014-03-08T09:45:45Z</time>
      </trkpt>
      <trkpt lat="43.49623" lon="5.88515">
        <ele>385.6</ele>
        <time>2014-03-08T09:45:46Z</time>
      </trkpt>
      <trkpt lat="43.4963" lon="5.88512">
        <ele>385.6</ele>
        <time>2014-03-08T09:45:49Z</time>
      </trkpt>
      <trkpt lat="43.49639" lon="5.88505">
        <ele>385.6</ele>
        <time>2014-03-08T09:45:54Z</time>
      </trkpt>
      <trkpt lat="43.49642" lon="5.88505">
        <ele>386</ele>
        <time>2014-03-08T09:45:55Z</time>
      </trkpt>
      <trkpt lat="43.49644" lon="5.88504">
        <ele>386.4</ele>
        <time>2014-03-08T09:45:56Z</time>
      </trkpt>
      <trkpt lat="43.49646" lon="5.88504">
        <ele>386.8</ele>
        <time>2014-03-08T09:45:57Z</time>
      </trkpt>
      <trkpt lat="43.49648" lon="5.88503">
        <ele>387.6</ele>
        <time>2014-03-08T09:45:58Z</time>
      </trkpt>
      <trkpt lat="43.49652" lon="5.88502">
        <ele>387.6</ele>
        <time>2014-03-08T09:46:00Z</time>
      </trkpt>
      <trkpt lat="43.4966" lon="5.88505">
        <ele>387.6</ele>
        <time>2014-03-08T09:46:05Z</time>
      </trkpt>
      <trkpt lat="43.49668" lon="5.88514">
        <ele>388</ele>
        <time>2014-03-08T09:46:10Z</time>
      </trkpt>
      <trkpt lat="43.49669" lon="5.88517">
        <ele>388.4</ele>
        <time>2014-03-08T09:46:11Z</time>
      </trkpt>
      <trkpt lat="43.49671" lon="5.88518">
        <ele>388.8</ele>
        <time>2014-03-08T09:46:12Z</time>
      </trkpt>
      <trkpt lat="43.49672" lon="5.8852">
        <ele>389.2</ele>
        <time>2014-03-08T09:46:13Z</time>
      </trkpt>
      <trkpt lat="43.4969" lon="5.88543">
        <ele>389.6</ele>
        <time>2014-03-08T09:46:24Z</time>
      </trkpt>
      <trkpt lat="43.49698" lon="5.88552">
        <ele>389.6</ele>
        <time>2014-03-08T09:46:28Z</time>
      </trkpt>
      <trkpt lat="43.49741" lon="5.88584">
        <ele>389.6</ele>
        <time>2014-03-08T09:46:43Z</time>
      </trkpt>
      <trkpt lat="43.49757" lon="5.88589">
        <ele>389.6</ele>
        <time>2014-03-08T09:46:49Z</time>
      </trkpt>
      <trkpt lat="43.49762" lon="5.88583">
        <ele>389.6</ele>
        <time>2014-03-08T09:46:52Z</time>
      </trkpt>
      <trkpt lat="43.49766" lon="5.88579">
        <ele>389.6</ele>
        <time>2014-03-08T09:46:58Z</time>
      </trkpt>
      <trkpt lat="43.49776" lon="5.88571">
        <ele>389.6</ele>
        <time>2014-03-08T09:47:22Z</time>
      </trkpt>
      <trkpt lat="43.49789" lon="5.88557">
        <ele>389.6</ele>
        <time>2014-03-08T09:47:28Z</time>
      </trkpt>
      <trkpt lat="43.49789" lon="5.88556">
        <ele>389.6</ele>
        <time>2014-03-08T09:47:33Z</time>
      </trkpt>
      <trkpt lat="43.49814" lon="5.88531">
        <ele>389.6</ele>
        <time>2014-03-08T09:48:17Z</time>
      </trkpt>
      <trkpt lat="43.49816" lon="5.88516">
        <ele>389.2</ele>
        <time>2014-03-08T09:48:20Z</time>
      </trkpt>
      <trkpt lat="43.49818" lon="5.88513">
        <ele>388.8</ele>
        <time>2014-03-08T09:48:21Z</time>
      </trkpt>
      <trkpt lat="43.49822" lon="5.88511">
        <ele>388.4</ele>
        <time>2014-03-08T09:48:22Z</time>
      </trkpt>
      <trkpt lat="43.49825" lon="5.88511">
        <ele>388</ele>
        <time>2014-03-08T09:48:23Z</time>
      </trkpt>
      <trkpt lat="43.49827" lon="5.88508">
        <ele>387.6</ele>
        <time>2014-03-08T09:48:24Z</time>
      </trkpt>
      <trkpt lat="43.49826" lon="5.88507">
        <ele>387.6</ele>
        <time>2014-03-08T09:48:25Z</time>
      </trkpt>
      <trkpt lat="43.49827" lon="5.88507">
        <ele>387.6</ele>
        <time>2014-03-08T09:48:26Z</time>
      </trkpt>
      <trkpt lat="43.49828" lon="5.88505">
        <ele>387.6</ele>
        <time>2014-03-08T09:48:27Z</time>
      </trkpt>
      <trkpt lat="43.4983" lon="5.88495">
        <ele>387.2</ele>
        <time>2014-03-08T09:48:29Z</time>
      </trkpt>
      <trkpt lat="43.49828" lon="5.8849">
        <ele>386.8</ele>
        <time>2014-03-08T09:48:30Z</time>
      </trkpt>
      <trkpt lat="43.49826" lon="5.88489">
        <ele>386.2</ele>
        <time>2014-03-08T09:48:31Z</time>
      </trkpt>
      <trkpt lat="43.49825" lon="5.88489">
        <ele>385.8</ele>
        <time>2014-03-08T09:48:32Z</time>
      </trkpt>
      <trkpt lat="43.49825" lon="5.88487">
        <ele>385.2</ele>
        <time>2014-03-08T09:48:33Z</time>
      </trkpt>
      <trkpt lat="43.49823" lon="5.88486">
        <ele>385.2</ele>
        <time>2014-03-08T09:48:34Z</time>
      </trkpt>
      <trkpt lat="43.49822" lon="5.88476">
        <ele>385.2</ele>
        <time>2014-03-08T09:48:38Z</time>
      </trkpt>
      <trkpt lat="43.49823" lon="5.88474">
        <ele>385.2</ele>
        <time>2014-03-08T09:48:42Z</time>
      </trkpt>
      <trkpt lat="43.49824" lon="5.88473">
        <ele>385.2</ele>
        <time>2014-03-08T09:48:45Z</time>
      </trkpt>
      <trkpt lat="43.49827" lon="5.88468">
        <ele>385.2</ele>
        <time>2014-03-08T09:48:47Z</time>
      </trkpt>
      <trkpt lat="43.49832" lon="5.88461">
        <ele>385.2</ele>
        <time>2014-03-08T09:48:49Z</time>
      </trkpt>
      <trkpt lat="43.49841" lon="5.88439">
        <ele>384.8</ele>
        <time>2014-03-08T09:48:53Z</time>
      </trkpt>
      <trkpt lat="43.49846" lon="5.88437">
        <ele>384.4</ele>
        <time>2014-03-08T09:48:54Z</time>
      </trkpt>
      <trkpt lat="43.49848" lon="5.8844">
        <ele>384</ele>
        <time>2014-03-08T09:48:55Z</time>
      </trkpt>
      <trkpt lat="43.49848" lon="5.88444">
        <ele>383.6</ele>
        <time>2014-03-08T09:48:56Z</time>
      </trkpt>
      <trkpt lat="43.49844" lon="5.88453">
        <ele>383.2</ele>
        <time>2014-03-08T09:48:58Z</time>
      </trkpt>
      <trkpt lat="43.4984" lon="5.88474">
        <ele>382.8</ele>
        <time>2014-03-08T09:49:02Z</time>
      </trkpt>
      <trkpt lat="43.49838" lon="5.88481">
        <ele>382.4</ele>
        <time>2014-03-08T09:49:03Z</time>
      </trkpt>
      <trkpt lat="43.49838" lon="5.8849">
        <ele>382</ele>
        <time>2014-03-08T09:49:04Z</time>
      </trkpt>
      <trkpt lat="43.49833" lon="5.88516">
        <ele>380.4</ele>
        <time>2014-03-08T09:49:07Z</time>
      </trkpt>
      <trkpt lat="43.49829" lon="5.88531">
        <ele>379.4</ele>
        <time>2014-03-08T09:49:09Z</time>
      </trkpt>
      <trkpt lat="43.49819" lon="5.88555">
        <ele>379</ele>
        <time>2014-03-08T09:49:13Z</time>
      </trkpt>
      <trkpt lat="43.49813" lon="5.88564">
        <ele>379</ele>
        <time>2014-03-08T09:49:15Z</time>
      </trkpt>
      <trkpt lat="43.49809" lon="5.88575">
        <ele>379</ele>
        <time>2014-03-08T09:49:17Z</time>
      </trkpt>
      <trkpt lat="43.4981" lon="5.88586">
        <ele>379</ele>
        <time>2014-03-08T09:49:19Z</time>
      </trkpt>
      <trkpt lat="43.49813" lon="5.88592">
        <ele>378.4</ele>
        <time>2014-03-08T09:49:20Z</time>
      </trkpt>
      <trkpt lat="43.49818" lon="5.88598">
        <ele>378</ele>
        <time>2014-03-08T09:49:21Z</time>
      </trkpt>
      <trkpt lat="43.4982" lon="5.88603">
        <ele>377.2</ele>
        <time>2014-03-08T09:49:22Z</time>
      </trkpt>
      <trkpt lat="43.49817" lon="5.88608">
        <ele>376.4</ele>
        <time>2014-03-08T09:49:23Z</time>
      </trkpt>
      <trkpt lat="43.49815" lon="5.88618">
        <ele>374.8</ele>
        <time>2014-03-08T09:49:25Z</time>
      </trkpt>
      <trkpt lat="43.49815" lon="5.88622">
        <ele>374</ele>
        <time>2014-03-08T09:49:26Z</time>
      </trkpt>
      <trkpt lat="43.49819" lon="5.88625">
        <ele>373</ele>
        <time>2014-03-08T09:49:28Z</time>
      </trkpt>
      <trkpt lat="43.49823" lon="5.88624">
        <ele>372.6</ele>
        <time>2014-03-08T09:49:29Z</time>
      </trkpt>
      <trkpt lat="43.49829" lon="5.88621">
        <ele>371.8</ele>
        <time>2014-03-08T09:49:30Z</time>
      </trkpt>
      <trkpt lat="43.49835" lon="5.8862">
        <ele>371</ele>
        <time>2014-03-08T09:49:31Z</time>
      </trkpt>
      <trkpt lat="43.49841" lon="5.88616">
        <ele>370.4</ele>
        <time>2014-03-08T09:49:32Z</time>
      </trkpt>
      <trkpt lat="43.49848" lon="5.88605">
        <ele>368.4</ele>
        <time>2014-03-08T09:49:34Z</time>
      </trkpt>
      <trkpt lat="43.49852" lon="5.88593">
        <ele>365.6</ele>
        <time>2014-03-08T09:49:37Z</time>
      </trkpt>
      <trkpt lat="43.49868" lon="5.88567">
        <ele>365.6</ele>
        <time>2014-03-08T09:49:43Z</time>
      </trkpt>
      <trkpt lat="43.49871" lon="5.88557">
        <ele>365.6</ele>
        <time>2014-03-08T09:49:45Z</time>
      </trkpt>
      <trkpt lat="43.49883" lon="5.88546">
        <ele>365.6</ele>
        <time>2014-03-08T09:49:49Z</time>
      </trkpt>
      <trkpt lat="43.49887" lon="5.88547">
        <ele>365</ele>
        <time>2014-03-08T09:49:50Z</time>
      </trkpt>
      <trkpt lat="43.49891" lon="5.88548">
        <ele>364.6</ele>
        <time>2014-03-08T09:49:51Z</time>
      </trkpt>
      <trkpt lat="43.49893" lon="5.88552">
        <ele>363.8</ele>
        <time>2014-03-08T09:49:52Z</time>
      </trkpt>
      <trkpt lat="43.49893" lon="5.88556">
        <ele>363</ele>
        <time>2014-03-08T09:49:53Z</time>
      </trkpt>
      <trkpt lat="43.49893" lon="5.88562">
        <ele>362.4</ele>
        <time>2014-03-08T09:49:54Z</time>
      </trkpt>
      <trkpt lat="43.49895" lon="5.88567">
        <ele>361.6</ele>
        <time>2014-03-08T09:49:55Z</time>
      </trkpt>
      <trkpt lat="43.49917" lon="5.88589">
        <ele>358.8</ele>
        <time>2014-03-08T09:49:59Z</time>
      </trkpt>
      <trkpt lat="43.49922" lon="5.88598">
        <ele>358</ele>
        <time>2014-03-08T09:50:00Z</time>
      </trkpt>
      <trkpt lat="43.49928" lon="5.88616">
        <ele>356</ele>
        <time>2014-03-08T09:50:02Z</time>
      </trkpt>
      <trkpt lat="43.49927" lon="5.88617">
        <ele>355</ele>
        <time>2014-03-08T09:50:03Z</time>
      </trkpt>
      <trkpt lat="43.49927" lon="5.88617">
        <ele>353.2</ele>
        <time>2014-03-08T09:50:04Z</time>
      </trkpt>
      <trkpt lat="43.49929" lon="5.88622">
        <ele>352</ele>
        <time>2014-03-08T09:50:06Z</time>
      </trkpt>
      <trkpt lat="43.4993" lon="5.88626">
        <ele>351.2</ele>
        <time>2014-03-08T09:50:07Z</time>
      </trkpt>
      <trkpt lat="43.49931" lon="5.88632">
        <ele>350.2</ele>
        <time>2014-03-08T09:50:09Z</time>
      </trkpt>
      <trkpt lat="43.4993" lon="5.88633">
        <ele>349.6</ele>
        <time>2014-03-08T09:50:10Z</time>
      </trkpt>
      <trkpt lat="43.4993" lon="5.88632">
        <ele>349.2</ele>
        <time>2014-03-08T09:50:11Z</time>
      </trkpt>
      <trkpt lat="43.49929" lon="5.88631">
        <ele>348.4</ele>
        <time>2014-03-08T09:50:53Z</time>
      </trkpt>
      <trkpt lat="43.49929" lon="5.88631">
        <ele>348.4</ele>
        <time>2014-03-08T09:51:04Z</time>
      </trkpt>
      <trkpt lat="43.49928" lon="5.88632">
        <ele>348.4</ele>
        <time>2014-03-08T09:51:07Z</time>
      </trkpt>
      <trkpt lat="43.49927" lon="5.88633">
        <ele>348.4</ele>
        <time>2014-03-08T09:51:09Z</time>
      </trkpt>
      <trkpt lat="43.49927" lon="5.88633">
        <ele>348.4</ele>
        <time>2014-03-08T09:51:14Z</time>
      </trkpt>
      <trkpt lat="43.49927" lon="5.88633">
        <ele>348.4</ele>
        <time>2014-03-08T09:51:15Z</time>
      </trkpt>
      <trkpt lat="43.49927" lon="5.88634">
        <ele>348.4</ele>
        <time>2014-03-08T09:51:32Z</time>
      </trkpt>
      <trkpt lat="43.49927" lon="5.88637">
        <ele>348.4</ele>
        <time>2014-03-08T09:51:33Z</time>
      </trkpt>
      <trkpt lat="43.49932" lon="5.88645">
        <ele>348.4</ele>
        <time>2014-03-08T09:51:36Z</time>
      </trkpt>
      <trkpt lat="43.49945" lon="5.88647">
        <ele>347.4</ele>
        <time>2014-03-08T09:51:39Z</time>
      </trkpt>
      <trkpt lat="43.49951" lon="5.88647">
        <ele>347</ele>
        <time>2014-03-08T09:51:40Z</time>
      </trkpt>
      <trkpt lat="43.49956" lon="5.88649">
        <ele>346.4</ele>
        <time>2014-03-08T09:51:41Z</time>
      </trkpt>
      <trkpt lat="43.49959" lon="5.88653">
        <ele>345.8</ele>
        <time>2014-03-08T09:51:42Z</time>
      </trkpt>
      <trkpt lat="43.49964" lon="5.88665">
        <ele>343.4</ele>
        <time>2014-03-08T09:51:45Z</time>
      </trkpt>
      <trkpt lat="43.49967" lon="5.88671">
        <ele>342.2</ele>
        <time>2014-03-08T09:51:47Z</time>
      </trkpt>
      <trkpt lat="43.49969" lon="5.88673">
        <ele>341.6</ele>
        <time>2014-03-08T09:51:48Z</time>
      </trkpt>
      <trkpt lat="43.49971" lon="5.88674">
        <ele>341</ele>
        <time>2014-03-08T09:51:49Z</time>
      </trkpt>
      <trkpt lat="43.49979" lon="5.8868">
        <ele>339.4</ele>
        <time>2014-03-08T09:51:52Z</time>
      </trkpt>
      <trkpt lat="43.49987" lon="5.88684">
        <ele>338.4</ele>
        <time>2014-03-08T09:51:54Z</time>
      </trkpt>
      <trkpt lat="43.4999" lon="5.88686">
        <ele>337.8</ele>
        <time>2014-03-08T09:51:55Z</time>
      </trkpt>
      <trkpt lat="43.49993" lon="5.88686">
        <ele>337.2</ele>
        <time>2014-03-08T09:51:56Z</time>
      </trkpt>
      <trkpt lat="43.49995" lon="5.88687">
        <ele>336.6</ele>
        <time>2014-03-08T09:51:57Z</time>
      </trkpt>
      <trkpt lat="43.50001" lon="5.88694">
        <ele>334.4</ele>
        <time>2014-03-08T09:52:01Z</time>
      </trkpt>
      <trkpt lat="43.50003" lon="5.88696">
        <ele>334</ele>
        <time>2014-03-08T09:52:02Z</time>
      </trkpt>
      <trkpt lat="43.50003" lon="5.88698">
        <ele>333.6</ele>
        <time>2014-03-08T09:52:03Z</time>
      </trkpt>
      <trkpt lat="43.50003" lon="5.88701">
        <ele>333.2</ele>
        <time>2014-03-08T09:52:04Z</time>
      </trkpt>
      <trkpt lat="43.50002" lon="5.88703">
        <ele>332.8</ele>
        <time>2014-03-08T09:52:05Z</time>
      </trkpt>
      <trkpt lat="43.49995" lon="5.88711">
        <ele>332.8</ele>
        <time>2014-03-08T09:52:11Z</time>
      </trkpt>
      <trkpt lat="43.49991" lon="5.88723">
        <ele>332.8</ele>
        <time>2014-03-08T09:52:17Z</time>
      </trkpt>
      <trkpt lat="43.49991" lon="5.88724">
        <ele>332.4</ele>
        <time>2014-03-08T09:52:20Z</time>
      </trkpt>
      <trkpt lat="43.49993" lon="5.88727">
        <ele>330.8</ele>
        <time>2014-03-08T09:52:40Z</time>
      </trkpt>
      <trkpt lat="43.49997" lon="5.88738">
        <ele>330.4</ele>
        <time>2014-03-08T09:52:46Z</time>
      </trkpt>
      <trkpt lat="43.49999" lon="5.8874">
        <ele>330</ele>
        <time>2014-03-08T09:52:47Z</time>
      </trkpt>
      <trkpt lat="43.50002" lon="5.88741">
        <ele>329.6</ele>
        <time>2014-03-08T09:52:48Z</time>
      </trkpt>
      <trkpt lat="43.50004" lon="5.88743">
        <ele>329</ele>
        <time>2014-03-08T09:52:49Z</time>
      </trkpt>
      <trkpt lat="43.50014" lon="5.88755">
        <ele>327.2</ele>
        <time>2014-03-08T09:52:52Z</time>
      </trkpt>
      <trkpt lat="43.50024" lon="5.88774">
        <ele>325.4</ele>
        <time>2014-03-08T09:52:55Z</time>
      </trkpt>
      <trkpt lat="43.50033" lon="5.88785">
        <ele>323</ele>
        <time>2014-03-08T09:52:57Z</time>
      </trkpt>
      <trkpt lat="43.50035" lon="5.88792">
        <ele>322.2</ele>
        <time>2014-03-08T09:52:58Z</time>
      </trkpt>
      <trkpt lat="43.50033" lon="5.88798">
        <ele>321.4</ele>
        <time>2014-03-08T09:52:59Z</time>
      </trkpt>
      <trkpt lat="43.50032" lon="5.88802">
        <ele>320.4</ele>
        <time>2014-03-08T09:53:00Z</time>
      </trkpt>
      <trkpt lat="43.50032" lon="5.88805">
        <ele>319.6</ele>
        <time>2014-03-08T09:53:01Z</time>
      </trkpt>
      <trkpt lat="43.50032" lon="5.88809">
        <ele>319.6</ele>
        <time>2014-03-08T09:53:02Z</time>
      </trkpt>
      <trkpt lat="43.50038" lon="5.88815">
        <ele>319</ele>
        <time>2014-03-08T09:53:05Z</time>
      </trkpt>
      <trkpt lat="43.50041" lon="5.88815">
        <ele>318.4</ele>
        <time>2014-03-08T09:53:06Z</time>
      </trkpt>
      <trkpt lat="43.50045" lon="5.88812">
        <ele>317.4</ele>
        <time>2014-03-08T09:53:08Z</time>
      </trkpt>
      <trkpt lat="43.50047" lon="5.88811">
        <ele>317</ele>
        <time>2014-03-08T09:53:09Z</time>
      </trkpt>
      <trkpt lat="43.5006" lon="5.88807">
        <ele>317</ele>
        <time>2014-03-08T09:53:13Z</time>
      </trkpt>
      <trkpt lat="43.50067" lon="5.88823">
        <ele>316</ele>
        <time>2014-03-08T09:53:16Z</time>
      </trkpt>
      <trkpt lat="43.50071" lon="5.88827">
        <ele>315.6</ele>
        <time>2014-03-08T09:53:17Z</time>
      </trkpt>
      <trkpt lat="43.50076" lon="5.8883">
        <ele>315.2</ele>
        <time>2014-03-08T09:53:18Z</time>
      </trkpt>
      <trkpt lat="43.5008" lon="5.88833">
        <ele>314.8</ele>
        <time>2014-03-08T09:53:19Z</time>
      </trkpt>
      <trkpt lat="43.50091" lon="5.88847">
        <ele>312.4</ele>
        <time>2014-03-08T09:53:22Z</time>
      </trkpt>
      <trkpt lat="43.50094" lon="5.88852">
        <ele>311.8</ele>
        <time>2014-03-08T09:53:23Z</time>
      </trkpt>
      <trkpt lat="43.50096" lon="5.88859">
        <ele>311</ele>
        <time>2014-03-08T09:53:24Z</time>
      </trkpt>
      <trkpt lat="43.50099" lon="5.88881">
        <ele>308.8</ele>
        <time>2014-03-08T09:53:27Z</time>
      </trkpt>
      <trkpt lat="43.501" lon="5.88885">
        <ele>308.2</ele>
        <time>2014-03-08T09:53:28Z</time>
      </trkpt>
      <trkpt lat="43.50107" lon="5.88886">
        <ele>307.2</ele>
        <time>2014-03-08T09:53:30Z</time>
      </trkpt>
      <trkpt lat="43.50117" lon="5.88895">
        <ele>305.4</ele>
        <time>2014-03-08T09:53:33Z</time>
      </trkpt>
      <trkpt lat="43.50124" lon="5.88899">
        <ele>304.2</ele>
        <time>2014-03-08T09:53:35Z</time>
      </trkpt>
      <trkpt lat="43.50128" lon="5.889">
        <ele>303.6</ele>
        <time>2014-03-08T09:53:36Z</time>
      </trkpt>
      <trkpt lat="43.50141" lon="5.88903">
        <ele>303.6</ele>
        <time>2014-03-08T09:53:40Z</time>
      </trkpt>
      <trkpt lat="43.50141" lon="5.88903">
        <ele>303.6</ele>
        <time>2014-03-08T09:53:46Z</time>
      </trkpt>
      <trkpt lat="43.50142" lon="5.88903">
        <ele>303.6</ele>
        <time>2014-03-08T09:53:52Z</time>
      </trkpt>
      <trkpt lat="43.50143" lon="5.88904">
        <ele>303.6</ele>
        <time>2014-03-08T09:53:56Z</time>
      </trkpt>
      <trkpt lat="43.50146" lon="5.88904">
        <ele>303.6</ele>
        <time>2014-03-08T09:53:59Z</time>
      </trkpt>
      <trkpt lat="43.50148" lon="5.88906">
        <ele>303.6</ele>
        <time>2014-03-08T09:54:01Z</time>
      </trkpt>
      <trkpt lat="43.50149" lon="5.88909">
        <ele>303.6</ele>
        <time>2014-03-08T09:54:04Z</time>
      </trkpt>
      <trkpt lat="43.5015" lon="5.88914">
        <ele>303.6</ele>
        <time>2014-03-08T09:54:06Z</time>
      </trkpt>
      <trkpt lat="43.50153" lon="5.88933">
        <ele>301.8</ele>
        <time>2014-03-08T09:54:12Z</time>
      </trkpt>
      <trkpt lat="43.50153" lon="5.88936">
        <ele>301.4</ele>
        <time>2014-03-08T09:54:13Z</time>
      </trkpt>
      <trkpt lat="43.50151" lon="5.88965">
        <ele>301.4</ele>
        <time>2014-03-08T09:54:24Z</time>
      </trkpt>
      <trkpt lat="43.50155" lon="5.88979">
        <ele>301.4</ele>
        <time>2014-03-08T09:54:30Z</time>
      </trkpt>
      <trkpt lat="43.50162" lon="5.88982">
        <ele>301.4</ele>
        <time>2014-03-08T09:54:35Z</time>
      </trkpt>
      <trkpt lat="43.5017" lon="5.88977">
        <ele>301.4</ele>
        <time>2014-03-08T09:54:40Z</time>
      </trkpt>
      <trkpt lat="43.50176" lon="5.88968">
        <ele>301.4</ele>
        <time>2014-03-08T09:54:45Z</time>
      </trkpt>
      <trkpt lat="43.50265" lon="5.88864">
        <ele>301.4</ele>
        <time>2014-03-08T09:55:28Z</time>
      </trkpt>
      <trkpt lat="43.50277" lon="5.8884">
        <ele>301.8</ele>
        <time>2014-03-08T09:55:36Z</time>
      </trkpt>
      <trkpt lat="43.50281" lon="5.88834">
        <ele>302.8</ele>
        <time>2014-03-08T09:55:38Z</time>
      </trkpt>
      <trkpt lat="43.50288" lon="5.88826">
        <ele>303.6</ele>
        <time>2014-03-08T09:55:41Z</time>
      </trkpt>
      <trkpt lat="43.50306" lon="5.88787">
        <ele>303.6</ele>
        <time>2014-03-08T09:55:53Z</time>
      </trkpt>
      <trkpt lat="43.50315" lon="5.88755">
        <ele>303.6</ele>
        <time>2014-03-08T09:56:02Z</time>
      </trkpt>
      <trkpt lat="43.50314" lon="5.88734">
        <ele>303.6</ele>
        <time>2014-03-08T09:56:08Z</time>
      </trkpt>
      <trkpt lat="43.5031" lon="5.88717">
        <ele>304</ele>
        <time>2014-03-08T09:56:13Z</time>
      </trkpt>
      <trkpt lat="43.50307" lon="5.88711">
        <ele>305.2</ele>
        <time>2014-03-08T09:56:15Z</time>
      </trkpt>
      <trkpt lat="43.50306" lon="5.88708">
        <ele>305.6</ele>
        <time>2014-03-08T09:56:16Z</time>
      </trkpt>
      <trkpt lat="43.50301" lon="5.88693">
        <ele>305.6</ele>
        <time>2014-03-08T09:56:21Z</time>
      </trkpt>
      <trkpt lat="43.50302" lon="5.8869">
        <ele>305.6</ele>
        <time>2014-03-08T09:56:22Z</time>
      </trkpt>
      <trkpt lat="43.50306" lon="5.88685">
        <ele>305.6</ele>
        <time>2014-03-08T09:56:24Z</time>
      </trkpt>
      <trkpt lat="43.50342" lon="5.88666">
        <ele>307.8</ele>
        <time>2014-03-08T09:56:43Z</time>
      </trkpt>
      <trkpt lat="43.50343" lon="5.88666">
        <ele>307.8</ele>
        <time>2014-03-08T09:56:44Z</time>
      </trkpt>
      <trkpt lat="43.5035" lon="5.88664">
        <ele>307.8</ele>
        <time>2014-03-08T09:56:48Z</time>
      </trkpt>
      <trkpt lat="43.50365" lon="5.88656">
        <ele>308.2</ele>
        <time>2014-03-08T09:56:55Z</time>
      </trkpt>
      <trkpt lat="43.50371" lon="5.88652">
        <ele>309.4</ele>
        <time>2014-03-08T09:56:58Z</time>
      </trkpt>
      <trkpt lat="43.50457" lon="5.88591">
        <ele>311.4</ele>
        <time>2014-03-08T09:57:36Z</time>
      </trkpt>
      <trkpt lat="43.50459" lon="5.88589">
        <ele>311.8</ele>
        <time>2014-03-08T09:57:37Z</time>
      </trkpt>
      <trkpt lat="43.50496" lon="5.88567">
        <ele>311.8</ele>
        <time>2014-03-08T09:57:51Z</time>
      </trkpt>
      <trkpt lat="43.50513" lon="5.88553">
        <ele>311.8</ele>
        <time>2014-03-08T09:57:58Z</time>
      </trkpt>
      <trkpt lat="43.50522" lon="5.8854">
        <ele>313.4</ele>
        <time>2014-03-08T09:58:03Z</time>
      </trkpt>
      <trkpt lat="43.50537" lon="5.88526">
        <ele>313.8</ele>
        <time>2014-03-08T09:58:09Z</time>
      </trkpt>
      <trkpt lat="43.50562" lon="5.88489">
        <ele>313.8</ele>
        <time>2014-03-08T09:58:22Z</time>
      </trkpt>
      <trkpt lat="43.50589" lon="5.88462">
        <ele>316</ele>
        <time>2014-03-08T09:58:34Z</time>
      </trkpt>
      <trkpt lat="43.50603" lon="5.88455">
        <ele>316</ele>
        <time>2014-03-08T09:58:40Z</time>
      </trkpt>
      <trkpt lat="43.50619" lon="5.88453">
        <ele>316</ele>
        <time>2014-03-08T09:58:46Z</time>
      </trkpt>
      <trkpt lat="43.50638" lon="5.88444">
        <ele>317.2</ele>
        <time>2014-03-08T09:58:54Z</time>
      </trkpt>
      <trkpt lat="43.50641" lon="5.88443">
        <ele>317.6</ele>
        <time>2014-03-08T09:58:55Z</time>
      </trkpt>
      <trkpt lat="43.50644" lon="5.88442">
        <ele>318</ele>
        <time>2014-03-08T09:58:56Z</time>
      </trkpt>
      <trkpt lat="43.50656" lon="5.88439">
        <ele>318</ele>
        <time>2014-03-08T09:59:00Z</time>
      </trkpt>
      <trkpt lat="43.50675" lon="5.88429">
        <ele>318</ele>
        <time>2014-03-08T09:59:07Z</time>
      </trkpt>
      <trkpt lat="43.50686" lon="5.88417">
        <ele>318</ele>
        <time>2014-03-08T09:59:13Z</time>
      </trkpt>
      <trkpt lat="43.50693" lon="5.88398">
        <ele>320.2</ele>
        <time>2014-03-08T09:59:20Z</time>
      </trkpt>
      <trkpt lat="43.50699" lon="5.8839">
        <ele>320.2</ele>
        <time>2014-03-08T09:59:23Z</time>
      </trkpt>
      <trkpt lat="43.50701" lon="5.88388">
        <ele>320.2</ele>
        <time>2014-03-08T09:59:24Z</time>
      </trkpt>
      <trkpt lat="43.50722" lon="5.88356">
        <ele>320.2</ele>
        <time>2014-03-08T09:59:36Z</time>
      </trkpt>
      <trkpt lat="43.50732" lon="5.88331">
        <ele>320.2</ele>
        <time>2014-03-08T09:59:44Z</time>
      </trkpt>
      <trkpt lat="43.50742" lon="5.88311">
        <ele>320.2</ele>
        <time>2014-03-08T09:59:51Z</time>
      </trkpt>
      <trkpt lat="43.50747" lon="5.88306">
        <ele>320.6</ele>
        <time>2014-03-08T09:59:53Z</time>
      </trkpt>
      <trkpt lat="43.5075" lon="5.88304">
        <ele>321</ele>
        <time>2014-03-08T09:59:54Z</time>
      </trkpt>
      <trkpt lat="43.50751" lon="5.88301">
        <ele>321.8</ele>
        <time>2014-03-08T09:59:55Z</time>
      </trkpt>
      <trkpt lat="43.50753" lon="5.88299">
        <ele>322.2</ele>
        <time>2014-03-08T09:59:56Z</time>
      </trkpt>
      <trkpt lat="43.50765" lon="5.88291">
        <ele>322.2</ele>
        <time>2014-03-08T10:00:01Z</time>
      </trkpt>
      <trkpt lat="43.5078" lon="5.88289">
        <ele>322.2</ele>
        <time>2014-03-08T10:00:07Z</time>
      </trkpt>
      <trkpt lat="43.50795" lon="5.88291">
        <ele>322.2</ele>
        <time>2014-03-08T10:00:13Z</time>
      </trkpt>
      <trkpt lat="43.5081" lon="5.88302">
        <ele>322.2</ele>
        <time>2014-03-08T10:00:19Z</time>
      </trkpt>
      <trkpt lat="43.5082" lon="5.88315">
        <ele>322.6</ele>
        <time>2014-03-08T10:00:24Z</time>
      </trkpt>
      <trkpt lat="43.50821" lon="5.88318">
        <ele>323</ele>
        <time>2014-03-08T10:00:25Z</time>
      </trkpt>
      <trkpt lat="43.50822" lon="5.88322">
        <ele>323.6</ele>
        <time>2014-03-08T10:00:26Z</time>
      </trkpt>
      <trkpt lat="43.50825" lon="5.88338">
        <ele>324.4</ele>
        <time>2014-03-08T10:00:30Z</time>
      </trkpt>
      <trkpt lat="43.50824" lon="5.8836">
        <ele>324.4</ele>
        <time>2014-03-08T10:00:36Z</time>
      </trkpt>
      <trkpt lat="43.50822" lon="5.8838">
        <ele>324.4</ele>
        <time>2014-03-08T10:00:42Z</time>
      </trkpt>
      <trkpt lat="43.50823" lon="5.88396">
        <ele>324.4</ele>
        <time>2014-03-08T10:00:47Z</time>
      </trkpt>
      <trkpt lat="43.50832" lon="5.88406">
        <ele>324.8</ele>
        <time>2014-03-08T10:00:52Z</time>
      </trkpt>
      <trkpt lat="43.5084" lon="5.88411">
        <ele>326.4</ele>
        <time>2014-03-08T10:00:56Z</time>
      </trkpt>
      <trkpt lat="43.5086" lon="5.88427">
        <ele>327</ele>
        <time>2014-03-08T10:01:08Z</time>
      </trkpt>
      <trkpt lat="43.50861" lon="5.88428">
        <ele>327.8</ele>
        <time>2014-03-08T10:01:09Z</time>
      </trkpt>
      <trkpt lat="43.50901" lon="5.88461">
        <ele>329</ele>
        <time>2014-03-08T10:01:33Z</time>
      </trkpt>
      <trkpt lat="43.50902" lon="5.88463">
        <ele>329.8</ele>
        <time>2014-03-08T10:01:34Z</time>
      </trkpt>
      <trkpt lat="43.5091" lon="5.88477">
        <ele>330.6</ele>
        <time>2014-03-08T10:01:41Z</time>
      </trkpt>
      <trkpt lat="43.50924" lon="5.88492">
        <ele>331</ele>
        <time>2014-03-08T10:01:51Z</time>
      </trkpt>
      <trkpt lat="43.50925" lon="5.88493">
        <ele>331.4</ele>
        <time>2014-03-08T10:01:52Z</time>
      </trkpt>
      <trkpt lat="43.50927" lon="5.88494">
        <ele>331.8</ele>
        <time>2014-03-08T10:01:53Z</time>
      </trkpt>
      <trkpt lat="43.5093" lon="5.88497">
        <ele>332.6</ele>
        <time>2014-03-08T10:01:55Z</time>
      </trkpt>
      <trkpt lat="43.50938" lon="5.88499">
        <ele>332.6</ele>
        <time>2014-03-08T10:02:00Z</time>
      </trkpt>
      <trkpt lat="43.50952" lon="5.88498">
        <ele>332.6</ele>
        <time>2014-03-08T10:02:07Z</time>
      </trkpt>
      <trkpt lat="43.51003" lon="5.88496">
        <ele>335</ele>
        <time>2014-03-08T10:02:34Z</time>
      </trkpt>
      <trkpt lat="43.51004" lon="5.88496">
        <ele>335.4</ele>
        <time>2014-03-08T10:02:35Z</time>
      </trkpt>
      <trkpt lat="43.51007" lon="5.88497">
        <ele>336.2</ele>
        <time>2014-03-08T10:02:37Z</time>
      </trkpt>
      <trkpt lat="43.51009" lon="5.88497">
        <ele>336.6</ele>
        <time>2014-03-08T10:02:38Z</time>
      </trkpt>
      <trkpt lat="43.51014" lon="5.88499">
        <ele>336.6</ele>
        <time>2014-03-08T10:02:41Z</time>
      </trkpt>
      <trkpt lat="43.51022" lon="5.88504">
        <ele>336.6</ele>
        <time>2014-03-08T10:02:46Z</time>
      </trkpt>
      <trkpt lat="43.51046" lon="5.88523">
        <ele>338.8</ele>
        <time>2014-03-08T10:03:00Z</time>
      </trkpt>
      <trkpt lat="43.51054" lon="5.88531">
        <ele>338.8</ele>
        <time>2014-03-08T10:03:05Z</time>
      </trkpt>
      <trkpt lat="43.51062" lon="5.88535">
        <ele>338.8</ele>
        <time>2014-03-08T10:03:10Z</time>
      </trkpt>
      <trkpt lat="43.51073" lon="5.88545">
        <ele>339.2</ele>
        <time>2014-03-08T10:03:17Z</time>
      </trkpt>
      <trkpt lat="43.51096" lon="5.88574">
        <ele>340.8</ele>
        <time>2014-03-08T10:03:33Z</time>
      </trkpt>
      <trkpt lat="43.511" lon="5.88586">
        <ele>340.8</ele>
        <time>2014-03-08T10:03:38Z</time>
      </trkpt>
      <trkpt lat="43.51103" lon="5.88602">
        <ele>342.8</ele>
        <time>2014-03-08T10:03:45Z</time>
      </trkpt>
      <trkpt lat="43.51103" lon="5.88637">
        <ele>342.8</ele>
        <time>2014-03-08T10:04:00Z</time>
      </trkpt>
      <trkpt lat="43.51103" lon="5.88643">
        <ele>343.2</ele>
        <time>2014-03-08T10:04:03Z</time>
      </trkpt>
      <trkpt lat="43.51103" lon="5.88647">
        <ele>344</ele>
        <time>2014-03-08T10:04:05Z</time>
      </trkpt>
      <trkpt lat="43.51104" lon="5.88649">
        <ele>344.4</ele>
        <time>2014-03-08T10:04:06Z</time>
      </trkpt>
      <trkpt lat="43.51104" lon="5.88651">
        <ele>344.8</ele>
        <time>2014-03-08T10:04:07Z</time>
      </trkpt>
      <trkpt lat="43.51105" lon="5.8866">
        <ele>344.8</ele>
        <time>2014-03-08T10:04:11Z</time>
      </trkpt>
      <trkpt lat="43.51108" lon="5.88669">
        <ele>344.8</ele>
        <time>2014-03-08T10:04:15Z</time>
      </trkpt>
      <trkpt lat="43.51113" lon="5.88675">
        <ele>344.8</ele>
        <time>2014-03-08T10:04:19Z</time>
      </trkpt>
      <trkpt lat="43.51115" lon="5.88676">
        <ele>344.8</ele>
        <time>2014-03-08T10:04:21Z</time>
      </trkpt>
      <trkpt lat="43.51124" lon="5.88677">
        <ele>346.2</ele>
        <time>2014-03-08T10:04:27Z</time>
      </trkpt>
      <trkpt lat="43.51126" lon="5.88677">
        <ele>346.6</ele>
        <time>2014-03-08T10:04:28Z</time>
      </trkpt>
      <trkpt lat="43.51127" lon="5.88677">
        <ele>347</ele>
        <time>2014-03-08T10:04:29Z</time>
      </trkpt>
      <trkpt lat="43.51131" lon="5.88677">
        <ele>347</ele>
        <time>2014-03-08T10:04:32Z</time>
      </trkpt>
      <trkpt lat="43.51141" lon="5.88683">
        <ele>347</ele>
        <time>2014-03-08T10:04:39Z</time>
      </trkpt>
      <trkpt lat="43.51147" lon="5.88693">
        <ele>347</ele>
        <time>2014-03-08T10:04:45Z</time>
      </trkpt>
      <trkpt lat="43.5115" lon="5.887">
        <ele>347.8</ele>
        <time>2014-03-08T10:04:49Z</time>
      </trkpt>
      <trkpt lat="43.51151" lon="5.88702">
        <ele>348.2</ele>
        <time>2014-03-08T10:04:50Z</time>
      </trkpt>
      <trkpt lat="43.51152" lon="5.88703">
        <ele>349</ele>
        <time>2014-03-08T10:04:51Z</time>
      </trkpt>
      <trkpt lat="43.51158" lon="5.8871">
        <ele>349</ele>
        <time>2014-03-08T10:04:56Z</time>
      </trkpt>
      <trkpt lat="43.51168" lon="5.8871">
        <ele>349</ele>
        <time>2014-03-08T10:05:02Z</time>
      </trkpt>
      <trkpt lat="43.51178" lon="5.88706">
        <ele>349</ele>
        <time>2014-03-08T10:05:08Z</time>
      </trkpt>
      <trkpt lat="43.51181" lon="5.88707">
        <ele>349.4</ele>
        <time>2014-03-08T10:05:11Z</time>
      </trkpt>
      <trkpt lat="43.51183" lon="5.88706">
        <ele>349.8</ele>
        <time>2014-03-08T10:05:12Z</time>
      </trkpt>
      <trkpt lat="43.51184" lon="5.88706">
        <ele>350.4</ele>
        <time>2014-03-08T10:05:13Z</time>
      </trkpt>
      <trkpt lat="43.51186" lon="5.88706">
        <ele>350.8</ele>
        <time>2014-03-08T10:05:14Z</time>
      </trkpt>
      <trkpt lat="43.51187" lon="5.88707">
        <ele>351.2</ele>
        <time>2014-03-08T10:05:15Z</time>
      </trkpt>
      <trkpt lat="43.51193" lon="5.88707">
        <ele>351.2</ele>
        <time>2014-03-08T10:05:18Z</time>
      </trkpt>
      <trkpt lat="43.512" lon="5.88711">
        <ele>351.2</ele>
        <time>2014-03-08T10:05:23Z</time>
      </trkpt>
      <trkpt lat="43.51207" lon="5.88709">
        <ele>351.6</ele>
        <time>2014-03-08T10:05:28Z</time>
      </trkpt>
      <trkpt lat="43.51208" lon="5.88708">
        <ele>352</ele>
        <time>2014-03-08T10:05:29Z</time>
      </trkpt>
      <trkpt lat="43.5121" lon="5.88708">
        <ele>352.8</ele>
        <time>2014-03-08T10:05:31Z</time>
      </trkpt>
      <trkpt lat="43.51212" lon="5.88707">
        <ele>353.4</ele>
        <time>2014-03-08T10:05:32Z</time>
      </trkpt>
      <trkpt lat="43.51215" lon="5.88707">
        <ele>353.4</ele>
        <time>2014-03-08T10:05:34Z</time>
      </trkpt>
      <trkpt lat="43.51218" lon="5.88709">
        <ele>353.4</ele>
        <time>2014-03-08T10:05:36Z</time>
      </trkpt>
      <trkpt lat="43.51228" lon="5.88713">
        <ele>353.8</ele>
        <time>2014-03-08T10:05:43Z</time>
      </trkpt>
      <trkpt lat="43.5123" lon="5.88714">
        <ele>354.6</ele>
        <time>2014-03-08T10:05:45Z</time>
      </trkpt>
      <trkpt lat="43.51231" lon="5.88715">
        <ele>355</ele>
        <time>2014-03-08T10:05:46Z</time>
      </trkpt>
      <trkpt lat="43.51232" lon="5.88717">
        <ele>355.4</ele>
        <time>2014-03-08T10:05:47Z</time>
      </trkpt>
      <trkpt lat="43.51234" lon="5.8872">
        <ele>355.4</ele>
        <time>2014-03-08T10:05:50Z</time>
      </trkpt>
      <trkpt lat="43.51235" lon="5.88718">
        <ele>355.4</ele>
        <time>2014-03-08T10:05:52Z</time>
      </trkpt>
      <trkpt lat="43.51232" lon="5.88713">
        <ele>355.4</ele>
        <time>2014-03-08T10:05:59Z</time>
      </trkpt>
      <trkpt lat="43.51233" lon="5.88713">
        <ele>355.4</ele>
        <time>2014-03-08T10:06:06Z</time>
      </trkpt>
      <trkpt lat="43.51233" lon="5.88714">
        <ele>355.4</ele>
        <time>2014-03-08T10:06:24Z</time>
      </trkpt>
      <trkpt lat="43.51233" lon="5.88714">
        <ele>355.4</ele>
        <time>2014-03-08T10:06:27Z</time>
      </trkpt>
      <trkpt lat="43.51234" lon="5.88714">
        <ele>355.4</ele>
        <time>2014-03-08T10:06:33Z</time>
      </trkpt>
      <trkpt lat="43.51233" lon="5.88714">
        <ele>355.4</ele>
        <time>2014-03-08T10:06:39Z</time>
      </trkpt>
      <trkpt lat="43.51235" lon="5.88718">
        <ele>355.4</ele>
        <time>2014-03-08T10:06:50Z</time>
      </trkpt>
      <trkpt lat="43.51237" lon="5.88721">
        <ele>355.4</ele>
        <time>2014-03-08T10:07:20Z</time>
      </trkpt>
      <trkpt lat="43.51242" lon="5.88725">
        <ele>355.4</ele>
        <time>2014-03-08T10:07:23Z</time>
      </trkpt>
      <trkpt lat="43.51251" lon="5.88731">
        <ele>355.4</ele>
        <time>2014-03-08T10:07:28Z</time>
      </trkpt>
      <trkpt lat="43.51263" lon="5.8874">
        <ele>356.6</ele>
        <time>2014-03-08T10:07:35Z</time>
      </trkpt>
      <trkpt lat="43.51267" lon="5.88745">
        <ele>357.4</ele>
        <time>2014-03-08T10:07:39Z</time>
      </trkpt>
      <trkpt lat="43.51279" lon="5.88771">
        <ele>357.4</ele>
        <time>2014-03-08T10:07:53Z</time>
      </trkpt>
      <trkpt lat="43.51284" lon="5.88784">
        <ele>359.4</ele>
        <time>2014-03-08T10:07:59Z</time>
      </trkpt>
      <trkpt lat="43.51284" lon="5.88786">
        <ele>359.4</ele>
        <time>2014-03-08T10:08:00Z</time>
      </trkpt>
      <trkpt lat="43.51285" lon="5.88801">
        <ele>359.4</ele>
        <time>2014-03-08T10:08:06Z</time>
      </trkpt>
      <trkpt lat="43.51289" lon="5.88814">
        <ele>359.4</ele>
        <time>2014-03-08T10:08:12Z</time>
      </trkpt>
      <trkpt lat="43.51295" lon="5.8882">
        <ele>359.4</ele>
        <time>2014-03-08T10:08:17Z</time>
      </trkpt>
      <trkpt lat="43.51302" lon="5.88822">
        <ele>360.6</ele>
        <time>2014-03-08T10:08:22Z</time>
      </trkpt>
      <trkpt lat="43.51303" lon="5.88823">
        <ele>361</ele>
        <time>2014-03-08T10:08:23Z</time>
      </trkpt>
      <trkpt lat="43.51305" lon="5.88823">
        <ele>361.4</ele>
        <time>2014-03-08T10:08:24Z</time>
      </trkpt>
      <trkpt lat="43.51311" lon="5.88824">
        <ele>361.4</ele>
        <time>2014-03-08T10:08:28Z</time>
      </trkpt>
      <trkpt lat="43.51312" lon="5.88824">
        <ele>361.4</ele>
        <time>2014-03-08T10:08:29Z</time>
      </trkpt>
      <trkpt lat="43.5132" lon="5.88831">
        <ele>361.8</ele>
        <time>2014-03-08T10:08:36Z</time>
      </trkpt>
      <trkpt lat="43.5132" lon="5.88833">
        <ele>362.4</ele>
        <time>2014-03-08T10:08:37Z</time>
      </trkpt>
      <trkpt lat="43.5132" lon="5.88834">
        <ele>362.8</ele>
        <time>2014-03-08T10:08:38Z</time>
      </trkpt>
      <trkpt lat="43.51323" lon="5.88842">
        <ele>363.6</ele>
        <time>2014-03-08T10:08:43Z</time>
      </trkpt>
      <trkpt lat="43.51326" lon="5.8887">
        <ele>366.6</ele>
        <time>2014-03-08T10:09:02Z</time>
      </trkpt>
      <trkpt lat="43.51324" lon="5.8889">
        <ele>369.6</ele>
        <time>2014-03-08T10:09:16Z</time>
      </trkpt>
      <trkpt lat="43.51324" lon="5.88892">
        <ele>370</ele>
        <time>2014-03-08T10:09:17Z</time>
      </trkpt>
      <trkpt lat="43.51324" lon="5.88893">
        <ele>370</ele>
        <time>2014-03-08T10:09:18Z</time>
      </trkpt>
      <trkpt lat="43.51323" lon="5.88898">
        <ele>370</ele>
        <time>2014-03-08T10:09:21Z</time>
      </trkpt>
      <trkpt lat="43.51322" lon="5.88902">
        <ele>370</ele>
        <time>2014-03-08T10:09:23Z</time>
      </trkpt>
      <trkpt lat="43.51323" lon="5.88908">
        <ele>370.8</ele>
        <time>2014-03-08T10:09:26Z</time>
      </trkpt>
      <trkpt lat="43.51323" lon="5.88913">
        <ele>372</ele>
        <time>2014-03-08T10:09:29Z</time>
      </trkpt>
      <trkpt lat="43.5132" lon="5.88929">
        <ele>372</ele>
        <time>2014-03-08T10:09:38Z</time>
      </trkpt>
      <trkpt lat="43.51319" lon="5.88932">
        <ele>372.4</ele>
        <time>2014-03-08T10:09:40Z</time>
      </trkpt>
      <trkpt lat="43.51319" lon="5.88934">
        <ele>372.8</ele>
        <time>2014-03-08T10:09:41Z</time>
      </trkpt>
      <trkpt lat="43.51318" lon="5.88937">
        <ele>373.8</ele>
        <time>2014-03-08T10:09:43Z</time>
      </trkpt>
      <trkpt lat="43.51313" lon="5.88949">
        <ele>374.2</ele>
        <time>2014-03-08T10:09:51Z</time>
      </trkpt>
      <trkpt lat="43.51312" lon="5.88952">
        <ele>374.6</ele>
        <time>2014-03-08T10:09:53Z</time>
      </trkpt>
      <trkpt lat="43.51312" lon="5.88953">
        <ele>375</ele>
        <time>2014-03-08T10:09:54Z</time>
      </trkpt>
      <trkpt lat="43.51311" lon="5.88957">
        <ele>375.8</ele>
        <time>2014-03-08T10:09:56Z</time>
      </trkpt>
      <trkpt lat="43.51311" lon="5.8896">
        <ele>376.2</ele>
        <time>2014-03-08T10:09:58Z</time>
      </trkpt>
      <trkpt lat="43.51304" lon="5.88976">
        <ele>377</ele>
        <time>2014-03-08T10:10:09Z</time>
      </trkpt>
      <trkpt lat="43.51303" lon="5.88977">
        <ele>377.4</ele>
        <time>2014-03-08T10:10:10Z</time>
      </trkpt>
      <trkpt lat="43.51302" lon="5.88978">
        <ele>377.8</ele>
        <time>2014-03-08T10:10:11Z</time>
      </trkpt>
      <trkpt lat="43.51296" lon="5.88992">
        <ele>378.2</ele>
        <time>2014-03-08T10:10:20Z</time>
      </trkpt>
      <trkpt lat="43.51292" lon="5.88996">
        <ele>378.6</ele>
        <time>2014-03-08T10:10:24Z</time>
      </trkpt>
      <trkpt lat="43.51291" lon="5.88997">
        <ele>379</ele>
        <time>2014-03-08T10:10:25Z</time>
      </trkpt>
      <trkpt lat="43.5129" lon="5.88998">
        <ele>379.4</ele>
        <time>2014-03-08T10:10:26Z</time>
      </trkpt>
      <trkpt lat="43.51289" lon="5.88999">
        <ele>379.8</ele>
        <time>2014-03-08T10:10:27Z</time>
      </trkpt>
      <trkpt lat="43.51285" lon="5.89004">
        <ele>380.2</ele>
        <time>2014-03-08T10:10:32Z</time>
      </trkpt>
      <trkpt lat="43.51281" lon="5.89011">
        <ele>380.2</ele>
        <time>2014-03-08T10:10:37Z</time>
      </trkpt>
      <trkpt lat="43.5128" lon="5.89018">
        <ele>381</ele>
        <time>2014-03-08T10:10:41Z</time>
      </trkpt>
      <trkpt lat="43.51279" lon="5.89021">
        <ele>381.8</ele>
        <time>2014-03-08T10:10:43Z</time>
      </trkpt>
      <trkpt lat="43.51278" lon="5.89022">
        <ele>382.2</ele>
        <time>2014-03-08T10:10:44Z</time>
      </trkpt>
      <trkpt lat="43.51275" lon="5.89031">
        <ele>382.2</ele>
        <time>2014-03-08T10:10:50Z</time>
      </trkpt>
      <trkpt lat="43.51272" lon="5.89034">
        <ele>382.2</ele>
        <time>2014-03-08T10:10:53Z</time>
      </trkpt>
      <trkpt lat="43.5127" lon="5.89036">
        <ele>382.2</ele>
        <time>2014-03-08T10:10:55Z</time>
      </trkpt>
      <trkpt lat="43.51266" lon="5.89041">
        <ele>382.8</ele>
        <time>2014-03-08T10:10:59Z</time>
      </trkpt>
      <trkpt lat="43.51264" lon="5.89043">
        <ele>383.6</ele>
        <time>2014-03-08T10:11:01Z</time>
      </trkpt>
      <trkpt lat="43.51258" lon="5.89049">
        <ele>384.4</ele>
        <time>2014-03-08T10:11:07Z</time>
      </trkpt>
      <trkpt lat="43.51251" lon="5.89055">
        <ele>385.4</ele>
        <time>2014-03-08T10:11:15Z</time>
      </trkpt>
      <trkpt lat="43.5125" lon="5.89056">
        <ele>385.8</ele>
        <time>2014-03-08T10:11:16Z</time>
      </trkpt>
      <trkpt lat="43.51249" lon="5.89057">
        <ele>386.2</ele>
        <time>2014-03-08T10:11:17Z</time>
      </trkpt>
      <trkpt lat="43.51247" lon="5.89058">
        <ele>386.6</ele>
        <time>2014-03-08T10:11:18Z</time>
      </trkpt>
      <trkpt lat="43.51244" lon="5.89063">
        <ele>386.6</ele>
        <time>2014-03-08T10:11:23Z</time>
      </trkpt>
      <trkpt lat="43.51243" lon="5.89066">
        <ele>386.6</ele>
        <time>2014-03-08T10:11:25Z</time>
      </trkpt>
      <trkpt lat="43.5124" lon="5.89069">
        <ele>387</ele>
        <time>2014-03-08T10:11:28Z</time>
      </trkpt>
      <trkpt lat="43.51238" lon="5.8907">
        <ele>387.8</ele>
        <time>2014-03-08T10:11:30Z</time>
      </trkpt>
      <trkpt lat="43.51237" lon="5.89072">
        <ele>388.2</ele>
        <time>2014-03-08T10:11:31Z</time>
      </trkpt>
      <trkpt lat="43.51236" lon="5.89072">
        <ele>388.6</ele>
        <time>2014-03-08T10:11:32Z</time>
      </trkpt>
      <trkpt lat="43.51231" lon="5.89077">
        <ele>388.6</ele>
        <time>2014-03-08T10:11:37Z</time>
      </trkpt>
      <trkpt lat="43.51227" lon="5.89084">
        <ele>388.6</ele>
        <time>2014-03-08T10:11:44Z</time>
      </trkpt>
      <trkpt lat="43.51227" lon="5.89084">
        <ele>389</ele>
        <time>2014-03-08T10:11:45Z</time>
      </trkpt>
      <trkpt lat="43.51225" lon="5.89086">
        <ele>389.4</ele>
        <time>2014-03-08T10:11:46Z</time>
      </trkpt>
      <trkpt lat="43.51224" lon="5.89086">
        <ele>389.8</ele>
        <time>2014-03-08T10:11:47Z</time>
      </trkpt>
      <trkpt lat="43.51223" lon="5.89088">
        <ele>390.2</ele>
        <time>2014-03-08T10:11:48Z</time>
      </trkpt>
      <trkpt lat="43.51218" lon="5.89094">
        <ele>390.6</ele>
        <time>2014-03-08T10:11:55Z</time>
      </trkpt>
      <trkpt lat="43.51209" lon="5.89103">
        <ele>391</ele>
        <time>2014-03-08T10:12:02Z</time>
      </trkpt>
      <trkpt lat="43.51208" lon="5.89104">
        <ele>391.4</ele>
        <time>2014-03-08T10:12:03Z</time>
      </trkpt>
      <trkpt lat="43.51207" lon="5.89104">
        <ele>391.8</ele>
        <time>2014-03-08T10:12:04Z</time>
      </trkpt>
      <trkpt lat="43.51197" lon="5.89116">
        <ele>392.8</ele>
        <time>2014-03-08T10:12:14Z</time>
      </trkpt>
      <trkpt lat="43.5119" lon="5.89121">
        <ele>392.8</ele>
        <time>2014-03-08T10:12:19Z</time>
      </trkpt>
      <trkpt lat="43.51189" lon="5.89122">
        <ele>393.2</ele>
        <time>2014-03-08T10:12:20Z</time>
      </trkpt>
      <trkpt lat="43.51188" lon="5.89123">
        <ele>393.6</ele>
        <time>2014-03-08T10:12:21Z</time>
      </trkpt>
      <trkpt lat="43.51187" lon="5.89124">
        <ele>394</ele>
        <time>2014-03-08T10:12:22Z</time>
      </trkpt>
      <trkpt lat="43.51185" lon="5.89126">
        <ele>394.8</ele>
        <time>2014-03-08T10:12:24Z</time>
      </trkpt>
      <trkpt lat="43.51183" lon="5.8913">
        <ele>394.8</ele>
        <time>2014-03-08T10:12:27Z</time>
      </trkpt>
      <trkpt lat="43.51182" lon="5.8913">
        <ele>394.8</ele>
        <time>2014-03-08T10:12:28Z</time>
      </trkpt>
      <trkpt lat="43.51174" lon="5.89139">
        <ele>394.8</ele>
        <time>2014-03-08T10:12:36Z</time>
      </trkpt>
      <trkpt lat="43.51173" lon="5.89141">
        <ele>395.2</ele>
        <time>2014-03-08T10:12:37Z</time>
      </trkpt>
      <trkpt lat="43.5117" lon="5.89144">
        <ele>396.4</ele>
        <time>2014-03-08T10:12:40Z</time>
      </trkpt>
      <trkpt lat="43.51167" lon="5.89146">
        <ele>396.8</ele>
        <time>2014-03-08T10:12:42Z</time>
      </trkpt>
      <trkpt lat="43.51154" lon="5.89152">
        <ele>396.8</ele>
        <time>2014-03-08T10:12:54Z</time>
      </trkpt>
      <trkpt lat="43.5115" lon="5.89156">
        <ele>397.2</ele>
        <time>2014-03-08T10:12:58Z</time>
      </trkpt>
      <trkpt lat="43.51145" lon="5.89159">
        <ele>399</ele>
        <time>2014-03-08T10:13:02Z</time>
      </trkpt>
      <trkpt lat="43.5114" lon="5.89162">
        <ele>399</ele>
        <time>2014-03-08T10:13:07Z</time>
      </trkpt>
      <trkpt lat="43.51138" lon="5.89163">
        <ele>399</ele>
        <time>2014-03-08T10:13:08Z</time>
      </trkpt>
      <trkpt lat="43.51134" lon="5.89166">
        <ele>399</ele>
        <time>2014-03-08T10:13:12Z</time>
      </trkpt>
      <trkpt lat="43.51128" lon="5.89174">
        <ele>399.8</ele>
        <time>2014-03-08T10:13:18Z</time>
      </trkpt>
      <trkpt lat="43.51127" lon="5.89176">
        <ele>400.2</ele>
        <time>2014-03-08T10:13:19Z</time>
      </trkpt>
      <trkpt lat="43.51126" lon="5.89177">
        <ele>400.6</ele>
        <time>2014-03-08T10:13:20Z</time>
      </trkpt>
      <trkpt lat="43.51126" lon="5.89179">
        <ele>401</ele>
        <time>2014-03-08T10:13:21Z</time>
      </trkpt>
      <trkpt lat="43.51116" lon="5.89195">
        <ele>401</ele>
        <time>2014-03-08T10:13:32Z</time>
      </trkpt>
      <trkpt lat="43.51111" lon="5.89205">
        <ele>401</ele>
        <time>2014-03-08T10:13:38Z</time>
      </trkpt>
      <trkpt lat="43.51107" lon="5.89208">
        <ele>401.4</ele>
        <time>2014-03-08T10:13:40Z</time>
      </trkpt>
      <trkpt lat="43.51106" lon="5.89209">
        <ele>401.8</ele>
        <time>2014-03-08T10:13:41Z</time>
      </trkpt>
      <trkpt lat="43.51103" lon="5.89212">
        <ele>402.6</ele>
        <time>2014-03-08T10:13:43Z</time>
      </trkpt>
      <trkpt lat="43.51101" lon="5.89213">
        <ele>403</ele>
        <time>2014-03-08T10:13:44Z</time>
      </trkpt>
      <trkpt lat="43.51097" lon="5.89224">
        <ele>403</ele>
        <time>2014-03-08T10:13:50Z</time>
      </trkpt>
      <trkpt lat="43.51092" lon="5.89242">
        <ele>403</ele>
        <time>2014-03-08T10:14:00Z</time>
      </trkpt>
      <trkpt lat="43.5109" lon="5.89247">
        <ele>403</ele>
        <time>2014-03-08T10:14:03Z</time>
      </trkpt>
      <trkpt lat="43.51087" lon="5.89251">
        <ele>403</ele>
        <time>2014-03-08T10:14:05Z</time>
      </trkpt>
      <trkpt lat="43.51085" lon="5.89257">
        <ele>403</ele>
        <time>2014-03-08T10:14:08Z</time>
      </trkpt>
      <trkpt lat="43.51084" lon="5.89273">
        <ele>403</ele>
        <time>2014-03-08T10:14:15Z</time>
      </trkpt>
      <trkpt lat="43.51083" lon="5.89278">
        <ele>403</ele>
        <time>2014-03-08T10:14:17Z</time>
      </trkpt>
      <trkpt lat="43.51079" lon="5.8928">
        <ele>403.4</ele>
        <time>2014-03-08T10:14:20Z</time>
      </trkpt>
      <trkpt lat="43.51076" lon="5.8928">
        <ele>404.6</ele>
        <time>2014-03-08T10:14:22Z</time>
      </trkpt>
      <trkpt lat="43.51075" lon="5.89281">
        <ele>405</ele>
        <time>2014-03-08T10:14:23Z</time>
      </trkpt>
      <trkpt lat="43.51074" lon="5.89282">
        <ele>405</ele>
        <time>2014-03-08T10:14:25Z</time>
      </trkpt>
      <trkpt lat="43.51074" lon="5.89282">
        <ele>405</ele>
        <time>2014-03-08T10:14:33Z</time>
      </trkpt>
      <trkpt lat="43.51073" lon="5.89283">
        <ele>405</ele>
        <time>2014-03-08T10:14:51Z</time>
      </trkpt>
      <trkpt lat="43.51073" lon="5.89283">
        <ele>405</ele>
        <time>2014-03-08T10:14:52Z</time>
      </trkpt>
      <trkpt lat="43.51067" lon="5.89283">
        <ele>405</ele>
        <time>2014-03-08T10:14:55Z</time>
      </trkpt>
      <trkpt lat="43.51057" lon="5.89284">
        <ele>405</ele>
        <time>2014-03-08T10:15:00Z</time>
      </trkpt>
      <trkpt lat="43.51043" lon="5.89281">
        <ele>405</ele>
        <time>2014-03-08T10:15:06Z</time>
      </trkpt>
      <trkpt lat="43.5103" lon="5.89275">
        <ele>405</ele>
        <time>2014-03-08T10:15:12Z</time>
      </trkpt>
      <trkpt lat="43.51014" lon="5.89265">
        <ele>405</ele>
        <time>2014-03-08T10:15:18Z</time>
      </trkpt>
      <trkpt lat="43.50997" lon="5.89257">
        <ele>405</ele>
        <time>2014-03-08T10:15:24Z</time>
      </trkpt>
      <trkpt lat="43.50978" lon="5.89243">
        <ele>405</ele>
        <time>2014-03-08T10:15:30Z</time>
      </trkpt>
      <trkpt lat="43.50959" lon="5.89236">
        <ele>405</ele>
        <time>2014-03-08T10:15:35Z</time>
      </trkpt>
      <trkpt lat="43.50955" lon="5.89233">
        <ele>405</ele>
        <time>2014-03-08T10:15:36Z</time>
      </trkpt>
      <trkpt lat="43.50945" lon="5.8923">
        <ele>405</ele>
        <time>2014-03-08T10:15:38Z</time>
      </trkpt>
      <trkpt lat="43.50929" lon="5.89225">
        <ele>404.2</ele>
        <time>2014-03-08T10:15:41Z</time>
      </trkpt>
      <trkpt lat="43.50913" lon="5.89216">
        <ele>402.8</ele>
        <time>2014-03-08T10:15:44Z</time>
      </trkpt>
      <trkpt lat="43.50891" lon="5.8921">
        <ele>401.4</ele>
        <time>2014-03-08T10:15:47Z</time>
      </trkpt>
      <trkpt lat="43.50878" lon="5.892">
        <ele>400</ele>
        <time>2014-03-08T10:15:49Z</time>
      </trkpt>
      <trkpt lat="43.50871" lon="5.89198">
        <ele>399.2</ele>
        <time>2014-03-08T10:15:50Z</time>
      </trkpt>
      <trkpt lat="43.50862" lon="5.89198">
        <ele>398.4</ele>
        <time>2014-03-08T10:15:51Z</time>
      </trkpt>
      <trkpt lat="43.50854" lon="5.89197">
        <ele>397.6</ele>
        <time>2014-03-08T10:15:52Z</time>
      </trkpt>
      <trkpt lat="43.50849" lon="5.89198">
        <ele>396.6</ele>
        <time>2014-03-08T10:15:53Z</time>
      </trkpt>
      <trkpt lat="43.50847" lon="5.89194">
        <ele>395.8</ele>
        <time>2014-03-08T10:15:54Z</time>
      </trkpt>
      <trkpt lat="43.50845" lon="5.89193">
        <ele>394.8</ele>
        <time>2014-03-08T10:15:55Z</time>
      </trkpt>
      <trkpt lat="43.50842" lon="5.89193">
        <ele>393.8</ele>
        <time>2014-03-08T10:15:56Z</time>
      </trkpt>
      <trkpt lat="43.50839" lon="5.89192">
        <ele>393.2</ele>
        <time>2014-03-08T10:15:57Z</time>
      </trkpt>
      <trkpt lat="43.50836" lon="5.89188">
        <ele>392.6</ele>
        <time>2014-03-08T10:15:58Z</time>
      </trkpt>
      <trkpt lat="43.50833" lon="5.89186">
        <ele>392</ele>
        <time>2014-03-08T10:15:59Z</time>
      </trkpt>
      <trkpt lat="43.50828" lon="5.89185">
        <ele>390.8</ele>
        <time>2014-03-08T10:16:00Z</time>
      </trkpt>
      <trkpt lat="43.50822" lon="5.89183">
        <ele>390.2</ele>
        <time>2014-03-08T10:16:01Z</time>
      </trkpt>
      <trkpt lat="43.50813" lon="5.8917">
        <ele>388.8</ele>
        <time>2014-03-08T10:16:03Z</time>
      </trkpt>
      <trkpt lat="43.50797" lon="5.89145">
        <ele>386.2</ele>
        <time>2014-03-08T10:16:06Z</time>
      </trkpt>
      <trkpt lat="43.50787" lon="5.89137">
        <ele>384</ele>
        <time>2014-03-08T10:16:08Z</time>
      </trkpt>
      <trkpt lat="43.50783" lon="5.89137">
        <ele>382.8</ele>
        <time>2014-03-08T10:16:09Z</time>
      </trkpt>
      <trkpt lat="43.50779" lon="5.89133">
        <ele>381.8</ele>
        <time>2014-03-08T10:16:10Z</time>
      </trkpt>
      <trkpt lat="43.50774" lon="5.8913">
        <ele>380.8</ele>
        <time>2014-03-08T10:16:11Z</time>
      </trkpt>
      <trkpt lat="43.50768" lon="5.89127">
        <ele>379.8</ele>
        <time>2014-03-08T10:16:12Z</time>
      </trkpt>
      <trkpt lat="43.50761" lon="5.89123">
        <ele>378.8</ele>
        <time>2014-03-08T10:16:13Z</time>
      </trkpt>
      <trkpt lat="43.50754" lon="5.89121">
        <ele>377.8</ele>
        <time>2014-03-08T10:16:14Z</time>
      </trkpt>
      <trkpt lat="43.50747" lon="5.8912">
        <ele>376.8</ele>
        <time>2014-03-08T10:16:15Z</time>
      </trkpt>
      <trkpt lat="43.50732" lon="5.89122">
        <ele>374.8</ele>
        <time>2014-03-08T10:16:17Z</time>
      </trkpt>
      <trkpt lat="43.50724" lon="5.89121">
        <ele>373.8</ele>
        <time>2014-03-08T10:16:18Z</time>
      </trkpt>
      <trkpt lat="43.50717" lon="5.89123">
        <ele>372.6</ele>
        <time>2014-03-08T10:16:19Z</time>
      </trkpt>
      <trkpt lat="43.5071" lon="5.89127">
        <ele>371.6</ele>
        <time>2014-03-08T10:16:20Z</time>
      </trkpt>
      <trkpt lat="43.50703" lon="5.89129">
        <ele>370.4</ele>
        <time>2014-03-08T10:16:21Z</time>
      </trkpt>
      <trkpt lat="43.50696" lon="5.89127">
        <ele>369.4</ele>
        <time>2014-03-08T10:16:22Z</time>
      </trkpt>
      <trkpt lat="43.50689" lon="5.89123">
        <ele>368.6</ele>
        <time>2014-03-08T10:16:23Z</time>
      </trkpt>
      <trkpt lat="43.50683" lon="5.89121">
        <ele>366.8</ele>
        <time>2014-03-08T10:16:24Z</time>
      </trkpt>
      <trkpt lat="43.50677" lon="5.89122">
        <ele>366</ele>
        <time>2014-03-08T10:16:25Z</time>
      </trkpt>
      <trkpt lat="43.50665" lon="5.89121">
        <ele>364</ele>
        <time>2014-03-08T10:16:27Z</time>
      </trkpt>
      <trkpt lat="43.5066" lon="5.89117">
        <ele>363</ele>
        <time>2014-03-08T10:16:28Z</time>
      </trkpt>
      <trkpt lat="43.50656" lon="5.89113">
        <ele>362.2</ele>
        <time>2014-03-08T10:16:29Z</time>
      </trkpt>
      <trkpt lat="43.5065" lon="5.89111">
        <ele>361.2</ele>
        <time>2014-03-08T10:16:30Z</time>
      </trkpt>
      <trkpt lat="43.50644" lon="5.89108">
        <ele>360.4</ele>
        <time>2014-03-08T10:16:31Z</time>
      </trkpt>
      <trkpt lat="43.50638" lon="5.89109">
        <ele>359.4</ele>
        <time>2014-03-08T10:16:32Z</time>
      </trkpt>
      <trkpt lat="43.50634" lon="5.89104">
        <ele>358.6</ele>
        <time>2014-03-08T10:16:33Z</time>
      </trkpt>
      <trkpt lat="43.50603" lon="5.8909">
        <ele>354.4</ele>
        <time>2014-03-08T10:16:38Z</time>
      </trkpt>
      <trkpt lat="43.50597" lon="5.89088">
        <ele>353.6</ele>
        <time>2014-03-08T10:16:39Z</time>
      </trkpt>
      <trkpt lat="43.50591" lon="5.89086">
        <ele>352.6</ele>
        <time>2014-03-08T10:16:40Z</time>
      </trkpt>
      <trkpt lat="43.50586" lon="5.8908">
        <ele>351.6</ele>
        <time>2014-03-08T10:16:41Z</time>
      </trkpt>
      <trkpt lat="43.5058" lon="5.89077">
        <ele>350.6</ele>
        <time>2014-03-08T10:16:42Z</time>
      </trkpt>
      <trkpt lat="43.50573" lon="5.89079">
        <ele>349.6</ele>
        <time>2014-03-08T10:16:43Z</time>
      </trkpt>
      <trkpt lat="43.50567" lon="5.89077">
        <ele>348.6</ele>
        <time>2014-03-08T10:16:44Z</time>
      </trkpt>
      <trkpt lat="43.50561" lon="5.89072">
        <ele>347.4</ele>
        <time>2014-03-08T10:16:45Z</time>
      </trkpt>
      <trkpt lat="43.50556" lon="5.89063">
        <ele>346.4</ele>
        <time>2014-03-08T10:16:46Z</time>
      </trkpt>
      <trkpt lat="43.50553" lon="5.89054">
        <ele>345.4</ele>
        <time>2014-03-08T10:16:47Z</time>
      </trkpt>
      <trkpt lat="43.50547" lon="5.89048">
        <ele>344.2</ele>
        <time>2014-03-08T10:16:48Z</time>
      </trkpt>
      <trkpt lat="43.50544" lon="5.89041">
        <ele>342.4</ele>
        <time>2014-03-08T10:16:49Z</time>
      </trkpt>
      <trkpt lat="43.50543" lon="5.89033">
        <ele>341.4</ele>
        <time>2014-03-08T10:16:50Z</time>
      </trkpt>
      <trkpt lat="43.50539" lon="5.89028">
        <ele>340.6</ele>
        <time>2014-03-08T10:16:51Z</time>
      </trkpt>
      <trkpt lat="43.50535" lon="5.89006">
        <ele>338.4</ele>
        <time>2014-03-08T10:16:54Z</time>
      </trkpt>
      <trkpt lat="43.50532" lon="5.88999">
        <ele>337.6</ele>
        <time>2014-03-08T10:16:55Z</time>
      </trkpt>
      <trkpt lat="43.50513" lon="5.88977">
        <ele>334</ele>
        <time>2014-03-08T10:16:59Z</time>
      </trkpt>
      <trkpt lat="43.50501" lon="5.88968">
        <ele>332.6</ele>
        <time>2014-03-08T10:17:01Z</time>
      </trkpt>
      <trkpt lat="43.50495" lon="5.88963">
        <ele>331.8</ele>
        <time>2014-03-08T10:17:02Z</time>
      </trkpt>
      <trkpt lat="43.50463" lon="5.88947">
        <ele>329.6</ele>
        <time>2014-03-08T10:17:07Z</time>
      </trkpt>
      <trkpt lat="43.50451" lon="5.88938">
        <ele>328.6</ele>
        <time>2014-03-08T10:17:09Z</time>
      </trkpt>
      <trkpt lat="43.50444" lon="5.88935">
        <ele>328.2</ele>
        <time>2014-03-08T10:17:10Z</time>
      </trkpt>
      <trkpt lat="43.50436" lon="5.88928">
        <ele>327.4</ele>
        <time>2014-03-08T10:17:11Z</time>
      </trkpt>
      <trkpt lat="43.5043" lon="5.88919">
        <ele>326.6</ele>
        <time>2014-03-08T10:17:12Z</time>
      </trkpt>
      <trkpt lat="43.50414" lon="5.88889">
        <ele>322.8</ele>
        <time>2014-03-08T10:17:15Z</time>
      </trkpt>
      <trkpt lat="43.50406" lon="5.88868">
        <ele>320.8</ele>
        <time>2014-03-08T10:17:17Z</time>
      </trkpt>
      <trkpt lat="43.50401" lon="5.88859">
        <ele>320</ele>
        <time>2014-03-08T10:17:18Z</time>
      </trkpt>
      <trkpt lat="43.50387" lon="5.88844">
        <ele>318.6</ele>
        <time>2014-03-08T10:17:20Z</time>
      </trkpt>
      <trkpt lat="43.50381" lon="5.88834">
        <ele>317.8</ele>
        <time>2014-03-08T10:17:21Z</time>
      </trkpt>
      <trkpt lat="43.50376" lon="5.88822">
        <ele>316.8</ele>
        <time>2014-03-08T10:17:22Z</time>
      </trkpt>
      <trkpt lat="43.50373" lon="5.8881">
        <ele>315.8</ele>
        <time>2014-03-08T10:17:23Z</time>
      </trkpt>
      <trkpt lat="43.50372" lon="5.88772">
        <ele>311.6</ele>
        <time>2014-03-08T10:17:27Z</time>
      </trkpt>
      <trkpt lat="43.50372" lon="5.88764">
        <ele>310.6</ele>
        <time>2014-03-08T10:17:28Z</time>
      </trkpt>
      <trkpt lat="43.50378" lon="5.88751">
        <ele>310.6</ele>
        <time>2014-03-08T10:17:31Z</time>
      </trkpt>
      <trkpt lat="43.50377" lon="5.88714">
        <ele>310.2</ele>
        <time>2014-03-08T10:17:38Z</time>
      </trkpt>
      <trkpt lat="43.50378" lon="5.8871">
        <ele>309.4</ele>
        <time>2014-03-08T10:17:39Z</time>
      </trkpt>
      <trkpt lat="43.50378" lon="5.88708">
        <ele>309</ele>
        <time>2014-03-08T10:17:40Z</time>
      </trkpt>
      <trkpt lat="43.50377" lon="5.88706">
        <ele>308.6</ele>
        <time>2014-03-08T10:17:45Z</time>
      </trkpt>
      <trkpt lat="43.50378" lon="5.88706">
        <ele>308.6</ele>
        <time>2014-03-08T10:19:07Z</time>
      </trkpt>
      <trkpt lat="43.50378" lon="5.88706">
        <ele>308.6</ele>
        <time>2014-03-08T10:19:11Z</time>
      </trkpt>
      <trkpt lat="43.50378" lon="5.88705">
        <ele>308.6</ele>
        <time>2014-03-08T10:19:15Z</time>
      </trkpt>
      <trkpt lat="43.50369" lon="5.88678">
        <ele>308.6</ele>
        <time>2014-03-08T10:19:27Z</time>
      </trkpt>
      <trkpt lat="43.50368" lon="5.88662">
        <ele>308.6</ele>
        <time>2014-03-08T10:19:32Z</time>
      </trkpt>
      <trkpt lat="43.50372" lon="5.88655">
        <ele>309.4</ele>
        <time>2014-03-08T10:19:35Z</time>
      </trkpt>
      <trkpt lat="43.50376" lon="5.88651">
        <ele>310.2</ele>
        <time>2014-03-08T10:19:37Z</time>
      </trkpt>
      <trkpt lat="43.50399" lon="5.88631">
        <ele>310.6</ele>
        <time>2014-03-08T10:19:50Z</time>
      </trkpt>
      <trkpt lat="43.50444" lon="5.88604">
        <ele>312.6</ele>
        <time>2014-03-08T10:20:09Z</time>
      </trkpt>
      <trkpt lat="43.50449" lon="5.88599">
        <ele>312.6</ele>
        <time>2014-03-08T10:20:11Z</time>
      </trkpt>
      <trkpt lat="43.50481" lon="5.88578">
        <ele>312.6</ele>
        <time>2014-03-08T10:20:24Z</time>
      </trkpt>
      <trkpt lat="43.50499" lon="5.88568">
        <ele>312.6</ele>
        <time>2014-03-08T10:20:31Z</time>
      </trkpt>
      <trkpt lat="43.50512" lon="5.88556">
        <ele>314</ele>
        <time>2014-03-08T10:20:37Z</time>
      </trkpt>
      <trkpt lat="43.50513" lon="5.88554">
        <ele>314.4</ele>
        <time>2014-03-08T10:20:38Z</time>
      </trkpt>
      <trkpt lat="43.50516" lon="5.88552">
        <ele>314.8</ele>
        <time>2014-03-08T10:20:39Z</time>
      </trkpt>
      <trkpt lat="43.50524" lon="5.88545">
        <ele>314.8</ele>
        <time>2014-03-08T10:20:42Z</time>
      </trkpt>
      <trkpt lat="43.50537" lon="5.8853">
        <ele>314.8</ele>
        <time>2014-03-08T10:20:48Z</time>
      </trkpt>
      <trkpt lat="43.50566" lon="5.88485">
        <ele>315.2</ele>
        <time>2014-03-08T10:21:05Z</time>
      </trkpt>
      <trkpt lat="43.50576" lon="5.88475">
        <ele>316.8</ele>
        <time>2014-03-08T10:21:10Z</time>
      </trkpt>
      <trkpt lat="43.5059" lon="5.88462">
        <ele>316.8</ele>
        <time>2014-03-08T10:21:17Z</time>
      </trkpt>
      <trkpt lat="43.50601" lon="5.88457">
        <ele>316.8</ele>
        <time>2014-03-08T10:21:22Z</time>
      </trkpt>
      <trkpt lat="43.50618" lon="5.88455">
        <ele>317.6</ele>
        <time>2014-03-08T10:21:28Z</time>
      </trkpt>
      <trkpt lat="43.5062" lon="5.88456">
        <ele>318</ele>
        <time>2014-03-08T10:21:29Z</time>
      </trkpt>
      <trkpt lat="43.50625" lon="5.88454">
        <ele>318.8</ele>
        <time>2014-03-08T10:21:31Z</time>
      </trkpt>
      <trkpt lat="43.50633" lon="5.88449">
        <ele>318.8</ele>
        <time>2014-03-08T10:21:35Z</time>
      </trkpt>
      <trkpt lat="43.50668" lon="5.88436">
        <ele>318.8</ele>
        <time>2014-03-08T10:21:48Z</time>
      </trkpt>
      <trkpt lat="43.5068" lon="5.88426">
        <ele>319.2</ele>
        <time>2014-03-08T10:21:53Z</time>
      </trkpt>
      <trkpt lat="43.50683" lon="5.88422">
        <ele>320</ele>
        <time>2014-03-08T10:21:55Z</time>
      </trkpt>
      <trkpt lat="43.50685" lon="5.8842">
        <ele>320.4</ele>
        <time>2014-03-08T10:21:56Z</time>
      </trkpt>
      <trkpt lat="43.507" lon="5.8839">
        <ele>320.8</ele>
        <time>2014-03-08T10:22:07Z</time>
      </trkpt>
      <trkpt lat="43.5071" lon="5.88376">
        <ele>320.8</ele>
        <time>2014-03-08T10:22:14Z</time>
      </trkpt>
      <trkpt lat="43.50715" lon="5.88366">
        <ele>321.2</ele>
        <time>2014-03-08T10:22:17Z</time>
      </trkpt>
      <trkpt lat="43.50716" lon="5.88364">
        <ele>321.6</ele>
        <time>2014-03-08T10:22:18Z</time>
      </trkpt>
      <trkpt lat="43.50718" lon="5.88362">
        <ele>322</ele>
        <time>2014-03-08T10:22:19Z</time>
      </trkpt>
      <trkpt lat="43.5072" lon="5.88359">
        <ele>322.4</ele>
        <time>2014-03-08T10:22:20Z</time>
      </trkpt>
      <trkpt lat="43.50728" lon="5.88344">
        <ele>322.8</ele>
        <time>2014-03-08T10:22:25Z</time>
      </trkpt>
      <trkpt lat="43.50736" lon="5.88321">
        <ele>322.8</ele>
        <time>2014-03-08T10:22:32Z</time>
      </trkpt>
      <trkpt lat="43.5075" lon="5.88304">
        <ele>322.8</ele>
        <time>2014-03-08T10:22:39Z</time>
      </trkpt>
      <trkpt lat="43.50763" lon="5.88293">
        <ele>322.8</ele>
        <time>2014-03-08T10:22:45Z</time>
      </trkpt>
      <trkpt lat="43.50783" lon="5.88289">
        <ele>322.8</ele>
        <time>2014-03-08T10:22:53Z</time>
      </trkpt>
      <trkpt lat="43.50788" lon="5.8829">
        <ele>323.4</ele>
        <time>2014-03-08T10:22:55Z</time>
      </trkpt>
      <trkpt lat="43.5079" lon="5.88289">
        <ele>323.8</ele>
        <time>2014-03-08T10:22:56Z</time>
      </trkpt>
      <trkpt lat="43.50806" lon="5.88302">
        <ele>325</ele>
        <time>2014-03-08T10:23:03Z</time>
      </trkpt>
      <trkpt lat="43.50822" lon="5.88322">
        <ele>325</ele>
        <time>2014-03-08T10:23:11Z</time>
      </trkpt>
      <trkpt lat="43.50824" lon="5.8834">
        <ele>325</ele>
        <time>2014-03-08T10:23:16Z</time>
      </trkpt>
      <trkpt lat="43.50823" lon="5.88359">
        <ele>325.4</ele>
        <time>2014-03-08T10:23:22Z</time>
      </trkpt>
      <trkpt lat="43.50822" lon="5.88362">
        <ele>325.8</ele>
        <time>2014-03-08T10:23:23Z</time>
      </trkpt>
      <trkpt lat="43.50821" lon="5.88364">
        <ele>326.6</ele>
        <time>2014-03-08T10:23:24Z</time>
      </trkpt>
      <trkpt lat="43.50821" lon="5.88377">
        <ele>327</ele>
        <time>2014-03-08T10:23:28Z</time>
      </trkpt>
      <trkpt lat="43.50824" lon="5.88397">
        <ele>327</ele>
        <time>2014-03-08T10:23:34Z</time>
      </trkpt>
      <trkpt lat="43.50834" lon="5.88408">
        <ele>327</ele>
        <time>2014-03-08T10:23:40Z</time>
      </trkpt>
      <trkpt lat="43.50843" lon="5.88411">
        <ele>327.4</ele>
        <time>2014-03-08T10:23:44Z</time>
      </trkpt>
      <trkpt lat="43.50847" lon="5.88411">
        <ele>328.2</ele>
        <time>2014-03-08T10:23:46Z</time>
      </trkpt>
      <trkpt lat="43.5085" lon="5.88411">
        <ele>328.6</ele>
        <time>2014-03-08T10:23:47Z</time>
      </trkpt>
      <trkpt lat="43.50852" lon="5.88411">
        <ele>329</ele>
        <time>2014-03-08T10:23:48Z</time>
      </trkpt>
      <trkpt lat="43.50906" lon="5.88394">
        <ele>329</ele>
        <time>2014-03-08T10:24:09Z</time>
      </trkpt>
      <trkpt lat="43.50938" lon="5.88387">
        <ele>331.2</ele>
        <time>2014-03-08T10:24:22Z</time>
      </trkpt>
      <trkpt lat="43.50953" lon="5.8838">
        <ele>331.2</ele>
        <time>2014-03-08T10:24:29Z</time>
      </trkpt>
      <trkpt lat="43.50969" lon="5.8837">
        <ele>331.2</ele>
        <time>2014-03-08T10:24:36Z</time>
      </trkpt>
      <trkpt lat="43.50984" lon="5.88362">
        <ele>331.2</ele>
        <time>2014-03-08T10:24:42Z</time>
      </trkpt>
      <trkpt lat="43.51013" lon="5.88353">
        <ele>333.2</ele>
        <time>2014-03-08T10:24:54Z</time>
      </trkpt>
      <trkpt lat="43.51052" lon="5.88348">
        <ele>333.2</ele>
        <time>2014-03-08T10:25:09Z</time>
      </trkpt>
      <trkpt lat="43.51069" lon="5.88348">
        <ele>333.2</ele>
        <time>2014-03-08T10:25:15Z</time>
      </trkpt>
      <trkpt lat="43.51075" lon="5.88347">
        <ele>333.6</ele>
        <time>2014-03-08T10:25:17Z</time>
      </trkpt>
      <trkpt lat="43.51088" lon="5.88342">
        <ele>335.4</ele>
        <time>2014-03-08T10:25:22Z</time>
      </trkpt>
      <trkpt lat="43.51112" lon="5.88332">
        <ele>335.4</ele>
        <time>2014-03-08T10:25:31Z</time>
      </trkpt>
      <trkpt lat="43.51131" lon="5.88325">
        <ele>335.4</ele>
        <time>2014-03-08T10:25:38Z</time>
      </trkpt>
      <trkpt lat="43.51144" lon="5.88329">
        <ele>335.4</ele>
        <time>2014-03-08T10:25:43Z</time>
      </trkpt>
      <trkpt lat="43.51151" lon="5.88336">
        <ele>336.2</ele>
        <time>2014-03-08T10:25:47Z</time>
      </trkpt>
      <trkpt lat="43.51152" lon="5.88338">
        <ele>336.6</ele>
        <time>2014-03-08T10:25:48Z</time>
      </trkpt>
      <trkpt lat="43.51155" lon="5.88342">
        <ele>337.4</ele>
        <time>2014-03-08T10:25:50Z</time>
      </trkpt>
      <trkpt lat="43.51161" lon="5.88359">
        <ele>337.4</ele>
        <time>2014-03-08T10:25:56Z</time>
      </trkpt>
      <trkpt lat="43.51164" lon="5.88381">
        <ele>337.4</ele>
        <time>2014-03-08T10:26:02Z</time>
      </trkpt>
      <trkpt lat="43.51164" lon="5.884">
        <ele>337.4</ele>
        <time>2014-03-08T10:26:08Z</time>
      </trkpt>
      <trkpt lat="43.51166" lon="5.88421">
        <ele>337.4</ele>
        <time>2014-03-08T10:26:14Z</time>
      </trkpt>
      <trkpt lat="43.51173" lon="5.88431">
        <ele>337.8</ele>
        <time>2014-03-08T10:26:19Z</time>
      </trkpt>
      <trkpt lat="43.51175" lon="5.88431">
        <ele>338.2</ele>
        <time>2014-03-08T10:26:20Z</time>
      </trkpt>
      <trkpt lat="43.51177" lon="5.8843">
        <ele>338.8</ele>
        <time>2014-03-08T10:26:21Z</time>
      </trkpt>
      <trkpt lat="43.51179" lon="5.88428">
        <ele>339.2</ele>
        <time>2014-03-08T10:26:22Z</time>
      </trkpt>
      <trkpt lat="43.51182" lon="5.88424">
        <ele>339.6</ele>
        <time>2014-03-08T10:26:24Z</time>
      </trkpt>
      <trkpt lat="43.51191" lon="5.88415">
        <ele>339.6</ele>
        <time>2014-03-08T10:26:28Z</time>
      </trkpt>
      <trkpt lat="43.51198" lon="5.8841">
        <ele>339.6</ele>
        <time>2014-03-08T10:26:31Z</time>
      </trkpt>
      <trkpt lat="43.51202" lon="5.88408">
        <ele>339.6</ele>
        <time>2014-03-08T10:26:33Z</time>
      </trkpt>
      <trkpt lat="43.51214" lon="5.88408">
        <ele>339.6</ele>
        <time>2014-03-08T10:26:39Z</time>
      </trkpt>
      <trkpt lat="43.51221" lon="5.88412">
        <ele>341.8</ele>
        <time>2014-03-08T10:26:45Z</time>
      </trkpt>
      <trkpt lat="43.51223" lon="5.88414">
        <ele>341.8</ele>
        <time>2014-03-08T10:26:47Z</time>
      </trkpt>
      <trkpt lat="43.51234" lon="5.88425">
        <ele>343.8</ele>
        <time>2014-03-08T10:26:59Z</time>
      </trkpt>
      <trkpt lat="43.51242" lon="5.88431">
        <ele>344.2</ele>
        <time>2014-03-08T10:27:06Z</time>
      </trkpt>
      <trkpt lat="43.51244" lon="5.88432">
        <ele>345.6</ele>
        <time>2014-03-08T10:27:08Z</time>
      </trkpt>
      <trkpt lat="43.51246" lon="5.88432">
        <ele>346</ele>
        <time>2014-03-08T10:27:09Z</time>
      </trkpt>
      <trkpt lat="43.51248" lon="5.88432">
        <ele>346</ele>
        <time>2014-03-08T10:27:11Z</time>
      </trkpt>
      <trkpt lat="43.51252" lon="5.88431">
        <ele>346</ele>
        <time>2014-03-08T10:27:14Z</time>
      </trkpt>
      <trkpt lat="43.5126" lon="5.88421">
        <ele>346</ele>
        <time>2014-03-08T10:27:21Z</time>
      </trkpt>
      <trkpt lat="43.51276" lon="5.88393">
        <ele>346</ele>
        <time>2014-03-08T10:27:31Z</time>
      </trkpt>
      <trkpt lat="43.51277" lon="5.8839">
        <ele>346</ele>
        <time>2014-03-08T10:27:32Z</time>
      </trkpt>
      <trkpt lat="43.51278" lon="5.88382">
        <ele>346</ele>
        <time>2014-03-08T10:27:35Z</time>
      </trkpt>
      <trkpt lat="43.51282" lon="5.88377">
        <ele>346</ele>
        <time>2014-03-08T10:27:38Z</time>
      </trkpt>
      <trkpt lat="43.51288" lon="5.88369">
        <ele>346</ele>
        <time>2014-03-08T10:27:43Z</time>
      </trkpt>
      <trkpt lat="43.51295" lon="5.88337">
        <ele>346</ele>
        <time>2014-03-08T10:27:55Z</time>
      </trkpt>
      <trkpt lat="43.51302" lon="5.88318">
        <ele>346</ele>
        <time>2014-03-08T10:28:02Z</time>
      </trkpt>
      <trkpt lat="43.51311" lon="5.88304">
        <ele>346</ele>
        <time>2014-03-08T10:28:09Z</time>
      </trkpt>
      <trkpt lat="43.51328" lon="5.88295">
        <ele>347.2</ele>
        <time>2014-03-08T10:28:18Z</time>
      </trkpt>
      <trkpt lat="43.51337" lon="5.88291">
        <ele>348</ele>
        <time>2014-03-08T10:28:23Z</time>
      </trkpt>
      <trkpt lat="43.51354" lon="5.88289">
        <ele>348</ele>
        <time>2014-03-08T10:28:31Z</time>
      </trkpt>
      <trkpt lat="43.51363" lon="5.8829">
        <ele>348</ele>
        <time>2014-03-08T10:28:36Z</time>
      </trkpt>
      <trkpt lat="43.51373" lon="5.88294">
        <ele>348</ele>
        <time>2014-03-08T10:28:41Z</time>
      </trkpt>
      <trkpt lat="43.51385" lon="5.88303">
        <ele>348</ele>
        <time>2014-03-08T10:28:47Z</time>
      </trkpt>
      <trkpt lat="43.51429" lon="5.88358">
        <ele>350</ele>
        <time>2014-03-08T10:29:14Z</time>
      </trkpt>
      <trkpt lat="43.5144" lon="5.88364">
        <ele>350</ele>
        <time>2014-03-08T10:29:20Z</time>
      </trkpt>
      <trkpt lat="43.51453" lon="5.88363">
        <ele>350</ele>
        <time>2014-03-08T10:29:26Z</time>
      </trkpt>
      <trkpt lat="43.51459" lon="5.88361">
        <ele>350.4</ele>
        <time>2014-03-08T10:29:29Z</time>
      </trkpt>
      <trkpt lat="43.51463" lon="5.88359">
        <ele>351.2</ele>
        <time>2014-03-08T10:29:31Z</time>
      </trkpt>
      <trkpt lat="43.51467" lon="5.88355">
        <ele>352</ele>
        <time>2014-03-08T10:29:33Z</time>
      </trkpt>
      <trkpt lat="43.51477" lon="5.88343">
        <ele>352</ele>
        <time>2014-03-08T10:29:39Z</time>
      </trkpt>
      <trkpt lat="43.51496" lon="5.88314">
        <ele>352</ele>
        <time>2014-03-08T10:29:52Z</time>
      </trkpt>
      <trkpt lat="43.51504" lon="5.88298">
        <ele>352</ele>
        <time>2014-03-08T10:29:58Z</time>
      </trkpt>
      <trkpt lat="43.51509" lon="5.88289">
        <ele>352</ele>
        <time>2014-03-08T10:30:02Z</time>
      </trkpt>
      <trkpt lat="43.51513" lon="5.88286">
        <ele>352</ele>
        <time>2014-03-08T10:30:04Z</time>
      </trkpt>
      <trkpt lat="43.5154" lon="5.88261">
        <ele>354.2</ele>
        <time>2014-03-08T10:30:18Z</time>
      </trkpt>
      <trkpt lat="43.51554" lon="5.88255">
        <ele>354.2</ele>
        <time>2014-03-08T10:30:25Z</time>
      </trkpt>
      <trkpt lat="43.51568" lon="5.88262">
        <ele>354.2</ele>
        <time>2014-03-08T10:30:32Z</time>
      </trkpt>
      <trkpt lat="43.51607" lon="5.88339">
        <ele>356.2</ele>
        <time>2014-03-08T10:31:00Z</time>
      </trkpt>
      <trkpt lat="43.51619" lon="5.88349">
        <ele>356.2</ele>
        <time>2014-03-08T10:31:06Z</time>
      </trkpt>
      <trkpt lat="43.51627" lon="5.88351">
        <ele>356.6</ele>
        <time>2014-03-08T10:31:10Z</time>
      </trkpt>
      <trkpt lat="43.51629" lon="5.88351">
        <ele>357</ele>
        <time>2014-03-08T10:31:11Z</time>
      </trkpt>
      <trkpt lat="43.51632" lon="5.8835">
        <ele>357.8</ele>
        <time>2014-03-08T10:31:12Z</time>
      </trkpt>
      <trkpt lat="43.51634" lon="5.88349">
        <ele>358.2</ele>
        <time>2014-03-08T10:31:13Z</time>
      </trkpt>
      <trkpt lat="43.51646" lon="5.88337">
        <ele>358.2</ele>
        <time>2014-03-08T10:31:19Z</time>
      </trkpt>
      <trkpt lat="43.51664" lon="5.88294">
        <ele>358.2</ele>
        <time>2014-03-08T10:31:38Z</time>
      </trkpt>
      <trkpt lat="43.51669" lon="5.88287">
        <ele>359</ele>
        <time>2014-03-08T10:31:42Z</time>
      </trkpt>
      <trkpt lat="43.5167" lon="5.88285">
        <ele>359.4</ele>
        <time>2014-03-08T10:31:43Z</time>
      </trkpt>
      <trkpt lat="43.51681" lon="5.88272">
        <ele>360.2</ele>
        <time>2014-03-08T10:31:51Z</time>
      </trkpt>
      <trkpt lat="43.51692" lon="5.88263">
        <ele>360.2</ele>
        <time>2014-03-08T10:31:58Z</time>
      </trkpt>
      <trkpt lat="43.51704" lon="5.88261">
        <ele>360.2</ele>
        <time>2014-03-08T10:32:04Z</time>
      </trkpt>
      <trkpt lat="43.51716" lon="5.8827">
        <ele>360.2</ele>
        <time>2014-03-08T10:32:11Z</time>
      </trkpt>
      <trkpt lat="43.51741" lon="5.88298">
        <ele>362.2</ele>
        <time>2014-03-08T10:32:25Z</time>
      </trkpt>
      <trkpt lat="43.51755" lon="5.88305">
        <ele>362.2</ele>
        <time>2014-03-08T10:32:31Z</time>
      </trkpt>
      <trkpt lat="43.51764" lon="5.88296">
        <ele>362.2</ele>
        <time>2014-03-08T10:32:36Z</time>
      </trkpt>
      <trkpt lat="43.51793" lon="5.8825">
        <ele>362.8</ele>
        <time>2014-03-08T10:32:56Z</time>
      </trkpt>
      <trkpt lat="43.51794" lon="5.88248">
        <ele>363.2</ele>
        <time>2014-03-08T10:32:57Z</time>
      </trkpt>
      <trkpt lat="43.51796" lon="5.88246">
        <ele>363.6</ele>
        <time>2014-03-08T10:32:58Z</time>
      </trkpt>
      <trkpt lat="43.51805" lon="5.88238">
        <ele>364.4</ele>
        <time>2014-03-08T10:33:03Z</time>
      </trkpt>
      <trkpt lat="43.51827" lon="5.88214">
        <ele>364.4</ele>
        <time>2014-03-08T10:33:16Z</time>
      </trkpt>
      <trkpt lat="43.5184" lon="5.88205">
        <ele>364.4</ele>
        <time>2014-03-08T10:33:23Z</time>
      </trkpt>
      <trkpt lat="43.51848" lon="5.88201">
        <ele>365.2</ele>
        <time>2014-03-08T10:33:27Z</time>
      </trkpt>
      <trkpt lat="43.5185" lon="5.882">
        <ele>365.6</ele>
        <time>2014-03-08T10:33:28Z</time>
      </trkpt>
      <trkpt lat="43.51854" lon="5.88199">
        <ele>366.4</ele>
        <time>2014-03-08T10:33:30Z</time>
      </trkpt>
      <trkpt lat="43.51876" lon="5.882">
        <ele>366.4</ele>
        <time>2014-03-08T10:33:40Z</time>
      </trkpt>
      <trkpt lat="43.51907" lon="5.88196">
        <ele>367.2</ele>
        <time>2014-03-08T10:33:53Z</time>
      </trkpt>
      <trkpt lat="43.51911" lon="5.88195">
        <ele>368.2</ele>
        <time>2014-03-08T10:33:55Z</time>
      </trkpt>
      <trkpt lat="43.5194" lon="5.88188">
        <ele>368.6</ele>
        <time>2014-03-08T10:34:09Z</time>
      </trkpt>
      <trkpt lat="43.51947" lon="5.8819">
        <ele>369</ele>
        <time>2014-03-08T10:34:12Z</time>
      </trkpt>
      <trkpt lat="43.51951" lon="5.88192">
        <ele>369.8</ele>
        <time>2014-03-08T10:34:14Z</time>
      </trkpt>
      <trkpt lat="43.51955" lon="5.88194">
        <ele>370.6</ele>
        <time>2014-03-08T10:34:16Z</time>
      </trkpt>
      <trkpt lat="43.51982" lon="5.88224">
        <ele>370.6</ele>
        <time>2014-03-08T10:34:30Z</time>
      </trkpt>
      <trkpt lat="43.51996" lon="5.88234">
        <ele>370.6</ele>
        <time>2014-03-08T10:34:36Z</time>
      </trkpt>
      <trkpt lat="43.52009" lon="5.88231">
        <ele>370.6</ele>
        <time>2014-03-08T10:34:41Z</time>
      </trkpt>
      <trkpt lat="43.52043" lon="5.88216">
        <ele>370.6</ele>
        <time>2014-03-08T10:34:55Z</time>
      </trkpt>
      <trkpt lat="43.52056" lon="5.88208">
        <ele>371</ele>
        <time>2014-03-08T10:35:00Z</time>
      </trkpt>
      <trkpt lat="43.52071" lon="5.88193">
        <ele>372.6</ele>
        <time>2014-03-08T10:35:07Z</time>
      </trkpt>
      <trkpt lat="43.52106" lon="5.88167">
        <ele>372.6</ele>
        <time>2014-03-08T10:35:21Z</time>
      </trkpt>
      <trkpt lat="43.52121" lon="5.88158">
        <ele>372.6</ele>
        <time>2014-03-08T10:35:27Z</time>
      </trkpt>
      <trkpt lat="43.52134" lon="5.88154">
        <ele>372.6</ele>
        <time>2014-03-08T10:35:32Z</time>
      </trkpt>
      <trkpt lat="43.52139" lon="5.88155">
        <ele>373</ele>
        <time>2014-03-08T10:35:34Z</time>
      </trkpt>
      <trkpt lat="43.52141" lon="5.88157">
        <ele>373.6</ele>
        <time>2014-03-08T10:35:35Z</time>
      </trkpt>
      <trkpt lat="43.52166" lon="5.88174">
        <ele>374.8</ele>
        <time>2014-03-08T10:35:45Z</time>
      </trkpt>
      <trkpt lat="43.52184" lon="5.88175">
        <ele>374.8</ele>
        <time>2014-03-08T10:35:53Z</time>
      </trkpt>
      <trkpt lat="43.52197" lon="5.88167">
        <ele>375.2</ele>
        <time>2014-03-08T10:35:59Z</time>
      </trkpt>
      <trkpt lat="43.52202" lon="5.88164">
        <ele>376</ele>
        <time>2014-03-08T10:36:01Z</time>
      </trkpt>
      <trkpt lat="43.52204" lon="5.88162">
        <ele>376.4</ele>
        <time>2014-03-08T10:36:02Z</time>
      </trkpt>
      <trkpt lat="43.52207" lon="5.8816">
        <ele>376.8</ele>
        <time>2014-03-08T10:36:03Z</time>
      </trkpt>
      <trkpt lat="43.52212" lon="5.88154">
        <ele>376.8</ele>
        <time>2014-03-08T10:36:06Z</time>
      </trkpt>
      <trkpt lat="43.52225" lon="5.88134">
        <ele>376.8</ele>
        <time>2014-03-08T10:36:13Z</time>
      </trkpt>
      <trkpt lat="43.52252" lon="5.88045">
        <ele>378.8</ele>
        <time>2014-03-08T10:36:41Z</time>
      </trkpt>
      <trkpt lat="43.52259" lon="5.88033">
        <ele>378.8</ele>
        <time>2014-03-08T10:36:46Z</time>
      </trkpt>
      <trkpt lat="43.52269" lon="5.88023">
        <ele>378.8</ele>
        <time>2014-03-08T10:36:51Z</time>
      </trkpt>
      <trkpt lat="43.5228" lon="5.88017">
        <ele>378.8</ele>
        <time>2014-03-08T10:36:56Z</time>
      </trkpt>
      <trkpt lat="43.52294" lon="5.88013">
        <ele>378.8</ele>
        <time>2014-03-08T10:37:02Z</time>
      </trkpt>
      <trkpt lat="43.52312" lon="5.88014">
        <ele>381</ele>
        <time>2014-03-08T10:37:09Z</time>
      </trkpt>
      <trkpt lat="43.52358" lon="5.88043">
        <ele>381</ele>
        <time>2014-03-08T10:37:30Z</time>
      </trkpt>
      <trkpt lat="43.52363" lon="5.88045">
        <ele>381.4</ele>
        <time>2014-03-08T10:37:32Z</time>
      </trkpt>
      <trkpt lat="43.52365" lon="5.88046">
        <ele>381.8</ele>
        <time>2014-03-08T10:37:33Z</time>
      </trkpt>
      <trkpt lat="43.52371" lon="5.88049">
        <ele>383</ele>
        <time>2014-03-08T10:37:36Z</time>
      </trkpt>
      <trkpt lat="43.52382" lon="5.88052">
        <ele>383</ele>
        <time>2014-03-08T10:37:41Z</time>
      </trkpt>
      <trkpt lat="43.524" lon="5.88046">
        <ele>383</ele>
        <time>2014-03-08T10:37:48Z</time>
      </trkpt>
      <trkpt lat="43.52407" lon="5.88037">
        <ele>383.4</ele>
        <time>2014-03-08T10:37:52Z</time>
      </trkpt>
      <trkpt lat="43.5241" lon="5.8803">
        <ele>384.2</ele>
        <time>2014-03-08T10:37:54Z</time>
      </trkpt>
      <trkpt lat="43.52411" lon="5.88027">
        <ele>384.6</ele>
        <time>2014-03-08T10:37:55Z</time>
      </trkpt>
      <trkpt lat="43.52411" lon="5.88024">
        <ele>385</ele>
        <time>2014-03-08T10:37:56Z</time>
      </trkpt>
      <trkpt lat="43.52408" lon="5.87975">
        <ele>385</ele>
        <time>2014-03-08T10:38:11Z</time>
      </trkpt>
      <trkpt lat="43.5241" lon="5.8795">
        <ele>385</ele>
        <time>2014-03-08T10:38:18Z</time>
      </trkpt>
      <trkpt lat="43.52415" lon="5.87925">
        <ele>387</ele>
        <time>2014-03-08T10:38:26Z</time>
      </trkpt>
      <trkpt lat="43.52421" lon="5.87914">
        <ele>387</ele>
        <time>2014-03-08T10:38:30Z</time>
      </trkpt>
      <trkpt lat="43.52437" lon="5.87903">
        <ele>387</ele>
        <time>2014-03-08T10:38:38Z</time>
      </trkpt>
      <trkpt lat="43.52449" lon="5.87903">
        <ele>387</ele>
        <time>2014-03-08T10:38:43Z</time>
      </trkpt>
      <trkpt lat="43.52458" lon="5.87905">
        <ele>387.8</ele>
        <time>2014-03-08T10:38:47Z</time>
      </trkpt>
      <trkpt lat="43.5246" lon="5.87905">
        <ele>388.4</ele>
        <time>2014-03-08T10:38:48Z</time>
      </trkpt>
      <trkpt lat="43.52462" lon="5.87906">
        <ele>388.8</ele>
        <time>2014-03-08T10:38:49Z</time>
      </trkpt>
      <trkpt lat="43.52465" lon="5.87907">
        <ele>389.2</ele>
        <time>2014-03-08T10:38:50Z</time>
      </trkpt>
      <trkpt lat="43.52475" lon="5.87918">
        <ele>389.2</ele>
        <time>2014-03-08T10:38:55Z</time>
      </trkpt>
      <trkpt lat="43.52489" lon="5.87939">
        <ele>389.2</ele>
        <time>2014-03-08T10:39:03Z</time>
      </trkpt>
      <trkpt lat="43.52499" lon="5.87948">
        <ele>389.2</ele>
        <time>2014-03-08T10:39:08Z</time>
      </trkpt>
      <trkpt lat="43.5251" lon="5.87948">
        <ele>389.2</ele>
        <time>2014-03-08T10:39:13Z</time>
      </trkpt>
      <trkpt lat="43.52517" lon="5.87946">
        <ele>389.6</ele>
        <time>2014-03-08T10:39:16Z</time>
      </trkpt>
      <trkpt lat="43.52524" lon="5.87942">
        <ele>390.8</ele>
        <time>2014-03-08T10:39:19Z</time>
      </trkpt>
      <trkpt lat="43.52526" lon="5.87941">
        <ele>391.2</ele>
        <time>2014-03-08T10:39:20Z</time>
      </trkpt>
      <trkpt lat="43.52533" lon="5.87931">
        <ele>391.2</ele>
        <time>2014-03-08T10:39:24Z</time>
      </trkpt>
      <trkpt lat="43.52549" lon="5.87903">
        <ele>391.6</ele>
        <time>2014-03-08T10:39:36Z</time>
      </trkpt>
      <trkpt lat="43.52551" lon="5.87901">
        <ele>392</ele>
        <time>2014-03-08T10:39:37Z</time>
      </trkpt>
      <trkpt lat="43.52563" lon="5.87866">
        <ele>393.2</ele>
        <time>2014-03-08T10:39:49Z</time>
      </trkpt>
      <trkpt lat="43.5256" lon="5.87848">
        <ele>393.2</ele>
        <time>2014-03-08T10:39:55Z</time>
      </trkpt>
      <trkpt lat="43.52554" lon="5.87827">
        <ele>393.8</ele>
        <time>2014-03-08T10:40:02Z</time>
      </trkpt>
      <trkpt lat="43.52553" lon="5.87821">
        <ele>394.6</ele>
        <time>2014-03-08T10:40:04Z</time>
      </trkpt>
      <trkpt lat="43.52554" lon="5.87791">
        <ele>395.4</ele>
        <time>2014-03-08T10:40:14Z</time>
      </trkpt>
      <trkpt lat="43.5256" lon="5.87775">
        <ele>395.4</ele>
        <time>2014-03-08T10:40:19Z</time>
      </trkpt>
      <trkpt lat="43.52563" lon="5.87768">
        <ele>396.2</ele>
        <time>2014-03-08T10:40:22Z</time>
      </trkpt>
      <trkpt lat="43.52564" lon="5.87762">
        <ele>397</ele>
        <time>2014-03-08T10:40:24Z</time>
      </trkpt>
      <trkpt lat="43.52564" lon="5.87742">
        <ele>397.6</ele>
        <time>2014-03-08T10:40:31Z</time>
      </trkpt>
      <trkpt lat="43.52545" lon="5.87644">
        <ele>399.6</ele>
        <time>2014-03-08T10:41:05Z</time>
      </trkpt>
      <trkpt lat="43.52533" lon="5.87607">
        <ele>399.6</ele>
        <time>2014-03-08T10:41:18Z</time>
      </trkpt>
      <trkpt lat="43.52528" lon="5.8757">
        <ele>400</ele>
        <time>2014-03-08T10:41:30Z</time>
      </trkpt>
      <trkpt lat="43.5253" lon="5.87564">
        <ele>400.8</ele>
        <time>2014-03-08T10:41:32Z</time>
      </trkpt>
      <trkpt lat="43.52531" lon="5.87559">
        <ele>401.6</ele>
        <time>2014-03-08T10:41:34Z</time>
      </trkpt>
      <trkpt lat="43.52534" lon="5.87553">
        <ele>401.6</ele>
        <time>2014-03-08T10:41:36Z</time>
      </trkpt>
      <trkpt lat="43.52543" lon="5.87539">
        <ele>401.6</ele>
        <time>2014-03-08T10:41:43Z</time>
      </trkpt>
      <trkpt lat="43.52561" lon="5.87518">
        <ele>402.8</ele>
        <time>2014-03-08T10:41:54Z</time>
      </trkpt>
      <trkpt lat="43.52562" lon="5.87517">
        <ele>403.6</ele>
        <time>2014-03-08T10:41:55Z</time>
      </trkpt>
      <trkpt lat="43.52575" lon="5.87496">
        <ele>403.6</ele>
        <time>2014-03-08T10:42:03Z</time>
      </trkpt>
      <trkpt lat="43.52594" lon="5.87479">
        <ele>404</ele>
        <time>2014-03-08T10:42:13Z</time>
      </trkpt>
      <trkpt lat="43.52596" lon="5.87478">
        <ele>404.6</ele>
        <time>2014-03-08T10:42:14Z</time>
      </trkpt>
      <trkpt lat="43.52598" lon="5.87476">
        <ele>405</ele>
        <time>2014-03-08T10:42:15Z</time>
      </trkpt>
      <trkpt lat="43.526" lon="5.87475">
        <ele>405.4</ele>
        <time>2014-03-08T10:42:16Z</time>
      </trkpt>
      <trkpt lat="43.52603" lon="5.87473">
        <ele>405.8</ele>
        <time>2014-03-08T10:42:17Z</time>
      </trkpt>
      <trkpt lat="43.52611" lon="5.87468">
        <ele>405.8</ele>
        <time>2014-03-08T10:42:21Z</time>
      </trkpt>
      <trkpt lat="43.52628" lon="5.87468">
        <ele>405.8</ele>
        <time>2014-03-08T10:42:28Z</time>
      </trkpt>
      <trkpt lat="43.52636" lon="5.87462">
        <ele>405.8</ele>
        <time>2014-03-08T10:42:32Z</time>
      </trkpt>
      <trkpt lat="43.52638" lon="5.8746">
        <ele>405.8</ele>
        <time>2014-03-08T10:42:33Z</time>
      </trkpt>
      <trkpt lat="43.52643" lon="5.87448">
        <ele>405.8</ele>
        <time>2014-03-08T10:42:38Z</time>
      </trkpt>
      <trkpt lat="43.52644" lon="5.87437">
        <ele>406.2</ele>
        <time>2014-03-08T10:42:42Z</time>
      </trkpt>
      <trkpt lat="43.52644" lon="5.87433">
        <ele>406.6</ele>
        <time>2014-03-08T10:42:43Z</time>
      </trkpt>
      <trkpt lat="43.52642" lon="5.87428">
        <ele>407.8</ele>
        <time>2014-03-08T10:42:45Z</time>
      </trkpt>
      <trkpt lat="43.52636" lon="5.8742">
        <ele>407.8</ele>
        <time>2014-03-08T10:42:50Z</time>
      </trkpt>
      <trkpt lat="43.52629" lon="5.87409">
        <ele>407.8</ele>
        <time>2014-03-08T10:42:55Z</time>
      </trkpt>
      <trkpt lat="43.52625" lon="5.87391">
        <ele>407.8</ele>
        <time>2014-03-08T10:43:01Z</time>
      </trkpt>
      <trkpt lat="43.52624" lon="5.87379">
        <ele>408.2</ele>
        <time>2014-03-08T10:43:05Z</time>
      </trkpt>
      <trkpt lat="43.52625" lon="5.87374">
        <ele>409</ele>
        <time>2014-03-08T10:43:07Z</time>
      </trkpt>
      <trkpt lat="43.52627" lon="5.87368">
        <ele>409.8</ele>
        <time>2014-03-08T10:43:09Z</time>
      </trkpt>
      <trkpt lat="43.52632" lon="5.87355">
        <ele>409.8</ele>
        <time>2014-03-08T10:43:13Z</time>
      </trkpt>
      <trkpt lat="43.52658" lon="5.87314">
        <ele>410.6</ele>
        <time>2014-03-08T10:43:30Z</time>
      </trkpt>
      <trkpt lat="43.5266" lon="5.87312">
        <ele>411</ele>
        <time>2014-03-08T10:43:31Z</time>
      </trkpt>
      <trkpt lat="43.52661" lon="5.8731">
        <ele>411.4</ele>
        <time>2014-03-08T10:43:32Z</time>
      </trkpt>
      <trkpt lat="43.52662" lon="5.87308">
        <ele>411.8</ele>
        <time>2014-03-08T10:43:33Z</time>
      </trkpt>
      <trkpt lat="43.52662" lon="5.87303">
        <ele>411.8</ele>
        <time>2014-03-08T10:43:35Z</time>
      </trkpt>
      <trkpt lat="43.52659" lon="5.87299">
        <ele>411.8</ele>
        <time>2014-03-08T10:43:37Z</time>
      </trkpt>
      <trkpt lat="43.52655" lon="5.87291">
        <ele>412.4</ele>
        <time>2014-03-08T10:43:42Z</time>
      </trkpt>
      <trkpt lat="43.52655" lon="5.8729">
        <ele>412.8</ele>
        <time>2014-03-08T10:43:43Z</time>
      </trkpt>
      <trkpt lat="43.52655" lon="5.87289">
        <ele>413.2</ele>
        <time>2014-03-08T10:43:44Z</time>
      </trkpt>
      <trkpt lat="43.52655" lon="5.87288">
        <ele>413.6</ele>
        <time>2014-03-08T10:43:45Z</time>
      </trkpt>
      <trkpt lat="43.52655" lon="5.87287">
        <ele>414</ele>
        <time>2014-03-08T10:43:46Z</time>
      </trkpt>
      <trkpt lat="43.52655" lon="5.87287">
        <ele>414</ele>
        <time>2014-03-08T10:43:47Z</time>
      </trkpt>
      <trkpt lat="43.52653" lon="5.87282">
        <ele>414</ele>
        <time>2014-03-08T10:43:53Z</time>
      </trkpt>
      <trkpt lat="43.52652" lon="5.87279">
        <ele>414.6</ele>
        <time>2014-03-08T10:43:57Z</time>
      </trkpt>
      <trkpt lat="43.52652" lon="5.87279">
        <ele>415.4</ele>
        <time>2014-03-08T10:43:58Z</time>
      </trkpt>
      <trkpt lat="43.52652" lon="5.87278">
        <ele>416.2</ele>
        <time>2014-03-08T10:44:00Z</time>
      </trkpt>
      <trkpt lat="43.5265" lon="5.87269">
        <ele>417</ele>
        <time>2014-03-08T10:44:09Z</time>
      </trkpt>
      <trkpt lat="43.5265" lon="5.87268">
        <ele>417.4</ele>
        <time>2014-03-08T10:44:10Z</time>
      </trkpt>
      <trkpt lat="43.52649" lon="5.87267">
        <ele>417.8</ele>
        <time>2014-03-08T10:44:11Z</time>
      </trkpt>
      <trkpt lat="43.52648" lon="5.87263">
        <ele>418.2</ele>
        <time>2014-03-08T10:44:15Z</time>
      </trkpt>
      <trkpt lat="43.52646" lon="5.87259">
        <ele>418.2</ele>
        <time>2014-03-08T10:44:18Z</time>
      </trkpt>
      <trkpt lat="43.52645" lon="5.87256">
        <ele>418.6</ele>
        <time>2014-03-08T10:44:22Z</time>
      </trkpt>
      <trkpt lat="43.52645" lon="5.87254">
        <ele>419.4</ele>
        <time>2014-03-08T10:44:23Z</time>
      </trkpt>
      <trkpt lat="43.52645" lon="5.87254">
        <ele>420</ele>
        <time>2014-03-08T10:44:24Z</time>
      </trkpt>
      <trkpt lat="43.52645" lon="5.87252">
        <ele>420.4</ele>
        <time>2014-03-08T10:44:25Z</time>
      </trkpt>
      <trkpt lat="43.52645" lon="5.87251">
        <ele>420.4</ele>
        <time>2014-03-08T10:44:26Z</time>
      </trkpt>
      <trkpt lat="43.52642" lon="5.87246">
        <ele>420.4</ele>
        <time>2014-03-08T10:44:33Z</time>
      </trkpt>
      <trkpt lat="43.52641" lon="5.87245">
        <ele>420.8</ele>
        <time>2014-03-08T10:44:34Z</time>
      </trkpt>
      <trkpt lat="43.52641" lon="5.87245">
        <ele>421.2</ele>
        <time>2014-03-08T10:44:35Z</time>
      </trkpt>
      <trkpt lat="43.52641" lon="5.87244">
        <ele>421.6</ele>
        <time>2014-03-08T10:44:36Z</time>
      </trkpt>
      <trkpt lat="43.5264" lon="5.87244">
        <ele>422</ele>
        <time>2014-03-08T10:44:37Z</time>
      </trkpt>
      <trkpt lat="43.5264" lon="5.87243">
        <ele>422.4</ele>
        <time>2014-03-08T10:44:38Z</time>
      </trkpt>
      <trkpt lat="43.52636" lon="5.87237">
        <ele>422.4</ele>
        <time>2014-03-08T10:44:45Z</time>
      </trkpt>
      <trkpt lat="43.52635" lon="5.87235">
        <ele>422.8</ele>
        <time>2014-03-08T10:44:48Z</time>
      </trkpt>
      <trkpt lat="43.52635" lon="5.87234">
        <ele>423.2</ele>
        <time>2014-03-08T10:44:49Z</time>
      </trkpt>
      <trkpt lat="43.52634" lon="5.87234">
        <ele>423.8</ele>
        <time>2014-03-08T10:44:50Z</time>
      </trkpt>
      <trkpt lat="43.52634" lon="5.87233">
        <ele>424.2</ele>
        <time>2014-03-08T10:44:51Z</time>
      </trkpt>
      <trkpt lat="43.52634" lon="5.87232">
        <ele>424.6</ele>
        <time>2014-03-08T10:44:52Z</time>
      </trkpt>
      <trkpt lat="43.5263" lon="5.87226">
        <ele>425.4</ele>
        <time>2014-03-08T10:45:02Z</time>
      </trkpt>
      <trkpt lat="43.5263" lon="5.87226">
        <ele>425.8</ele>
        <time>2014-03-08T10:45:03Z</time>
      </trkpt>
      <trkpt lat="43.52629" lon="5.87226">
        <ele>426.2</ele>
        <time>2014-03-08T10:45:04Z</time>
      </trkpt>
      <trkpt lat="43.52624" lon="5.8722">
        <ele>427</ele>
        <time>2014-03-08T10:45:13Z</time>
      </trkpt>
      <trkpt lat="43.52623" lon="5.8722">
        <ele>427.4</ele>
        <time>2014-03-08T10:45:14Z</time>
      </trkpt>
      <trkpt lat="43.52623" lon="5.87219">
        <ele>427.8</ele>
        <time>2014-03-08T10:45:15Z</time>
      </trkpt>
      <trkpt lat="43.52622" lon="5.87219">
        <ele>428.2</ele>
        <time>2014-03-08T10:45:16Z</time>
      </trkpt>
      <trkpt lat="43.52622" lon="5.87218">
        <ele>428.6</ele>
        <time>2014-03-08T10:45:17Z</time>
      </trkpt>
      <trkpt lat="43.5262" lon="5.87216">
        <ele>428.6</ele>
        <time>2014-03-08T10:45:20Z</time>
      </trkpt>
      <trkpt lat="43.52618" lon="5.87212">
        <ele>429.6</ele>
        <time>2014-03-08T10:45:26Z</time>
      </trkpt>
      <trkpt lat="43.52618" lon="5.87211">
        <ele>430</ele>
        <time>2014-03-08T10:45:27Z</time>
      </trkpt>
      <trkpt lat="43.52614" lon="5.87207">
        <ele>430.8</ele>
        <time>2014-03-08T10:45:35Z</time>
      </trkpt>
      <trkpt lat="43.52614" lon="5.87206">
        <ele>431.2</ele>
        <time>2014-03-08T10:45:37Z</time>
      </trkpt>
      <trkpt lat="43.52613" lon="5.87205">
        <ele>432</ele>
        <time>2014-03-08T10:45:38Z</time>
      </trkpt>
      <trkpt lat="43.52613" lon="5.87204">
        <ele>432.4</ele>
        <time>2014-03-08T10:45:39Z</time>
      </trkpt>
      <trkpt lat="43.52613" lon="5.87203">
        <ele>432.8</ele>
        <time>2014-03-08T10:45:40Z</time>
      </trkpt>
      <trkpt lat="43.52612" lon="5.87203">
        <ele>432.8</ele>
        <time>2014-03-08T10:45:41Z</time>
      </trkpt>
      <trkpt lat="43.52609" lon="5.872">
        <ele>433.4</ele>
        <time>2014-03-08T10:45:47Z</time>
      </trkpt>
      <trkpt lat="43.52608" lon="5.872">
        <ele>434.2</ele>
        <time>2014-03-08T10:45:49Z</time>
      </trkpt>
      <trkpt lat="43.52608" lon="5.872">
        <ele>434.6</ele>
        <time>2014-03-08T10:45:50Z</time>
      </trkpt>
      <trkpt lat="43.52606" lon="5.872">
        <ele>435</ele>
        <time>2014-03-08T10:45:51Z</time>
      </trkpt>
      <trkpt lat="43.52605" lon="5.87201">
        <ele>435</ele>
        <time>2014-03-08T10:45:53Z</time>
      </trkpt>
      <trkpt lat="43.526" lon="5.87199">
        <ele>435</ele>
        <time>2014-03-08T10:46:00Z</time>
      </trkpt>
      <trkpt lat="43.52598" lon="5.87197">
        <ele>435.4</ele>
        <time>2014-03-08T10:46:03Z</time>
      </trkpt>
      <trkpt lat="43.52597" lon="5.87197">
        <ele>435.8</ele>
        <time>2014-03-08T10:46:04Z</time>
      </trkpt>
      <trkpt lat="43.52597" lon="5.87197">
        <ele>436.2</ele>
        <time>2014-03-08T10:46:05Z</time>
      </trkpt>
      <trkpt lat="43.52596" lon="5.87196">
        <ele>436.6</ele>
        <time>2014-03-08T10:46:06Z</time>
      </trkpt>
      <trkpt lat="43.52591" lon="5.87192">
        <ele>437</ele>
        <time>2014-03-08T10:46:13Z</time>
      </trkpt>
      <trkpt lat="43.5259" lon="5.87191">
        <ele>437.4</ele>
        <time>2014-03-08T10:46:17Z</time>
      </trkpt>
      <trkpt lat="43.52589" lon="5.87189">
        <ele>437.8</ele>
        <time>2014-03-08T10:46:18Z</time>
      </trkpt>
      <trkpt lat="43.52588" lon="5.87189">
        <ele>438.8</ele>
        <time>2014-03-08T10:46:20Z</time>
      </trkpt>
      <trkpt lat="43.52587" lon="5.87188">
        <ele>439.2</ele>
        <time>2014-03-08T10:46:21Z</time>
      </trkpt>
      <trkpt lat="43.52584" lon="5.87188">
        <ele>439.2</ele>
        <time>2014-03-08T10:46:27Z</time>
      </trkpt>
      <trkpt lat="43.52582" lon="5.87189">
        <ele>440</ele>
        <time>2014-03-08T10:46:29Z</time>
      </trkpt>
      <trkpt lat="43.5258" lon="5.87189">
        <ele>440.8</ele>
        <time>2014-03-08T10:46:31Z</time>
      </trkpt>
      <trkpt lat="43.52579" lon="5.8719">
        <ele>441.2</ele>
        <time>2014-03-08T10:46:32Z</time>
      </trkpt>
      <trkpt lat="43.52577" lon="5.87191">
        <ele>441.2</ele>
        <time>2014-03-08T10:46:36Z</time>
      </trkpt>
      <trkpt lat="43.52575" lon="5.87191">
        <ele>441.6</ele>
        <time>2014-03-08T10:46:40Z</time>
      </trkpt>
      <trkpt lat="43.52574" lon="5.87191">
        <ele>442</ele>
        <time>2014-03-08T10:46:41Z</time>
      </trkpt>
      <trkpt lat="43.52573" lon="5.87192">
        <ele>442.8</ele>
        <time>2014-03-08T10:46:43Z</time>
      </trkpt>
      <trkpt lat="43.52572" lon="5.87192">
        <ele>443.2</ele>
        <time>2014-03-08T10:46:44Z</time>
      </trkpt>
      <trkpt lat="43.52567" lon="5.87193">
        <ele>443.2</ele>
        <time>2014-03-08T10:46:51Z</time>
      </trkpt>
      <trkpt lat="43.52566" lon="5.87192">
        <ele>443.6</ele>
        <time>2014-03-08T10:46:52Z</time>
      </trkpt>
      <trkpt lat="43.52565" lon="5.87192">
        <ele>444.2</ele>
        <time>2014-03-08T10:46:53Z</time>
      </trkpt>
      <trkpt lat="43.52563" lon="5.87192">
        <ele>445</ele>
        <time>2014-03-08T10:46:55Z</time>
      </trkpt>
      <trkpt lat="43.52563" lon="5.87192">
        <ele>445.4</ele>
        <time>2014-03-08T10:46:56Z</time>
      </trkpt>
      <trkpt lat="43.52556" lon="5.8719">
        <ele>445.8</ele>
        <time>2014-03-08T10:47:07Z</time>
      </trkpt>
      <trkpt lat="43.52555" lon="5.8719">
        <ele>446.6</ele>
        <time>2014-03-08T10:47:09Z</time>
      </trkpt>
      <trkpt lat="43.52554" lon="5.87191">
        <ele>447.4</ele>
        <time>2014-03-08T10:47:13Z</time>
      </trkpt>
      <trkpt lat="43.52551" lon="5.87188">
        <ele>447.8</ele>
        <time>2014-03-08T10:47:19Z</time>
      </trkpt>
      <trkpt lat="43.52549" lon="5.87188">
        <ele>448.8</ele>
        <time>2014-03-08T10:47:21Z</time>
      </trkpt>
      <trkpt lat="43.52548" lon="5.87188">
        <ele>449.2</ele>
        <time>2014-03-08T10:47:22Z</time>
      </trkpt>
      <trkpt lat="43.52547" lon="5.87188">
        <ele>449.6</ele>
        <time>2014-03-08T10:47:23Z</time>
      </trkpt>
      <trkpt lat="43.52545" lon="5.87187">
        <ele>449.6</ele>
        <time>2014-03-08T10:47:26Z</time>
      </trkpt>
      <trkpt lat="43.5254" lon="5.87187">
        <ele>450</ele>
        <time>2014-03-08T10:47:32Z</time>
      </trkpt>
      <trkpt lat="43.5254" lon="5.87187">
        <ele>450.4</ele>
        <time>2014-03-08T10:47:33Z</time>
      </trkpt>
      <trkpt lat="43.52539" lon="5.87187">
        <ele>450.8</ele>
        <time>2014-03-08T10:47:34Z</time>
      </trkpt>
      <trkpt lat="43.52539" lon="5.87186">
        <ele>451.6</ele>
        <time>2014-03-08T10:47:36Z</time>
      </trkpt>
      <trkpt lat="43.52532" lon="5.87187">
        <ele>452</ele>
        <time>2014-03-08T10:47:44Z</time>
      </trkpt>
      <trkpt lat="43.52531" lon="5.87186">
        <ele>452.4</ele>
        <time>2014-03-08T10:47:45Z</time>
      </trkpt>
      <trkpt lat="43.52531" lon="5.87186">
        <ele>452.8</ele>
        <time>2014-03-08T10:47:46Z</time>
      </trkpt>
      <trkpt lat="43.52523" lon="5.87185">
        <ele>453.8</ele>
        <time>2014-03-08T10:47:56Z</time>
      </trkpt>
      <trkpt lat="43.52521" lon="5.87184">
        <ele>454.2</ele>
        <time>2014-03-08T10:47:58Z</time>
      </trkpt>
      <trkpt lat="43.5252" lon="5.87184">
        <ele>454.6</ele>
        <time>2014-03-08T10:47:59Z</time>
      </trkpt>
      <trkpt lat="43.52519" lon="5.87184">
        <ele>455</ele>
        <time>2014-03-08T10:48:00Z</time>
      </trkpt>
      <trkpt lat="43.52518" lon="5.87183">
        <ele>455.6</ele>
        <time>2014-03-08T10:48:01Z</time>
      </trkpt>
      <trkpt lat="43.52518" lon="5.87183">
        <ele>456</ele>
        <time>2014-03-08T10:48:02Z</time>
      </trkpt>
      <trkpt lat="43.52511" lon="5.87178">
        <ele>456</ele>
        <time>2014-03-08T10:48:10Z</time>
      </trkpt>
      <trkpt lat="43.5251" lon="5.87177">
        <ele>456.8</ele>
        <time>2014-03-08T10:48:12Z</time>
      </trkpt>
      <trkpt lat="43.52509" lon="5.87177">
        <ele>457.6</ele>
        <time>2014-03-08T10:48:14Z</time>
      </trkpt>
      <trkpt lat="43.52507" lon="5.87176">
        <ele>458</ele>
        <time>2014-03-08T10:48:17Z</time>
      </trkpt>
      <trkpt lat="43.52501" lon="5.87175">
        <ele>458.4</ele>
        <time>2014-03-08T10:48:24Z</time>
      </trkpt>
      <trkpt lat="43.525" lon="5.87175">
        <ele>458.8</ele>
        <time>2014-03-08T10:48:25Z</time>
      </trkpt>
      <trkpt lat="43.52499" lon="5.87174">
        <ele>459.6</ele>
        <time>2014-03-08T10:48:27Z</time>
      </trkpt>
      <trkpt lat="43.52498" lon="5.87173">
        <ele>460.2</ele>
        <time>2014-03-08T10:48:28Z</time>
      </trkpt>
      <trkpt lat="43.52498" lon="5.87173">
        <ele>460.2</ele>
        <time>2014-03-08T10:48:29Z</time>
      </trkpt>
      <trkpt lat="43.52491" lon="5.87173">
        <ele>460.6</ele>
        <time>2014-03-08T10:48:36Z</time>
      </trkpt>
      <trkpt lat="43.5249" lon="5.87173">
        <ele>461</ele>
        <time>2014-03-08T10:48:37Z</time>
      </trkpt>
      <trkpt lat="43.52489" lon="5.87173">
        <ele>461.4</ele>
        <time>2014-03-08T10:48:38Z</time>
      </trkpt>
      <trkpt lat="43.52488" lon="5.87172">
        <ele>462.2</ele>
        <time>2014-03-08T10:48:40Z</time>
      </trkpt>
      <trkpt lat="43.52483" lon="5.87172">
        <ele>462.2</ele>
        <time>2014-03-08T10:48:45Z</time>
      </trkpt>
      <trkpt lat="43.5248" lon="5.87171">
        <ele>462.2</ele>
        <time>2014-03-08T10:48:50Z</time>
      </trkpt>
      <trkpt lat="43.52479" lon="5.87171">
        <ele>462.6</ele>
        <time>2014-03-08T10:48:51Z</time>
      </trkpt>
      <trkpt lat="43.52478" lon="5.87171">
        <ele>463</ele>
        <time>2014-03-08T10:48:52Z</time>
      </trkpt>
      <trkpt lat="43.52477" lon="5.8717">
        <ele>463.4</ele>
        <time>2014-03-08T10:48:53Z</time>
      </trkpt>
      <trkpt lat="43.52476" lon="5.8717">
        <ele>463.8</ele>
        <time>2014-03-08T10:48:54Z</time>
      </trkpt>
      <trkpt lat="43.52476" lon="5.8717">
        <ele>464.2</ele>
        <time>2014-03-08T10:48:55Z</time>
      </trkpt>
      <trkpt lat="43.52475" lon="5.8717">
        <ele>464.2</ele>
        <time>2014-03-08T10:48:56Z</time>
      </trkpt>
      <trkpt lat="43.52469" lon="5.87167">
        <ele>464.2</ele>
        <time>2014-03-08T10:49:04Z</time>
      </trkpt>
      <trkpt lat="43.52468" lon="5.87167">
        <ele>464.6</ele>
        <time>2014-03-08T10:49:07Z</time>
      </trkpt>
      <trkpt lat="43.52467" lon="5.87166">
        <ele>465.2</ele>
        <time>2014-03-08T10:49:08Z</time>
      </trkpt>
      <trkpt lat="43.52465" lon="5.87165">
        <ele>465.6</ele>
        <time>2014-03-08T10:49:09Z</time>
      </trkpt>
      <trkpt lat="43.52465" lon="5.87165">
        <ele>466</ele>
        <time>2014-03-08T10:49:10Z</time>
      </trkpt>
      <trkpt lat="43.52464" lon="5.87164">
        <ele>466.4</ele>
        <time>2014-03-08T10:49:11Z</time>
      </trkpt>
      <trkpt lat="43.52464" lon="5.87164">
        <ele>466.4</ele>
        <time>2014-03-08T10:49:12Z</time>
      </trkpt>
      <trkpt lat="43.5246" lon="5.8716">
        <ele>466.4</ele>
        <time>2014-03-08T10:49:18Z</time>
      </trkpt>
      <trkpt lat="43.52459" lon="5.87159">
        <ele>466.8</ele>
        <time>2014-03-08T10:49:21Z</time>
      </trkpt>
      <trkpt lat="43.52457" lon="5.87158">
        <ele>467.6</ele>
        <time>2014-03-08T10:49:23Z</time>
      </trkpt>
      <trkpt lat="43.52456" lon="5.87157">
        <ele>468.6</ele>
        <time>2014-03-08T10:49:25Z</time>
      </trkpt>
      <trkpt lat="43.52453" lon="5.87156">
        <ele>468.6</ele>
        <time>2014-03-08T10:49:32Z</time>
      </trkpt>
      <trkpt lat="43.52451" lon="5.87155">
        <ele>469</ele>
        <time>2014-03-08T10:49:33Z</time>
      </trkpt>
      <trkpt lat="43.5245" lon="5.87155">
        <ele>469.4</ele>
        <time>2014-03-08T10:49:34Z</time>
      </trkpt>
      <trkpt lat="43.5245" lon="5.87155">
        <ele>469.8</ele>
        <time>2014-03-08T10:49:35Z</time>
      </trkpt>
      <trkpt lat="43.52448" lon="5.87154">
        <ele>470.2</ele>
        <time>2014-03-08T10:49:36Z</time>
      </trkpt>
      <trkpt lat="43.52448" lon="5.87154">
        <ele>470.6</ele>
        <time>2014-03-08T10:49:37Z</time>
      </trkpt>
      <trkpt lat="43.52445" lon="5.8715">
        <ele>470.6</ele>
        <time>2014-03-08T10:49:45Z</time>
      </trkpt>
      <trkpt lat="43.52444" lon="5.87149">
        <ele>471</ele>
        <time>2014-03-08T10:49:47Z</time>
      </trkpt>
      <trkpt lat="43.52443" lon="5.87148">
        <ele>471.8</ele>
        <time>2014-03-08T10:49:49Z</time>
      </trkpt>
      <trkpt lat="43.52442" lon="5.87147">
        <ele>472.2</ele>
        <time>2014-03-08T10:49:50Z</time>
      </trkpt>
      <trkpt lat="43.52441" lon="5.87145">
        <ele>472.8</ele>
        <time>2014-03-08T10:49:52Z</time>
      </trkpt>
      <trkpt lat="43.52436" lon="5.87141">
        <ele>472.8</ele>
        <time>2014-03-08T10:49:59Z</time>
      </trkpt>
      <trkpt lat="43.52435" lon="5.8714">
        <ele>473.2</ele>
        <time>2014-03-08T10:50:00Z</time>
      </trkpt>
      <trkpt lat="43.52434" lon="5.8714">
        <ele>473.6</ele>
        <time>2014-03-08T10:50:01Z</time>
      </trkpt>
      <trkpt lat="43.52434" lon="5.87139">
        <ele>474</ele>
        <time>2014-03-08T10:50:02Z</time>
      </trkpt>
      <trkpt lat="43.52432" lon="5.87138">
        <ele>474.4</ele>
        <time>2014-03-08T10:50:03Z</time>
      </trkpt>
      <trkpt lat="43.52432" lon="5.87138">
        <ele>474.8</ele>
        <time>2014-03-08T10:50:04Z</time>
      </trkpt>
      <trkpt lat="43.52431" lon="5.87137">
        <ele>474.8</ele>
        <time>2014-03-08T10:50:06Z</time>
      </trkpt>
      <trkpt lat="43.52429" lon="5.87134">
        <ele>475.2</ele>
        <time>2014-03-08T10:50:11Z</time>
      </trkpt>
      <trkpt lat="43.52428" lon="5.87134">
        <ele>475.8</ele>
        <time>2014-03-08T10:50:12Z</time>
      </trkpt>
      <trkpt lat="43.52427" lon="5.87133">
        <ele>476.2</ele>
        <time>2014-03-08T10:50:13Z</time>
      </trkpt>
      <trkpt lat="43.52426" lon="5.87132">
        <ele>476.6</ele>
        <time>2014-03-08T10:50:14Z</time>
      </trkpt>
      <trkpt lat="43.52425" lon="5.87132">
        <ele>477</ele>
        <time>2014-03-08T10:50:15Z</time>
      </trkpt>
      <trkpt lat="43.52423" lon="5.87131">
        <ele>477</ele>
        <time>2014-03-08T10:50:19Z</time>
      </trkpt>
      <trkpt lat="43.5242" lon="5.87128">
        <ele>477.4</ele>
        <time>2014-03-08T10:50:24Z</time>
      </trkpt>
      <trkpt lat="43.52419" lon="5.87127">
        <ele>477.8</ele>
        <time>2014-03-08T10:50:25Z</time>
      </trkpt>
      <trkpt lat="43.52419" lon="5.87126">
        <ele>478.2</ele>
        <time>2014-03-08T10:50:26Z</time>
      </trkpt>
      <trkpt lat="43.52417" lon="5.87125">
        <ele>479</ele>
        <time>2014-03-08T10:50:28Z</time>
      </trkpt>
      <trkpt lat="43.52411" lon="5.87119">
        <ele>479</ele>
        <time>2014-03-08T10:50:38Z</time>
      </trkpt>
      <trkpt lat="43.5241" lon="5.87119">
        <ele>479.4</ele>
        <time>2014-03-08T10:50:39Z</time>
      </trkpt>
      <trkpt lat="43.5241" lon="5.87119">
        <ele>479.8</ele>
        <time>2014-03-08T10:50:40Z</time>
      </trkpt>
      <trkpt lat="43.52408" lon="5.87119">
        <ele>480.4</ele>
        <time>2014-03-08T10:50:41Z</time>
      </trkpt>
      <trkpt lat="43.52407" lon="5.87119">
        <ele>480.8</ele>
        <time>2014-03-08T10:50:42Z</time>
      </trkpt>
      <trkpt lat="43.52406" lon="5.87118">
        <ele>481.2</ele>
        <time>2014-03-08T10:50:43Z</time>
      </trkpt>
      <trkpt lat="43.52398" lon="5.87116">
        <ele>481.2</ele>
        <time>2014-03-08T10:50:52Z</time>
      </trkpt>
      <trkpt lat="43.52395" lon="5.87115">
        <ele>481.2</ele>
        <time>2014-03-08T10:50:55Z</time>
      </trkpt>
      <trkpt lat="43.52394" lon="5.87115">
        <ele>481.6</ele>
        <time>2014-03-08T10:50:56Z</time>
      </trkpt>
      <trkpt lat="43.52392" lon="5.87117">
        <ele>482.4</ele>
        <time>2014-03-08T10:50:58Z</time>
      </trkpt>
      <trkpt lat="43.52386" lon="5.8712">
        <ele>483.4</ele>
        <time>2014-03-08T10:51:05Z</time>
      </trkpt>
      <trkpt lat="43.5238" lon="5.8712">
        <ele>483.4</ele>
        <time>2014-03-08T10:51:12Z</time>
      </trkpt>
      <trkpt lat="43.52378" lon="5.87121">
        <ele>483.8</ele>
        <time>2014-03-08T10:51:13Z</time>
      </trkpt>
      <trkpt lat="43.52377" lon="5.87122">
        <ele>484.2</ele>
        <time>2014-03-08T10:51:14Z</time>
      </trkpt>
      <trkpt lat="43.52376" lon="5.87122">
        <ele>484.6</ele>
        <time>2014-03-08T10:51:15Z</time>
      </trkpt>
      <trkpt lat="43.52375" lon="5.87122">
        <ele>485</ele>
        <time>2014-03-08T10:51:16Z</time>
      </trkpt>
      <trkpt lat="43.52373" lon="5.87124">
        <ele>485.6</ele>
        <time>2014-03-08T10:51:19Z</time>
      </trkpt>
      <trkpt lat="43.52365" lon="5.87126">
        <ele>485.6</ele>
        <time>2014-03-08T10:51:28Z</time>
      </trkpt>
      <trkpt lat="43.52364" lon="5.87127">
        <ele>486</ele>
        <time>2014-03-08T10:51:29Z</time>
      </trkpt>
      <trkpt lat="43.52363" lon="5.87127">
        <ele>486.4</ele>
        <time>2014-03-08T10:51:30Z</time>
      </trkpt>
      <trkpt lat="43.52362" lon="5.87127">
        <ele>486.8</ele>
        <time>2014-03-08T10:51:31Z</time>
      </trkpt>
      <trkpt lat="43.5236" lon="5.87127">
        <ele>487.2</ele>
        <time>2014-03-08T10:51:32Z</time>
      </trkpt>
      <trkpt lat="43.5236" lon="5.87127">
        <ele>487.6</ele>
        <time>2014-03-08T10:51:33Z</time>
      </trkpt>
      <trkpt lat="43.52358" lon="5.87127">
        <ele>487.6</ele>
        <time>2014-03-08T10:51:35Z</time>
      </trkpt>
      <trkpt lat="43.52352" lon="5.87127">
        <ele>487.6</ele>
        <time>2014-03-08T10:51:41Z</time>
      </trkpt>
      <trkpt lat="43.52351" lon="5.87127">
        <ele>487.6</ele>
        <time>2014-03-08T10:51:42Z</time>
      </trkpt>
      <trkpt lat="43.52339" lon="5.8713">
        <ele>488</ele>
        <time>2014-03-08T10:51:53Z</time>
      </trkpt>
      <trkpt lat="43.52338" lon="5.8713">
        <ele>488.4</ele>
        <time>2014-03-08T10:51:54Z</time>
      </trkpt>
      <trkpt lat="43.52337" lon="5.87131">
        <ele>488.8</ele>
        <time>2014-03-08T10:51:55Z</time>
      </trkpt>
      <trkpt lat="43.52337" lon="5.87131">
        <ele>489.2</ele>
        <time>2014-03-08T10:51:56Z</time>
      </trkpt>
      <trkpt lat="43.52334" lon="5.87132">
        <ele>489.6</ele>
        <time>2014-03-08T10:52:05Z</time>
      </trkpt>
      <trkpt lat="43.52331" lon="5.87134">
        <ele>489.6</ele>
        <time>2014-03-08T10:52:07Z</time>
      </trkpt>
      <trkpt lat="43.52327" lon="5.87135">
        <ele>489.6</ele>
        <time>2014-03-08T10:52:10Z</time>
      </trkpt>
      <trkpt lat="43.52315" lon="5.87141">
        <ele>489.6</ele>
        <time>2014-03-08T10:52:18Z</time>
      </trkpt>
      <trkpt lat="43.52305" lon="5.87142">
        <ele>489.6</ele>
        <time>2014-03-08T10:52:24Z</time>
      </trkpt>
      <trkpt lat="43.52296" lon="5.8714">
        <ele>489.6</ele>
        <time>2014-03-08T10:52:31Z</time>
      </trkpt>
      <trkpt lat="43.52284" lon="5.87142">
        <ele>489.6</ele>
        <time>2014-03-08T10:52:38Z</time>
      </trkpt>
      <trkpt lat="43.52281" lon="5.87144">
        <ele>489.6</ele>
        <time>2014-03-08T10:52:44Z</time>
      </trkpt>
      <trkpt lat="43.52275" lon="5.87145">
        <ele>489.6</ele>
        <time>2014-03-08T10:53:03Z</time>
      </trkpt>
      <trkpt lat="43.52271" lon="5.87145">
        <ele>489.6</ele>
        <time>2014-03-08T10:53:06Z</time>
      </trkpt>
      <trkpt lat="43.52266" lon="5.87143">
        <ele>489.6</ele>
        <time>2014-03-08T10:53:09Z</time>
      </trkpt>
      <trkpt lat="43.52265" lon="5.87143">
        <ele>489.6</ele>
        <time>2014-03-08T10:53:10Z</time>
      </trkpt>
      <trkpt lat="43.5226" lon="5.87137">
        <ele>489.6</ele>
        <time>2014-03-08T10:53:15Z</time>
      </trkpt>
      <trkpt lat="43.52254" lon="5.87136">
        <ele>489.6</ele>
        <time>2014-03-08T10:53:19Z</time>
      </trkpt>
      <trkpt lat="43.52252" lon="5.87137">
        <ele>489.6</ele>
        <time>2014-03-08T10:53:20Z</time>
      </trkpt>
      <trkpt lat="43.52251" lon="5.87145">
        <ele>489.6</ele>
        <time>2014-03-08T10:53:25Z</time>
      </trkpt>
      <trkpt lat="43.52254" lon="5.87148">
        <ele>490</ele>
        <time>2014-03-08T10:53:27Z</time>
      </trkpt>
      <trkpt lat="43.52255" lon="5.8715">
        <ele>490.4</ele>
        <time>2014-03-08T10:53:28Z</time>
      </trkpt>
      <trkpt lat="43.52256" lon="5.87152">
        <ele>490.8</ele>
        <time>2014-03-08T10:53:29Z</time>
      </trkpt>
      <trkpt lat="43.52257" lon="5.87154">
        <ele>491.2</ele>
        <time>2014-03-08T10:53:30Z</time>
      </trkpt>
      <trkpt lat="43.52257" lon="5.87153">
        <ele>491.6</ele>
        <time>2014-03-08T10:53:31Z</time>
      </trkpt>
      <trkpt lat="43.52257" lon="5.87153">
        <ele>491.6</ele>
        <time>2014-03-08T10:53:33Z</time>
      </trkpt>
      <trkpt lat="43.52257" lon="5.87153">
        <ele>491.6</ele>
        <time>2014-03-08T10:54:18Z</time>
      </trkpt>
      <trkpt lat="43.52257" lon="5.87153">
        <ele>491.6</ele>
        <time>2014-03-08T10:55:00Z</time>
      </trkpt>
      <trkpt lat="43.52257" lon="5.87153">
        <ele>491.6</ele>
        <time>2014-03-08T10:55:32Z</time>
      </trkpt>
      <trkpt lat="43.52257" lon="5.87153">
        <ele>491.6</ele>
        <time>2014-03-08T10:56:24Z</time>
      </trkpt>
      <trkpt lat="43.52257" lon="5.87152">
        <ele>491.6</ele>
        <time>2014-03-08T10:57:01Z</time>
      </trkpt>
      <trkpt lat="43.52257" lon="5.87152">
        <ele>491.6</ele>
        <time>2014-03-08T10:58:22Z</time>
      </trkpt>
      <trkpt lat="43.52257" lon="5.87152">
        <ele>491.6</ele>
        <time>2014-03-08T10:58:57Z</time>
      </trkpt>
      <trkpt lat="43.52257" lon="5.87152">
        <ele>491.6</ele>
        <time>2014-03-08T10:59:31Z</time>
      </trkpt>
      <trkpt lat="43.52258" lon="5.87152">
        <ele>491.6</ele>
        <time>2014-03-08T11:00:16Z</time>
      </trkpt>
      <trkpt lat="43.52258" lon="5.87152">
        <ele>491.6</ele>
        <time>2014-03-08T11:00:23Z</time>
      </trkpt>
      <trkpt lat="43.52258" lon="5.87152">
        <ele>491.6</ele>
        <time>2014-03-08T11:01:02Z</time>
      </trkpt>
      <trkpt lat="43.52258" lon="5.87152">
        <ele>491.6</ele>
        <time>2014-03-08T11:01:14Z</time>
      </trkpt>
      <trkpt lat="43.5226" lon="5.87151">
        <ele>491.6</ele>
        <time>2014-03-08T11:01:16Z</time>
      </trkpt>
      <trkpt lat="43.52264" lon="5.8715">
        <ele>491.6</ele>
        <time>2014-03-08T11:01:19Z</time>
      </trkpt>
      <trkpt lat="43.52273" lon="5.87147">
        <ele>491.6</ele>
        <time>2014-03-08T11:01:23Z</time>
      </trkpt>
      <trkpt lat="43.52293" lon="5.87147">
        <ele>491.6</ele>
        <time>2014-03-08T11:01:29Z</time>
      </trkpt>
      <trkpt lat="43.52301" lon="5.87142">
        <ele>491.6</ele>
        <time>2014-03-08T11:01:32Z</time>
      </trkpt>
      <trkpt lat="43.52304" lon="5.87143">
        <ele>491.6</ele>
        <time>2014-03-08T11:01:33Z</time>
      </trkpt>
      <trkpt lat="43.52319" lon="5.87141">
        <ele>491.6</ele>
        <time>2014-03-08T11:01:38Z</time>
      </trkpt>
      <trkpt lat="43.52336" lon="5.87136">
        <ele>491.6</ele>
        <time>2014-03-08T11:01:42Z</time>
      </trkpt>
      <trkpt lat="43.52348" lon="5.87147">
        <ele>491.6</ele>
        <time>2014-03-08T11:01:45Z</time>
      </trkpt>
      <trkpt lat="43.52363" lon="5.87192">
        <ele>491.6</ele>
        <time>2014-03-08T11:01:54Z</time>
      </trkpt>
      <trkpt lat="43.52366" lon="5.87197">
        <ele>491.6</ele>
        <time>2014-03-08T11:01:55Z</time>
      </trkpt>
      <trkpt lat="43.52385" lon="5.87242">
        <ele>491.6</ele>
        <time>2014-03-08T11:02:03Z</time>
      </trkpt>
      <trkpt lat="43.52399" lon="5.8726">
        <ele>491.6</ele>
        <time>2014-03-08T11:02:07Z</time>
      </trkpt>
      <trkpt lat="43.52408" lon="5.87295">
        <ele>491.6</ele>
        <time>2014-03-08T11:02:13Z</time>
      </trkpt>
      <trkpt lat="43.5242" lon="5.87318">
        <ele>490.4</ele>
        <time>2014-03-08T11:02:17Z</time>
      </trkpt>
      <trkpt lat="43.52423" lon="5.87332">
        <ele>489.4</ele>
        <time>2014-03-08T11:02:19Z</time>
      </trkpt>
      <trkpt lat="43.52431" lon="5.87352">
        <ele>489.4</ele>
        <time>2014-03-08T11:02:22Z</time>
      </trkpt>
      <trkpt lat="43.52437" lon="5.87375">
        <ele>489.4</ele>
        <time>2014-03-08T11:02:25Z</time>
      </trkpt>
      <trkpt lat="43.52438" lon="5.87389">
        <ele>489</ele>
        <time>2014-03-08T11:02:27Z</time>
      </trkpt>
      <trkpt lat="43.52438" lon="5.87394">
        <ele>488.2</ele>
        <time>2014-03-08T11:02:29Z</time>
      </trkpt>
      <trkpt lat="43.52438" lon="5.87394">
        <ele>487.4</ele>
        <time>2014-03-08T11:02:30Z</time>
      </trkpt>
      <trkpt lat="43.52437" lon="5.87395">
        <ele>487.4</ele>
        <time>2014-03-08T11:02:33Z</time>
      </trkpt>
      <trkpt lat="43.52437" lon="5.87398">
        <ele>487.4</ele>
        <time>2014-03-08T11:02:34Z</time>
      </trkpt>
      <trkpt lat="43.52437" lon="5.87412">
        <ele>487.4</ele>
        <time>2014-03-08T11:02:37Z</time>
      </trkpt>
      <trkpt lat="43.52444" lon="5.87433">
        <ele>486.6</ele>
        <time>2014-03-08T11:02:40Z</time>
      </trkpt>
      <trkpt lat="43.52445" lon="5.87441">
        <ele>486.2</ele>
        <time>2014-03-08T11:02:41Z</time>
      </trkpt>
      <trkpt lat="43.52445" lon="5.8745">
        <ele>485.6</ele>
        <time>2014-03-08T11:02:42Z</time>
      </trkpt>
      <trkpt lat="43.52436" lon="5.87502">
        <ele>482</ele>
        <time>2014-03-08T11:02:48Z</time>
      </trkpt>
      <trkpt lat="43.52437" lon="5.87509">
        <ele>481.4</ele>
        <time>2014-03-08T11:02:49Z</time>
      </trkpt>
      <trkpt lat="43.5244" lon="5.87515">
        <ele>480.8</ele>
        <time>2014-03-08T11:02:50Z</time>
      </trkpt>
      <trkpt lat="43.5244" lon="5.87522">
        <ele>480.4</ele>
        <time>2014-03-08T11:02:51Z</time>
      </trkpt>
      <trkpt lat="43.52439" lon="5.87529">
        <ele>479.8</ele>
        <time>2014-03-08T11:02:52Z</time>
      </trkpt>
      <trkpt lat="43.52437" lon="5.87536">
        <ele>479.4</ele>
        <time>2014-03-08T11:02:53Z</time>
      </trkpt>
      <trkpt lat="43.52432" lon="5.87543">
        <ele>478.8</ele>
        <time>2014-03-08T11:02:54Z</time>
      </trkpt>
      <trkpt lat="43.52427" lon="5.87549">
        <ele>477.4</ele>
        <time>2014-03-08T11:02:55Z</time>
      </trkpt>
      <trkpt lat="43.52423" lon="5.87555">
        <ele>476.8</ele>
        <time>2014-03-08T11:02:56Z</time>
      </trkpt>
      <trkpt lat="43.52422" lon="5.87564">
        <ele>476.2</ele>
        <time>2014-03-08T11:02:57Z</time>
      </trkpt>
      <trkpt lat="43.52422" lon="5.87574">
        <ele>475.6</ele>
        <time>2014-03-08T11:02:58Z</time>
      </trkpt>
      <trkpt lat="43.52421" lon="5.87582">
        <ele>475.2</ele>
        <time>2014-03-08T11:02:59Z</time>
      </trkpt>
      <trkpt lat="43.52409" lon="5.87601">
        <ele>473.4</ele>
        <time>2014-03-08T11:03:02Z</time>
      </trkpt>
      <trkpt lat="43.52405" lon="5.8761">
        <ele>472.8</ele>
        <time>2014-03-08T11:03:03Z</time>
      </trkpt>
      <trkpt lat="43.52401" lon="5.87617">
        <ele>472</ele>
        <time>2014-03-08T11:03:04Z</time>
      </trkpt>
      <trkpt lat="43.52395" lon="5.87624">
        <ele>471.4</ele>
        <time>2014-03-08T11:03:05Z</time>
      </trkpt>
      <trkpt lat="43.52389" lon="5.87632">
        <ele>470.6</ele>
        <time>2014-03-08T11:03:06Z</time>
      </trkpt>
      <trkpt lat="43.52375" lon="5.87664">
        <ele>468</ele>
        <time>2014-03-08T11:03:09Z</time>
      </trkpt>
      <trkpt lat="43.52373" lon="5.87674">
        <ele>467</ele>
        <time>2014-03-08T11:03:10Z</time>
      </trkpt>
      <trkpt lat="43.5237" lon="5.87693">
        <ele>464.6</ele>
        <time>2014-03-08T11:03:12Z</time>
      </trkpt>
      <trkpt lat="43.52371" lon="5.87698">
        <ele>463.4</ele>
        <time>2014-03-08T11:03:13Z</time>
      </trkpt>
      <trkpt lat="43.52373" lon="5.87701">
        <ele>462.2</ele>
        <time>2014-03-08T11:03:14Z</time>
      </trkpt>
      <trkpt lat="43.52378" lon="5.87703">
        <ele>461</ele>
        <time>2014-03-08T11:03:15Z</time>
      </trkpt>
      <trkpt lat="43.52383" lon="5.87703">
        <ele>460</ele>
        <time>2014-03-08T11:03:16Z</time>
      </trkpt>
      <trkpt lat="43.52387" lon="5.87704">
        <ele>459</ele>
        <time>2014-03-08T11:03:17Z</time>
      </trkpt>
      <trkpt lat="43.52391" lon="5.87708">
        <ele>458.2</ele>
        <time>2014-03-08T11:03:18Z</time>
      </trkpt>
      <trkpt lat="43.52394" lon="5.87711">
        <ele>456.2</ele>
        <time>2014-03-08T11:03:19Z</time>
      </trkpt>
      <trkpt lat="43.52394" lon="5.87715">
        <ele>456.2</ele>
        <time>2014-03-08T11:03:20Z</time>
      </trkpt>
      <trkpt lat="43.52388" lon="5.87727">
        <ele>455.2</ele>
        <time>2014-03-08T11:03:22Z</time>
      </trkpt>
      <trkpt lat="43.52385" lon="5.87735">
        <ele>454.6</ele>
        <time>2014-03-08T11:03:23Z</time>
      </trkpt>
      <trkpt lat="43.5238" lon="5.87743">
        <ele>453.8</ele>
        <time>2014-03-08T11:03:24Z</time>
      </trkpt>
      <trkpt lat="43.52375" lon="5.8776">
        <ele>452</ele>
        <time>2014-03-08T11:03:26Z</time>
      </trkpt>
      <trkpt lat="43.52371" lon="5.87767">
        <ele>451</ele>
        <time>2014-03-08T11:03:27Z</time>
      </trkpt>
      <trkpt lat="43.52369" lon="5.87773">
        <ele>449.8</ele>
        <time>2014-03-08T11:03:28Z</time>
      </trkpt>
      <trkpt lat="43.52368" lon="5.87789">
        <ele>447.4</ele>
        <time>2014-03-08T11:03:30Z</time>
      </trkpt>
      <trkpt lat="43.52366" lon="5.87796">
        <ele>446</ele>
        <time>2014-03-08T11:03:31Z</time>
      </trkpt>
      <trkpt lat="43.52361" lon="5.878">
        <ele>445</ele>
        <time>2014-03-08T11:03:32Z</time>
      </trkpt>
      <trkpt lat="43.52342" lon="5.87811">
        <ele>441.4</ele>
        <time>2014-03-08T11:03:35Z</time>
      </trkpt>
      <trkpt lat="43.52335" lon="5.87814">
        <ele>440.8</ele>
        <time>2014-03-08T11:03:36Z</time>
      </trkpt>
      <trkpt lat="43.52288" lon="5.87838">
        <ele>437</ele>
        <time>2014-03-08T11:03:43Z</time>
      </trkpt>
      <trkpt lat="43.52261" lon="5.87846">
        <ele>434.2</ele>
        <time>2014-03-08T11:03:46Z</time>
      </trkpt>
      <trkpt lat="43.52252" lon="5.8785">
        <ele>433.2</ele>
        <time>2014-03-08T11:03:47Z</time>
      </trkpt>
      <trkpt lat="43.52188" lon="5.87894">
        <ele>424.6</ele>
        <time>2014-03-08T11:03:54Z</time>
      </trkpt>
      <trkpt lat="43.5218" lon="5.879">
        <ele>423.6</ele>
        <time>2014-03-08T11:03:55Z</time>
      </trkpt>
      <trkpt lat="43.52173" lon="5.87905">
        <ele>422.6</ele>
        <time>2014-03-08T11:03:56Z</time>
      </trkpt>
      <trkpt lat="43.52121" lon="5.87921">
        <ele>419.4</ele>
        <time>2014-03-08T11:04:03Z</time>
      </trkpt>
      <trkpt lat="43.52097" lon="5.87932">
        <ele>417.8</ele>
        <time>2014-03-08T11:04:06Z</time>
      </trkpt>
      <trkpt lat="43.52065" lon="5.87955">
        <ele>414.6</ele>
        <time>2014-03-08T11:04:10Z</time>
      </trkpt>
      <trkpt lat="43.52056" lon="5.87957">
        <ele>414.2</ele>
        <time>2014-03-08T11:04:11Z</time>
      </trkpt>
      <trkpt lat="43.52048" lon="5.87959">
        <ele>413.6</ele>
        <time>2014-03-08T11:04:12Z</time>
      </trkpt>
      <trkpt lat="43.5204" lon="5.87961">
        <ele>413</ele>
        <time>2014-03-08T11:04:13Z</time>
      </trkpt>
      <trkpt lat="43.52033" lon="5.87965">
        <ele>412.4</ele>
        <time>2014-03-08T11:04:14Z</time>
      </trkpt>
      <trkpt lat="43.52025" lon="5.87968">
        <ele>412.4</ele>
        <time>2014-03-08T11:04:15Z</time>
      </trkpt>
      <trkpt lat="43.52" lon="5.87969">
        <ele>412</ele>
        <time>2014-03-08T11:04:18Z</time>
      </trkpt>
      <trkpt lat="43.51987" lon="5.87974">
        <ele>411</ele>
        <time>2014-03-08T11:04:20Z</time>
      </trkpt>
      <trkpt lat="43.51982" lon="5.87975">
        <ele>410.4</ele>
        <time>2014-03-08T11:04:21Z</time>
      </trkpt>
      <trkpt lat="43.51978" lon="5.87977">
        <ele>410</ele>
        <time>2014-03-08T11:04:22Z</time>
      </trkpt>
      <trkpt lat="43.51975" lon="5.87979">
        <ele>410</ele>
        <time>2014-03-08T11:04:23Z</time>
      </trkpt>
      <trkpt lat="43.51972" lon="5.87982">
        <ele>410</ele>
        <time>2014-03-08T11:04:24Z</time>
      </trkpt>
      <trkpt lat="43.51961" lon="5.87987">
        <ele>410</ele>
        <time>2014-03-08T11:04:27Z</time>
      </trkpt>
      <trkpt lat="43.51951" lon="5.88002">
        <ele>409.6</ele>
        <time>2014-03-08T11:04:30Z</time>
      </trkpt>
      <trkpt lat="43.51947" lon="5.88007">
        <ele>409.2</ele>
        <time>2014-03-08T11:04:31Z</time>
      </trkpt>
      <trkpt lat="43.51941" lon="5.8801">
        <ele>408.6</ele>
        <time>2014-03-08T11:04:32Z</time>
      </trkpt>
      <trkpt lat="43.51936" lon="5.88012">
        <ele>407.8</ele>
        <time>2014-03-08T11:04:33Z</time>
      </trkpt>
      <trkpt lat="43.51917" lon="5.88026">
        <ele>407.8</ele>
        <time>2014-03-08T11:04:37Z</time>
      </trkpt>
      <trkpt lat="43.519" lon="5.8803">
        <ele>407.8</ele>
        <time>2014-03-08T11:04:40Z</time>
      </trkpt>
      <trkpt lat="43.51884" lon="5.8803">
        <ele>407.8</ele>
        <time>2014-03-08T11:04:43Z</time>
      </trkpt>
      <trkpt lat="43.51873" lon="5.88033">
        <ele>407.8</ele>
        <time>2014-03-08T11:04:45Z</time>
      </trkpt>
      <trkpt lat="43.51844" lon="5.88047">
        <ele>406.8</ele>
        <time>2014-03-08T11:04:50Z</time>
      </trkpt>
      <trkpt lat="43.51837" lon="5.88047">
        <ele>406.2</ele>
        <time>2014-03-08T11:04:51Z</time>
      </trkpt>
      <trkpt lat="43.51832" lon="5.88043">
        <ele>405.4</ele>
        <time>2014-03-08T11:04:52Z</time>
      </trkpt>
      <trkpt lat="43.51829" lon="5.88036">
        <ele>404.8</ele>
        <time>2014-03-08T11:04:53Z</time>
      </trkpt>
      <trkpt lat="43.51821" lon="5.87995">
        <ele>401.4</ele>
        <time>2014-03-08T11:04:57Z</time>
      </trkpt>
      <trkpt lat="43.5182" lon="5.87984">
        <ele>399.6</ele>
        <time>2014-03-08T11:04:58Z</time>
      </trkpt>
      <trkpt lat="43.51823" lon="5.87964">
        <ele>397.8</ele>
        <time>2014-03-08T11:05:00Z</time>
      </trkpt>
      <trkpt lat="43.51822" lon="5.87958">
        <ele>396.8</ele>
        <time>2014-03-08T11:05:01Z</time>
      </trkpt>
      <trkpt lat="43.5182" lon="5.87954">
        <ele>396</ele>
        <time>2014-03-08T11:05:02Z</time>
      </trkpt>
      <trkpt lat="43.51818" lon="5.87952">
        <ele>395.2</ele>
        <time>2014-03-08T11:05:03Z</time>
      </trkpt>
      <trkpt lat="43.51815" lon="5.87953">
        <ele>394.2</ele>
        <time>2014-03-08T11:05:04Z</time>
      </trkpt>
      <trkpt lat="43.51812" lon="5.87955">
        <ele>393.8</ele>
        <time>2014-03-08T11:05:05Z</time>
      </trkpt>
      <trkpt lat="43.51795" lon="5.87976">
        <ele>391.6</ele>
        <time>2014-03-08T11:05:09Z</time>
      </trkpt>
      <trkpt lat="43.51785" lon="5.87991">
        <ele>390</ele>
        <time>2014-03-08T11:05:11Z</time>
      </trkpt>
      <trkpt lat="43.51778" lon="5.88009">
        <ele>388.2</ele>
        <time>2014-03-08T11:05:13Z</time>
      </trkpt>
      <trkpt lat="43.51775" lon="5.8802">
        <ele>387.6</ele>
        <time>2014-03-08T11:05:14Z</time>
      </trkpt>
      <trkpt lat="43.51772" lon="5.88031">
        <ele>386.8</ele>
        <time>2014-03-08T11:05:15Z</time>
      </trkpt>
      <trkpt lat="43.51747" lon="5.88084">
        <ele>382.8</ele>
        <time>2014-03-08T11:05:20Z</time>
      </trkpt>
      <trkpt lat="43.51736" lon="5.88117">
        <ele>379.8</ele>
        <time>2014-03-08T11:05:23Z</time>
      </trkpt>
      <trkpt lat="43.51731" lon="5.88127">
        <ele>379</ele>
        <time>2014-03-08T11:05:24Z</time>
      </trkpt>
      <trkpt lat="43.51725" lon="5.88135">
        <ele>378.4</ele>
        <time>2014-03-08T11:05:25Z</time>
      </trkpt>
      <trkpt lat="43.51711" lon="5.88148">
        <ele>377.2</ele>
        <time>2014-03-08T11:05:27Z</time>
      </trkpt>
      <trkpt lat="43.51704" lon="5.88154">
        <ele>376.6</ele>
        <time>2014-03-08T11:05:28Z</time>
      </trkpt>
      <trkpt lat="43.51698" lon="5.8816">
        <ele>375.8</ele>
        <time>2014-03-08T11:05:29Z</time>
      </trkpt>
      <trkpt lat="43.51682" lon="5.8818">
        <ele>373.6</ele>
        <time>2014-03-08T11:05:32Z</time>
      </trkpt>
      <trkpt lat="43.51677" lon="5.88188">
        <ele>372.8</ele>
        <time>2014-03-08T11:05:33Z</time>
      </trkpt>
      <trkpt lat="43.51673" lon="5.88197">
        <ele>371.8</ele>
        <time>2014-03-08T11:05:34Z</time>
      </trkpt>
      <trkpt lat="43.51672" lon="5.88209">
        <ele>370.6</ele>
        <time>2014-03-08T11:05:35Z</time>
      </trkpt>
      <trkpt lat="43.51675" lon="5.88223">
        <ele>369.4</ele>
        <time>2014-03-08T11:05:36Z</time>
      </trkpt>
      <trkpt lat="43.51679" lon="5.88237">
        <ele>368.2</ele>
        <time>2014-03-08T11:05:37Z</time>
      </trkpt>
      <trkpt lat="43.51684" lon="5.88246">
        <ele>367</ele>
        <time>2014-03-08T11:05:38Z</time>
      </trkpt>
      <trkpt lat="43.5169" lon="5.88253">
        <ele>365.6</ele>
        <time>2014-03-08T11:05:39Z</time>
      </trkpt>
      <trkpt lat="43.51694" lon="5.88255">
        <ele>364.4</ele>
        <time>2014-03-08T11:05:40Z</time>
      </trkpt>
      <trkpt lat="43.517" lon="5.88261">
        <ele>364.4</ele>
        <time>2014-03-08T11:05:42Z</time>
      </trkpt>
      <trkpt lat="43.51702" lon="5.88264">
        <ele>364.4</ele>
        <time>2014-03-08T11:05:51Z</time>
      </trkpt>
      <trkpt lat="43.51706" lon="5.88268">
        <ele>364.4</ele>
        <time>2014-03-08T11:06:16Z</time>
      </trkpt>
      <trkpt lat="43.51707" lon="5.88268">
        <ele>364.4</ele>
        <time>2014-03-08T11:06:29Z</time>
      </trkpt>
      <trkpt lat="43.51708" lon="5.88269">
        <ele>364.4</ele>
        <time>2014-03-08T11:06:58Z</time>
      </trkpt>
      <trkpt lat="43.5171" lon="5.8827">
        <ele>364.4</ele>
        <time>2014-03-08T11:07:04Z</time>
      </trkpt>
      <trkpt lat="43.51715" lon="5.88274">
        <ele>364.4</ele>
        <time>2014-03-08T11:07:40Z</time>
      </trkpt>
      <trkpt lat="43.51725" lon="5.88283">
        <ele>364.4</ele>
        <time>2014-03-08T11:07:46Z</time>
      </trkpt>
      <trkpt lat="43.51736" lon="5.88297">
        <ele>364.4</ele>
        <time>2014-03-08T11:07:52Z</time>
      </trkpt>
      <trkpt lat="43.51749" lon="5.88307">
        <ele>364.4</ele>
        <time>2014-03-08T11:07:58Z</time>
      </trkpt>
      <trkpt lat="43.51758" lon="5.88301">
        <ele>364.4</ele>
        <time>2014-03-08T11:08:03Z</time>
      </trkpt>
      <trkpt lat="43.5179" lon="5.88251">
        <ele>366.4</ele>
        <time>2014-03-08T11:08:25Z</time>
      </trkpt>
      <trkpt lat="43.51827" lon="5.88214">
        <ele>368.2</ele>
        <time>2014-03-08T11:08:46Z</time>
      </trkpt>
      <trkpt lat="43.51845" lon="5.88203">
        <ele>368.6</ele>
        <time>2014-03-08T11:08:55Z</time>
      </trkpt>
      <trkpt lat="43.51856" lon="5.88201">
        <ele>368.6</ele>
        <time>2014-03-08T11:09:01Z</time>
      </trkpt>
      <trkpt lat="43.51872" lon="5.88199">
        <ele>369</ele>
        <time>2014-03-08T11:09:08Z</time>
      </trkpt>
      <trkpt lat="43.51874" lon="5.88198">
        <ele>369.4</ele>
        <time>2014-03-08T11:09:09Z</time>
      </trkpt>
      <trkpt lat="43.51876" lon="5.88198">
        <ele>369.8</ele>
        <time>2014-03-08T11:09:10Z</time>
      </trkpt>
      <trkpt lat="43.51879" lon="5.88198">
        <ele>370.2</ele>
        <time>2014-03-08T11:09:11Z</time>
      </trkpt>
      <trkpt lat="43.51881" lon="5.88198">
        <ele>370.6</ele>
        <time>2014-03-08T11:09:12Z</time>
      </trkpt>
      <trkpt lat="43.51889" lon="5.88196">
        <ele>370.6</ele>
        <time>2014-03-08T11:09:16Z</time>
      </trkpt>
      <trkpt lat="43.51903" lon="5.88196">
        <ele>370.6</ele>
        <time>2014-03-08T11:09:23Z</time>
      </trkpt>
      <trkpt lat="43.5192" lon="5.88193">
        <ele>371</ele>
        <time>2014-03-08T11:09:32Z</time>
      </trkpt>
      <trkpt lat="43.51923" lon="5.88192">
        <ele>371.4</ele>
        <time>2014-03-08T11:09:33Z</time>
      </trkpt>
      <trkpt lat="43.51925" lon="5.88191">
        <ele>371.8</ele>
        <time>2014-03-08T11:09:34Z</time>
      </trkpt>
      <trkpt lat="43.51927" lon="5.88191">
        <ele>372.2</ele>
        <time>2014-03-08T11:09:35Z</time>
      </trkpt>
      <trkpt lat="43.51929" lon="5.8819">
        <ele>372.6</ele>
        <time>2014-03-08T11:09:36Z</time>
      </trkpt>
      <trkpt lat="43.51943" lon="5.88188">
        <ele>372.6</ele>
        <time>2014-03-08T11:09:43Z</time>
      </trkpt>
      <trkpt lat="43.51957" lon="5.88193">
        <ele>372.6</ele>
        <time>2014-03-08T11:09:50Z</time>
      </trkpt>
      <trkpt lat="43.51972" lon="5.88206">
        <ele>372.6</ele>
        <time>2014-03-08T11:09:57Z</time>
      </trkpt>
      <trkpt lat="43.51986" lon="5.88223">
        <ele>372.6</ele>
        <time>2014-03-08T11:10:05Z</time>
      </trkpt>
      <trkpt lat="43.51991" lon="5.88229">
        <ele>373</ele>
        <time>2014-03-08T11:10:08Z</time>
      </trkpt>
      <trkpt lat="43.51995" lon="5.88232">
        <ele>373.8</ele>
        <time>2014-03-08T11:10:10Z</time>
      </trkpt>
      <trkpt lat="43.51997" lon="5.88232">
        <ele>374.2</ele>
        <time>2014-03-08T11:10:11Z</time>
      </trkpt>
      <trkpt lat="43.51999" lon="5.88232">
        <ele>374.6</ele>
        <time>2014-03-08T11:10:12Z</time>
      </trkpt>
      <trkpt lat="43.52011" lon="5.88228">
        <ele>374.6</ele>
        <time>2014-03-08T11:10:17Z</time>
      </trkpt>
      <trkpt lat="43.52021" lon="5.88223">
        <ele>374.6</ele>
        <time>2014-03-08T11:10:22Z</time>
      </trkpt>
      <trkpt lat="43.52037" lon="5.88219">
        <ele>374.6</ele>
        <time>2014-03-08T11:10:29Z</time>
      </trkpt>
      <trkpt lat="43.52055" lon="5.88209">
        <ele>374.6</ele>
        <time>2014-03-08T11:10:37Z</time>
      </trkpt>
      <trkpt lat="43.52086" lon="5.88182">
        <ele>376.8</ele>
        <time>2014-03-08T11:10:52Z</time>
      </trkpt>
      <trkpt lat="43.52101" lon="5.88171">
        <ele>376.8</ele>
        <time>2014-03-08T11:10:59Z</time>
      </trkpt>
      <trkpt lat="43.52127" lon="5.88158">
        <ele>376.8</ele>
        <time>2014-03-08T11:11:10Z</time>
      </trkpt>
      <trkpt lat="43.52142" lon="5.88157">
        <ele>376.8</ele>
        <time>2014-03-08T11:11:16Z</time>
      </trkpt>
      <trkpt lat="43.52171" lon="5.88174">
        <ele>376.8</ele>
        <time>2014-03-08T11:11:29Z</time>
      </trkpt>
      <trkpt lat="43.52185" lon="5.88173">
        <ele>376.8</ele>
        <time>2014-03-08T11:11:35Z</time>
      </trkpt>
      <trkpt lat="43.52187" lon="5.88173">
        <ele>377.2</ele>
        <time>2014-03-08T11:11:36Z</time>
      </trkpt>
      <trkpt lat="43.52191" lon="5.88171">
        <ele>378</ele>
        <time>2014-03-08T11:11:38Z</time>
      </trkpt>
      <trkpt lat="43.52196" lon="5.88168">
        <ele>379</ele>
        <time>2014-03-08T11:11:40Z</time>
      </trkpt>
      <trkpt lat="43.52198" lon="5.88167">
        <ele>379</ele>
        <time>2014-03-08T11:11:41Z</time>
      </trkpt>
      <trkpt lat="43.52208" lon="5.88159">
        <ele>379</ele>
        <time>2014-03-08T11:11:46Z</time>
      </trkpt>
      <trkpt lat="43.52219" lon="5.88147">
        <ele>379</ele>
        <time>2014-03-08T11:11:52Z</time>
      </trkpt>
      <trkpt lat="43.52233" lon="5.88118">
        <ele>379.4</ele>
        <time>2014-03-08T11:12:03Z</time>
      </trkpt>
      <trkpt lat="43.52234" lon="5.88115">
        <ele>379.8</ele>
        <time>2014-03-08T11:12:04Z</time>
      </trkpt>
      <trkpt lat="43.52235" lon="5.88112">
        <ele>380.2</ele>
        <time>2014-03-08T11:12:05Z</time>
      </trkpt>
      <trkpt lat="43.5225" lon="5.88053">
        <ele>381</ele>
        <time>2014-03-08T11:12:24Z</time>
      </trkpt>
      <trkpt lat="43.52258" lon="5.88037">
        <ele>381</ele>
        <time>2014-03-08T11:12:30Z</time>
      </trkpt>
      <trkpt lat="43.52273" lon="5.88023">
        <ele>381.4</ele>
        <time>2014-03-08T11:12:37Z</time>
      </trkpt>
      <trkpt lat="43.52275" lon="5.88022">
        <ele>381.8</ele>
        <time>2014-03-08T11:12:38Z</time>
      </trkpt>
      <trkpt lat="43.52311" lon="5.88014">
        <ele>383</ele>
        <time>2014-03-08T11:12:53Z</time>
      </trkpt>
      <trkpt lat="43.52337" lon="5.88024">
        <ele>383</ele>
        <time>2014-03-08T11:13:04Z</time>
      </trkpt>
      <trkpt lat="43.52352" lon="5.88032">
        <ele>383.8</ele>
        <time>2014-03-08T11:13:11Z</time>
      </trkpt>
      <trkpt lat="43.52354" lon="5.88033">
        <ele>384.2</ele>
        <time>2014-03-08T11:13:12Z</time>
      </trkpt>
      <trkpt lat="43.52359" lon="5.88036">
        <ele>385.2</ele>
        <time>2014-03-08T11:13:14Z</time>
      </trkpt>
      <trkpt lat="43.52383" lon="5.88048">
        <ele>385.2</ele>
        <time>2014-03-08T11:13:26Z</time>
      </trkpt>
      <trkpt lat="43.52396" lon="5.88047">
        <ele>385.2</ele>
        <time>2014-03-08T11:13:32Z</time>
      </trkpt>
      <trkpt lat="43.52407" lon="5.88036">
        <ele>385.2</ele>
        <time>2014-03-08T11:13:38Z</time>
      </trkpt>
      <trkpt lat="43.52411" lon="5.88028">
        <ele>385.6</ele>
        <time>2014-03-08T11:13:41Z</time>
      </trkpt>
      <trkpt lat="43.52411" lon="5.88018">
        <ele>386.8</ele>
        <time>2014-03-08T11:13:44Z</time>
      </trkpt>
      <trkpt lat="43.5241" lon="5.87966">
        <ele>387.2</ele>
        <time>2014-03-08T11:14:00Z</time>
      </trkpt>
      <trkpt lat="43.52417" lon="5.87923">
        <ele>389.2</ele>
        <time>2014-03-08T11:14:15Z</time>
      </trkpt>
      <trkpt lat="43.52428" lon="5.87907">
        <ele>389.2</ele>
        <time>2014-03-08T11:14:22Z</time>
      </trkpt>
      <trkpt lat="43.52442" lon="5.87903">
        <ele>389.2</ele>
        <time>2014-03-08T11:14:29Z</time>
      </trkpt>
      <trkpt lat="43.52459" lon="5.87904">
        <ele>389.6</ele>
        <time>2014-03-08T11:14:36Z</time>
      </trkpt>
      <trkpt lat="43.52461" lon="5.87904">
        <ele>390</ele>
        <time>2014-03-08T11:14:37Z</time>
      </trkpt>
      <trkpt lat="43.52463" lon="5.87905">
        <ele>390.4</ele>
        <time>2014-03-08T11:14:38Z</time>
      </trkpt>
      <trkpt lat="43.52465" lon="5.87906">
        <ele>390.8</ele>
        <time>2014-03-08T11:14:39Z</time>
      </trkpt>
      <trkpt lat="43.52467" lon="5.87906">
        <ele>391.2</ele>
        <time>2014-03-08T11:14:40Z</time>
      </trkpt>
      <trkpt lat="43.52472" lon="5.87908">
        <ele>391.2</ele>
        <time>2014-03-08T11:14:42Z</time>
      </trkpt>
      <trkpt lat="43.52483" lon="5.87921">
        <ele>391.2</ele>
        <time>2014-03-08T11:14:48Z</time>
      </trkpt>
      <trkpt lat="43.52498" lon="5.87942">
        <ele>391.2</ele>
        <time>2014-03-08T11:14:57Z</time>
      </trkpt>
      <trkpt lat="43.52509" lon="5.87945">
        <ele>391.2</ele>
        <time>2014-03-08T11:15:02Z</time>
      </trkpt>
      <trkpt lat="43.52521" lon="5.87943">
        <ele>391.2</ele>
        <time>2014-03-08T11:15:08Z</time>
      </trkpt>
      <trkpt lat="43.52527" lon="5.8794">
        <ele>392.8</ele>
        <time>2014-03-08T11:15:11Z</time>
      </trkpt>
      <trkpt lat="43.52529" lon="5.87939">
        <ele>393.2</ele>
        <time>2014-03-08T11:15:12Z</time>
      </trkpt>
      <trkpt lat="43.52532" lon="5.87934">
        <ele>393.2</ele>
        <time>2014-03-08T11:15:14Z</time>
      </trkpt>
      <trkpt lat="43.52559" lon="5.87882">
        <ele>395.4</ele>
        <time>2014-03-08T11:15:35Z</time>
      </trkpt>
      <trkpt lat="43.52563" lon="5.87866">
        <ele>395.4</ele>
        <time>2014-03-08T11:15:41Z</time>
      </trkpt>
      <trkpt lat="43.52562" lon="5.87847">
        <ele>395.4</ele>
        <time>2014-03-08T11:15:47Z</time>
      </trkpt>
      <trkpt lat="43.52556" lon="5.87828">
        <ele>395.4</ele>
        <time>2014-03-08T11:15:54Z</time>
      </trkpt>
      <trkpt lat="43.52554" lon="5.87812">
        <ele>396.6</ele>
        <time>2014-03-08T11:16:00Z</time>
      </trkpt>
      <trkpt lat="43.52555" lon="5.87795">
        <ele>397.4</ele>
        <time>2014-03-08T11:16:06Z</time>
      </trkpt>
      <trkpt lat="43.52566" lon="5.87761">
        <ele>397.4</ele>
        <time>2014-03-08T11:16:19Z</time>
      </trkpt>
      <trkpt lat="43.52567" lon="5.87754">
        <ele>397.8</ele>
        <time>2014-03-08T11:16:22Z</time>
      </trkpt>
      <trkpt lat="43.52568" lon="5.87752">
        <ele>398.2</ele>
        <time>2014-03-08T11:16:23Z</time>
      </trkpt>
      <trkpt lat="43.52568" lon="5.87749">
        <ele>398.6</ele>
        <time>2014-03-08T11:16:24Z</time>
      </trkpt>
      <trkpt lat="43.52568" lon="5.87746">
        <ele>399.6</ele>
        <time>2014-03-08T11:16:25Z</time>
      </trkpt>
      <trkpt lat="43.52564" lon="5.87712">
        <ele>399.6</ele>
        <time>2014-03-08T11:16:36Z</time>
      </trkpt>
      <trkpt lat="43.52548" lon="5.87643">
        <ele>399.6</ele>
        <time>2014-03-08T11:17:00Z</time>
      </trkpt>
      <trkpt lat="43.52539" lon="5.87621">
        <ele>399.6</ele>
        <time>2014-03-08T11:17:08Z</time>
      </trkpt>
      <trkpt lat="43.52535" lon="5.87603">
        <ele>400.8</ele>
        <time>2014-03-08T11:17:14Z</time>
      </trkpt>
      <trkpt lat="43.52532" lon="5.87586">
        <ele>401.6</ele>
        <time>2014-03-08T11:17:20Z</time>
      </trkpt>
      <trkpt lat="43.52532" lon="5.8757">
        <ele>401.6</ele>
        <time>2014-03-08T11:17:26Z</time>
      </trkpt>
      <trkpt lat="43.52537" lon="5.8755">
        <ele>402</ele>
        <time>2014-03-08T11:17:35Z</time>
      </trkpt>
      <trkpt lat="43.52538" lon="5.87549">
        <ele>402.4</ele>
        <time>2014-03-08T11:17:36Z</time>
      </trkpt>
      <trkpt lat="43.5254" lon="5.87548">
        <ele>402.8</ele>
        <time>2014-03-08T11:17:37Z</time>
      </trkpt>
      <trkpt lat="43.52553" lon="5.87531">
        <ele>403.6</ele>
        <time>2014-03-08T11:17:46Z</time>
      </trkpt>
      <trkpt lat="43.52561" lon="5.87522">
        <ele>403.6</ele>
        <time>2014-03-08T11:17:51Z</time>
      </trkpt>
      <trkpt lat="43.5257" lon="5.8751">
        <ele>403.6</ele>
        <time>2014-03-08T11:17:57Z</time>
      </trkpt>
      <trkpt lat="43.52578" lon="5.87499">
        <ele>403.6</ele>
        <time>2014-03-08T11:18:03Z</time>
      </trkpt>
      <trkpt lat="43.52582" lon="5.87496">
        <ele>404</ele>
        <time>2014-03-08T11:18:05Z</time>
      </trkpt>
      <trkpt lat="43.52583" lon="5.87495">
        <ele>404.4</ele>
        <time>2014-03-08T11:18:06Z</time>
      </trkpt>
      <trkpt lat="43.52584" lon="5.87493">
        <ele>404.8</ele>
        <time>2014-03-08T11:18:07Z</time>
      </trkpt>
      <trkpt lat="43.52586" lon="5.87491">
        <ele>405.2</ele>
        <time>2014-03-08T11:18:08Z</time>
      </trkpt>
      <trkpt lat="43.52587" lon="5.87489">
        <ele>405.6</ele>
        <time>2014-03-08T11:18:09Z</time>
      </trkpt>
      <trkpt lat="43.52595" lon="5.87483">
        <ele>405.6</ele>
        <time>2014-03-08T11:18:14Z</time>
      </trkpt>
      <trkpt lat="43.5261" lon="5.87474">
        <ele>405.6</ele>
        <time>2014-03-08T11:18:21Z</time>
      </trkpt>
      <trkpt lat="43.52613" lon="5.87473">
        <ele>405.6</ele>
        <time>2014-03-08T11:18:23Z</time>
      </trkpt>
      <trkpt lat="43.52621" lon="5.87471">
        <ele>405.6</ele>
        <time>2014-03-08T11:18:26Z</time>
      </trkpt>
      <trkpt lat="43.52622" lon="5.87472">
        <ele>405.6</ele>
        <time>2014-03-08T11:18:27Z</time>
      </trkpt>
      <trkpt lat="43.52631" lon="5.87472">
        <ele>405.6</ele>
        <time>2014-03-08T11:18:31Z</time>
      </trkpt>
      <trkpt lat="43.52632" lon="5.87472">
        <ele>405.6</ele>
        <time>2014-03-08T11:18:32Z</time>
      </trkpt>
      <trkpt lat="43.52637" lon="5.87467">
        <ele>406</ele>
        <time>2014-03-08T11:18:35Z</time>
      </trkpt>
      <trkpt lat="43.52639" lon="5.87465">
        <ele>406.4</ele>
        <time>2014-03-08T11:18:36Z</time>
      </trkpt>
      <trkpt lat="43.5264" lon="5.87463">
        <ele>406.8</ele>
        <time>2014-03-08T11:18:37Z</time>
      </trkpt>
      <trkpt lat="43.52641" lon="5.87459">
        <ele>407.2</ele>
        <time>2014-03-08T11:18:38Z</time>
      </trkpt>
      <trkpt lat="43.52642" lon="5.87457">
        <ele>407.6</ele>
        <time>2014-03-08T11:18:39Z</time>
      </trkpt>
      <trkpt lat="43.52646" lon="5.87445">
        <ele>407.6</ele>
        <time>2014-03-08T11:18:43Z</time>
      </trkpt>
      <trkpt lat="43.52643" lon="5.8743">
        <ele>407.6</ele>
        <time>2014-03-08T11:18:49Z</time>
      </trkpt>
      <trkpt lat="43.52633" lon="5.87417">
        <ele>407.6</ele>
        <time>2014-03-08T11:18:56Z</time>
      </trkpt>
      <trkpt lat="43.52628" lon="5.87406">
        <ele>408.2</ele>
        <time>2014-03-08T11:19:00Z</time>
      </trkpt>
      <trkpt lat="43.52626" lon="5.874">
        <ele>409</ele>
        <time>2014-03-08T11:19:02Z</time>
      </trkpt>
      <trkpt lat="43.52626" lon="5.87393">
        <ele>409.8</ele>
        <time>2014-03-08T11:19:04Z</time>
      </trkpt>
      <trkpt lat="43.52626" lon="5.87377">
        <ele>409.8</ele>
        <time>2014-03-08T11:19:09Z</time>
      </trkpt>
      <trkpt lat="43.52631" lon="5.87359">
        <ele>409.8</ele>
        <time>2014-03-08T11:19:15Z</time>
      </trkpt>
      <trkpt lat="43.52652" lon="5.87325">
        <ele>409.8</ele>
        <time>2014-03-08T11:19:30Z</time>
      </trkpt>
      <trkpt lat="43.5266" lon="5.87316">
        <ele>411.8</ele>
        <time>2014-03-08T11:19:35Z</time>
      </trkpt>
      <trkpt lat="43.52663" lon="5.87305">
        <ele>411.8</ele>
        <time>2014-03-08T11:19:39Z</time>
      </trkpt>
      <trkpt lat="43.52659" lon="5.87294">
        <ele>412.2</ele>
        <time>2014-03-08T11:19:43Z</time>
      </trkpt>
      <trkpt lat="43.5266" lon="5.87292">
        <ele>412.6</ele>
        <time>2014-03-08T11:19:44Z</time>
      </trkpt>
      <trkpt lat="43.52659" lon="5.87291">
        <ele>413</ele>
        <time>2014-03-08T11:19:45Z</time>
      </trkpt>
      <trkpt lat="43.52659" lon="5.87292">
        <ele>413.4</ele>
        <time>2014-03-08T11:19:46Z</time>
      </trkpt>
      <trkpt lat="43.52659" lon="5.87291">
        <ele>414</ele>
        <time>2014-03-08T11:19:47Z</time>
      </trkpt>
      <trkpt lat="43.52656" lon="5.87289">
        <ele>414</ele>
        <time>2014-03-08T11:19:51Z</time>
      </trkpt>
      <trkpt lat="43.52655" lon="5.87288">
        <ele>414</ele>
        <time>2014-03-08T11:19:52Z</time>
      </trkpt>
      <trkpt lat="43.52655" lon="5.87287">
        <ele>414.4</ele>
        <time>2014-03-08T11:19:54Z</time>
      </trkpt>
      <trkpt lat="43.52654" lon="5.87285">
        <ele>415.2</ele>
        <time>2014-03-08T11:19:56Z</time>
      </trkpt>
      <trkpt lat="43.52652" lon="5.87274">
        <ele>416</ele>
        <time>2014-03-08T11:20:06Z</time>
      </trkpt>
      <trkpt lat="43.52652" lon="5.87273">
        <ele>416.8</ele>
        <time>2014-03-08T11:20:08Z</time>
      </trkpt>
      <trkpt lat="43.52652" lon="5.87272">
        <ele>417.2</ele>
        <time>2014-03-08T11:20:09Z</time>
      </trkpt>
      <trkpt lat="43.52652" lon="5.87268">
        <ele>418</ele>
        <time>2014-03-08T11:20:12Z</time>
      </trkpt>
      <trkpt lat="43.52647" lon="5.87259">
        <ele>419</ele>
        <time>2014-03-08T11:20:21Z</time>
      </trkpt>
      <trkpt lat="43.52647" lon="5.87259">
        <ele>419.4</ele>
        <time>2014-03-08T11:20:22Z</time>
      </trkpt>
      <trkpt lat="43.52647" lon="5.87258">
        <ele>419.8</ele>
        <time>2014-03-08T11:20:23Z</time>
      </trkpt>
      <trkpt lat="43.52647" lon="5.87256">
        <ele>420.2</ele>
        <time>2014-03-08T11:20:24Z</time>
      </trkpt>
      <trkpt lat="43.52645" lon="5.87251">
        <ele>420.2</ele>
        <time>2014-03-08T11:20:29Z</time>
      </trkpt>
      <trkpt lat="43.52643" lon="5.87247">
        <ele>421</ele>
        <time>2014-03-08T11:20:33Z</time>
      </trkpt>
      <trkpt lat="43.52643" lon="5.87246">
        <ele>421.4</ele>
        <time>2014-03-08T11:20:34Z</time>
      </trkpt>
      <trkpt lat="43.52643" lon="5.87245">
        <ele>421.8</ele>
        <time>2014-03-08T11:20:35Z</time>
      </trkpt>
      <trkpt lat="43.52642" lon="5.87244">
        <ele>422.4</ele>
        <time>2014-03-08T11:20:36Z</time>
      </trkpt>
      <trkpt lat="43.5264" lon="5.87236">
        <ele>422.8</ele>
        <time>2014-03-08T11:20:44Z</time>
      </trkpt>
      <trkpt lat="43.5264" lon="5.87236">
        <ele>423.2</ele>
        <time>2014-03-08T11:20:45Z</time>
      </trkpt>
      <trkpt lat="43.52639" lon="5.87235">
        <ele>423.6</ele>
        <time>2014-03-08T11:20:46Z</time>
      </trkpt>
      <trkpt lat="43.52638" lon="5.87233">
        <ele>424</ele>
        <time>2014-03-08T11:20:47Z</time>
      </trkpt>
      <trkpt lat="43.52638" lon="5.87233">
        <ele>424.4</ele>
        <time>2014-03-08T11:20:48Z</time>
      </trkpt>
      <trkpt lat="43.52634" lon="5.87229">
        <ele>424.4</ele>
        <time>2014-03-08T11:20:54Z</time>
      </trkpt>
      <trkpt lat="43.52632" lon="5.87227">
        <ele>425</ele>
        <time>2014-03-08T11:20:56Z</time>
      </trkpt>
      <trkpt lat="43.52632" lon="5.87227">
        <ele>425.4</ele>
        <time>2014-03-08T11:20:57Z</time>
      </trkpt>
      <trkpt lat="43.52632" lon="5.87226">
        <ele>426.2</ele>
        <time>2014-03-08T11:20:58Z</time>
      </trkpt>
      <trkpt lat="43.5263" lon="5.87225">
        <ele>426.6</ele>
        <time>2014-03-08T11:20:59Z</time>
      </trkpt>
      <trkpt lat="43.5263" lon="5.87225">
        <ele>426.6</ele>
        <time>2014-03-08T11:21:00Z</time>
      </trkpt>
      <trkpt lat="43.52626" lon="5.87221">
        <ele>427</ele>
        <time>2014-03-08T11:21:07Z</time>
      </trkpt>
      <trkpt lat="43.52626" lon="5.87221">
        <ele>427.8</ele>
        <time>2014-03-08T11:21:09Z</time>
      </trkpt>
      <trkpt lat="43.52625" lon="5.8722">
        <ele>428.6</ele>
        <time>2014-03-08T11:21:11Z</time>
      </trkpt>
      <trkpt lat="43.52623" lon="5.87217">
        <ele>428.6</ele>
        <time>2014-03-08T11:21:14Z</time>
      </trkpt>
      <trkpt lat="43.52622" lon="5.87214">
        <ele>429</ele>
        <time>2014-03-08T11:21:19Z</time>
      </trkpt>
      <trkpt lat="43.52622" lon="5.87213">
        <ele>429.4</ele>
        <time>2014-03-08T11:21:20Z</time>
      </trkpt>
      <trkpt lat="43.52621" lon="5.87212">
        <ele>429.8</ele>
        <time>2014-03-08T11:21:21Z</time>
      </trkpt>
      <trkpt lat="43.5262" lon="5.87211">
        <ele>430.8</ele>
        <time>2014-03-08T11:21:22Z</time>
      </trkpt>
      <trkpt lat="43.52618" lon="5.87206">
        <ele>430.8</ele>
        <time>2014-03-08T11:21:27Z</time>
      </trkpt>
      <trkpt lat="43.52616" lon="5.87205">
        <ele>431.2</ele>
        <time>2014-03-08T11:21:30Z</time>
      </trkpt>
      <trkpt lat="43.52615" lon="5.87204">
        <ele>431.6</ele>
        <time>2014-03-08T11:21:31Z</time>
      </trkpt>
      <trkpt lat="43.52615" lon="5.87204">
        <ele>432</ele>
        <time>2014-03-08T11:21:32Z</time>
      </trkpt>
      <trkpt lat="43.52614" lon="5.87204">
        <ele>432.4</ele>
        <time>2014-03-08T11:21:33Z</time>
      </trkpt>
      <trkpt lat="43.52613" lon="5.87203">
        <ele>433</ele>
        <time>2014-03-08T11:21:34Z</time>
      </trkpt>
      <trkpt lat="43.52609" lon="5.87201">
        <ele>433.4</ele>
        <time>2014-03-08T11:21:40Z</time>
      </trkpt>
      <trkpt lat="43.52608" lon="5.87201">
        <ele>434.2</ele>
        <time>2014-03-08T11:21:42Z</time>
      </trkpt>
      <trkpt lat="43.52607" lon="5.872">
        <ele>434.6</ele>
        <time>2014-03-08T11:21:43Z</time>
      </trkpt>
      <trkpt lat="43.52607" lon="5.872">
        <ele>435.2</ele>
        <time>2014-03-08T11:21:44Z</time>
      </trkpt>
      <trkpt lat="43.52603" lon="5.87201">
        <ele>435.2</ele>
        <time>2014-03-08T11:21:48Z</time>
      </trkpt>
      <trkpt lat="43.52599" lon="5.87199">
        <ele>435.2</ele>
        <time>2014-03-08T11:21:54Z</time>
      </trkpt>
      <trkpt lat="43.52597" lon="5.87197">
        <ele>436</ele>
        <time>2014-03-08T11:21:56Z</time>
      </trkpt>
      <trkpt lat="43.52596" lon="5.87195">
        <ele>437.2</ele>
        <time>2014-03-08T11:21:59Z</time>
      </trkpt>
      <trkpt lat="43.52595" lon="5.87194">
        <ele>437.2</ele>
        <time>2014-03-08T11:22:02Z</time>
      </trkpt>
      <trkpt lat="43.52592" lon="5.87191">
        <ele>437.6</ele>
        <time>2014-03-08T11:22:07Z</time>
      </trkpt>
      <trkpt lat="43.52592" lon="5.8719">
        <ele>438</ele>
        <time>2014-03-08T11:22:08Z</time>
      </trkpt>
      <trkpt lat="43.52591" lon="5.8719">
        <ele>438.4</ele>
        <time>2014-03-08T11:22:09Z</time>
      </trkpt>
      <trkpt lat="43.5259" lon="5.87189">
        <ele>438.8</ele>
        <time>2014-03-08T11:22:10Z</time>
      </trkpt>
      <trkpt lat="43.52588" lon="5.87189">
        <ele>439.2</ele>
        <time>2014-03-08T11:22:14Z</time>
      </trkpt>
      <trkpt lat="43.52584" lon="5.87189">
        <ele>439.8</ele>
        <time>2014-03-08T11:22:18Z</time>
      </trkpt>
      <trkpt lat="43.52583" lon="5.87189">
        <ele>440.2</ele>
        <time>2014-03-08T11:22:19Z</time>
      </trkpt>
      <trkpt lat="43.52582" lon="5.8719">
        <ele>440.6</ele>
        <time>2014-03-08T11:22:20Z</time>
      </trkpt>
      <trkpt lat="43.5258" lon="5.8719">
        <ele>441.4</ele>
        <time>2014-03-08T11:22:22Z</time>
      </trkpt>
      <trkpt lat="43.52577" lon="5.87191">
        <ele>441.4</ele>
        <time>2014-03-08T11:22:28Z</time>
      </trkpt>
      <trkpt lat="43.52574" lon="5.87191">
        <ele>441.8</ele>
        <time>2014-03-08T11:22:31Z</time>
      </trkpt>
      <trkpt lat="43.52572" lon="5.87191">
        <ele>442.8</ele>
        <time>2014-03-08T11:22:33Z</time>
      </trkpt>
      <trkpt lat="43.52564" lon="5.87192">
        <ele>444</ele>
        <time>2014-03-08T11:22:41Z</time>
      </trkpt>
      <trkpt lat="43.52564" lon="5.87192">
        <ele>444.4</ele>
        <time>2014-03-08T11:22:42Z</time>
      </trkpt>
      <trkpt lat="43.52563" lon="5.87192">
        <ele>444.8</ele>
        <time>2014-03-08T11:22:43Z</time>
      </trkpt>
      <trkpt lat="43.52562" lon="5.87191">
        <ele>445.2</ele>
        <time>2014-03-08T11:22:44Z</time>
      </trkpt>
      <trkpt lat="43.52558" lon="5.87191">
        <ele>445.6</ele>
        <time>2014-03-08T11:22:51Z</time>
      </trkpt>
      <trkpt lat="43.52556" lon="5.87192">
        <ele>446</ele>
        <time>2014-03-08T11:22:55Z</time>
      </trkpt>
      <trkpt lat="43.52555" lon="5.87191">
        <ele>446.6</ele>
        <time>2014-03-08T11:22:56Z</time>
      </trkpt>
      <trkpt lat="43.52554" lon="5.87191">
        <ele>447</ele>
        <time>2014-03-08T11:22:57Z</time>
      </trkpt>
      <trkpt lat="43.52554" lon="5.8719">
        <ele>447.4</ele>
        <time>2014-03-08T11:22:58Z</time>
      </trkpt>
      <trkpt lat="43.52552" lon="5.87189">
        <ele>447.8</ele>
        <time>2014-03-08T11:23:00Z</time>
      </trkpt>
      <trkpt lat="43.52548" lon="5.87189">
        <ele>448.2</ele>
        <time>2014-03-08T11:23:07Z</time>
      </trkpt>
      <trkpt lat="43.52547" lon="5.8719">
        <ele>448.6</ele>
        <time>2014-03-08T11:23:08Z</time>
      </trkpt>
      <trkpt lat="43.52547" lon="5.8719">
        <ele>449</ele>
        <time>2014-03-08T11:23:09Z</time>
      </trkpt>
      <trkpt lat="43.52544" lon="5.8719">
        <ele>449.8</ele>
        <time>2014-03-08T11:23:11Z</time>
      </trkpt>
      <trkpt lat="43.5254" lon="5.87192">
        <ele>449.8</ele>
        <time>2014-03-08T11:23:17Z</time>
      </trkpt>
      <trkpt lat="43.52536" lon="5.8719">
        <ele>450.2</ele>
        <time>2014-03-08T11:23:21Z</time>
      </trkpt>
      <trkpt lat="43.52534" lon="5.8719">
        <ele>451.2</ele>
        <time>2014-03-08T11:23:23Z</time>
      </trkpt>
      <trkpt lat="43.52534" lon="5.8719">
        <ele>451.6</ele>
        <time>2014-03-08T11:23:24Z</time>
      </trkpt>
      <trkpt lat="43.52529" lon="5.87187">
        <ele>452.4</ele>
        <time>2014-03-08T11:23:34Z</time>
      </trkpt>
      <trkpt lat="43.52527" lon="5.87186">
        <ele>453.2</ele>
        <time>2014-03-08T11:23:36Z</time>
      </trkpt>
      <trkpt lat="43.52526" lon="5.87185">
        <ele>453.6</ele>
        <time>2014-03-08T11:23:37Z</time>
      </trkpt>
      <trkpt lat="43.52525" lon="5.87185">
        <ele>454</ele>
        <time>2014-03-08T11:23:38Z</time>
      </trkpt>
      <trkpt lat="43.52519" lon="5.87185">
        <ele>454</ele>
        <time>2014-03-08T11:23:45Z</time>
      </trkpt>
      <trkpt lat="43.52518" lon="5.87185">
        <ele>454.4</ele>
        <time>2014-03-08T11:23:46Z</time>
      </trkpt>
      <trkpt lat="43.52517" lon="5.87185">
        <ele>454.8</ele>
        <time>2014-03-08T11:23:47Z</time>
      </trkpt>
      <trkpt lat="43.52516" lon="5.87184">
        <ele>455.2</ele>
        <time>2014-03-08T11:23:48Z</time>
      </trkpt>
      <trkpt lat="43.52515" lon="5.87184">
        <ele>455.6</ele>
        <time>2014-03-08T11:23:49Z</time>
      </trkpt>
      <trkpt lat="43.52515" lon="5.87184">
        <ele>456</ele>
        <time>2014-03-08T11:23:50Z</time>
      </trkpt>
      <trkpt lat="43.52514" lon="5.87182">
        <ele>456</ele>
        <time>2014-03-08T11:23:52Z</time>
      </trkpt>
      <trkpt lat="43.52507" lon="5.87181">
        <ele>456.6</ele>
        <time>2014-03-08T11:23:59Z</time>
      </trkpt>
      <trkpt lat="43.52506" lon="5.87181">
        <ele>457</ele>
        <time>2014-03-08T11:24:00Z</time>
      </trkpt>
      <trkpt lat="43.52506" lon="5.87181">
        <ele>457.4</ele>
        <time>2014-03-08T11:24:01Z</time>
      </trkpt>
      <trkpt lat="43.52505" lon="5.8718">
        <ele>457.8</ele>
        <time>2014-03-08T11:24:02Z</time>
      </trkpt>
      <trkpt lat="43.52503" lon="5.87178">
        <ele>458.2</ele>
        <time>2014-03-08T11:24:05Z</time>
      </trkpt>
      <trkpt lat="43.52497" lon="5.87177">
        <ele>458.6</ele>
        <time>2014-03-08T11:24:12Z</time>
      </trkpt>
      <trkpt lat="43.52496" lon="5.87177">
        <ele>459</ele>
        <time>2014-03-08T11:24:13Z</time>
      </trkpt>
      <trkpt lat="43.52495" lon="5.87176">
        <ele>459.8</ele>
        <time>2014-03-08T11:24:15Z</time>
      </trkpt>
      <trkpt lat="43.52494" lon="5.87175">
        <ele>460.2</ele>
        <time>2014-03-08T11:24:16Z</time>
      </trkpt>
      <trkpt lat="43.5249" lon="5.87174">
        <ele>460.2</ele>
        <time>2014-03-08T11:24:20Z</time>
      </trkpt>
      <trkpt lat="43.52488" lon="5.87174">
        <ele>460.6</ele>
        <time>2014-03-08T11:24:22Z</time>
      </trkpt>
      <trkpt lat="43.52488" lon="5.87174">
        <ele>461</ele>
        <time>2014-03-08T11:24:23Z</time>
      </trkpt>
      <trkpt lat="43.52487" lon="5.87173">
        <ele>461.4</ele>
        <time>2014-03-08T11:24:24Z</time>
      </trkpt>
      <trkpt lat="43.52485" lon="5.87172">
        <ele>462.2</ele>
        <time>2014-03-08T11:24:26Z</time>
      </trkpt>
      <trkpt lat="43.52481" lon="5.87173">
        <ele>462.2</ele>
        <time>2014-03-08T11:24:34Z</time>
      </trkpt>
      <trkpt lat="43.52478" lon="5.87172">
        <ele>462.2</ele>
        <time>2014-03-08T11:24:42Z</time>
      </trkpt>
      <trkpt lat="43.52476" lon="5.87172">
        <ele>462.8</ele>
        <time>2014-03-08T11:24:45Z</time>
      </trkpt>
      <trkpt lat="43.52475" lon="5.87172">
        <ele>463.2</ele>
        <time>2014-03-08T11:24:46Z</time>
      </trkpt>
      <trkpt lat="43.52475" lon="5.87171">
        <ele>463.6</ele>
        <time>2014-03-08T11:24:47Z</time>
      </trkpt>
      <trkpt lat="43.52474" lon="5.87171">
        <ele>464.4</ele>
        <time>2014-03-08T11:24:49Z</time>
      </trkpt>
      <trkpt lat="43.52469" lon="5.87168">
        <ele>464.4</ele>
        <time>2014-03-08T11:24:55Z</time>
      </trkpt>
      <trkpt lat="43.52464" lon="5.87165">
        <ele>464.8</ele>
        <time>2014-03-08T11:25:01Z</time>
      </trkpt>
      <trkpt lat="43.52463" lon="5.87164">
        <ele>465.2</ele>
        <time>2014-03-08T11:25:02Z</time>
      </trkpt>
      <trkpt lat="43.52463" lon="5.87163">
        <ele>465.6</ele>
        <time>2014-03-08T11:25:03Z</time>
      </trkpt>
      <trkpt lat="43.52462" lon="5.87162">
        <ele>466</ele>
        <time>2014-03-08T11:25:04Z</time>
      </trkpt>
      <trkpt lat="43.52461" lon="5.87162">
        <ele>466.4</ele>
        <time>2014-03-08T11:25:05Z</time>
      </trkpt>
      <trkpt lat="43.52459" lon="5.87161">
        <ele>466.4</ele>
        <time>2014-03-08T11:25:08Z</time>
      </trkpt>
      <trkpt lat="43.52457" lon="5.8716">
        <ele>466.8</ele>
        <time>2014-03-08T11:25:12Z</time>
      </trkpt>
      <trkpt lat="43.52456" lon="5.87159">
        <ele>467.2</ele>
        <time>2014-03-08T11:25:13Z</time>
      </trkpt>
      <trkpt lat="43.52454" lon="5.87158">
        <ele>468.2</ele>
        <time>2014-03-08T11:25:15Z</time>
      </trkpt>
      <trkpt lat="43.52453" lon="5.87158">
        <ele>468.6</ele>
        <time>2014-03-08T11:25:16Z</time>
      </trkpt>
      <trkpt lat="43.5245" lon="5.87155">
        <ele>468.6</ele>
        <time>2014-03-08T11:25:23Z</time>
      </trkpt>
      <trkpt lat="43.52445" lon="5.87151">
        <ele>470.8</ele>
        <time>2014-03-08T11:25:30Z</time>
      </trkpt>
      <trkpt lat="43.52442" lon="5.87149">
        <ele>470.8</ele>
        <time>2014-03-08T11:25:34Z</time>
      </trkpt>
      <trkpt lat="43.52438" lon="5.87147">
        <ele>471.2</ele>
        <time>2014-03-08T11:25:39Z</time>
      </trkpt>
      <trkpt lat="43.52437" lon="5.87146">
        <ele>471.6</ele>
        <time>2014-03-08T11:25:40Z</time>
      </trkpt>
      <trkpt lat="43.52436" lon="5.87145">
        <ele>472.4</ele>
        <time>2014-03-08T11:25:42Z</time>
      </trkpt>
      <trkpt lat="43.52436" lon="5.87144">
        <ele>472.8</ele>
        <time>2014-03-08T11:25:43Z</time>
      </trkpt>
      <trkpt lat="43.52431" lon="5.87139">
        <ele>473.6</ele>
        <time>2014-03-08T11:25:50Z</time>
      </trkpt>
      <trkpt lat="43.5243" lon="5.87138">
        <ele>474</ele>
        <time>2014-03-08T11:25:51Z</time>
      </trkpt>
      <trkpt lat="43.5243" lon="5.87137">
        <ele>474.4</ele>
        <time>2014-03-08T11:25:52Z</time>
      </trkpt>
      <trkpt lat="43.52429" lon="5.87136">
        <ele>474.8</ele>
        <time>2014-03-08T11:25:53Z</time>
      </trkpt>
      <trkpt lat="43.52428" lon="5.87134">
        <ele>474.8</ele>
        <time>2014-03-08T11:25:56Z</time>
      </trkpt>
      <trkpt lat="43.52426" lon="5.87134">
        <ele>475.2</ele>
        <time>2014-03-08T11:25:58Z</time>
      </trkpt>
      <trkpt lat="43.52425" lon="5.87134">
        <ele>475.6</ele>
        <time>2014-03-08T11:25:59Z</time>
      </trkpt>
      <trkpt lat="43.52425" lon="5.87134">
        <ele>476</ele>
        <time>2014-03-08T11:26:00Z</time>
      </trkpt>
      <trkpt lat="43.52424" lon="5.87134">
        <ele>476.4</ele>
        <time>2014-03-08T11:26:01Z</time>
      </trkpt>
      <trkpt lat="43.52423" lon="5.87133">
        <ele>476.8</ele>
        <time>2014-03-08T11:26:02Z</time>
      </trkpt>
      <trkpt lat="43.52418" lon="5.87131">
        <ele>476.8</ele>
        <time>2014-03-08T11:26:09Z</time>
      </trkpt>
      <trkpt lat="43.52415" lon="5.87128">
        <ele>477.2</ele>
        <time>2014-03-08T11:26:13Z</time>
      </trkpt>
      <trkpt lat="43.52414" lon="5.87125">
        <ele>478.2</ele>
        <time>2014-03-08T11:26:15Z</time>
      </trkpt>
      <trkpt lat="43.52412" lon="5.87124">
        <ele>479</ele>
        <time>2014-03-08T11:26:17Z</time>
      </trkpt>
      <trkpt lat="43.52411" lon="5.87122">
        <ele>479</ele>
        <time>2014-03-08T11:26:19Z</time>
      </trkpt>
      <trkpt lat="43.52408" lon="5.87121">
        <ele>479</ele>
        <time>2014-03-08T11:26:23Z</time>
      </trkpt>
      <trkpt lat="43.52406" lon="5.8712">
        <ele>479.4</ele>
        <time>2014-03-08T11:26:25Z</time>
      </trkpt>
      <trkpt lat="43.52405" lon="5.87119">
        <ele>479.8</ele>
        <time>2014-03-08T11:26:26Z</time>
      </trkpt>
      <trkpt lat="43.52404" lon="5.87119">
        <ele>480.2</ele>
        <time>2014-03-08T11:26:27Z</time>
      </trkpt>
      <trkpt lat="43.52403" lon="5.87119">
        <ele>480.6</ele>
        <time>2014-03-08T11:26:28Z</time>
      </trkpt>
      <trkpt lat="43.52401" lon="5.87119">
        <ele>481</ele>
        <time>2014-03-08T11:26:30Z</time>
      </trkpt>
      <trkpt lat="43.52396" lon="5.87117">
        <ele>481</ele>
        <time>2014-03-08T11:26:36Z</time>
      </trkpt>
      <trkpt lat="43.52391" lon="5.87118">
        <ele>481.4</ele>
        <time>2014-03-08T11:26:42Z</time>
      </trkpt>
      <trkpt lat="43.5239" lon="5.87119">
        <ele>482.6</ele>
        <time>2014-03-08T11:26:44Z</time>
      </trkpt>
      <trkpt lat="43.52375" lon="5.87122">
        <ele>484.2</ele>
        <time>2014-03-08T11:27:00Z</time>
      </trkpt>
      <trkpt lat="43.52374" lon="5.87122">
        <ele>484.6</ele>
        <time>2014-03-08T11:27:01Z</time>
      </trkpt>
      <trkpt lat="43.52373" lon="5.87123">
        <ele>485.2</ele>
        <time>2014-03-08T11:27:02Z</time>
      </trkpt>
      <trkpt lat="43.52369" lon="5.87125">
        <ele>485.2</ele>
        <time>2014-03-08T11:27:07Z</time>
      </trkpt>
      <trkpt lat="43.52364" lon="5.87126">
        <ele>485.2</ele>
        <time>2014-03-08T11:27:12Z</time>
      </trkpt>
      <trkpt lat="43.52362" lon="5.87127">
        <ele>485.6</ele>
        <time>2014-03-08T11:27:16Z</time>
      </trkpt>
      <trkpt lat="43.52361" lon="5.87127">
        <ele>487.2</ele>
        <time>2014-03-08T11:27:22Z</time>
      </trkpt>
      <trkpt lat="43.52358" lon="5.87128">
        <ele>487.2</ele>
        <time>2014-03-08T11:27:25Z</time>
      </trkpt>
      <trkpt lat="43.52337" lon="5.87131">
        <ele>487.2</ele>
        <time>2014-03-08T11:27:39Z</time>
      </trkpt>
      <trkpt lat="43.52325" lon="5.87135">
        <ele>487.2</ele>
        <time>2014-03-08T11:27:46Z</time>
      </trkpt>
      <trkpt lat="43.5232" lon="5.87139">
        <ele>488.4</ele>
        <time>2014-03-08T11:27:49Z</time>
      </trkpt>
      <trkpt lat="43.52317" lon="5.8714">
        <ele>489.2</ele>
        <time>2014-03-08T11:27:51Z</time>
      </trkpt>
      <trkpt lat="43.52288" lon="5.87142">
        <ele>489.2</ele>
        <time>2014-03-08T11:28:07Z</time>
      </trkpt>
      <trkpt lat="43.52278" lon="5.87145">
        <ele>489.2</ele>
        <time>2014-03-08T11:28:13Z</time>
      </trkpt>
      <trkpt lat="43.52269" lon="5.87144">
        <ele>489.2</ele>
        <time>2014-03-08T11:28:18Z</time>
      </trkpt>
      <trkpt lat="43.5226" lon="5.87139">
        <ele>489.2</ele>
        <time>2014-03-08T11:28:23Z</time>
      </trkpt>
      <trkpt lat="43.52258" lon="5.87137">
        <ele>489.2</ele>
        <time>2014-03-08T11:28:24Z</time>
      </trkpt>
      <trkpt lat="43.52249" lon="5.87136">
        <ele>489.2</ele>
        <time>2014-03-08T11:28:29Z</time>
      </trkpt>
      <trkpt lat="43.52246" lon="5.87137">
        <ele>489.2</ele>
        <time>2014-03-08T11:28:31Z</time>
      </trkpt>
      <trkpt lat="43.52241" lon="5.87136">
        <ele>489.2</ele>
        <time>2014-03-08T11:28:34Z</time>
      </trkpt>
      <trkpt lat="43.52226" lon="5.87129">
        <ele>489.2</ele>
        <time>2014-03-08T11:28:42Z</time>
      </trkpt>
      <trkpt lat="43.52213" lon="5.87127">
        <ele>489.2</ele>
        <time>2014-03-08T11:28:48Z</time>
      </trkpt>
      <trkpt lat="43.52209" lon="5.87123">
        <ele>489.2</ele>
        <time>2014-03-08T11:28:51Z</time>
      </trkpt>
      <trkpt lat="43.522" lon="5.87106">
        <ele>490</ele>
        <time>2014-03-08T11:29:00Z</time>
      </trkpt>
      <trkpt lat="43.522" lon="5.87106">
        <ele>490.4</ele>
        <time>2014-03-08T11:29:01Z</time>
      </trkpt>
      <trkpt lat="43.522" lon="5.87106">
        <ele>491.4</ele>
        <time>2014-03-08T11:29:10Z</time>
      </trkpt>
      <trkpt lat="43.522" lon="5.87106">
        <ele>491.4</ele>
        <time>2014-03-08T11:29:21Z</time>
      </trkpt>
      <trkpt lat="43.52196" lon="5.87106">
        <ele>491.4</ele>
        <time>2014-03-08T11:29:25Z</time>
      </trkpt>
      <trkpt lat="43.52196" lon="5.87106">
        <ele>491.4</ele>
        <time>2014-03-08T11:29:30Z</time>
      </trkpt>
      <trkpt lat="43.52196" lon="5.87106">
        <ele>491.4</ele>
        <time>2014-03-08T11:30:19Z</time>
      </trkpt>
      <trkpt lat="43.52195" lon="5.87107">
        <ele>491.4</ele>
        <time>2014-03-08T11:30:52Z</time>
      </trkpt>
      <trkpt lat="43.52195" lon="5.87106">
        <ele>491.4</ele>
        <time>2014-03-08T11:31:29Z</time>
      </trkpt>
      <trkpt lat="43.52195" lon="5.87107">
        <ele>491.4</ele>
        <time>2014-03-08T11:32:18Z</time>
      </trkpt>
      <trkpt lat="43.52195" lon="5.87106">
        <ele>491.4</ele>
        <time>2014-03-08T11:32:28Z</time>
      </trkpt>
      <trkpt lat="43.52194" lon="5.87104">
        <ele>491.4</ele>
        <time>2014-03-08T11:32:33Z</time>
      </trkpt>
      <trkpt lat="43.52194" lon="5.87103">
        <ele>491.4</ele>
        <time>2014-03-08T11:33:54Z</time>
      </trkpt>
      <trkpt lat="43.52194" lon="5.87103">
        <ele>491.4</ele>
        <time>2014-03-08T11:34:31Z</time>
      </trkpt>
      <trkpt lat="43.52191" lon="5.87101">
        <ele>491.4</ele>
        <time>2014-03-08T11:34:39Z</time>
      </trkpt>
      <trkpt lat="43.52183" lon="5.87096">
        <ele>491.4</ele>
        <time>2014-03-08T11:34:44Z</time>
      </trkpt>
      <trkpt lat="43.52173" lon="5.87094">
        <ele>491.4</ele>
        <time>2014-03-08T11:34:50Z</time>
      </trkpt>
      <trkpt lat="43.52162" lon="5.87087">
        <ele>491.4</ele>
        <time>2014-03-08T11:34:56Z</time>
      </trkpt>
      <trkpt lat="43.5216" lon="5.87083">
        <ele>491.4</ele>
        <time>2014-03-08T11:34:58Z</time>
      </trkpt>
      <trkpt lat="43.52157" lon="5.87078">
        <ele>491.4</ele>
        <time>2014-03-08T11:35:01Z</time>
      </trkpt>
      <trkpt lat="43.52156" lon="5.87076">
        <ele>491.8</ele>
        <time>2014-03-08T11:35:02Z</time>
      </trkpt>
      <trkpt lat="43.52155" lon="5.87075">
        <ele>492.2</ele>
        <time>2014-03-08T11:35:03Z</time>
      </trkpt>
      <trkpt lat="43.52153" lon="5.87074">
        <ele>492.6</ele>
        <time>2014-03-08T11:35:04Z</time>
      </trkpt>
      <trkpt lat="43.52152" lon="5.87072">
        <ele>493</ele>
        <time>2014-03-08T11:35:05Z</time>
      </trkpt>
      <trkpt lat="43.52151" lon="5.8707">
        <ele>493.4</ele>
        <time>2014-03-08T11:35:06Z</time>
      </trkpt>
      <trkpt lat="43.5215" lon="5.87068">
        <ele>493.4</ele>
        <time>2014-03-08T11:35:07Z</time>
      </trkpt>
      <trkpt lat="43.52142" lon="5.87056">
        <ele>493.8</ele>
        <time>2014-03-08T11:35:14Z</time>
      </trkpt>
      <trkpt lat="43.5214" lon="5.87055">
        <ele>494.2</ele>
        <time>2014-03-08T11:35:15Z</time>
      </trkpt>
      <trkpt lat="43.52138" lon="5.87052">
        <ele>495</ele>
        <time>2014-03-08T11:35:17Z</time>
      </trkpt>
      <trkpt lat="43.52137" lon="5.8705">
        <ele>495.4</ele>
        <time>2014-03-08T11:35:18Z</time>
      </trkpt>
      <trkpt lat="43.52118" lon="5.87036">
        <ele>495.8</ele>
        <time>2014-03-08T11:35:30Z</time>
      </trkpt>
      <trkpt lat="43.52117" lon="5.87035">
        <ele>496.2</ele>
        <time>2014-03-08T11:35:31Z</time>
      </trkpt>
      <trkpt lat="43.52115" lon="5.87033">
        <ele>496.6</ele>
        <time>2014-03-08T11:35:32Z</time>
      </trkpt>
      <trkpt lat="43.52114" lon="5.87032">
        <ele>497</ele>
        <time>2014-03-08T11:35:33Z</time>
      </trkpt>
      <trkpt lat="43.52113" lon="5.8703">
        <ele>497.4</ele>
        <time>2014-03-08T11:35:34Z</time>
      </trkpt>
      <trkpt lat="43.52097" lon="5.8701">
        <ele>497.4</ele>
        <time>2014-03-08T11:35:45Z</time>
      </trkpt>
      <trkpt lat="43.52094" lon="5.87009">
        <ele>497.4</ele>
        <time>2014-03-08T11:35:46Z</time>
      </trkpt>
      <trkpt lat="43.52076" lon="5.87002">
        <ele>497.4</ele>
        <time>2014-03-08T11:35:53Z</time>
      </trkpt>
      <trkpt lat="43.52063" lon="5.86992">
        <ele>497.4</ele>
        <time>2014-03-08T11:35:58Z</time>
      </trkpt>
      <trkpt lat="43.52045" lon="5.86982">
        <ele>497.4</ele>
        <time>2014-03-08T11:36:04Z</time>
      </trkpt>
      <trkpt lat="43.52035" lon="5.86982">
        <ele>497.4</ele>
        <time>2014-03-08T11:36:08Z</time>
      </trkpt>
      <trkpt lat="43.51985" lon="5.86967">
        <ele>497.4</ele>
        <time>2014-03-08T11:36:28Z</time>
      </trkpt>
      <trkpt lat="43.51977" lon="5.86972">
        <ele>497.4</ele>
        <time>2014-03-08T11:36:32Z</time>
      </trkpt>
      <trkpt lat="43.51974" lon="5.86982">
        <ele>497.4</ele>
        <time>2014-03-08T11:36:36Z</time>
      </trkpt>
      <trkpt lat="43.51972" lon="5.86984">
        <ele>497.4</ele>
        <time>2014-03-08T11:36:37Z</time>
      </trkpt>
      <trkpt lat="43.51964" lon="5.86994">
        <ele>498.6</ele>
        <time>2014-03-08T11:36:42Z</time>
      </trkpt>
      <trkpt lat="43.51963" lon="5.86996">
        <ele>499</ele>
        <time>2014-03-08T11:36:43Z</time>
      </trkpt>
      <trkpt lat="43.51961" lon="5.86997">
        <ele>499.4</ele>
        <time>2014-03-08T11:36:44Z</time>
      </trkpt>
      <trkpt lat="43.5195" lon="5.86996">
        <ele>499.4</ele>
        <time>2014-03-08T11:36:49Z</time>
      </trkpt>
      <trkpt lat="43.51938" lon="5.86986">
        <ele>499.4</ele>
        <time>2014-03-08T11:36:55Z</time>
      </trkpt>
      <trkpt lat="43.51926" lon="5.8699">
        <ele>499.4</ele>
        <time>2014-03-08T11:37:00Z</time>
      </trkpt>
      <trkpt lat="43.5191" lon="5.87001">
        <ele>499.4</ele>
        <time>2014-03-08T11:37:06Z</time>
      </trkpt>
      <trkpt lat="43.51905" lon="5.86993">
        <ele>499.4</ele>
        <time>2014-03-08T11:37:10Z</time>
      </trkpt>
      <trkpt lat="43.51904" lon="5.86985">
        <ele>499.4</ele>
        <time>2014-03-08T11:37:13Z</time>
      </trkpt>
      <trkpt lat="43.51903" lon="5.86981">
        <ele>499.8</ele>
        <time>2014-03-08T11:37:15Z</time>
      </trkpt>
      <trkpt lat="43.51901" lon="5.86979">
        <ele>500.2</ele>
        <time>2014-03-08T11:37:16Z</time>
      </trkpt>
      <trkpt lat="43.519" lon="5.86978">
        <ele>500.6</ele>
        <time>2014-03-08T11:37:17Z</time>
      </trkpt>
      <trkpt lat="43.51898" lon="5.86977">
        <ele>501</ele>
        <time>2014-03-08T11:37:18Z</time>
      </trkpt>
      <trkpt lat="43.51896" lon="5.86977">
        <ele>501.4</ele>
        <time>2014-03-08T11:37:19Z</time>
      </trkpt>
      <trkpt lat="43.51891" lon="5.86978">
        <ele>501.4</ele>
        <time>2014-03-08T11:37:22Z</time>
      </trkpt>
      <trkpt lat="43.51889" lon="5.86977">
        <ele>501.4</ele>
        <time>2014-03-08T11:37:23Z</time>
      </trkpt>
      <trkpt lat="43.51886" lon="5.86973">
        <ele>501.8</ele>
        <time>2014-03-08T11:37:26Z</time>
      </trkpt>
      <trkpt lat="43.51885" lon="5.86975">
        <ele>502.2</ele>
        <time>2014-03-08T11:37:27Z</time>
      </trkpt>
      <trkpt lat="43.51885" lon="5.86976">
        <ele>502.6</ele>
        <time>2014-03-08T11:37:28Z</time>
      </trkpt>
      <trkpt lat="43.51884" lon="5.86978">
        <ele>503</ele>
        <time>2014-03-08T11:37:29Z</time>
      </trkpt>
      <trkpt lat="43.51882" lon="5.86979">
        <ele>503.6</ele>
        <time>2014-03-08T11:37:30Z</time>
      </trkpt>
      <trkpt lat="43.51876" lon="5.86983">
        <ele>503.6</ele>
        <time>2014-03-08T11:37:34Z</time>
      </trkpt>
      <trkpt lat="43.51873" lon="5.86985">
        <ele>503.6</ele>
        <time>2014-03-08T11:37:36Z</time>
      </trkpt>
      <trkpt lat="43.51869" lon="5.86986">
        <ele>503.6</ele>
        <time>2014-03-08T11:37:38Z</time>
      </trkpt>
      <trkpt lat="43.51866" lon="5.86987">
        <ele>503.6</ele>
        <time>2014-03-08T11:37:40Z</time>
      </trkpt>
      <trkpt lat="43.51863" lon="5.8699">
        <ele>503.6</ele>
        <time>2014-03-08T11:37:42Z</time>
      </trkpt>
      <trkpt lat="43.5186" lon="5.86995">
        <ele>504</ele>
        <time>2014-03-08T11:37:45Z</time>
      </trkpt>
      <trkpt lat="43.51859" lon="5.86996">
        <ele>504.4</ele>
        <time>2014-03-08T11:37:46Z</time>
      </trkpt>
      <trkpt lat="43.51859" lon="5.86997">
        <ele>504.8</ele>
        <time>2014-03-08T11:37:47Z</time>
      </trkpt>
      <trkpt lat="43.51859" lon="5.86999">
        <ele>505.2</ele>
        <time>2014-03-08T11:37:48Z</time>
      </trkpt>
      <trkpt lat="43.5186" lon="5.87">
        <ele>505.6</ele>
        <time>2014-03-08T11:37:49Z</time>
      </trkpt>
      <trkpt lat="43.51861" lon="5.87001">
        <ele>505.6</ele>
        <time>2014-03-08T11:37:50Z</time>
      </trkpt>
      <trkpt lat="43.51862" lon="5.87001">
        <ele>505.6</ele>
        <time>2014-03-08T11:37:55Z</time>
      </trkpt>
      <trkpt lat="43.51862" lon="5.87001">
        <ele>505.6</ele>
        <time>2014-03-08T11:38:40Z</time>
      </trkpt>
      <trkpt lat="43.51862" lon="5.87001">
        <ele>505.6</ele>
        <time>2014-03-08T11:39:19Z</time>
      </trkpt>
      <trkpt lat="43.51866" lon="5.87">
        <ele>505.6</ele>
        <time>2014-03-08T11:39:22Z</time>
      </trkpt>
      <trkpt lat="43.51868" lon="5.86998">
        <ele>505.6</ele>
        <time>2014-03-08T11:39:23Z</time>
      </trkpt>
      <trkpt lat="43.51873" lon="5.86996">
        <ele>505.6</ele>
        <time>2014-03-08T11:39:25Z</time>
      </trkpt>
      <trkpt lat="43.51881" lon="5.86998">
        <ele>505.6</ele>
        <time>2014-03-08T11:39:27Z</time>
      </trkpt>
      <trkpt lat="43.51888" lon="5.87005">
        <ele>505</ele>
        <time>2014-03-08T11:39:29Z</time>
      </trkpt>
      <trkpt lat="43.5189" lon="5.87014">
        <ele>503.8</ele>
        <time>2014-03-08T11:39:31Z</time>
      </trkpt>
      <trkpt lat="43.51894" lon="5.87014">
        <ele>503.2</ele>
        <time>2014-03-08T11:39:32Z</time>
      </trkpt>
      <trkpt lat="43.51899" lon="5.87012">
        <ele>502.8</ele>
        <time>2014-03-08T11:39:33Z</time>
      </trkpt>
      <trkpt lat="43.51903" lon="5.87012">
        <ele>502.4</ele>
        <time>2014-03-08T11:39:34Z</time>
      </trkpt>
      <trkpt lat="43.51905" lon="5.87015">
        <ele>502</ele>
        <time>2014-03-08T11:39:35Z</time>
      </trkpt>
      <trkpt lat="43.51905" lon="5.87019">
        <ele>501.6</ele>
        <time>2014-03-08T11:39:36Z</time>
      </trkpt>
      <trkpt lat="43.51903" lon="5.87023">
        <ele>501.2</ele>
        <time>2014-03-08T11:39:37Z</time>
      </trkpt>
      <trkpt lat="43.51902" lon="5.8703">
        <ele>501.2</ele>
        <time>2014-03-08T11:39:38Z</time>
      </trkpt>
      <trkpt lat="43.51903" lon="5.87047">
        <ele>500.6</ele>
        <time>2014-03-08T11:39:40Z</time>
      </trkpt>
      <trkpt lat="43.51901" lon="5.87056">
        <ele>500.2</ele>
        <time>2014-03-08T11:39:41Z</time>
      </trkpt>
      <trkpt lat="43.51892" lon="5.87072">
        <ele>499</ele>
        <time>2014-03-08T11:39:43Z</time>
      </trkpt>
      <trkpt lat="43.51882" lon="5.87082">
        <ele>497.4</ele>
        <time>2014-03-08T11:39:45Z</time>
      </trkpt>
      <trkpt lat="43.51879" lon="5.87088">
        <ele>496.8</ele>
        <time>2014-03-08T11:39:46Z</time>
      </trkpt>
      <trkpt lat="43.51875" lon="5.87092">
        <ele>496</ele>
        <time>2014-03-08T11:39:47Z</time>
      </trkpt>
      <trkpt lat="43.5187" lon="5.87094">
        <ele>495.6</ele>
        <time>2014-03-08T11:39:48Z</time>
      </trkpt>
      <trkpt lat="43.51867" lon="5.871">
        <ele>495</ele>
        <time>2014-03-08T11:39:49Z</time>
      </trkpt>
      <trkpt lat="43.51866" lon="5.87108">
        <ele>494.6</ele>
        <time>2014-03-08T11:39:50Z</time>
      </trkpt>
      <trkpt lat="43.51865" lon="5.87115">
        <ele>494.2</ele>
        <time>2014-03-08T11:39:51Z</time>
      </trkpt>
      <trkpt lat="43.51862" lon="5.87122">
        <ele>493.6</ele>
        <time>2014-03-08T11:39:52Z</time>
      </trkpt>
      <trkpt lat="43.51861" lon="5.87127">
        <ele>493</ele>
        <time>2014-03-08T11:39:53Z</time>
      </trkpt>
      <trkpt lat="43.51861" lon="5.87129">
        <ele>492</ele>
        <time>2014-03-08T11:39:54Z</time>
      </trkpt>
      <trkpt lat="43.51863" lon="5.87134">
        <ele>491.4</ele>
        <time>2014-03-08T11:39:56Z</time>
      </trkpt>
      <trkpt lat="43.51863" lon="5.87137">
        <ele>491</ele>
        <time>2014-03-08T11:39:57Z</time>
      </trkpt>
      <trkpt lat="43.51857" lon="5.87142">
        <ele>490</ele>
        <time>2014-03-08T11:39:59Z</time>
      </trkpt>
      <trkpt lat="43.51856" lon="5.87147">
        <ele>489.6</ele>
        <time>2014-03-08T11:40:00Z</time>
      </trkpt>
      <trkpt lat="43.51858" lon="5.87158">
        <ele>488.4</ele>
        <time>2014-03-08T11:40:02Z</time>
      </trkpt>
      <trkpt lat="43.51857" lon="5.87162">
        <ele>487.6</ele>
        <time>2014-03-08T11:40:03Z</time>
      </trkpt>
      <trkpt lat="43.51848" lon="5.87177">
        <ele>485.2</ele>
        <time>2014-03-08T11:40:06Z</time>
      </trkpt>
      <trkpt lat="43.51844" lon="5.87188">
        <ele>481.8</ele>
        <time>2014-03-08T11:40:09Z</time>
      </trkpt>
      <trkpt lat="43.51844" lon="5.8719">
        <ele>480.8</ele>
        <time>2014-03-08T11:40:10Z</time>
      </trkpt>
      <trkpt lat="43.51844" lon="5.87193">
        <ele>479.6</ele>
        <time>2014-03-08T11:40:11Z</time>
      </trkpt>
      <trkpt lat="43.51843" lon="5.87195">
        <ele>478.6</ele>
        <time>2014-03-08T11:40:12Z</time>
      </trkpt>
      <trkpt lat="43.51842" lon="5.87196">
        <ele>477.4</ele>
        <time>2014-03-08T11:40:13Z</time>
      </trkpt>
      <trkpt lat="43.51833" lon="5.87196">
        <ele>477</ele>
        <time>2014-03-08T11:40:17Z</time>
      </trkpt>
      <trkpt lat="43.5183" lon="5.87195">
        <ele>476.6</ele>
        <time>2014-03-08T11:40:18Z</time>
      </trkpt>
      <trkpt lat="43.51827" lon="5.87197">
        <ele>475.6</ele>
        <time>2014-03-08T11:40:19Z</time>
      </trkpt>
      <trkpt lat="43.51825" lon="5.872">
        <ele>475</ele>
        <time>2014-03-08T11:40:20Z</time>
      </trkpt>
      <trkpt lat="43.51816" lon="5.87206">
        <ele>473.4</ele>
        <time>2014-03-08T11:40:22Z</time>
      </trkpt>
      <trkpt lat="43.51801" lon="5.87221">
        <ele>470.2</ele>
        <time>2014-03-08T11:40:25Z</time>
      </trkpt>
      <trkpt lat="43.51794" lon="5.87236">
        <ele>467.8</ele>
        <time>2014-03-08T11:40:27Z</time>
      </trkpt>
      <trkpt lat="43.51784" lon="5.87248">
        <ele>464.4</ele>
        <time>2014-03-08T11:40:30Z</time>
      </trkpt>
      <trkpt lat="43.51781" lon="5.87249">
        <ele>463.4</ele>
        <time>2014-03-08T11:40:31Z</time>
      </trkpt>
      <trkpt lat="43.51781" lon="5.8725">
        <ele>462.4</ele>
        <time>2014-03-08T11:40:32Z</time>
      </trkpt>
      <trkpt lat="43.5178" lon="5.8725">
        <ele>461.6</ele>
        <time>2014-03-08T11:40:33Z</time>
      </trkpt>
      <trkpt lat="43.51778" lon="5.8725">
        <ele>460.6</ele>
        <time>2014-03-08T11:40:42Z</time>
      </trkpt>
      <trkpt lat="43.51773" lon="5.87252">
        <ele>460</ele>
        <time>2014-03-08T11:40:44Z</time>
      </trkpt>
      <trkpt lat="43.51773" lon="5.87253">
        <ele>459.6</ele>
        <time>2014-03-08T11:40:45Z</time>
      </trkpt>
      <trkpt lat="43.51773" lon="5.87253">
        <ele>459.2</ele>
        <time>2014-03-08T11:40:46Z</time>
      </trkpt>
      <trkpt lat="43.51773" lon="5.87253">
        <ele>458.8</ele>
        <time>2014-03-08T11:40:47Z</time>
      </trkpt>
      <trkpt lat="43.51771" lon="5.87253">
        <ele>458.2</ele>
        <time>2014-03-08T11:40:50Z</time>
      </trkpt>
      <trkpt lat="43.5177" lon="5.87252">
        <ele>458.2</ele>
        <time>2014-03-08T11:40:52Z</time>
      </trkpt>
      <trkpt lat="43.5177" lon="5.87252">
        <ele>458.2</ele>
        <time>2014-03-08T11:41:01Z</time>
      </trkpt>
      <trkpt lat="43.51769" lon="5.87252">
        <ele>458.2</ele>
        <time>2014-03-08T11:41:03Z</time>
      </trkpt>
      <trkpt lat="43.51765" lon="5.87254">
        <ele>458.2</ele>
        <time>2014-03-08T11:41:05Z</time>
      </trkpt>
      <trkpt lat="43.51751" lon="5.87265">
        <ele>456.4</ele>
        <time>2014-03-08T11:41:17Z</time>
      </trkpt>
      <trkpt lat="43.51748" lon="5.87267">
        <ele>456</ele>
        <time>2014-03-08T11:41:18Z</time>
      </trkpt>
      <trkpt lat="43.51744" lon="5.87269">
        <ele>456</ele>
        <time>2014-03-08T11:41:19Z</time>
      </trkpt>
      <trkpt lat="43.51738" lon="5.87268">
        <ele>455.6</ele>
        <time>2014-03-08T11:41:20Z</time>
      </trkpt>
      <trkpt lat="43.51734" lon="5.87271">
        <ele>455</ele>
        <time>2014-03-08T11:41:21Z</time>
      </trkpt>
      <trkpt lat="43.5173" lon="5.87275">
        <ele>454.6</ele>
        <time>2014-03-08T11:41:22Z</time>
      </trkpt>
      <trkpt lat="43.51723" lon="5.87289">
        <ele>453.2</ele>
        <time>2014-03-08T11:41:24Z</time>
      </trkpt>
      <trkpt lat="43.51713" lon="5.87299">
        <ele>451.8</ele>
        <time>2014-03-08T11:41:26Z</time>
      </trkpt>
      <trkpt lat="43.51704" lon="5.87324">
        <ele>449.6</ele>
        <time>2014-03-08T11:41:29Z</time>
      </trkpt>
      <trkpt lat="43.51701" lon="5.87342">
        <ele>448</ele>
        <time>2014-03-08T11:41:31Z</time>
      </trkpt>
      <trkpt lat="43.51697" lon="5.87352">
        <ele>446.4</ele>
        <time>2014-03-08T11:41:33Z</time>
      </trkpt>
      <trkpt lat="43.51687" lon="5.87369">
        <ele>443.2</ele>
        <time>2014-03-08T11:41:38Z</time>
      </trkpt>
      <trkpt lat="43.51686" lon="5.8737">
        <ele>442.6</ele>
        <time>2014-03-08T11:41:39Z</time>
      </trkpt>
      <trkpt lat="43.51686" lon="5.87374">
        <ele>441.8</ele>
        <time>2014-03-08T11:41:40Z</time>
      </trkpt>
      <trkpt lat="43.51673" lon="5.87449">
        <ele>437.6</ele>
        <time>2014-03-08T11:41:49Z</time>
      </trkpt>
      <trkpt lat="43.51669" lon="5.87459">
        <ele>436.8</ele>
        <time>2014-03-08T11:41:50Z</time>
      </trkpt>
      <trkpt lat="43.51666" lon="5.87466">
        <ele>436</ele>
        <time>2014-03-08T11:41:51Z</time>
      </trkpt>
      <trkpt lat="43.51665" lon="5.87468">
        <ele>435.4</ele>
        <time>2014-03-08T11:41:52Z</time>
      </trkpt>
      <trkpt lat="43.51665" lon="5.87468">
        <ele>434.6</ele>
        <time>2014-03-08T11:41:53Z</time>
      </trkpt>
      <trkpt lat="43.51664" lon="5.87469">
        <ele>433.2</ele>
        <time>2014-03-08T11:41:55Z</time>
      </trkpt>
      <trkpt lat="43.51664" lon="5.87469">
        <ele>432.4</ele>
        <time>2014-03-08T11:41:56Z</time>
      </trkpt>
      <trkpt lat="43.51663" lon="5.87471">
        <ele>432.4</ele>
        <time>2014-03-08T11:41:57Z</time>
      </trkpt>
      <trkpt lat="43.51658" lon="5.87485">
        <ele>432.4</ele>
        <time>2014-03-08T11:42:03Z</time>
      </trkpt>
      <trkpt lat="43.51659" lon="5.87488">
        <ele>431.8</ele>
        <time>2014-03-08T11:42:04Z</time>
      </trkpt>
      <trkpt lat="43.5166" lon="5.87494">
        <ele>431.4</ele>
        <time>2014-03-08T11:42:05Z</time>
      </trkpt>
      <trkpt lat="43.5166" lon="5.87502">
        <ele>430.6</ele>
        <time>2014-03-08T11:42:06Z</time>
      </trkpt>
      <trkpt lat="43.51658" lon="5.87511">
        <ele>430</ele>
        <time>2014-03-08T11:42:07Z</time>
      </trkpt>
      <trkpt lat="43.51655" lon="5.87518">
        <ele>429</ele>
        <time>2014-03-08T11:42:08Z</time>
      </trkpt>
      <trkpt lat="43.51647" lon="5.87533">
        <ele>427</ele>
        <time>2014-03-08T11:42:10Z</time>
      </trkpt>
      <trkpt lat="43.51645" lon="5.87538">
        <ele>426</ele>
        <time>2014-03-08T11:42:11Z</time>
      </trkpt>
      <trkpt lat="43.51637" lon="5.87569">
        <ele>422.2</ele>
        <time>2014-03-08T11:42:15Z</time>
      </trkpt>
      <trkpt lat="43.51633" lon="5.87578">
        <ele>421.2</ele>
        <time>2014-03-08T11:42:16Z</time>
      </trkpt>
      <trkpt lat="43.51628" lon="5.87585">
        <ele>420</ele>
        <time>2014-03-08T11:42:17Z</time>
      </trkpt>
      <trkpt lat="43.5162" lon="5.87601">
        <ele>417.6</ele>
        <time>2014-03-08T11:42:19Z</time>
      </trkpt>
      <trkpt lat="43.51614" lon="5.87609">
        <ele>416.4</ele>
        <time>2014-03-08T11:42:20Z</time>
      </trkpt>
      <trkpt lat="43.51609" lon="5.87617">
        <ele>415.2</ele>
        <time>2014-03-08T11:42:21Z</time>
      </trkpt>
      <trkpt lat="43.51605" lon="5.87623">
        <ele>414.4</ele>
        <time>2014-03-08T11:42:22Z</time>
      </trkpt>
      <trkpt lat="43.51599" lon="5.87626">
        <ele>412.6</ele>
        <time>2014-03-08T11:42:23Z</time>
      </trkpt>
      <trkpt lat="43.51595" lon="5.87626">
        <ele>411.8</ele>
        <time>2014-03-08T11:42:24Z</time>
      </trkpt>
      <trkpt lat="43.5159" lon="5.87626">
        <ele>410.8</ele>
        <time>2014-03-08T11:42:25Z</time>
      </trkpt>
      <trkpt lat="43.51579" lon="5.8763">
        <ele>410.4</ele>
        <time>2014-03-08T11:42:27Z</time>
      </trkpt>
      <trkpt lat="43.51574" lon="5.87635">
        <ele>410</ele>
        <time>2014-03-08T11:42:28Z</time>
      </trkpt>
      <trkpt lat="43.5157" lon="5.87642">
        <ele>409.6</ele>
        <time>2014-03-08T11:42:29Z</time>
      </trkpt>
      <trkpt lat="43.51567" lon="5.87648">
        <ele>409.2</ele>
        <time>2014-03-08T11:42:30Z</time>
      </trkpt>
      <trkpt lat="43.51559" lon="5.87662">
        <ele>408</ele>
        <time>2014-03-08T11:42:32Z</time>
      </trkpt>
      <trkpt lat="43.51554" lon="5.87669">
        <ele>407.6</ele>
        <time>2014-03-08T11:42:33Z</time>
      </trkpt>
      <trkpt lat="43.51549" lon="5.87674">
        <ele>407</ele>
        <time>2014-03-08T11:42:34Z</time>
      </trkpt>
      <trkpt lat="43.51543" lon="5.87678">
        <ele>406.4</ele>
        <time>2014-03-08T11:42:35Z</time>
      </trkpt>
      <trkpt lat="43.51535" lon="5.87678">
        <ele>406</ele>
        <time>2014-03-08T11:42:36Z</time>
      </trkpt>
      <trkpt lat="43.51527" lon="5.87676">
        <ele>405.6</ele>
        <time>2014-03-08T11:42:37Z</time>
      </trkpt>
      <trkpt lat="43.5152" lon="5.87675">
        <ele>405.2</ele>
        <time>2014-03-08T11:42:38Z</time>
      </trkpt>
      <trkpt lat="43.51513" lon="5.87673">
        <ele>404.6</ele>
        <time>2014-03-08T11:42:39Z</time>
      </trkpt>
      <trkpt lat="43.51507" lon="5.87673">
        <ele>404.2</ele>
        <time>2014-03-08T11:42:40Z</time>
      </trkpt>
      <trkpt lat="43.515" lon="5.87675">
        <ele>403.8</ele>
        <time>2014-03-08T11:42:41Z</time>
      </trkpt>
      <trkpt lat="43.51489" lon="5.87685">
        <ele>402.8</ele>
        <time>2014-03-08T11:42:43Z</time>
      </trkpt>
      <trkpt lat="43.51426" lon="5.87724">
        <ele>397.4</ele>
        <time>2014-03-08T11:42:52Z</time>
      </trkpt>
      <trkpt lat="43.51417" lon="5.87739">
        <ele>397.4</ele>
        <time>2014-03-08T11:42:54Z</time>
      </trkpt>
      <trkpt lat="43.51392" lon="5.87787">
        <ele>394.4</ele>
        <time>2014-03-08T11:43:00Z</time>
      </trkpt>
      <trkpt lat="43.51389" lon="5.87796">
        <ele>393.8</ele>
        <time>2014-03-08T11:43:01Z</time>
      </trkpt>
      <trkpt lat="43.51385" lon="5.87805">
        <ele>393.2</ele>
        <time>2014-03-08T11:43:02Z</time>
      </trkpt>
      <trkpt lat="43.51375" lon="5.87819">
        <ele>392.2</ele>
        <time>2014-03-08T11:43:04Z</time>
      </trkpt>
      <trkpt lat="43.51369" lon="5.87824">
        <ele>391.8</ele>
        <time>2014-03-08T11:43:05Z</time>
      </trkpt>
      <trkpt lat="43.51362" lon="5.87825">
        <ele>391.2</ele>
        <time>2014-03-08T11:43:06Z</time>
      </trkpt>
      <trkpt lat="43.51355" lon="5.87828">
        <ele>390.8</ele>
        <time>2014-03-08T11:43:07Z</time>
      </trkpt>
      <trkpt lat="43.51348" lon="5.8783">
        <ele>390.2</ele>
        <time>2014-03-08T11:43:08Z</time>
      </trkpt>
      <trkpt lat="43.51335" lon="5.87832">
        <ele>389</ele>
        <time>2014-03-08T11:43:10Z</time>
      </trkpt>
      <trkpt lat="43.51331" lon="5.87833">
        <ele>388.4</ele>
        <time>2014-03-08T11:43:11Z</time>
      </trkpt>
      <trkpt lat="43.5132" lon="5.87842">
        <ele>387.4</ele>
        <time>2014-03-08T11:43:13Z</time>
      </trkpt>
      <trkpt lat="43.51303" lon="5.8786">
        <ele>387.4</ele>
        <time>2014-03-08T11:43:17Z</time>
      </trkpt>
      <trkpt lat="43.513" lon="5.87863">
        <ele>386.8</ele>
        <time>2014-03-08T11:43:18Z</time>
      </trkpt>
      <trkpt lat="43.51298" lon="5.87865">
        <ele>386.4</ele>
        <time>2014-03-08T11:43:19Z</time>
      </trkpt>
      <trkpt lat="43.51296" lon="5.87869">
        <ele>385</ele>
        <time>2014-03-08T11:43:22Z</time>
      </trkpt>
      <trkpt lat="43.5129" lon="5.87879">
        <ele>385</ele>
        <time>2014-03-08T11:43:39Z</time>
      </trkpt>
      <trkpt lat="43.51277" lon="5.87889">
        <ele>385</ele>
        <time>2014-03-08T11:43:42Z</time>
      </trkpt>
      <trkpt lat="43.51266" lon="5.87886">
        <ele>384</ele>
        <time>2014-03-08T11:43:44Z</time>
      </trkpt>
      <trkpt lat="43.5126" lon="5.87886">
        <ele>383.6</ele>
        <time>2014-03-08T11:43:45Z</time>
      </trkpt>
      <trkpt lat="43.51255" lon="5.87887">
        <ele>383.2</ele>
        <time>2014-03-08T11:43:46Z</time>
      </trkpt>
      <trkpt lat="43.5125" lon="5.8789">
        <ele>382.8</ele>
        <time>2014-03-08T11:43:47Z</time>
      </trkpt>
      <trkpt lat="43.51215" lon="5.87899">
        <ele>381.6</ele>
        <time>2014-03-08T11:43:53Z</time>
      </trkpt>
      <trkpt lat="43.51209" lon="5.87898">
        <ele>381.2</ele>
        <time>2014-03-08T11:43:54Z</time>
      </trkpt>
      <trkpt lat="43.51185" lon="5.87895">
        <ele>380.2</ele>
        <time>2014-03-08T11:43:58Z</time>
      </trkpt>
      <trkpt lat="43.51179" lon="5.87896">
        <ele>379.8</ele>
        <time>2014-03-08T11:43:59Z</time>
      </trkpt>
      <trkpt lat="43.51169" lon="5.87898">
        <ele>378.6</ele>
        <time>2014-03-08T11:44:01Z</time>
      </trkpt>
      <trkpt lat="43.51162" lon="5.87902">
        <ele>378.6</ele>
        <time>2014-03-08T11:44:03Z</time>
      </trkpt>
      <trkpt lat="43.51151" lon="5.87907">
        <ele>378.6</ele>
        <time>2014-03-08T11:44:06Z</time>
      </trkpt>
      <trkpt lat="43.51146" lon="5.87908">
        <ele>378.6</ele>
        <time>2014-03-08T11:44:07Z</time>
      </trkpt>
      <trkpt lat="43.5114" lon="5.87908">
        <ele>378.2</ele>
        <time>2014-03-08T11:44:08Z</time>
      </trkpt>
      <trkpt lat="43.51134" lon="5.87907">
        <ele>377.6</ele>
        <time>2014-03-08T11:44:09Z</time>
      </trkpt>
      <trkpt lat="43.51128" lon="5.8791">
        <ele>377.2</ele>
        <time>2014-03-08T11:44:10Z</time>
      </trkpt>
      <trkpt lat="43.51123" lon="5.87914">
        <ele>376.6</ele>
        <time>2014-03-08T11:44:11Z</time>
      </trkpt>
      <trkpt lat="43.51118" lon="5.87919">
        <ele>376.2</ele>
        <time>2014-03-08T11:44:12Z</time>
      </trkpt>
      <trkpt lat="43.51104" lon="5.8793">
        <ele>375.2</ele>
        <time>2014-03-08T11:44:15Z</time>
      </trkpt>
      <trkpt lat="43.51093" lon="5.87937">
        <ele>374.4</ele>
        <time>2014-03-08T11:44:17Z</time>
      </trkpt>
      <trkpt lat="43.51087" lon="5.87939">
        <ele>373.8</ele>
        <time>2014-03-08T11:44:18Z</time>
      </trkpt>
      <trkpt lat="43.51081" lon="5.87939">
        <ele>373.8</ele>
        <time>2014-03-08T11:44:19Z</time>
      </trkpt>
      <trkpt lat="43.51057" lon="5.87945">
        <ele>373</ele>
        <time>2014-03-08T11:44:23Z</time>
      </trkpt>
      <trkpt lat="43.51052" lon="5.87948">
        <ele>372.6</ele>
        <time>2014-03-08T11:44:24Z</time>
      </trkpt>
      <trkpt lat="43.51035" lon="5.87962">
        <ele>371.8</ele>
        <time>2014-03-08T11:44:28Z</time>
      </trkpt>
      <trkpt lat="43.5103" lon="5.87963">
        <ele>371.8</ele>
        <time>2014-03-08T11:44:29Z</time>
      </trkpt>
      <trkpt lat="43.51018" lon="5.87965">
        <ele>371.8</ele>
        <time>2014-03-08T11:44:32Z</time>
      </trkpt>
      <trkpt lat="43.5101" lon="5.87958">
        <ele>371.8</ele>
        <time>2014-03-08T11:44:35Z</time>
      </trkpt>
      <trkpt lat="43.50999" lon="5.87956">
        <ele>371.8</ele>
        <time>2014-03-08T11:44:38Z</time>
      </trkpt>
      <trkpt lat="43.50985" lon="5.87964">
        <ele>371.8</ele>
        <time>2014-03-08T11:44:42Z</time>
      </trkpt>
      <trkpt lat="43.5098" lon="5.8797">
        <ele>371.8</ele>
        <time>2014-03-08T11:44:46Z</time>
      </trkpt>
      <trkpt lat="43.5098" lon="5.87969">
        <ele>371.8</ele>
        <time>2014-03-08T11:45:43Z</time>
      </trkpt>
      <trkpt lat="43.50981" lon="5.87969">
        <ele>371.8</ele>
        <time>2014-03-08T11:46:09Z</time>
      </trkpt>
      <trkpt lat="43.50979" lon="5.87969">
        <ele>371.8</ele>
        <time>2014-03-08T11:46:23Z</time>
      </trkpt>
      <trkpt lat="43.50977" lon="5.87969">
        <ele>371.8</ele>
        <time>2014-03-08T11:46:24Z</time>
      </trkpt>
      <trkpt lat="43.50971" lon="5.87978">
        <ele>371.8</ele>
        <time>2014-03-08T11:46:31Z</time>
      </trkpt>
      <trkpt lat="43.50967" lon="5.88029">
        <ele>371.8</ele>
        <time>2014-03-08T11:46:58Z</time>
      </trkpt>
      <trkpt lat="43.50967" lon="5.88035">
        <ele>371.8</ele>
        <time>2014-03-08T11:47:01Z</time>
      </trkpt>
      <trkpt lat="43.5097" lon="5.88045">
        <ele>371.8</ele>
        <time>2014-03-08T11:47:06Z</time>
      </trkpt>
      <trkpt lat="43.50974" lon="5.88049">
        <ele>371.8</ele>
        <time>2014-03-08T11:47:09Z</time>
      </trkpt>
      <trkpt lat="43.50982" lon="5.88049">
        <ele>371.8</ele>
        <time>2014-03-08T11:47:14Z</time>
      </trkpt>
      <trkpt lat="43.51006" lon="5.88046">
        <ele>371.8</ele>
        <time>2014-03-08T11:47:27Z</time>
      </trkpt>
      <trkpt lat="43.51035" lon="5.88048">
        <ele>371.8</ele>
        <time>2014-03-08T11:47:42Z</time>
      </trkpt>
      <trkpt lat="43.51047" lon="5.88046">
        <ele>373</ele>
        <time>2014-03-08T11:47:48Z</time>
      </trkpt>
      <trkpt lat="43.51051" lon="5.88048">
        <ele>374</ele>
        <time>2014-03-08T11:47:50Z</time>
      </trkpt>
      <trkpt lat="43.51064" lon="5.88049">
        <ele>374</ele>
        <time>2014-03-08T11:47:55Z</time>
      </trkpt>
      <trkpt lat="43.51086" lon="5.88048">
        <ele>375.2</ele>
        <time>2014-03-08T11:48:04Z</time>
      </trkpt>
      <trkpt lat="43.51115" lon="5.88047">
        <ele>376.4</ele>
        <time>2014-03-08T11:48:17Z</time>
      </trkpt>
      <trkpt lat="43.51119" lon="5.88049">
        <ele>377.2</ele>
        <time>2014-03-08T11:48:19Z</time>
      </trkpt>
      <trkpt lat="43.51121" lon="5.88049">
        <ele>377.6</ele>
        <time>2014-03-08T11:48:20Z</time>
      </trkpt>
      <trkpt lat="43.5114" lon="5.88049">
        <ele>378</ele>
        <time>2014-03-08T11:48:29Z</time>
      </trkpt>
      <trkpt lat="43.51147" lon="5.88048">
        <ele>378.4</ele>
        <time>2014-03-08T11:48:32Z</time>
      </trkpt>
      <trkpt lat="43.51153" lon="5.88048">
        <ele>379.6</ele>
        <time>2014-03-08T11:48:35Z</time>
      </trkpt>
      <trkpt lat="43.51155" lon="5.88048">
        <ele>380</ele>
        <time>2014-03-08T11:48:36Z</time>
      </trkpt>
      <trkpt lat="43.51178" lon="5.88049">
        <ele>380.4</ele>
        <time>2014-03-08T11:48:47Z</time>
      </trkpt>
      <trkpt lat="43.5118" lon="5.88048">
        <ele>381</ele>
        <time>2014-03-08T11:48:48Z</time>
      </trkpt>
      <trkpt lat="43.51181" lon="5.88045">
        <ele>381.4</ele>
        <time>2014-03-08T11:48:49Z</time>
      </trkpt>
      <trkpt lat="43.51183" lon="5.88044">
        <ele>381.8</ele>
        <time>2014-03-08T11:48:50Z</time>
      </trkpt>
      <trkpt lat="43.51185" lon="5.88044">
        <ele>382.2</ele>
        <time>2014-03-08T11:48:51Z</time>
      </trkpt>
      <trkpt lat="43.51182" lon="5.88046">
        <ele>382.2</ele>
        <time>2014-03-08T11:48:53Z</time>
      </trkpt>
      <trkpt lat="43.51177" lon="5.88041">
        <ele>382.2</ele>
        <time>2014-03-08T11:48:57Z</time>
      </trkpt>
      <trkpt lat="43.51171" lon="5.88045">
        <ele>382.2</ele>
        <time>2014-03-08T11:49:00Z</time>
      </trkpt>
      <trkpt lat="43.51173" lon="5.88047">
        <ele>382.2</ele>
        <time>2014-03-08T11:49:01Z</time>
      </trkpt>
      <trkpt lat="43.51174" lon="5.88046">
        <ele>382.2</ele>
        <time>2014-03-08T11:49:08Z</time>
      </trkpt>
      <trkpt lat="43.51178" lon="5.88045">
        <ele>382.2</ele>
        <time>2014-03-08T11:49:11Z</time>
      </trkpt>
      <trkpt lat="43.51188" lon="5.88045">
        <ele>382.2</ele>
        <time>2014-03-08T11:49:17Z</time>
      </trkpt>
      <trkpt lat="43.51231" lon="5.88044">
        <ele>383.4</ele>
        <time>2014-03-08T11:49:40Z</time>
      </trkpt>
      <trkpt lat="43.51235" lon="5.88045">
        <ele>384.2</ele>
        <time>2014-03-08T11:49:42Z</time>
      </trkpt>
      <trkpt lat="43.51285" lon="5.88041">
        <ele>385</ele>
        <time>2014-03-08T11:50:03Z</time>
      </trkpt>
      <trkpt lat="43.51312" lon="5.88043">
        <ele>386.2</ele>
        <time>2014-03-08T11:50:14Z</time>
      </trkpt>
      <trkpt lat="43.51326" lon="5.88041">
        <ele>386.2</ele>
        <time>2014-03-08T11:50:20Z</time>
      </trkpt>
      <trkpt lat="43.51329" lon="5.88041">
        <ele>386.2</ele>
        <time>2014-03-08T11:50:22Z</time>
      </trkpt>
      <trkpt lat="43.51332" lon="5.88043">
        <ele>386.2</ele>
        <time>2014-03-08T11:50:24Z</time>
      </trkpt>
      <trkpt lat="43.51423" lon="5.88043">
        <ele>391</ele>
        <time>2014-03-08T11:51:03Z</time>
      </trkpt>
      <trkpt lat="43.51426" lon="5.88043">
        <ele>391.8</ele>
        <time>2014-03-08T11:51:05Z</time>
      </trkpt>
      <trkpt lat="43.51428" lon="5.88043">
        <ele>392.2</ele>
        <time>2014-03-08T11:51:06Z</time>
      </trkpt>
      <trkpt lat="43.51456" lon="5.88042">
        <ele>393</ele>
        <time>2014-03-08T11:51:21Z</time>
      </trkpt>
      <trkpt lat="43.51488" lon="5.8804">
        <ele>394.6</ele>
        <time>2014-03-08T11:51:35Z</time>
      </trkpt>
      <trkpt lat="43.51503" lon="5.8804">
        <ele>396.6</ele>
        <time>2014-03-08T11:51:41Z</time>
      </trkpt>
      <trkpt lat="43.51524" lon="5.88039">
        <ele>398</ele>
        <time>2014-03-08T11:51:51Z</time>
      </trkpt>
      <trkpt lat="43.5155" lon="5.88039">
        <ele>399.6</ele>
        <time>2014-03-08T11:52:03Z</time>
      </trkpt>
      <trkpt lat="43.51552" lon="5.88039">
        <ele>400</ele>
        <time>2014-03-08T11:52:04Z</time>
      </trkpt>
      <trkpt lat="43.51558" lon="5.88037">
        <ele>400.8</ele>
        <time>2014-03-08T11:52:07Z</time>
      </trkpt>
      <trkpt lat="43.51569" lon="5.88028">
        <ele>400.8</ele>
        <time>2014-03-08T11:52:13Z</time>
      </trkpt>
      <trkpt lat="43.51573" lon="5.8802">
        <ele>401.2</ele>
        <time>2014-03-08T11:52:16Z</time>
      </trkpt>
      <trkpt lat="43.51576" lon="5.88009">
        <ele>403</ele>
        <time>2014-03-08T11:52:20Z</time>
      </trkpt>
      <trkpt lat="43.5158" lon="5.87986">
        <ele>403</ele>
        <time>2014-03-08T11:52:28Z</time>
      </trkpt>
      <trkpt lat="43.51582" lon="5.87978">
        <ele>403.8</ele>
        <time>2014-03-08T11:52:31Z</time>
      </trkpt>
      <trkpt lat="43.51586" lon="5.87971">
        <ele>405</ele>
        <time>2014-03-08T11:52:34Z</time>
      </trkpt>
      <trkpt lat="43.51589" lon="5.87966">
        <ele>405</ele>
        <time>2014-03-08T11:52:36Z</time>
      </trkpt>
      <trkpt lat="43.51602" lon="5.87951">
        <ele>405.4</ele>
        <time>2014-03-08T11:52:44Z</time>
      </trkpt>
      <trkpt lat="43.51607" lon="5.87947">
        <ele>406.8</ele>
        <time>2014-03-08T11:52:47Z</time>
      </trkpt>
      <trkpt lat="43.51609" lon="5.87946">
        <ele>407.2</ele>
        <time>2014-03-08T11:52:48Z</time>
      </trkpt>
      <trkpt lat="43.51616" lon="5.87942">
        <ele>407.2</ele>
        <time>2014-03-08T11:52:52Z</time>
      </trkpt>
      <trkpt lat="43.51633" lon="5.87936">
        <ele>408.4</ele>
        <time>2014-03-08T11:53:00Z</time>
      </trkpt>
      <trkpt lat="43.51652" lon="5.87933">
        <ele>409.4</ele>
        <time>2014-03-08T11:53:09Z</time>
      </trkpt>
      <trkpt lat="43.51662" lon="5.87929">
        <ele>410.2</ele>
        <time>2014-03-08T11:53:14Z</time>
      </trkpt>
      <trkpt lat="43.51664" lon="5.87928">
        <ele>410.6</ele>
        <time>2014-03-08T11:53:15Z</time>
      </trkpt>
      <trkpt lat="43.51668" lon="5.87924">
        <ele>411.4</ele>
        <time>2014-03-08T11:53:17Z</time>
      </trkpt>
      <trkpt lat="43.51683" lon="5.87911">
        <ele>411.4</ele>
        <time>2014-03-08T11:53:25Z</time>
      </trkpt>
      <trkpt lat="43.51735" lon="5.87838">
        <ele>416</ele>
        <time>2014-03-08T11:54:00Z</time>
      </trkpt>
      <trkpt lat="43.51737" lon="5.87836">
        <ele>416.6</ele>
        <time>2014-03-08T11:54:01Z</time>
      </trkpt>
      <trkpt lat="43.51741" lon="5.87834">
        <ele>417.4</ele>
        <time>2014-03-08T11:54:03Z</time>
      </trkpt>
      <trkpt lat="43.51743" lon="5.87833">
        <ele>417.8</ele>
        <time>2014-03-08T11:54:04Z</time>
      </trkpt>
      <trkpt lat="43.51754" lon="5.87831">
        <ele>417.8</ele>
        <time>2014-03-08T11:54:09Z</time>
      </trkpt>
      <trkpt lat="43.5176" lon="5.87831">
        <ele>418.2</ele>
        <time>2014-03-08T11:54:12Z</time>
      </trkpt>
      <trkpt lat="43.51767" lon="5.87829">
        <ele>420</ele>
        <time>2014-03-08T11:54:15Z</time>
      </trkpt>
      <trkpt lat="43.51771" lon="5.87828">
        <ele>420</ele>
        <time>2014-03-08T11:54:17Z</time>
      </trkpt>
      <trkpt lat="43.51784" lon="5.87818">
        <ele>420</ele>
        <time>2014-03-08T11:54:24Z</time>
      </trkpt>
      <trkpt lat="43.51817" lon="5.87774">
        <ele>424</ele>
        <time>2014-03-08T11:54:45Z</time>
      </trkpt>
      <trkpt lat="43.51834" lon="5.87748">
        <ele>424</ele>
        <time>2014-03-08T11:54:57Z</time>
      </trkpt>
      <trkpt lat="43.51862" lon="5.87717">
        <ele>428.2</ele>
        <time>2014-03-08T11:55:15Z</time>
      </trkpt>
      <trkpt lat="43.51871" lon="5.87709">
        <ele>428.2</ele>
        <time>2014-03-08T11:55:21Z</time>
      </trkpt>
      <trkpt lat="43.51903" lon="5.87685">
        <ele>430.6</ele>
        <time>2014-03-08T11:55:40Z</time>
      </trkpt>
      <trkpt lat="43.51906" lon="5.87683">
        <ele>431.6</ele>
        <time>2014-03-08T11:55:42Z</time>
      </trkpt>
      <trkpt lat="43.51939" lon="5.87656">
        <ele>434.4</ele>
        <time>2014-03-08T11:56:03Z</time>
      </trkpt>
      <trkpt lat="43.51951" lon="5.87643">
        <ele>434.4</ele>
        <time>2014-03-08T11:56:11Z</time>
      </trkpt>
      <trkpt lat="43.51952" lon="5.87639">
        <ele>434.8</ele>
        <time>2014-03-08T11:56:13Z</time>
      </trkpt>
      <trkpt lat="43.51952" lon="5.87637">
        <ele>435.2</ele>
        <time>2014-03-08T11:56:14Z</time>
      </trkpt>
      <trkpt lat="43.51952" lon="5.87635">
        <ele>435.6</ele>
        <time>2014-03-08T11:56:15Z</time>
      </trkpt>
      <trkpt lat="43.5195" lon="5.87631">
        <ele>436.6</ele>
        <time>2014-03-08T11:56:17Z</time>
      </trkpt>
      <trkpt lat="43.51949" lon="5.87629">
        <ele>436.6</ele>
        <time>2014-03-08T11:56:18Z</time>
      </trkpt>
      <trkpt lat="43.51942" lon="5.87625">
        <ele>437</ele>
        <time>2014-03-08T11:56:22Z</time>
      </trkpt>
      <trkpt lat="43.51933" lon="5.87624">
        <ele>438.6</ele>
        <time>2014-03-08T11:56:26Z</time>
      </trkpt>
      <trkpt lat="43.51927" lon="5.87623">
        <ele>438.6</ele>
        <time>2014-03-08T11:56:29Z</time>
      </trkpt>
      <trkpt lat="43.51922" lon="5.87615">
        <ele>438.6</ele>
        <time>2014-03-08T11:56:33Z</time>
      </trkpt>
      <trkpt lat="43.51922" lon="5.87612">
        <ele>438.6</ele>
        <time>2014-03-08T11:56:34Z</time>
      </trkpt>
      <trkpt lat="43.51927" lon="5.87604">
        <ele>438.6</ele>
        <time>2014-03-08T11:56:38Z</time>
      </trkpt>
      <trkpt lat="43.51936" lon="5.87598">
        <ele>439.4</ele>
        <time>2014-03-08T11:56:43Z</time>
      </trkpt>
      <trkpt lat="43.51938" lon="5.87597">
        <ele>439.8</ele>
        <time>2014-03-08T11:56:44Z</time>
      </trkpt>
      <trkpt lat="43.51962" lon="5.8759">
        <ele>441.8</ele>
        <time>2014-03-08T11:56:58Z</time>
      </trkpt>
      <trkpt lat="43.51975" lon="5.87591">
        <ele>442.8</ele>
        <time>2014-03-08T11:57:05Z</time>
      </trkpt>
      <trkpt lat="43.51994" lon="5.87588">
        <ele>444.8</ele>
        <time>2014-03-08T11:57:16Z</time>
      </trkpt>
      <trkpt lat="43.51995" lon="5.87588">
        <ele>444.8</ele>
        <time>2014-03-08T11:57:17Z</time>
      </trkpt>
      <trkpt lat="43.51996" lon="5.87589">
        <ele>444.8</ele>
        <time>2014-03-08T11:57:18Z</time>
      </trkpt>
      <trkpt lat="43.52006" lon="5.87581">
        <ele>444.8</ele>
        <time>2014-03-08T11:57:25Z</time>
      </trkpt>
      <trkpt lat="43.52006" lon="5.87577">
        <ele>444.8</ele>
        <time>2014-03-08T11:57:27Z</time>
      </trkpt>
      <trkpt lat="43.52003" lon="5.87573">
        <ele>444.8</ele>
        <time>2014-03-08T11:57:29Z</time>
      </trkpt>
      <trkpt lat="43.51996" lon="5.87563">
        <ele>446</ele>
        <time>2014-03-08T11:57:35Z</time>
      </trkpt>
      <trkpt lat="43.51995" lon="5.87561">
        <ele>446.4</ele>
        <time>2014-03-08T11:57:36Z</time>
      </trkpt>
      <trkpt lat="43.51984" lon="5.87554">
        <ele>446.8</ele>
        <time>2014-03-08T11:57:44Z</time>
      </trkpt>
      <trkpt lat="43.51983" lon="5.87553">
        <ele>446.8</ele>
        <time>2014-03-08T11:57:45Z</time>
      </trkpt>
      <trkpt lat="43.51964" lon="5.87543">
        <ele>449</ele>
        <time>2014-03-08T11:57:57Z</time>
      </trkpt>
      <trkpt lat="43.5196" lon="5.8754">
        <ele>449</ele>
        <time>2014-03-08T11:58:00Z</time>
      </trkpt>
      <trkpt lat="43.5195" lon="5.87536">
        <ele>449</ele>
        <time>2014-03-08T11:58:07Z</time>
      </trkpt>
      <trkpt lat="43.51941" lon="5.87529">
        <ele>449</ele>
        <time>2014-03-08T11:58:14Z</time>
      </trkpt>
      <trkpt lat="43.51933" lon="5.87525">
        <ele>450.6</ele>
        <time>2014-03-08T11:58:19Z</time>
      </trkpt>
      <trkpt lat="43.51931" lon="5.87524">
        <ele>451</ele>
        <time>2014-03-08T11:58:20Z</time>
      </trkpt>
      <trkpt lat="43.51929" lon="5.87524">
        <ele>451</ele>
        <time>2014-03-08T11:58:21Z</time>
      </trkpt>
      <trkpt lat="43.51915" lon="5.87526">
        <ele>451</ele>
        <time>2014-03-08T11:58:29Z</time>
      </trkpt>
      <trkpt lat="43.51908" lon="5.87532">
        <ele>452.2</ele>
        <time>2014-03-08T11:58:33Z</time>
      </trkpt>
      <trkpt lat="43.51905" lon="5.87535">
        <ele>453</ele>
        <time>2014-03-08T11:58:35Z</time>
      </trkpt>
      <trkpt lat="43.51904" lon="5.87537">
        <ele>453</ele>
        <time>2014-03-08T11:58:36Z</time>
      </trkpt>
      <trkpt lat="43.51895" lon="5.87546">
        <ele>453</ele>
        <time>2014-03-08T11:58:41Z</time>
      </trkpt>
      <trkpt lat="43.51891" lon="5.87553">
        <ele>453</ele>
        <time>2014-03-08T11:58:45Z</time>
      </trkpt>
      <trkpt lat="43.51886" lon="5.87557">
        <ele>453</ele>
        <time>2014-03-08T11:58:48Z</time>
      </trkpt>
      <trkpt lat="43.51884" lon="5.87557">
        <ele>453.4</ele>
        <time>2014-03-08T11:58:49Z</time>
      </trkpt>
      <trkpt lat="43.51882" lon="5.8756">
        <ele>454.2</ele>
        <time>2014-03-08T11:58:51Z</time>
      </trkpt>
      <trkpt lat="43.5188" lon="5.8756">
        <ele>454.6</ele>
        <time>2014-03-08T11:58:52Z</time>
      </trkpt>
      <trkpt lat="43.51878" lon="5.87562">
        <ele>455</ele>
        <time>2014-03-08T11:58:53Z</time>
      </trkpt>
      <trkpt lat="43.51875" lon="5.87562">
        <ele>455</ele>
        <time>2014-03-08T11:58:55Z</time>
      </trkpt>
      <trkpt lat="43.51867" lon="5.87559">
        <ele>455</ele>
        <time>2014-03-08T11:59:01Z</time>
      </trkpt>
      <trkpt lat="43.51864" lon="5.8756">
        <ele>455</ele>
        <time>2014-03-08T11:59:03Z</time>
      </trkpt>
      <trkpt lat="43.51862" lon="5.8756">
        <ele>455</ele>
        <time>2014-03-08T11:59:04Z</time>
      </trkpt>
      <trkpt lat="43.51862" lon="5.87552">
        <ele>455</ele>
        <time>2014-03-08T11:59:07Z</time>
      </trkpt>
      <trkpt lat="43.51861" lon="5.87548">
        <ele>455.4</ele>
        <time>2014-03-08T11:59:08Z</time>
      </trkpt>
      <trkpt lat="43.5186" lon="5.87546">
        <ele>455.8</ele>
        <time>2014-03-08T11:59:09Z</time>
      </trkpt>
      <trkpt lat="43.51861" lon="5.8754">
        <ele>457</ele>
        <time>2014-03-08T11:59:11Z</time>
      </trkpt>
      <trkpt lat="43.51861" lon="5.87538">
        <ele>457</ele>
        <time>2014-03-08T11:59:12Z</time>
      </trkpt>
      <trkpt lat="43.51876" lon="5.87512">
        <ele>457</ele>
        <time>2014-03-08T11:59:26Z</time>
      </trkpt>
      <trkpt lat="43.51877" lon="5.87511">
        <ele>457.4</ele>
        <time>2014-03-08T11:59:27Z</time>
      </trkpt>
      <trkpt lat="43.51878" lon="5.8751">
        <ele>458</ele>
        <time>2014-03-08T11:59:28Z</time>
      </trkpt>
      <trkpt lat="43.51879" lon="5.87508">
        <ele>458.4</ele>
        <time>2014-03-08T11:59:29Z</time>
      </trkpt>
      <trkpt lat="43.51881" lon="5.87506">
        <ele>458.8</ele>
        <time>2014-03-08T11:59:30Z</time>
      </trkpt>
      <trkpt lat="43.51883" lon="5.87503">
        <ele>459.2</ele>
        <time>2014-03-08T11:59:32Z</time>
      </trkpt>
      <trkpt lat="43.51892" lon="5.87492">
        <ele>459.2</ele>
        <time>2014-03-08T11:59:39Z</time>
      </trkpt>
      <trkpt lat="43.51907" lon="5.87479">
        <ele>461.2</ele>
        <time>2014-03-08T11:59:48Z</time>
      </trkpt>
      <trkpt lat="43.51926" lon="5.87464">
        <ele>462.8</ele>
        <time>2014-03-08T12:00:00Z</time>
      </trkpt>
      <trkpt lat="43.51946" lon="5.87444">
        <ele>464</ele>
        <time>2014-03-08T12:00:14Z</time>
      </trkpt>
      <trkpt lat="43.51968" lon="5.87411">
        <ele>466.6</ele>
        <time>2014-03-08T12:00:32Z</time>
      </trkpt>
      <trkpt lat="43.51969" lon="5.8741">
        <ele>467</ele>
        <time>2014-03-08T12:00:33Z</time>
      </trkpt>
      <trkpt lat="43.51971" lon="5.87408">
        <ele>467.4</ele>
        <time>2014-03-08T12:00:34Z</time>
      </trkpt>
      <trkpt lat="43.51973" lon="5.87401">
        <ele>467.4</ele>
        <time>2014-03-08T12:00:37Z</time>
      </trkpt>
      <trkpt lat="43.51974" lon="5.874">
        <ele>467.4</ele>
        <time>2014-03-08T12:00:38Z</time>
      </trkpt>
      <trkpt lat="43.5198" lon="5.87392">
        <ele>467.4</ele>
        <time>2014-03-08T12:00:43Z</time>
      </trkpt>
      <trkpt lat="43.51985" lon="5.87385">
        <ele>467.8</ele>
        <time>2014-03-08T12:00:47Z</time>
      </trkpt>
      <trkpt lat="43.51986" lon="5.87383">
        <ele>468.2</ele>
        <time>2014-03-08T12:00:48Z</time>
      </trkpt>
      <trkpt lat="43.51997" lon="5.87365">
        <ele>469.4</ele>
        <time>2014-03-08T12:00:57Z</time>
      </trkpt>
      <trkpt lat="43.52047" lon="5.87308">
        <ele>473.6</ele>
        <time>2014-03-08T12:01:32Z</time>
      </trkpt>
      <trkpt lat="43.52058" lon="5.87298">
        <ele>475.8</ele>
        <time>2014-03-08T12:01:39Z</time>
      </trkpt>
      <trkpt lat="43.52077" lon="5.87274">
        <ele>476.6</ele>
        <time>2014-03-08T12:01:52Z</time>
      </trkpt>
      <trkpt lat="43.52084" lon="5.87267">
        <ele>477.8</ele>
        <time>2014-03-08T12:01:56Z</time>
      </trkpt>
      <trkpt lat="43.52097" lon="5.87261">
        <ele>477.8</ele>
        <time>2014-03-08T12:02:03Z</time>
      </trkpt>
      <trkpt lat="43.521" lon="5.8726">
        <ele>478.6</ele>
        <time>2014-03-08T12:02:05Z</time>
      </trkpt>
      <trkpt lat="43.52102" lon="5.8726">
        <ele>479</ele>
        <time>2014-03-08T12:02:06Z</time>
      </trkpt>
      <trkpt lat="43.52103" lon="5.8726">
        <ele>479.6</ele>
        <time>2014-03-08T12:02:07Z</time>
      </trkpt>
      <trkpt lat="43.52105" lon="5.8726">
        <ele>480</ele>
        <time>2014-03-08T12:02:08Z</time>
      </trkpt>
      <trkpt lat="43.5211" lon="5.8726">
        <ele>480</ele>
        <time>2014-03-08T12:02:11Z</time>
      </trkpt>
      <trkpt lat="43.5212" lon="5.87257">
        <ele>480.4</ele>
        <time>2014-03-08T12:02:17Z</time>
      </trkpt>
      <trkpt lat="43.52124" lon="5.87256">
        <ele>481.2</ele>
        <time>2014-03-08T12:02:19Z</time>
      </trkpt>
      <trkpt lat="43.52127" lon="5.87254">
        <ele>482</ele>
        <time>2014-03-08T12:02:21Z</time>
      </trkpt>
      <trkpt lat="43.52137" lon="5.87247">
        <ele>482</ele>
        <time>2014-03-08T12:02:27Z</time>
      </trkpt>
      <trkpt lat="43.52148" lon="5.87234">
        <ele>482</ele>
        <time>2014-03-08T12:02:35Z</time>
      </trkpt>
      <trkpt lat="43.52169" lon="5.87196">
        <ele>485.8</ele>
        <time>2014-03-08T12:02:53Z</time>
      </trkpt>
      <trkpt lat="43.52171" lon="5.87194">
        <ele>486.2</ele>
        <time>2014-03-08T12:02:54Z</time>
      </trkpt>
      <trkpt lat="43.52188" lon="5.87162">
        <ele>488.2</ele>
        <time>2014-03-08T12:03:09Z</time>
      </trkpt>
      <trkpt lat="43.52189" lon="5.8716">
        <ele>488.2</ele>
        <time>2014-03-08T12:03:10Z</time>
      </trkpt>
      <trkpt lat="43.52189" lon="5.87158">
        <ele>488.2</ele>
        <time>2014-03-08T12:03:11Z</time>
      </trkpt>
      <trkpt lat="43.5219" lon="5.8715">
        <ele>488.2</ele>
        <time>2014-03-08T12:03:14Z</time>
      </trkpt>
      <trkpt lat="43.52191" lon="5.87148">
        <ele>488.2</ele>
        <time>2014-03-08T12:03:15Z</time>
      </trkpt>
      <trkpt lat="43.52195" lon="5.87147">
        <ele>488.2</ele>
        <time>2014-03-08T12:03:17Z</time>
      </trkpt>
      <trkpt lat="43.52203" lon="5.87131">
        <ele>490.4</ele>
        <time>2014-03-08T12:03:24Z</time>
      </trkpt>
      <trkpt lat="43.52205" lon="5.8712">
        <ele>490.4</ele>
        <time>2014-03-08T12:03:28Z</time>
      </trkpt>
      <trkpt lat="43.52205" lon="5.87115">
        <ele>490.4</ele>
        <time>2014-03-08T12:03:30Z</time>
      </trkpt>
      <trkpt lat="43.52202" lon="5.8711">
        <ele>490.4</ele>
        <time>2014-03-08T12:03:33Z</time>
      </trkpt>
      <trkpt lat="43.52194" lon="5.87103">
        <ele>490.4</ele>
        <time>2014-03-08T12:03:39Z</time>
      </trkpt>
      <trkpt lat="43.52185" lon="5.871">
        <ele>492.4</ele>
        <time>2014-03-08T12:03:46Z</time>
      </trkpt>
      <trkpt lat="43.52184" lon="5.871">
        <ele>492.4</ele>
        <time>2014-03-08T12:03:50Z</time>
      </trkpt>
      <trkpt lat="43.52184" lon="5.871">
        <ele>492.4</ele>
        <time>2014-03-08T12:03:56Z</time>
      </trkpt>
      <trkpt lat="43.52184" lon="5.871">
        <ele>492.4</ele>
        <time>2014-03-08T12:04:43Z</time>
      </trkpt>
      <trkpt lat="43.52184" lon="5.87099">
        <ele>492.4</ele>
        <time>2014-03-08T12:05:04Z</time>
      </trkpt>
      <trkpt lat="43.52182" lon="5.87099">
        <ele>492.4</ele>
        <time>2014-03-08T12:05:10Z</time>
      </trkpt>
      <trkpt lat="43.52182" lon="5.87098">
        <ele>492.4</ele>
        <time>2014-03-08T12:05:50Z</time>
      </trkpt>
      <trkpt lat="43.52182" lon="5.87098">
        <ele>492.4</ele>
        <time>2014-03-08T12:06:40Z</time>
      </trkpt>
      <trkpt lat="43.52182" lon="5.87098">
        <ele>492.4</ele>
        <time>2014-03-08T12:07:16Z</time>
      </trkpt>
      <trkpt lat="43.52181" lon="5.87097">
        <ele>492.4</ele>
        <time>2014-03-08T12:07:27Z</time>
      </trkpt>
      <trkpt lat="43.52167" lon="5.87094">
        <ele>492.4</ele>
        <time>2014-03-08T12:08:03Z</time>
      </trkpt>
      <trkpt lat="43.5215" lon="5.87069">
        <ele>493.2</ele>
        <time>2014-03-08T12:08:18Z</time>
      </trkpt>
      <trkpt lat="43.52149" lon="5.87067">
        <ele>493.6</ele>
        <time>2014-03-08T12:08:19Z</time>
      </trkpt>
      <trkpt lat="43.52145" lon="5.87062">
        <ele>494.4</ele>
        <time>2014-03-08T12:08:23Z</time>
      </trkpt>
      <trkpt lat="43.52136" lon="5.87048">
        <ele>494.8</ele>
        <time>2014-03-08T12:08:32Z</time>
      </trkpt>
      <trkpt lat="43.52134" lon="5.87047">
        <ele>495.2</ele>
        <time>2014-03-08T12:08:33Z</time>
      </trkpt>
      <trkpt lat="43.52133" lon="5.87046">
        <ele>495.6</ele>
        <time>2014-03-08T12:08:34Z</time>
      </trkpt>
      <trkpt lat="43.52131" lon="5.87045">
        <ele>496</ele>
        <time>2014-03-08T12:08:35Z</time>
      </trkpt>
      <trkpt lat="43.5213" lon="5.87044">
        <ele>496.4</ele>
        <time>2014-03-08T12:08:36Z</time>
      </trkpt>
      <trkpt lat="43.52121" lon="5.87038">
        <ele>496.4</ele>
        <time>2014-03-08T12:08:42Z</time>
      </trkpt>
      <trkpt lat="43.52103" lon="5.87016">
        <ele>496.4</ele>
        <time>2014-03-08T12:08:55Z</time>
      </trkpt>
      <trkpt lat="43.52097" lon="5.87013">
        <ele>497</ele>
        <time>2014-03-08T12:08:58Z</time>
      </trkpt>
      <trkpt lat="43.52094" lon="5.8701">
        <ele>497.8</ele>
        <time>2014-03-08T12:09:00Z</time>
      </trkpt>
      <trkpt lat="43.52092" lon="5.87008">
        <ele>498.2</ele>
        <time>2014-03-08T12:09:01Z</time>
      </trkpt>
      <trkpt lat="43.52089" lon="5.87008">
        <ele>498.6</ele>
        <time>2014-03-08T12:09:02Z</time>
      </trkpt>
      <trkpt lat="43.52079" lon="5.87005">
        <ele>498.6</ele>
        <time>2014-03-08T12:09:06Z</time>
      </trkpt>
      <trkpt lat="43.52069" lon="5.86997">
        <ele>498.6</ele>
        <time>2014-03-08T12:09:11Z</time>
      </trkpt>
      <trkpt lat="43.52044" lon="5.86982">
        <ele>498.6</ele>
        <time>2014-03-08T12:09:23Z</time>
      </trkpt>
      <trkpt lat="43.52031" lon="5.86979">
        <ele>498.6</ele>
        <time>2014-03-08T12:09:28Z</time>
      </trkpt>
      <trkpt lat="43.51981" lon="5.86964">
        <ele>498.6</ele>
        <time>2014-03-08T12:09:49Z</time>
      </trkpt>
      <trkpt lat="43.51971" lon="5.86949">
        <ele>498.6</ele>
        <time>2014-03-08T12:09:56Z</time>
      </trkpt>
      <trkpt lat="43.51961" lon="5.86907">
        <ele>498.6</ele>
        <time>2014-03-08T12:10:09Z</time>
      </trkpt>
      <trkpt lat="43.5196" lon="5.8688">
        <ele>498.6</ele>
        <time>2014-03-08T12:10:16Z</time>
      </trkpt>
      <trkpt lat="43.51953" lon="5.86863">
        <ele>498.6</ele>
        <time>2014-03-08T12:10:21Z</time>
      </trkpt>
      <trkpt lat="43.51938" lon="5.86836">
        <ele>498.6</ele>
        <time>2014-03-08T12:10:30Z</time>
      </trkpt>
      <trkpt lat="43.51924" lon="5.86818">
        <ele>498.6</ele>
        <time>2014-03-08T12:10:37Z</time>
      </trkpt>
      <trkpt lat="43.51905" lon="5.86803">
        <ele>498.6</ele>
        <time>2014-03-08T12:10:44Z</time>
      </trkpt>
      <trkpt lat="43.51889" lon="5.86786">
        <ele>498.6</ele>
        <time>2014-03-08T12:10:50Z</time>
      </trkpt>
      <trkpt lat="43.51867" lon="5.86766">
        <ele>498.6</ele>
        <time>2014-03-08T12:10:57Z</time>
      </trkpt>
      <trkpt lat="43.51854" lon="5.86748">
        <ele>498.2</ele>
        <time>2014-03-08T12:11:02Z</time>
      </trkpt>
      <trkpt lat="43.5185" lon="5.86733">
        <ele>497</ele>
        <time>2014-03-08T12:11:05Z</time>
      </trkpt>
      <trkpt lat="43.51847" lon="5.86728">
        <ele>496.6</ele>
        <time>2014-03-08T12:11:06Z</time>
      </trkpt>
      <trkpt lat="43.51835" lon="5.86714">
        <ele>496.6</ele>
        <time>2014-03-08T12:11:10Z</time>
      </trkpt>
      <trkpt lat="43.51828" lon="5.86712">
        <ele>496.6</ele>
        <time>2014-03-08T12:11:12Z</time>
      </trkpt>
      <trkpt lat="43.5182" lon="5.86715">
        <ele>496.2</ele>
        <time>2014-03-08T12:11:14Z</time>
      </trkpt>
      <trkpt lat="43.51817" lon="5.86718">
        <ele>495.8</ele>
        <time>2014-03-08T12:11:15Z</time>
      </trkpt>
      <trkpt lat="43.51812" lon="5.86725">
        <ele>495</ele>
        <time>2014-03-08T12:11:17Z</time>
      </trkpt>
      <trkpt lat="43.51809" lon="5.86729">
        <ele>494.6</ele>
        <time>2014-03-08T12:11:18Z</time>
      </trkpt>
      <trkpt lat="43.51799" lon="5.86756">
        <ele>493.2</ele>
        <time>2014-03-08T12:11:24Z</time>
      </trkpt>
      <trkpt lat="43.51794" lon="5.86765">
        <ele>492.4</ele>
        <time>2014-03-08T12:11:26Z</time>
      </trkpt>
      <trkpt lat="43.51772" lon="5.86813">
        <ele>488.2</ele>
        <time>2014-03-08T12:11:33Z</time>
      </trkpt>
      <trkpt lat="43.51762" lon="5.86828">
        <ele>486.6</ele>
        <time>2014-03-08T12:11:35Z</time>
      </trkpt>
      <trkpt lat="43.51744" lon="5.86849">
        <ele>484.2</ele>
        <time>2014-03-08T12:11:38Z</time>
      </trkpt>
      <trkpt lat="43.51717" lon="5.86863">
        <ele>481.2</ele>
        <time>2014-03-08T12:11:42Z</time>
      </trkpt>
      <trkpt lat="43.51707" lon="5.86871">
        <ele>480.2</ele>
        <time>2014-03-08T12:11:44Z</time>
      </trkpt>
      <trkpt lat="43.51698" lon="5.8688">
        <ele>479</ele>
        <time>2014-03-08T12:11:46Z</time>
      </trkpt>
      <trkpt lat="43.51684" lon="5.86897">
        <ele>478</ele>
        <time>2014-03-08T12:11:49Z</time>
      </trkpt>
      <trkpt lat="43.51673" lon="5.86908">
        <ele>476.8</ele>
        <time>2014-03-08T12:11:52Z</time>
      </trkpt>
      <trkpt lat="43.51673" lon="5.86909">
        <ele>476.8</ele>
        <time>2014-03-08T12:11:53Z</time>
      </trkpt>
      <trkpt lat="43.51673" lon="5.86909">
        <ele>476.8</ele>
        <time>2014-03-08T12:11:55Z</time>
      </trkpt>
      <trkpt lat="43.51672" lon="5.86909">
        <ele>476.8</ele>
        <time>2014-03-08T12:12:10Z</time>
      </trkpt>
      <trkpt lat="43.51668" lon="5.8691">
        <ele>476.4</ele>
        <time>2014-03-08T12:12:13Z</time>
      </trkpt>
      <trkpt lat="43.51665" lon="5.86911">
        <ele>475.8</ele>
        <time>2014-03-08T12:12:14Z</time>
      </trkpt>
      <trkpt lat="43.51663" lon="5.86913">
        <ele>475.4</ele>
        <time>2014-03-08T12:12:15Z</time>
      </trkpt>
      <trkpt lat="43.51661" lon="5.86916">
        <ele>475</ele>
        <time>2014-03-08T12:12:16Z</time>
      </trkpt>
      <trkpt lat="43.51658" lon="5.86918">
        <ele>474.6</ele>
        <time>2014-03-08T12:12:17Z</time>
      </trkpt>
      <trkpt lat="43.51655" lon="5.8692">
        <ele>474.6</ele>
        <time>2014-03-08T12:12:19Z</time>
      </trkpt>
      <trkpt lat="43.51654" lon="5.86921">
        <ele>474.6</ele>
        <time>2014-03-08T12:12:21Z</time>
      </trkpt>
      <trkpt lat="43.51655" lon="5.8692">
        <ele>473.4</ele>
        <time>2014-03-08T12:12:39Z</time>
      </trkpt>
      <trkpt lat="43.51655" lon="5.8692">
        <ele>473</ele>
        <time>2014-03-08T12:12:40Z</time>
      </trkpt>
      <trkpt lat="43.5167" lon="5.86908">
        <ele>472.4</ele>
        <time>2014-03-08T12:12:55Z</time>
      </trkpt>
      <trkpt lat="43.51676" lon="5.86906">
        <ele>473</ele>
        <time>2014-03-08T12:13:01Z</time>
      </trkpt>
      <trkpt lat="43.51676" lon="5.86906">
        <ele>473.4</ele>
        <time>2014-03-08T12:13:02Z</time>
      </trkpt>
      <trkpt lat="43.51677" lon="5.86905">
        <ele>473.8</ele>
        <time>2014-03-08T12:13:03Z</time>
      </trkpt>
      <trkpt lat="43.51678" lon="5.86905">
        <ele>474.2</ele>
        <time>2014-03-08T12:13:04Z</time>
      </trkpt>
      <trkpt lat="43.51679" lon="5.86904">
        <ele>474.6</ele>
        <time>2014-03-08T12:13:05Z</time>
      </trkpt>
      <trkpt lat="43.51683" lon="5.86902">
        <ele>474.6</ele>
        <time>2014-03-08T12:13:09Z</time>
      </trkpt>
      <trkpt lat="43.51689" lon="5.86897">
        <ele>474.6</ele>
        <time>2014-03-08T12:13:16Z</time>
      </trkpt>
      <trkpt lat="43.51696" lon="5.86885">
        <ele>475.4</ele>
        <time>2014-03-08T12:13:26Z</time>
      </trkpt>
      <trkpt lat="43.51699" lon="5.86882">
        <ele>476.6</ele>
        <time>2014-03-08T12:13:29Z</time>
      </trkpt>
      <trkpt lat="43.51706" lon="5.86876">
        <ele>476.6</ele>
        <time>2014-03-08T12:13:36Z</time>
      </trkpt>
      <trkpt lat="43.51714" lon="5.86867">
        <ele>477</ele>
        <time>2014-03-08T12:13:46Z</time>
      </trkpt>
      <trkpt lat="43.51716" lon="5.86864">
        <ele>478.4</ele>
        <time>2014-03-08T12:13:49Z</time>
      </trkpt>
      <trkpt lat="43.51717" lon="5.86863">
        <ele>478.8</ele>
        <time>2014-03-08T12:13:50Z</time>
      </trkpt>
      <trkpt lat="43.5173" lon="5.86855">
        <ele>478.8</ele>
        <time>2014-03-08T12:14:02Z</time>
      </trkpt>
      <trkpt lat="43.51735" lon="5.86854">
        <ele>479.2</ele>
        <time>2014-03-08T12:14:07Z</time>
      </trkpt>
      <trkpt lat="43.51736" lon="5.86853">
        <ele>479.6</ele>
        <time>2014-03-08T12:14:08Z</time>
      </trkpt>
      <trkpt lat="43.51739" lon="5.86852">
        <ele>480.4</ele>
        <time>2014-03-08T12:14:10Z</time>
      </trkpt>
      <trkpt lat="43.51745" lon="5.86847">
        <ele>480.8</ele>
        <time>2014-03-08T12:14:16Z</time>
      </trkpt>
      <trkpt lat="43.5175" lon="5.8684">
        <ele>480.8</ele>
        <time>2014-03-08T12:14:23Z</time>
      </trkpt>
      <trkpt lat="43.51753" lon="5.86834">
        <ele>481.6</ele>
        <time>2014-03-08T12:14:27Z</time>
      </trkpt>
      <trkpt lat="43.51755" lon="5.86832">
        <ele>482.4</ele>
        <time>2014-03-08T12:14:29Z</time>
      </trkpt>
      <trkpt lat="43.51756" lon="5.86831">
        <ele>482.8</ele>
        <time>2014-03-08T12:14:30Z</time>
      </trkpt>
      <trkpt lat="43.51758" lon="5.86829">
        <ele>482.8</ele>
        <time>2014-03-08T12:14:32Z</time>
      </trkpt>
      <trkpt lat="43.51771" lon="5.86814">
        <ele>483.2</ele>
        <time>2014-03-08T12:14:47Z</time>
      </trkpt>
      <trkpt lat="43.51771" lon="5.86812">
        <ele>483.8</ele>
        <time>2014-03-08T12:14:48Z</time>
      </trkpt>
      <trkpt lat="43.51772" lon="5.86811">
        <ele>484.6</ele>
        <time>2014-03-08T12:14:49Z</time>
      </trkpt>
      <trkpt lat="43.51773" lon="5.8681">
        <ele>485</ele>
        <time>2014-03-08T12:14:50Z</time>
      </trkpt>
      <trkpt lat="43.51776" lon="5.86805">
        <ele>485</ele>
        <time>2014-03-08T12:14:54Z</time>
      </trkpt>
      <trkpt lat="43.5178" lon="5.86796">
        <ele>485</ele>
        <time>2014-03-08T12:15:01Z</time>
      </trkpt>
      <trkpt lat="43.51784" lon="5.8679">
        <ele>485.4</ele>
        <time>2014-03-08T12:15:06Z</time>
      </trkpt>
      <trkpt lat="43.51785" lon="5.86789">
        <ele>485.8</ele>
        <time>2014-03-08T12:15:07Z</time>
      </trkpt>
      <trkpt lat="43.51785" lon="5.86788">
        <ele>486.2</ele>
        <time>2014-03-08T12:15:08Z</time>
      </trkpt>
      <trkpt lat="43.51786" lon="5.86787">
        <ele>486.6</ele>
        <time>2014-03-08T12:15:09Z</time>
      </trkpt>
      <trkpt lat="43.51786" lon="5.86785">
        <ele>487</ele>
        <time>2014-03-08T12:15:10Z</time>
      </trkpt>
      <trkpt lat="43.51789" lon="5.8678">
        <ele>487</ele>
        <time>2014-03-08T12:15:15Z</time>
      </trkpt>
      <trkpt lat="43.51793" lon="5.86771">
        <ele>488.4</ele>
        <time>2014-03-08T12:15:23Z</time>
      </trkpt>
      <trkpt lat="43.51798" lon="5.86762">
        <ele>490.2</ele>
        <time>2014-03-08T12:15:33Z</time>
      </trkpt>
      <trkpt lat="43.51799" lon="5.86761">
        <ele>490.6</ele>
        <time>2014-03-08T12:15:34Z</time>
      </trkpt>
      <trkpt lat="43.51799" lon="5.8676">
        <ele>491</ele>
        <time>2014-03-08T12:15:35Z</time>
      </trkpt>
      <trkpt lat="43.518" lon="5.86758">
        <ele>491.4</ele>
        <time>2014-03-08T12:15:36Z</time>
      </trkpt>
      <trkpt lat="43.518" lon="5.86757">
        <ele>491.4</ele>
        <time>2014-03-08T12:15:37Z</time>
      </trkpt>
      <trkpt lat="43.51801" lon="5.86753">
        <ele>491.4</ele>
        <time>2014-03-08T12:15:40Z</time>
      </trkpt>
      <trkpt lat="43.51804" lon="5.86741">
        <ele>491.4</ele>
        <time>2014-03-08T12:15:49Z</time>
      </trkpt>
      <trkpt lat="43.51807" lon="5.86735">
        <ele>491.8</ele>
        <time>2014-03-08T12:15:53Z</time>
      </trkpt>
      <trkpt lat="43.51808" lon="5.86735">
        <ele>492.2</ele>
        <time>2014-03-08T12:15:54Z</time>
      </trkpt>
      <trkpt lat="43.51809" lon="5.8673">
        <ele>493.4</ele>
        <time>2014-03-08T12:15:57Z</time>
      </trkpt>
      <trkpt lat="43.51809" lon="5.86728">
        <ele>493.4</ele>
        <time>2014-03-08T12:15:58Z</time>
      </trkpt>
      <trkpt lat="43.51813" lon="5.86723">
        <ele>493.4</ele>
        <time>2014-03-08T12:16:02Z</time>
      </trkpt>
      <trkpt lat="43.5182" lon="5.86719">
        <ele>493.4</ele>
        <time>2014-03-08T12:16:09Z</time>
      </trkpt>
      <trkpt lat="43.51829" lon="5.86715">
        <ele>493.4</ele>
        <time>2014-03-08T12:16:16Z</time>
      </trkpt>
      <trkpt lat="43.51835" lon="5.86716">
        <ele>493.4</ele>
        <time>2014-03-08T12:16:23Z</time>
      </trkpt>
      <trkpt lat="43.51837" lon="5.86716">
        <ele>493.4</ele>
        <time>2014-03-08T12:16:25Z</time>
      </trkpt>
      <trkpt lat="43.5184" lon="5.86714">
        <ele>493.4</ele>
        <time>2014-03-08T12:16:29Z</time>
      </trkpt>
      <trkpt lat="43.5184" lon="5.86712">
        <ele>493.8</ele>
        <time>2014-03-08T12:16:30Z</time>
      </trkpt>
      <trkpt lat="43.5184" lon="5.86711">
        <ele>494.2</ele>
        <time>2014-03-08T12:16:31Z</time>
      </trkpt>
      <trkpt lat="43.5184" lon="5.86711">
        <ele>494.6</ele>
        <time>2014-03-08T12:16:32Z</time>
      </trkpt>
      <trkpt lat="43.5184" lon="5.86711">
        <ele>495</ele>
        <time>2014-03-08T12:16:33Z</time>
      </trkpt>
      <trkpt lat="43.51839" lon="5.86711">
        <ele>495.4</ele>
        <time>2014-03-08T12:16:35Z</time>
      </trkpt>
      <trkpt lat="43.51839" lon="5.86712">
        <ele>495.4</ele>
        <time>2014-03-08T12:16:46Z</time>
      </trkpt>
      <trkpt lat="43.51838" lon="5.86712">
        <ele>495.4</ele>
        <time>2014-03-08T12:17:02Z</time>
      </trkpt>
      <trkpt lat="43.51836" lon="5.86712">
        <ele>495.4</ele>
        <time>2014-03-08T12:17:17Z</time>
      </trkpt>
      <trkpt lat="43.51835" lon="5.86712">
        <ele>495.4</ele>
        <time>2014-03-08T12:17:18Z</time>
      </trkpt>
      <trkpt lat="43.51824" lon="5.86716">
        <ele>495.4</ele>
        <time>2014-03-08T12:17:22Z</time>
      </trkpt>
      <trkpt lat="43.51821" lon="5.86718">
        <ele>495.4</ele>
        <time>2014-03-08T12:17:23Z</time>
      </trkpt>
      <trkpt lat="43.51808" lon="5.86736">
        <ele>495</ele>
        <time>2014-03-08T12:17:28Z</time>
      </trkpt>
      <trkpt lat="43.518" lon="5.86761">
        <ele>493.4</ele>
        <time>2014-03-08T12:17:33Z</time>
      </trkpt>
      <trkpt lat="43.51796" lon="5.86771">
        <ele>493</ele>
        <time>2014-03-08T12:17:35Z</time>
      </trkpt>
      <trkpt lat="43.51792" lon="5.86775">
        <ele>492.6</ele>
        <time>2014-03-08T12:17:36Z</time>
      </trkpt>
      <trkpt lat="43.5177" lon="5.86818">
        <ele>488.8</ele>
        <time>2014-03-08T12:17:41Z</time>
      </trkpt>
      <trkpt lat="43.51744" lon="5.8685">
        <ele>484.2</ele>
        <time>2014-03-08T12:17:45Z</time>
      </trkpt>
      <trkpt lat="43.51719" lon="5.86862">
        <ele>482.2</ele>
        <time>2014-03-08T12:17:48Z</time>
      </trkpt>
      <trkpt lat="43.51712" lon="5.86868">
        <ele>481.4</ele>
        <time>2014-03-08T12:17:49Z</time>
      </trkpt>
      <trkpt lat="43.5168" lon="5.86902">
        <ele>477.8</ele>
        <time>2014-03-08T12:17:54Z</time>
      </trkpt>
      <trkpt lat="43.51665" lon="5.86909">
        <ele>476.8</ele>
        <time>2014-03-08T12:17:56Z</time>
      </trkpt>
      <trkpt lat="43.51652" lon="5.86919">
        <ele>475.4</ele>
        <time>2014-03-08T12:17:58Z</time>
      </trkpt>
      <trkpt lat="43.5162" lon="5.86926">
        <ele>472.6</ele>
        <time>2014-03-08T12:18:02Z</time>
      </trkpt>
      <trkpt lat="43.51612" lon="5.86928">
        <ele>471.8</ele>
        <time>2014-03-08T12:18:03Z</time>
      </trkpt>
      <trkpt lat="43.51597" lon="5.86931">
        <ele>470.2</ele>
        <time>2014-03-08T12:18:05Z</time>
      </trkpt>
      <trkpt lat="43.5159" lon="5.86931">
        <ele>468.4</ele>
        <time>2014-03-08T12:18:06Z</time>
      </trkpt>
      <trkpt lat="43.51585" lon="5.86929">
        <ele>467.6</ele>
        <time>2014-03-08T12:18:07Z</time>
      </trkpt>
      <trkpt lat="43.51579" lon="5.86928">
        <ele>467.6</ele>
        <time>2014-03-08T12:18:08Z</time>
      </trkpt>
      <trkpt lat="43.51556" lon="5.86917">
        <ele>466.8</ele>
        <time>2014-03-08T12:18:13Z</time>
      </trkpt>
      <trkpt lat="43.51547" lon="5.86911">
        <ele>465.8</ele>
        <time>2014-03-08T12:18:15Z</time>
      </trkpt>
      <trkpt lat="43.51544" lon="5.86907">
        <ele>465.4</ele>
        <time>2014-03-08T12:18:16Z</time>
      </trkpt>
      <trkpt lat="43.51533" lon="5.8688">
        <ele>464.2</ele>
        <time>2014-03-08T12:18:22Z</time>
      </trkpt>
      <trkpt lat="43.51531" lon="5.86877">
        <ele>463.8</ele>
        <time>2014-03-08T12:18:23Z</time>
      </trkpt>
      <trkpt lat="43.51529" lon="5.86874">
        <ele>463.4</ele>
        <time>2014-03-08T12:18:24Z</time>
      </trkpt>
      <trkpt lat="43.51515" lon="5.86866">
        <ele>463.4</ele>
        <time>2014-03-08T12:18:28Z</time>
      </trkpt>
      <trkpt lat="43.51504" lon="5.86863">
        <ele>463.4</ele>
        <time>2014-03-08T12:18:32Z</time>
      </trkpt>
      <trkpt lat="43.51504" lon="5.86863">
        <ele>463.4</ele>
        <time>2014-03-08T12:18:36Z</time>
      </trkpt>
      <trkpt lat="43.51493" lon="5.86865">
        <ele>461.2</ele>
        <time>2014-03-08T12:18:54Z</time>
      </trkpt>
      <trkpt lat="43.51489" lon="5.86867">
        <ele>461.2</ele>
        <time>2014-03-08T12:18:56Z</time>
      </trkpt>
      <trkpt lat="43.5148" lon="5.86881">
        <ele>461.2</ele>
        <time>2014-03-08T12:19:05Z</time>
      </trkpt>
      <trkpt lat="43.51475" lon="5.86894">
        <ele>462</ele>
        <time>2014-03-08T12:19:12Z</time>
      </trkpt>
      <trkpt lat="43.51474" lon="5.86896">
        <ele>462.4</ele>
        <time>2014-03-08T12:19:13Z</time>
      </trkpt>
      <trkpt lat="43.51472" lon="5.86899">
        <ele>463.2</ele>
        <time>2014-03-08T12:19:15Z</time>
      </trkpt>
      <trkpt lat="43.51468" lon="5.86905">
        <ele>463.2</ele>
        <time>2014-03-08T12:19:20Z</time>
      </trkpt>
      <trkpt lat="43.51465" lon="5.8691">
        <ele>463.6</ele>
        <time>2014-03-08T12:19:24Z</time>
      </trkpt>
      <trkpt lat="43.51463" lon="5.86915">
        <ele>464.6</ele>
        <time>2014-03-08T12:19:26Z</time>
      </trkpt>
      <trkpt lat="43.51455" lon="5.86927">
        <ele>465.4</ele>
        <time>2014-03-08T12:19:33Z</time>
      </trkpt>
      <trkpt lat="43.51447" lon="5.86945">
        <ele>466.6</ele>
        <time>2014-03-08T12:19:43Z</time>
      </trkpt>
      <trkpt lat="43.51447" lon="5.86946">
        <ele>467</ele>
        <time>2014-03-08T12:19:44Z</time>
      </trkpt>
      <trkpt lat="43.51445" lon="5.86954">
        <ele>467.4</ele>
        <time>2014-03-08T12:19:48Z</time>
      </trkpt>
      <trkpt lat="43.51439" lon="5.86966">
        <ele>467.8</ele>
        <time>2014-03-08T12:19:56Z</time>
      </trkpt>
      <trkpt lat="43.51438" lon="5.86968">
        <ele>468.2</ele>
        <time>2014-03-08T12:19:57Z</time>
      </trkpt>
      <trkpt lat="43.51419" lon="5.87003">
        <ele>471.6</ele>
        <time>2014-03-08T12:20:20Z</time>
      </trkpt>
      <trkpt lat="43.51415" lon="5.87008">
        <ele>472</ele>
        <time>2014-03-08T12:20:24Z</time>
      </trkpt>
      <trkpt lat="43.51414" lon="5.8701">
        <ele>472.4</ele>
        <time>2014-03-08T12:20:25Z</time>
      </trkpt>
      <trkpt lat="43.51414" lon="5.87012">
        <ele>472.8</ele>
        <time>2014-03-08T12:20:26Z</time>
      </trkpt>
      <trkpt lat="43.51413" lon="5.87013">
        <ele>473.2</ele>
        <time>2014-03-08T12:20:27Z</time>
      </trkpt>
      <trkpt lat="43.51413" lon="5.87014">
        <ele>473.6</ele>
        <time>2014-03-08T12:20:28Z</time>
      </trkpt>
      <trkpt lat="43.51411" lon="5.87018">
        <ele>473.6</ele>
        <time>2014-03-08T12:20:31Z</time>
      </trkpt>
      <trkpt lat="43.51409" lon="5.87022">
        <ele>474</ele>
        <time>2014-03-08T12:20:34Z</time>
      </trkpt>
      <trkpt lat="43.51408" lon="5.87024">
        <ele>474.4</ele>
        <time>2014-03-08T12:20:35Z</time>
      </trkpt>
      <trkpt lat="43.51408" lon="5.87025">
        <ele>474.8</ele>
        <time>2014-03-08T12:20:36Z</time>
      </trkpt>
      <trkpt lat="43.51407" lon="5.87026">
        <ele>475.2</ele>
        <time>2014-03-08T12:20:37Z</time>
      </trkpt>
      <trkpt lat="43.51405" lon="5.8703">
        <ele>475.6</ele>
        <time>2014-03-08T12:20:40Z</time>
      </trkpt>
      <trkpt lat="43.51406" lon="5.87031">
        <ele>475.6</ele>
        <time>2014-03-08T12:20:45Z</time>
      </trkpt>
      <trkpt lat="43.51405" lon="5.87033">
        <ele>475.6</ele>
        <time>2014-03-08T12:21:15Z</time>
      </trkpt>
      <trkpt lat="43.51401" lon="5.87041">
        <ele>476.6</ele>
        <time>2014-03-08T12:21:23Z</time>
      </trkpt>
      <trkpt lat="43.51401" lon="5.87043">
        <ele>477.4</ele>
        <time>2014-03-08T12:21:24Z</time>
      </trkpt>
      <trkpt lat="43.51399" lon="5.87053">
        <ele>478.2</ele>
        <time>2014-03-08T12:21:33Z</time>
      </trkpt>
      <trkpt lat="43.51399" lon="5.87054">
        <ele>478.6</ele>
        <time>2014-03-08T12:21:34Z</time>
      </trkpt>
      <trkpt lat="43.51398" lon="5.87054">
        <ele>479.2</ele>
        <time>2014-03-08T12:21:35Z</time>
      </trkpt>
      <trkpt lat="43.51392" lon="5.87059">
        <ele>480.4</ele>
        <time>2014-03-08T12:21:43Z</time>
      </trkpt>
      <trkpt lat="43.5139" lon="5.8706">
        <ele>481.2</ele>
        <time>2014-03-08T12:21:45Z</time>
      </trkpt>
      <trkpt lat="43.5139" lon="5.87061">
        <ele>481.6</ele>
        <time>2014-03-08T12:21:46Z</time>
      </trkpt>
      <trkpt lat="43.51389" lon="5.87061">
        <ele>482</ele>
        <time>2014-03-08T12:21:47Z</time>
      </trkpt>
      <trkpt lat="43.51386" lon="5.87064">
        <ele>482</ele>
        <time>2014-03-08T12:21:51Z</time>
      </trkpt>
      <trkpt lat="43.51382" lon="5.87065">
        <ele>482.4</ele>
        <time>2014-03-08T12:21:55Z</time>
      </trkpt>
      <trkpt lat="43.51381" lon="5.87065">
        <ele>482.8</ele>
        <time>2014-03-08T12:21:56Z</time>
      </trkpt>
      <trkpt lat="43.5138" lon="5.87065">
        <ele>483.2</ele>
        <time>2014-03-08T12:21:57Z</time>
      </trkpt>
      <trkpt lat="43.5138" lon="5.87065">
        <ele>483.6</ele>
        <time>2014-03-08T12:21:58Z</time>
      </trkpt>
      <trkpt lat="43.51379" lon="5.87066">
        <ele>484</ele>
        <time>2014-03-08T12:21:59Z</time>
      </trkpt>
      <trkpt lat="43.51378" lon="5.87066">
        <ele>484</ele>
        <time>2014-03-08T12:22:00Z</time>
      </trkpt>
      <trkpt lat="43.51371" lon="5.87064">
        <ele>484</ele>
        <time>2014-03-08T12:22:07Z</time>
      </trkpt>
      <trkpt lat="43.51365" lon="5.87063">
        <ele>484</ele>
        <time>2014-03-08T12:22:13Z</time>
      </trkpt>
      <trkpt lat="43.51363" lon="5.87062">
        <ele>484.8</ele>
        <time>2014-03-08T12:22:15Z</time>
      </trkpt>
      <trkpt lat="43.51363" lon="5.87061">
        <ele>485.2</ele>
        <time>2014-03-08T12:22:16Z</time>
      </trkpt>
      <trkpt lat="43.51362" lon="5.8706">
        <ele>485.6</ele>
        <time>2014-03-08T12:22:17Z</time>
      </trkpt>
      <trkpt lat="43.51361" lon="5.8706">
        <ele>486</ele>
        <time>2014-03-08T12:22:18Z</time>
      </trkpt>
      <trkpt lat="43.51359" lon="5.87058">
        <ele>486</ele>
        <time>2014-03-08T12:22:20Z</time>
      </trkpt>
      <trkpt lat="43.51353" lon="5.87057">
        <ele>486</ele>
        <time>2014-03-08T12:22:27Z</time>
      </trkpt>
      <trkpt lat="43.51343" lon="5.87048">
        <ele>486.4</ele>
        <time>2014-03-08T12:22:37Z</time>
      </trkpt>
      <trkpt lat="43.51341" lon="5.87047">
        <ele>487.6</ele>
        <time>2014-03-08T12:22:39Z</time>
      </trkpt>
      <trkpt lat="43.5134" lon="5.87047">
        <ele>488</ele>
        <time>2014-03-08T12:22:40Z</time>
      </trkpt>
      <trkpt lat="43.51336" lon="5.87045">
        <ele>488</ele>
        <time>2014-03-08T12:22:43Z</time>
      </trkpt>
      <trkpt lat="43.51332" lon="5.87039">
        <ele>488</ele>
        <time>2014-03-08T12:22:50Z</time>
      </trkpt>
      <trkpt lat="43.51329" lon="5.87035">
        <ele>488.4</ele>
        <time>2014-03-08T12:22:54Z</time>
      </trkpt>
      <trkpt lat="43.51328" lon="5.87035">
        <ele>488.8</ele>
        <time>2014-03-08T12:22:55Z</time>
      </trkpt>
      <trkpt lat="43.51326" lon="5.87034">
        <ele>489.2</ele>
        <time>2014-03-08T12:22:56Z</time>
      </trkpt>
      <trkpt lat="43.51325" lon="5.87033">
        <ele>489.6</ele>
        <time>2014-03-08T12:22:57Z</time>
      </trkpt>
      <trkpt lat="43.51324" lon="5.87032">
        <ele>490.2</ele>
        <time>2014-03-08T12:22:58Z</time>
      </trkpt>
      <trkpt lat="43.51315" lon="5.8703">
        <ele>490.2</ele>
        <time>2014-03-08T12:23:05Z</time>
      </trkpt>
      <trkpt lat="43.51309" lon="5.87033">
        <ele>490.2</ele>
        <time>2014-03-08T12:23:12Z</time>
      </trkpt>
      <trkpt lat="43.51308" lon="5.87033">
        <ele>490.6</ele>
        <time>2014-03-08T12:23:13Z</time>
      </trkpt>
      <trkpt lat="43.51307" lon="5.87033">
        <ele>491</ele>
        <time>2014-03-08T12:23:14Z</time>
      </trkpt>
      <trkpt lat="43.51306" lon="5.87033">
        <ele>491.4</ele>
        <time>2014-03-08T12:23:15Z</time>
      </trkpt>
      <trkpt lat="43.51304" lon="5.87034">
        <ele>492.2</ele>
        <time>2014-03-08T12:23:17Z</time>
      </trkpt>
      <trkpt lat="43.51302" lon="5.87033">
        <ele>492.2</ele>
        <time>2014-03-08T12:23:21Z</time>
      </trkpt>
      <trkpt lat="43.51301" lon="5.87034">
        <ele>492.2</ele>
        <time>2014-03-08T12:23:26Z</time>
      </trkpt>
      <trkpt lat="43.51301" lon="5.87034">
        <ele>492.2</ele>
        <time>2014-03-08T12:24:10Z</time>
      </trkpt>
      <trkpt lat="43.51301" lon="5.87035">
        <ele>492.2</ele>
        <time>2014-03-08T12:24:34Z</time>
      </trkpt>
      <trkpt lat="43.51302" lon="5.87037">
        <ele>492.2</ele>
        <time>2014-03-08T12:24:53Z</time>
      </trkpt>
      <trkpt lat="43.51306" lon="5.87055">
        <ele>492.2</ele>
        <time>2014-03-08T12:24:57Z</time>
      </trkpt>
      <trkpt lat="43.51299" lon="5.87059">
        <ele>492.2</ele>
        <time>2014-03-08T12:24:59Z</time>
      </trkpt>
      <trkpt lat="43.51292" lon="5.87067">
        <ele>491.8</ele>
        <time>2014-03-08T12:25:01Z</time>
      </trkpt>
      <trkpt lat="43.51286" lon="5.87068">
        <ele>491.4</ele>
        <time>2014-03-08T12:25:02Z</time>
      </trkpt>
      <trkpt lat="43.51271" lon="5.87092">
        <ele>488.4</ele>
        <time>2014-03-08T12:25:06Z</time>
      </trkpt>
      <trkpt lat="43.51273" lon="5.87096">
        <ele>487.6</ele>
        <time>2014-03-08T12:25:07Z</time>
      </trkpt>
      <trkpt lat="43.51277" lon="5.87097">
        <ele>486.6</ele>
        <time>2014-03-08T12:25:08Z</time>
      </trkpt>
      <trkpt lat="43.51278" lon="5.871">
        <ele>485.8</ele>
        <time>2014-03-08T12:25:09Z</time>
      </trkpt>
      <trkpt lat="43.51276" lon="5.87105">
        <ele>485</ele>
        <time>2014-03-08T12:25:10Z</time>
      </trkpt>
      <trkpt lat="43.51269" lon="5.87122">
        <ele>484</ele>
        <time>2014-03-08T12:25:13Z</time>
      </trkpt>
      <trkpt lat="43.51269" lon="5.87127">
        <ele>483.2</ele>
        <time>2014-03-08T12:25:14Z</time>
      </trkpt>
      <trkpt lat="43.51268" lon="5.87131">
        <ele>482.4</ele>
        <time>2014-03-08T12:25:15Z</time>
      </trkpt>
      <trkpt lat="43.51267" lon="5.87135">
        <ele>481.6</ele>
        <time>2014-03-08T12:25:16Z</time>
      </trkpt>
      <trkpt lat="43.51266" lon="5.87138">
        <ele>480.6</ele>
        <time>2014-03-08T12:25:17Z</time>
      </trkpt>
      <trkpt lat="43.51264" lon="5.8714">
        <ele>479.8</ele>
        <time>2014-03-08T12:25:18Z</time>
      </trkpt>
      <trkpt lat="43.51263" lon="5.87145">
        <ele>477.8</ele>
        <time>2014-03-08T12:25:20Z</time>
      </trkpt>
      <trkpt lat="43.51264" lon="5.87147">
        <ele>476.8</ele>
        <time>2014-03-08T12:25:21Z</time>
      </trkpt>
      <trkpt lat="43.51266" lon="5.8715">
        <ele>475.8</ele>
        <time>2014-03-08T12:25:22Z</time>
      </trkpt>
      <trkpt lat="43.51264" lon="5.87151">
        <ele>474.6</ele>
        <time>2014-03-08T12:25:23Z</time>
      </trkpt>
      <trkpt lat="43.51262" lon="5.87153">
        <ele>473.6</ele>
        <time>2014-03-08T12:25:24Z</time>
      </trkpt>
      <trkpt lat="43.51262" lon="5.87153">
        <ele>472.8</ele>
        <time>2014-03-08T12:25:25Z</time>
      </trkpt>
      <trkpt lat="43.5126" lon="5.87154">
        <ele>471.8</ele>
        <time>2014-03-08T12:25:26Z</time>
      </trkpt>
      <trkpt lat="43.51256" lon="5.87158">
        <ele>470</ele>
        <time>2014-03-08T12:25:28Z</time>
      </trkpt>
      <trkpt lat="43.51255" lon="5.87159">
        <ele>469.2</ele>
        <time>2014-03-08T12:25:29Z</time>
      </trkpt>
      <trkpt lat="43.51253" lon="5.8716">
        <ele>467.8</ele>
        <time>2014-03-08T12:25:30Z</time>
      </trkpt>
      <trkpt lat="43.51252" lon="5.87163">
        <ele>466.8</ele>
        <time>2014-03-08T12:25:31Z</time>
      </trkpt>
      <trkpt lat="43.51251" lon="5.87164">
        <ele>466</ele>
        <time>2014-03-08T12:25:32Z</time>
      </trkpt>
      <trkpt lat="43.51252" lon="5.87167">
        <ele>465</ele>
        <time>2014-03-08T12:25:33Z</time>
      </trkpt>
      <trkpt lat="43.51251" lon="5.87171">
        <ele>464</ele>
        <time>2014-03-08T12:25:34Z</time>
      </trkpt>
      <trkpt lat="43.51249" lon="5.87174">
        <ele>461.8</ele>
        <time>2014-03-08T12:25:36Z</time>
      </trkpt>
      <trkpt lat="43.51248" lon="5.87175">
        <ele>460.8</ele>
        <time>2014-03-08T12:25:37Z</time>
      </trkpt>
      <trkpt lat="43.51245" lon="5.87182">
        <ele>459</ele>
        <time>2014-03-08T12:25:39Z</time>
      </trkpt>
      <trkpt lat="43.51244" lon="5.87192">
        <ele>456</ele>
        <time>2014-03-08T12:25:42Z</time>
      </trkpt>
      <trkpt lat="43.51244" lon="5.87194">
        <ele>455</ele>
        <time>2014-03-08T12:25:43Z</time>
      </trkpt>
      <trkpt lat="43.51243" lon="5.87196">
        <ele>454.4</ele>
        <time>2014-03-08T12:25:44Z</time>
      </trkpt>
      <trkpt lat="43.51241" lon="5.87198">
        <ele>453.8</ele>
        <time>2014-03-08T12:25:45Z</time>
      </trkpt>
      <trkpt lat="43.51241" lon="5.87203">
        <ele>453</ele>
        <time>2014-03-08T12:25:46Z</time>
      </trkpt>
      <trkpt lat="43.5124" lon="5.87207">
        <ele>452.4</ele>
        <time>2014-03-08T12:25:47Z</time>
      </trkpt>
      <trkpt lat="43.51238" lon="5.87209">
        <ele>451.8</ele>
        <time>2014-03-08T12:25:48Z</time>
      </trkpt>
      <trkpt lat="43.51236" lon="5.87212">
        <ele>451</ele>
        <time>2014-03-08T12:25:49Z</time>
      </trkpt>
      <trkpt lat="43.51233" lon="5.8722">
        <ele>449.2</ele>
        <time>2014-03-08T12:25:51Z</time>
      </trkpt>
      <trkpt lat="43.5123" lon="5.87223">
        <ele>448.4</ele>
        <time>2014-03-08T12:25:52Z</time>
      </trkpt>
      <trkpt lat="43.51227" lon="5.87225">
        <ele>447.6</ele>
        <time>2014-03-08T12:25:53Z</time>
      </trkpt>
      <trkpt lat="43.51223" lon="5.87226">
        <ele>446.8</ele>
        <time>2014-03-08T12:25:54Z</time>
      </trkpt>
      <trkpt lat="43.5122" lon="5.87236">
        <ele>444</ele>
        <time>2014-03-08T12:25:56Z</time>
      </trkpt>
      <trkpt lat="43.5122" lon="5.87248">
        <ele>442</ele>
        <time>2014-03-08T12:25:58Z</time>
      </trkpt>
      <trkpt lat="43.51217" lon="5.87252">
        <ele>441</ele>
        <time>2014-03-08T12:25:59Z</time>
      </trkpt>
      <trkpt lat="43.51215" lon="5.87255">
        <ele>440.4</ele>
        <time>2014-03-08T12:26:00Z</time>
      </trkpt>
      <trkpt lat="43.51211" lon="5.87263">
        <ele>439.2</ele>
        <time>2014-03-08T12:26:02Z</time>
      </trkpt>
      <trkpt lat="43.5121" lon="5.87276">
        <ele>437.4</ele>
        <time>2014-03-08T12:26:04Z</time>
      </trkpt>
      <trkpt lat="43.51209" lon="5.87282">
        <ele>436.4</ele>
        <time>2014-03-08T12:26:05Z</time>
      </trkpt>
      <trkpt lat="43.51207" lon="5.87286">
        <ele>435.4</ele>
        <time>2014-03-08T12:26:06Z</time>
      </trkpt>
      <trkpt lat="43.51204" lon="5.87288">
        <ele>434.2</ele>
        <time>2014-03-08T12:26:07Z</time>
      </trkpt>
      <trkpt lat="43.51202" lon="5.87289">
        <ele>433.2</ele>
        <time>2014-03-08T12:26:08Z</time>
      </trkpt>
      <trkpt lat="43.51199" lon="5.87291">
        <ele>432</ele>
        <time>2014-03-08T12:26:09Z</time>
      </trkpt>
      <trkpt lat="43.51196" lon="5.87293">
        <ele>431</ele>
        <time>2014-03-08T12:26:10Z</time>
      </trkpt>
      <trkpt lat="43.51193" lon="5.87292">
        <ele>430.2</ele>
        <time>2014-03-08T12:26:11Z</time>
      </trkpt>
      <trkpt lat="43.51188" lon="5.87289">
        <ele>429.6</ele>
        <time>2014-03-08T12:26:12Z</time>
      </trkpt>
      <trkpt lat="43.51183" lon="5.87288">
        <ele>428.8</ele>
        <time>2014-03-08T12:26:13Z</time>
      </trkpt>
      <trkpt lat="43.51181" lon="5.87286">
        <ele>428</ele>
        <time>2014-03-08T12:26:14Z</time>
      </trkpt>
      <trkpt lat="43.51177" lon="5.87284">
        <ele>427.4</ele>
        <time>2014-03-08T12:26:15Z</time>
      </trkpt>
      <trkpt lat="43.5117" lon="5.87288">
        <ele>426</ele>
        <time>2014-03-08T12:26:17Z</time>
      </trkpt>
      <trkpt lat="43.51166" lon="5.87288">
        <ele>425.2</ele>
        <time>2014-03-08T12:26:18Z</time>
      </trkpt>
      <trkpt lat="43.51162" lon="5.87288">
        <ele>424.4</ele>
        <time>2014-03-08T12:26:19Z</time>
      </trkpt>
      <trkpt lat="43.51157" lon="5.87292">
        <ele>422.4</ele>
        <time>2014-03-08T12:26:20Z</time>
      </trkpt>
      <trkpt lat="43.51153" lon="5.87295">
        <ele>421.4</ele>
        <time>2014-03-08T12:26:21Z</time>
      </trkpt>
      <trkpt lat="43.51149" lon="5.87298">
        <ele>420.2</ele>
        <time>2014-03-08T12:26:22Z</time>
      </trkpt>
      <trkpt lat="43.51144" lon="5.87299">
        <ele>419</ele>
        <time>2014-03-08T12:26:23Z</time>
      </trkpt>
      <trkpt lat="43.5114" lon="5.87297">
        <ele>417.8</ele>
        <time>2014-03-08T12:26:24Z</time>
      </trkpt>
      <trkpt lat="43.51136" lon="5.87292">
        <ele>416.6</ele>
        <time>2014-03-08T12:26:25Z</time>
      </trkpt>
      <trkpt lat="43.51134" lon="5.87288">
        <ele>415.4</ele>
        <time>2014-03-08T12:26:26Z</time>
      </trkpt>
      <trkpt lat="43.51131" lon="5.87287">
        <ele>414.4</ele>
        <time>2014-03-08T12:26:27Z</time>
      </trkpt>
      <trkpt lat="43.51127" lon="5.87291">
        <ele>413.6</ele>
        <time>2014-03-08T12:26:28Z</time>
      </trkpt>
      <trkpt lat="43.5112" lon="5.87306">
        <ele>411.8</ele>
        <time>2014-03-08T12:26:30Z</time>
      </trkpt>
      <trkpt lat="43.51116" lon="5.87313">
        <ele>411</ele>
        <time>2014-03-08T12:26:31Z</time>
      </trkpt>
      <trkpt lat="43.51111" lon="5.87317">
        <ele>410</ele>
        <time>2014-03-08T12:26:32Z</time>
      </trkpt>
      <trkpt lat="43.51107" lon="5.87323">
        <ele>409</ele>
        <time>2014-03-08T12:26:33Z</time>
      </trkpt>
      <trkpt lat="43.51103" lon="5.87339">
        <ele>407</ele>
        <time>2014-03-08T12:26:35Z</time>
      </trkpt>
      <trkpt lat="43.51092" lon="5.87352">
        <ele>404.8</ele>
        <time>2014-03-08T12:26:37Z</time>
      </trkpt>
      <trkpt lat="43.51089" lon="5.8736">
        <ele>403.6</ele>
        <time>2014-03-08T12:26:38Z</time>
      </trkpt>
      <trkpt lat="43.51085" lon="5.87377">
        <ele>401.4</ele>
        <time>2014-03-08T12:26:40Z</time>
      </trkpt>
      <trkpt lat="43.51082" lon="5.87415">
        <ele>397.4</ele>
        <time>2014-03-08T12:26:44Z</time>
      </trkpt>
      <trkpt lat="43.51085" lon="5.87436">
        <ele>396.6</ele>
        <time>2014-03-08T12:26:46Z</time>
      </trkpt>
      <trkpt lat="43.51085" lon="5.87445">
        <ele>396.2</ele>
        <time>2014-03-08T12:26:47Z</time>
      </trkpt>
      <trkpt lat="43.51081" lon="5.87452">
        <ele>395.8</ele>
        <time>2014-03-08T12:26:48Z</time>
      </trkpt>
      <trkpt lat="43.51076" lon="5.87456">
        <ele>395.2</ele>
        <time>2014-03-08T12:26:49Z</time>
      </trkpt>
      <trkpt lat="43.51071" lon="5.87461">
        <ele>394.6</ele>
        <time>2014-03-08T12:26:50Z</time>
      </trkpt>
      <trkpt lat="43.5106" lon="5.87489">
        <ele>392.4</ele>
        <time>2014-03-08T12:26:54Z</time>
      </trkpt>
      <trkpt lat="43.51055" lon="5.87496">
        <ele>391.8</ele>
        <time>2014-03-08T12:26:55Z</time>
      </trkpt>
      <trkpt lat="43.5105" lon="5.87501">
        <ele>391.2</ele>
        <time>2014-03-08T12:26:56Z</time>
      </trkpt>
      <trkpt lat="43.51045" lon="5.87506">
        <ele>390.6</ele>
        <time>2014-03-08T12:26:57Z</time>
      </trkpt>
      <trkpt lat="43.51034" lon="5.87511">
        <ele>390</ele>
        <time>2014-03-08T12:26:59Z</time>
      </trkpt>
      <trkpt lat="43.51029" lon="5.87512">
        <ele>389.4</ele>
        <time>2014-03-08T12:27:00Z</time>
      </trkpt>
      <trkpt lat="43.5102" lon="5.87511">
        <ele>388.4</ele>
        <time>2014-03-08T12:27:02Z</time>
      </trkpt>
      <trkpt lat="43.51015" lon="5.87508">
        <ele>388</ele>
        <time>2014-03-08T12:27:03Z</time>
      </trkpt>
      <trkpt lat="43.51011" lon="5.87505">
        <ele>388</ele>
        <time>2014-03-08T12:27:04Z</time>
      </trkpt>
      <trkpt lat="43.50999" lon="5.87493">
        <ele>388</ele>
        <time>2014-03-08T12:27:08Z</time>
      </trkpt>
      <trkpt lat="43.50997" lon="5.87493">
        <ele>387.4</ele>
        <time>2014-03-08T12:27:09Z</time>
      </trkpt>
      <trkpt lat="43.50995" lon="5.87494">
        <ele>386.4</ele>
        <time>2014-03-08T12:27:10Z</time>
      </trkpt>
      <trkpt lat="43.5099" lon="5.87498">
        <ele>385.6</ele>
        <time>2014-03-08T12:27:12Z</time>
      </trkpt>
      <trkpt lat="43.50988" lon="5.87499">
        <ele>385.6</ele>
        <time>2014-03-08T12:27:13Z</time>
      </trkpt>
      <trkpt lat="43.50981" lon="5.87498">
        <ele>385.6</ele>
        <time>2014-03-08T12:27:15Z</time>
      </trkpt>
      <trkpt lat="43.50975" lon="5.87494">
        <ele>385</ele>
        <time>2014-03-08T12:27:17Z</time>
      </trkpt>
      <trkpt lat="43.50972" lon="5.87486">
        <ele>384.2</ele>
        <time>2014-03-08T12:27:19Z</time>
      </trkpt>
      <trkpt lat="43.50971" lon="5.87484">
        <ele>383.8</ele>
        <time>2014-03-08T12:27:20Z</time>
      </trkpt>
      <trkpt lat="43.5097" lon="5.87483">
        <ele>383.2</ele>
        <time>2014-03-08T12:27:21Z</time>
      </trkpt>
      <trkpt lat="43.50968" lon="5.87483">
        <ele>383.2</ele>
        <time>2014-03-08T12:27:27Z</time>
      </trkpt>
      <trkpt lat="43.50956" lon="5.87487">
        <ele>383.2</ele>
        <time>2014-03-08T12:27:31Z</time>
      </trkpt>
      <trkpt lat="43.50943" lon="5.87477">
        <ele>382.4</ele>
        <time>2014-03-08T12:27:34Z</time>
      </trkpt>
      <trkpt lat="43.50938" lon="5.87476">
        <ele>381.8</ele>
        <time>2014-03-08T12:27:35Z</time>
      </trkpt>
      <trkpt lat="43.50933" lon="5.87477">
        <ele>381.4</ele>
        <time>2014-03-08T12:27:36Z</time>
      </trkpt>
      <trkpt lat="43.50912" lon="5.87491">
        <ele>379.6</ele>
        <time>2014-03-08T12:27:40Z</time>
      </trkpt>
      <trkpt lat="43.50907" lon="5.87495">
        <ele>379.2</ele>
        <time>2014-03-08T12:27:41Z</time>
      </trkpt>
      <trkpt lat="43.50902" lon="5.87498">
        <ele>378.8</ele>
        <time>2014-03-08T12:27:42Z</time>
      </trkpt>
      <trkpt lat="43.50901" lon="5.87505">
        <ele>378.8</ele>
        <time>2014-03-08T12:27:44Z</time>
      </trkpt>
      <trkpt lat="43.50904" lon="5.87516">
        <ele>378.8</ele>
        <time>2014-03-08T12:27:48Z</time>
      </trkpt>
      <trkpt lat="43.50906" lon="5.87522">
        <ele>378.8</ele>
        <time>2014-03-08T12:27:50Z</time>
      </trkpt>
      <trkpt lat="43.50909" lon="5.87535">
        <ele>378.8</ele>
        <time>2014-03-08T12:27:55Z</time>
      </trkpt>
      <trkpt lat="43.50909" lon="5.87535">
        <ele>378.8</ele>
        <time>2014-03-08T12:28:41Z</time>
      </trkpt>
      <trkpt lat="43.5091" lon="5.87539">
        <ele>378.8</ele>
        <time>2014-03-08T12:29:53Z</time>
      </trkpt>
      <trkpt lat="43.50912" lon="5.8755">
        <ele>378.4</ele>
        <time>2014-03-08T12:29:57Z</time>
      </trkpt>
      <trkpt lat="43.50914" lon="5.87557">
        <ele>377.6</ele>
        <time>2014-03-08T12:29:59Z</time>
      </trkpt>
      <trkpt lat="43.50949" lon="5.87745">
        <ele>370.2</ele>
        <time>2014-03-08T12:30:30Z</time>
      </trkpt>
      <trkpt lat="43.50958" lon="5.87778">
        <ele>370.2</ele>
        <time>2014-03-08T12:30:35Z</time>
      </trkpt>
      <trkpt lat="43.50961" lon="5.878">
        <ele>368.6</ele>
        <time>2014-03-08T12:30:39Z</time>
      </trkpt>
      <trkpt lat="43.50967" lon="5.87935">
        <ele>369</ele>
        <time>2014-03-08T12:31:04Z</time>
      </trkpt>
      <trkpt lat="43.50972" lon="5.87977">
        <ele>370.4</ele>
        <time>2014-03-08T12:31:12Z</time>
      </trkpt>
      <trkpt lat="43.50969" lon="5.8802">
        <ele>370.4</ele>
        <time>2014-03-08T12:31:23Z</time>
      </trkpt>
      <trkpt lat="43.50965" lon="5.88035">
        <ele>370.4</ele>
        <time>2014-03-08T12:31:29Z</time>
      </trkpt>
      <trkpt lat="43.50964" lon="5.88036">
        <ele>370.4</ele>
        <time>2014-03-08T12:31:30Z</time>
      </trkpt>
      <trkpt lat="43.50958" lon="5.88035">
        <ele>370.4</ele>
        <time>2014-03-08T12:31:33Z</time>
      </trkpt>
      <trkpt lat="43.50957" lon="5.88035">
        <ele>370.4</ele>
        <time>2014-03-08T12:31:34Z</time>
      </trkpt>
      <trkpt lat="43.50956" lon="5.88034">
        <ele>370.4</ele>
        <time>2014-03-08T12:31:37Z</time>
      </trkpt>
      <trkpt lat="43.50957" lon="5.88034">
        <ele>370.4</ele>
        <time>2014-03-08T12:31:44Z</time>
      </trkpt>
      <trkpt lat="43.50957" lon="5.88034">
        <ele>370.4</ele>
        <time>2014-03-08T12:32:29Z</time>
      </trkpt>
      <trkpt lat="43.50957" lon="5.88034">
        <ele>370.4</ele>
        <time>2014-03-08T12:33:06Z</time>
      </trkpt>
      <trkpt lat="43.50957" lon="5.88033">
        <ele>370.4</ele>
        <time>2014-03-08T12:34:32Z</time>
      </trkpt>
      <trkpt lat="43.50956" lon="5.88032">
        <ele>370.4</ele>
        <time>2014-03-08T12:35:57Z</time>
      </trkpt>
      <trkpt lat="43.50956" lon="5.88033">
        <ele>370.4</ele>
        <time>2014-03-08T12:37:11Z</time>
      </trkpt>
      <trkpt lat="43.50956" lon="5.88033">
        <ele>370.4</ele>
        <time>2014-03-08T12:37:56Z</time>
      </trkpt>
      <trkpt lat="43.50956" lon="5.88033">
        <ele>370.4</ele>
        <time>2014-03-08T12:38:30Z</time>
      </trkpt>
      <trkpt lat="43.50956" lon="5.88033">
        <ele>370.4</ele>
        <time>2014-03-08T12:39:07Z</time>
      </trkpt>
      <trkpt lat="43.50956" lon="5.88033">
        <ele>370.4</ele>
        <time>2014-03-08T12:39:46Z</time>
      </trkpt>
      <trkpt lat="43.50956" lon="5.88033">
        <ele>370.4</ele>
        <time>2014-03-08T12:40:24Z</time>
      </trkpt>
      <trkpt lat="43.50957" lon="5.88033">
        <ele>370.4</ele>
        <time>2014-03-08T12:41:19Z</time>
      </trkpt>
      <trkpt lat="43.50957" lon="5.88034">
        <ele>370.4</ele>
        <time>2014-03-08T12:42:00Z</time>
      </trkpt>
      <trkpt lat="43.50956" lon="5.88033">
        <ele>370.4</ele>
        <time>2014-03-08T12:42:39Z</time>
      </trkpt>
      <trkpt lat="43.50957" lon="5.88033">
        <ele>370.4</ele>
        <time>2014-03-08T12:43:21Z</time>
      </trkpt>
      <trkpt lat="43.50957" lon="5.88033">
        <ele>370.4</ele>
        <time>2014-03-08T12:43:56Z</time>
      </trkpt>
      <trkpt lat="43.50958" lon="5.88033">
        <ele>370.4</ele>
        <time>2014-03-08T12:44:31Z</time>
      </trkpt>
      <trkpt lat="43.50958" lon="5.88033">
        <ele>370.4</ele>
        <time>2014-03-08T12:45:09Z</time>
      </trkpt>
      <trkpt lat="43.50958" lon="5.88033">
        <ele>370.4</ele>
        <time>2014-03-08T12:45:57Z</time>
      </trkpt>
      <trkpt lat="43.50958" lon="5.88033">
        <ele>370.4</ele>
        <time>2014-03-08T12:46:31Z</time>
      </trkpt>
      <trkpt lat="43.50957" lon="5.88033">
        <ele>370.4</ele>
        <time>2014-03-08T12:47:58Z</time>
      </trkpt>
      <trkpt lat="43.50957" lon="5.88033">
        <ele>370.4</ele>
        <time>2014-03-08T12:48:41Z</time>
      </trkpt>
      <trkpt lat="43.50957" lon="5.88033">
        <ele>370.4</ele>
        <time>2014-03-08T12:49:19Z</time>
      </trkpt>
      <trkpt lat="43.50957" lon="5.88033">
        <ele>368.4</ele>
        <time>2014-03-08T12:49:53Z</time>
      </trkpt>
      <trkpt lat="43.50957" lon="5.88033">
        <ele>368.4</ele>
        <time>2014-03-08T12:50:34Z</time>
      </trkpt>
      <trkpt lat="43.50957" lon="5.88033">
        <ele>368.4</ele>
        <time>2014-03-08T12:51:09Z</time>
      </trkpt>
      <trkpt lat="43.50957" lon="5.88034">
        <ele>368.4</ele>
        <time>2014-03-08T12:51:49Z</time>
      </trkpt>
      <trkpt lat="43.50958" lon="5.88033">
        <ele>368.4</ele>
        <time>2014-03-08T12:52:30Z</time>
      </trkpt>
      <trkpt lat="43.50958" lon="5.88033">
        <ele>368.4</ele>
        <time>2014-03-08T12:53:09Z</time>
      </trkpt>
      <trkpt lat="43.50958" lon="5.88034">
        <ele>368.4</ele>
        <time>2014-03-08T12:53:47Z</time>
      </trkpt>
      <trkpt lat="43.50958" lon="5.88034">
        <ele>368.4</ele>
        <time>2014-03-08T12:54:24Z</time>
      </trkpt>
      <trkpt lat="43.50958" lon="5.88033">
        <ele>368.4</ele>
        <time>2014-03-08T12:55:17Z</time>
      </trkpt>
      <trkpt lat="43.50957" lon="5.88033">
        <ele>368.4</ele>
        <time>2014-03-08T12:55:52Z</time>
      </trkpt>
      <trkpt lat="43.50958" lon="5.88033">
        <ele>368.4</ele>
        <time>2014-03-08T12:56:33Z</time>
      </trkpt>
      <trkpt lat="43.50958" lon="5.88032">
        <ele>368.4</ele>
        <time>2014-03-08T12:57:09Z</time>
      </trkpt>
      <trkpt lat="43.50958" lon="5.88032">
        <ele>368.4</ele>
        <time>2014-03-08T12:57:44Z</time>
      </trkpt>
      <trkpt lat="43.50958" lon="5.88032">
        <ele>368.4</ele>
        <time>2014-03-08T12:58:32Z</time>
      </trkpt>
      <trkpt lat="43.50958" lon="5.88032">
        <ele>368.4</ele>
        <time>2014-03-08T12:59:14Z</time>
      </trkpt>
      <trkpt lat="43.50957" lon="5.88031">
        <ele>368.4</ele>
        <time>2014-03-08T12:59:51Z</time>
      </trkpt>
      <trkpt lat="43.50958" lon="5.88031">
        <ele>368.4</ele>
        <time>2014-03-08T13:00:27Z</time>
      </trkpt>
      <trkpt lat="43.50958" lon="5.88032">
        <ele>366.4</ele>
        <time>2014-03-08T13:01:22Z</time>
      </trkpt>
      <trkpt lat="43.50958" lon="5.88032">
        <ele>366.4</ele>
        <time>2014-03-08T13:01:44Z</time>
      </trkpt>
      <trkpt lat="43.50958" lon="5.88032">
        <ele>366.4</ele>
        <time>2014-03-08T13:02:27Z</time>
      </trkpt>
      <trkpt lat="43.50958" lon="5.88032">
        <ele>366.4</ele>
        <time>2014-03-08T13:04:02Z</time>
      </trkpt>
      <trkpt lat="43.50958" lon="5.88032">
        <ele>366.4</ele>
        <time>2014-03-08T13:04:35Z</time>
      </trkpt>
      <trkpt lat="43.50958" lon="5.88032">
        <ele>366.4</ele>
        <time>2014-03-08T13:05:09Z</time>
      </trkpt>
      <trkpt lat="43.50958" lon="5.88032">
        <ele>366.4</ele>
        <time>2014-03-08T13:05:44Z</time>
      </trkpt>
      <trkpt lat="43.50957" lon="5.88032">
        <ele>366.4</ele>
        <time>2014-03-08T13:06:34Z</time>
      </trkpt>
      <trkpt lat="43.50957" lon="5.88033">
        <ele>366.4</ele>
        <time>2014-03-08T13:07:12Z</time>
      </trkpt>
      <trkpt lat="43.50957" lon="5.88032">
        <ele>366.4</ele>
        <time>2014-03-08T13:07:47Z</time>
      </trkpt>
      <trkpt lat="43.50957" lon="5.88032">
        <ele>366.4</ele>
        <time>2014-03-08T13:08:35Z</time>
      </trkpt>
      <trkpt lat="43.50957" lon="5.88032">
        <ele>366.4</ele>
        <time>2014-03-08T13:09:12Z</time>
      </trkpt>
      <trkpt lat="43.50958" lon="5.88032">
        <ele>366.4</ele>
        <time>2014-03-08T13:09:44Z</time>
      </trkpt>
      <trkpt lat="43.50958" lon="5.88034">
        <ele>366.4</ele>
        <time>2014-03-08T13:09:46Z</time>
      </trkpt>
      <trkpt lat="43.50959" lon="5.88034">
        <ele>366.4</ele>
        <time>2014-03-08T13:09:48Z</time>
      </trkpt>
      <trkpt lat="43.50959" lon="5.88034">
        <ele>366.4</ele>
        <time>2014-03-08T13:09:53Z</time>
      </trkpt>
      <trkpt lat="43.50959" lon="5.88034">
        <ele>366.4</ele>
        <time>2014-03-08T13:10:00Z</time>
      </trkpt>
      <trkpt lat="43.50962" lon="5.88037">
        <ele>366.4</ele>
        <time>2014-03-08T13:10:06Z</time>
      </trkpt>
      <trkpt lat="43.50965" lon="5.88037">
        <ele>366.4</ele>
        <time>2014-03-08T13:10:11Z</time>
      </trkpt>
      <trkpt lat="43.50966" lon="5.88038">
        <ele>366.4</ele>
        <time>2014-03-08T13:10:12Z</time>
      </trkpt>
      <trkpt lat="43.5097" lon="5.88043">
        <ele>366.4</ele>
        <time>2014-03-08T13:10:16Z</time>
      </trkpt>
      <trkpt lat="43.50971" lon="5.88044">
        <ele>366.4</ele>
        <time>2014-03-08T13:10:17Z</time>
      </trkpt>
      <trkpt lat="43.50971" lon="5.88045">
        <ele>366.4</ele>
        <time>2014-03-08T13:10:22Z</time>
      </trkpt>
      <trkpt lat="43.50972" lon="5.88045">
        <ele>366.4</ele>
        <time>2014-03-08T13:10:32Z</time>
      </trkpt>
      <trkpt lat="43.50981" lon="5.88049">
        <ele>366.4</ele>
        <time>2014-03-08T13:10:37Z</time>
      </trkpt>
      <trkpt lat="43.50993" lon="5.88052">
        <ele>366.4</ele>
        <time>2014-03-08T13:10:42Z</time>
      </trkpt>
      <trkpt lat="43.5102" lon="5.88049">
        <ele>366.8</ele>
        <time>2014-03-08T13:10:57Z</time>
      </trkpt>
      <trkpt lat="43.51021" lon="5.88049">
        <ele>367.2</ele>
        <time>2014-03-08T13:10:58Z</time>
      </trkpt>
      <trkpt lat="43.51025" lon="5.88048">
        <ele>368</ele>
        <time>2014-03-08T13:11:00Z</time>
      </trkpt>
      <trkpt lat="43.51027" lon="5.88048">
        <ele>368.4</ele>
        <time>2014-03-08T13:11:01Z</time>
      </trkpt>
      <trkpt lat="43.51043" lon="5.88047">
        <ele>368.4</ele>
        <time>2014-03-08T13:11:10Z</time>
      </trkpt>
      <trkpt lat="43.51061" lon="5.88047">
        <ele>368.8</ele>
        <time>2014-03-08T13:11:20Z</time>
      </trkpt>
      <trkpt lat="43.51063" lon="5.88047">
        <ele>369.2</ele>
        <time>2014-03-08T13:11:21Z</time>
      </trkpt>
      <trkpt lat="43.51065" lon="5.88046">
        <ele>369.6</ele>
        <time>2014-03-08T13:11:22Z</time>
      </trkpt>
      <trkpt lat="43.51068" lon="5.88046">
        <ele>370.4</ele>
        <time>2014-03-08T13:11:24Z</time>
      </trkpt>
      <trkpt lat="43.51096" lon="5.88045">
        <ele>371.2</ele>
        <time>2014-03-08T13:11:40Z</time>
      </trkpt>
      <trkpt lat="43.51099" lon="5.88045">
        <ele>372</ele>
        <time>2014-03-08T13:11:42Z</time>
      </trkpt>
      <trkpt lat="43.51106" lon="5.88044">
        <ele>372.4</ele>
        <time>2014-03-08T13:11:47Z</time>
      </trkpt>
      <trkpt lat="43.51121" lon="5.88044">
        <ele>372.4</ele>
        <time>2014-03-08T13:11:56Z</time>
      </trkpt>
      <trkpt lat="43.51124" lon="5.88043">
        <ele>373</ele>
        <time>2014-03-08T13:11:58Z</time>
      </trkpt>
      <trkpt lat="43.51126" lon="5.88043">
        <ele>373.4</ele>
        <time>2014-03-08T13:11:59Z</time>
      </trkpt>
      <trkpt lat="43.51129" lon="5.88045">
        <ele>374.2</ele>
        <time>2014-03-08T13:12:01Z</time>
      </trkpt>
      <trkpt lat="43.51134" lon="5.88045">
        <ele>374.6</ele>
        <time>2014-03-08T13:12:04Z</time>
      </trkpt>
      <trkpt lat="43.51156" lon="5.88044">
        <ele>375</ele>
        <time>2014-03-08T13:12:16Z</time>
      </trkpt>
      <trkpt lat="43.51158" lon="5.88044">
        <ele>375.4</ele>
        <time>2014-03-08T13:12:17Z</time>
      </trkpt>
      <trkpt lat="43.51159" lon="5.88043">
        <ele>375.8</ele>
        <time>2014-03-08T13:12:18Z</time>
      </trkpt>
      <trkpt lat="43.51161" lon="5.88043">
        <ele>376.2</ele>
        <time>2014-03-08T13:12:19Z</time>
      </trkpt>
      <trkpt lat="43.51163" lon="5.88043">
        <ele>376.6</ele>
        <time>2014-03-08T13:12:20Z</time>
      </trkpt>
      <trkpt lat="43.51194" lon="5.88044">
        <ele>378.6</ele>
        <time>2014-03-08T13:12:36Z</time>
      </trkpt>
      <trkpt lat="43.5123" lon="5.88044">
        <ele>379.4</ele>
        <time>2014-03-08T13:12:54Z</time>
      </trkpt>
      <trkpt lat="43.51232" lon="5.88044">
        <ele>380</ele>
        <time>2014-03-08T13:12:55Z</time>
      </trkpt>
      <trkpt lat="43.51265" lon="5.88043">
        <ele>380.8</ele>
        <time>2014-03-08T13:13:11Z</time>
      </trkpt>
      <trkpt lat="43.51287" lon="5.88041">
        <ele>381.6</ele>
        <time>2014-03-08T13:13:20Z</time>
      </trkpt>
      <trkpt lat="43.51321" lon="5.88041">
        <ele>382.8</ele>
        <time>2014-03-08T13:13:35Z</time>
      </trkpt>
      <trkpt lat="43.51337" lon="5.8804">
        <ele>382.8</ele>
        <time>2014-03-08T13:13:42Z</time>
      </trkpt>
      <trkpt lat="43.51347" lon="5.88041">
        <ele>383.8</ele>
        <time>2014-03-08T13:13:46Z</time>
      </trkpt>
      <trkpt lat="43.51352" lon="5.8804">
        <ele>384.6</ele>
        <time>2014-03-08T13:13:48Z</time>
      </trkpt>
      <trkpt lat="43.51354" lon="5.8804">
        <ele>385</ele>
        <time>2014-03-08T13:13:49Z</time>
      </trkpt>
      <trkpt lat="43.51398" lon="5.88039">
        <ele>386.2</ele>
        <time>2014-03-08T13:14:07Z</time>
      </trkpt>
      <trkpt lat="43.51408" lon="5.88037">
        <ele>387</ele>
        <time>2014-03-08T13:14:12Z</time>
      </trkpt>
      <trkpt lat="43.51423" lon="5.88038">
        <ele>387.4</ele>
        <time>2014-03-08T13:14:19Z</time>
      </trkpt>
      <trkpt lat="43.51445" lon="5.88038">
        <ele>389</ele>
        <time>2014-03-08T13:14:29Z</time>
      </trkpt>
      <trkpt lat="43.51447" lon="5.88038">
        <ele>389</ele>
        <time>2014-03-08T13:14:30Z</time>
      </trkpt>
      <trkpt lat="43.51457" lon="5.88039">
        <ele>389.4</ele>
        <time>2014-03-08T13:14:35Z</time>
      </trkpt>
      <trkpt lat="43.51464" lon="5.88038">
        <ele>390.6</ele>
        <time>2014-03-08T13:14:38Z</time>
      </trkpt>
      <trkpt lat="43.51465" lon="5.88038">
        <ele>391</ele>
        <time>2014-03-08T13:14:39Z</time>
      </trkpt>
      <trkpt lat="43.51496" lon="5.88038">
        <ele>391.8</ele>
        <time>2014-03-08T13:14:53Z</time>
      </trkpt>
      <trkpt lat="43.51498" lon="5.88038">
        <ele>392.2</ele>
        <time>2014-03-08T13:14:54Z</time>
      </trkpt>
      <trkpt lat="43.51518" lon="5.88037">
        <ele>393.4</ele>
        <time>2014-03-08T13:15:04Z</time>
      </trkpt>
      <trkpt lat="43.51524" lon="5.88038">
        <ele>394.6</ele>
        <time>2014-03-08T13:15:07Z</time>
      </trkpt>
      <trkpt lat="43.5153" lon="5.88038">
        <ele>395</ele>
        <time>2014-03-08T13:15:10Z</time>
      </trkpt>
      <trkpt lat="43.5155" lon="5.88037">
        <ele>396.4</ele>
        <time>2014-03-08T13:15:20Z</time>
      </trkpt>
      <trkpt lat="43.51552" lon="5.88037">
        <ele>396.8</ele>
        <time>2014-03-08T13:15:21Z</time>
      </trkpt>
      <trkpt lat="43.51554" lon="5.88037">
        <ele>397.2</ele>
        <time>2014-03-08T13:15:22Z</time>
      </trkpt>
      <trkpt lat="43.51559" lon="5.88036">
        <ele>397.2</ele>
        <time>2014-03-08T13:15:25Z</time>
      </trkpt>
      <trkpt lat="43.5157" lon="5.88025">
        <ele>397.2</ele>
        <time>2014-03-08T13:15:32Z</time>
      </trkpt>
      <trkpt lat="43.51576" lon="5.88007">
        <ele>399.2</ele>
        <time>2014-03-08T13:15:39Z</time>
      </trkpt>
      <trkpt lat="43.51581" lon="5.87983">
        <ele>399.2</ele>
        <time>2014-03-08T13:15:48Z</time>
      </trkpt>
      <trkpt lat="43.51583" lon="5.87978">
        <ele>400.2</ele>
        <time>2014-03-08T13:15:50Z</time>
      </trkpt>
      <trkpt lat="43.51589" lon="5.87967">
        <ele>401.4</ele>
        <time>2014-03-08T13:15:55Z</time>
      </trkpt>
      <trkpt lat="43.516" lon="5.87954">
        <ele>401.4</ele>
        <time>2014-03-08T13:16:02Z</time>
      </trkpt>
      <trkpt lat="43.51612" lon="5.87944">
        <ele>402.6</ele>
        <time>2014-03-08T13:16:09Z</time>
      </trkpt>
      <trkpt lat="43.51616" lon="5.87941">
        <ele>403.4</ele>
        <time>2014-03-08T13:16:11Z</time>
      </trkpt>
      <trkpt lat="43.51632" lon="5.87934">
        <ele>403.8</ele>
        <time>2014-03-08T13:16:20Z</time>
      </trkpt>
      <trkpt lat="43.51634" lon="5.87934">
        <ele>404.2</ele>
        <time>2014-03-08T13:16:21Z</time>
      </trkpt>
      <trkpt lat="43.51638" lon="5.87934">
        <ele>405</ele>
        <time>2014-03-08T13:16:23Z</time>
      </trkpt>
      <trkpt lat="43.5164" lon="5.87933">
        <ele>405.4</ele>
        <time>2014-03-08T13:16:24Z</time>
      </trkpt>
      <trkpt lat="43.51641" lon="5.87933">
        <ele>405.4</ele>
        <time>2014-03-08T13:16:25Z</time>
      </trkpt>
      <trkpt lat="43.51655" lon="5.8793">
        <ele>405.4</ele>
        <time>2014-03-08T13:16:32Z</time>
      </trkpt>
      <trkpt lat="43.51662" lon="5.87927">
        <ele>406.4</ele>
        <time>2014-03-08T13:16:36Z</time>
      </trkpt>
      <trkpt lat="43.51664" lon="5.87927">
        <ele>406.8</ele>
        <time>2014-03-08T13:16:37Z</time>
      </trkpt>
      <trkpt lat="43.51668" lon="5.87925">
        <ele>407.6</ele>
        <time>2014-03-08T13:16:39Z</time>
      </trkpt>
      <trkpt lat="43.51682" lon="5.87911">
        <ele>407.6</ele>
        <time>2014-03-08T13:16:47Z</time>
      </trkpt>
      <trkpt lat="43.51713" lon="5.87866">
        <ele>410.8</ele>
        <time>2014-03-08T13:17:10Z</time>
      </trkpt>
      <trkpt lat="43.51715" lon="5.87864">
        <ele>411.4</ele>
        <time>2014-03-08T13:17:11Z</time>
      </trkpt>
      <trkpt lat="43.51724" lon="5.87849">
        <ele>411.8</ele>
        <time>2014-03-08T13:17:18Z</time>
      </trkpt>
      <trkpt lat="43.51734" lon="5.87837">
        <ele>412.2</ele>
        <time>2014-03-08T13:17:25Z</time>
      </trkpt>
      <trkpt lat="43.51739" lon="5.87832">
        <ele>413.4</ele>
        <time>2014-03-08T13:17:28Z</time>
      </trkpt>
      <trkpt lat="43.5174" lon="5.87831">
        <ele>413.8</ele>
        <time>2014-03-08T13:17:29Z</time>
      </trkpt>
      <trkpt lat="43.51748" lon="5.87829">
        <ele>413.8</ele>
        <time>2014-03-08T13:17:33Z</time>
      </trkpt>
      <trkpt lat="43.51765" lon="5.87827">
        <ele>414.6</ele>
        <time>2014-03-08T13:17:42Z</time>
      </trkpt>
      <trkpt lat="43.51767" lon="5.87826">
        <ele>415</ele>
        <time>2014-03-08T13:17:43Z</time>
      </trkpt>
      <trkpt lat="43.51771" lon="5.87826">
        <ele>415.8</ele>
        <time>2014-03-08T13:17:45Z</time>
      </trkpt>
      <trkpt lat="43.51775" lon="5.87825">
        <ele>415.8</ele>
        <time>2014-03-08T13:17:47Z</time>
      </trkpt>
      <trkpt lat="43.51786" lon="5.87816">
        <ele>416.2</ele>
        <time>2014-03-08T13:17:53Z</time>
      </trkpt>
      <trkpt lat="43.51808" lon="5.87781">
        <ele>418.4</ele>
        <time>2014-03-08T13:18:12Z</time>
      </trkpt>
      <trkpt lat="43.5181" lon="5.8778">
        <ele>419.2</ele>
        <time>2014-03-08T13:18:13Z</time>
      </trkpt>
      <trkpt lat="43.51827" lon="5.87755">
        <ele>420</ele>
        <time>2014-03-08T13:18:27Z</time>
      </trkpt>
      <trkpt lat="43.51829" lon="5.87751">
        <ele>420.8</ele>
        <time>2014-03-08T13:18:29Z</time>
      </trkpt>
      <trkpt lat="43.51831" lon="5.87749">
        <ele>421.2</ele>
        <time>2014-03-08T13:18:30Z</time>
      </trkpt>
      <trkpt lat="43.51834" lon="5.87746">
        <ele>422</ele>
        <time>2014-03-08T13:18:32Z</time>
      </trkpt>
      <trkpt lat="43.51844" lon="5.87731">
        <ele>422</ele>
        <time>2014-03-08T13:18:40Z</time>
      </trkpt>
      <trkpt lat="43.51847" lon="5.87729">
        <ele>422.4</ele>
        <time>2014-03-08T13:18:42Z</time>
      </trkpt>
      <trkpt lat="43.5185" lon="5.87726">
        <ele>423.2</ele>
        <time>2014-03-08T13:18:44Z</time>
      </trkpt>
      <trkpt lat="43.51852" lon="5.87725">
        <ele>423.8</ele>
        <time>2014-03-08T13:18:45Z</time>
      </trkpt>
      <trkpt lat="43.51853" lon="5.87723">
        <ele>424.2</ele>
        <time>2014-03-08T13:18:46Z</time>
      </trkpt>
      <trkpt lat="43.51854" lon="5.87722">
        <ele>424.2</ele>
        <time>2014-03-08T13:18:47Z</time>
      </trkpt>
      <trkpt lat="43.51876" lon="5.87702">
        <ele>425.4</ele>
        <time>2014-03-08T13:19:01Z</time>
      </trkpt>
      <trkpt lat="43.51878" lon="5.87701">
        <ele>425.8</ele>
        <time>2014-03-08T13:19:03Z</time>
      </trkpt>
      <trkpt lat="43.51889" lon="5.87693">
        <ele>426.2</ele>
        <time>2014-03-08T13:19:10Z</time>
      </trkpt>
      <trkpt lat="43.51897" lon="5.87687">
        <ele>426.6</ele>
        <time>2014-03-08T13:19:15Z</time>
      </trkpt>
      <trkpt lat="43.519" lon="5.87685">
        <ele>427.6</ele>
        <time>2014-03-08T13:19:17Z</time>
      </trkpt>
      <trkpt lat="43.51929" lon="5.87661">
        <ele>430</ele>
        <time>2014-03-08T13:19:36Z</time>
      </trkpt>
      <trkpt lat="43.51931" lon="5.8766">
        <ele>430.4</ele>
        <time>2014-03-08T13:19:37Z</time>
      </trkpt>
      <trkpt lat="43.51938" lon="5.87656">
        <ele>430.4</ele>
        <time>2014-03-08T13:19:41Z</time>
      </trkpt>
      <trkpt lat="43.51945" lon="5.87648">
        <ele>430.4</ele>
        <time>2014-03-08T13:19:47Z</time>
      </trkpt>
      <trkpt lat="43.51949" lon="5.87642">
        <ele>430.8</ele>
        <time>2014-03-08T13:19:50Z</time>
      </trkpt>
      <trkpt lat="43.5195" lon="5.8764">
        <ele>431.2</ele>
        <time>2014-03-08T13:19:51Z</time>
      </trkpt>
      <trkpt lat="43.5195" lon="5.87638">
        <ele>431.6</ele>
        <time>2014-03-08T13:19:52Z</time>
      </trkpt>
      <trkpt lat="43.51949" lon="5.87634">
        <ele>432.4</ele>
        <time>2014-03-08T13:19:54Z</time>
      </trkpt>
      <trkpt lat="43.51947" lon="5.8763">
        <ele>432.4</ele>
        <time>2014-03-08T13:19:57Z</time>
      </trkpt>
      <trkpt lat="43.51944" lon="5.87628">
        <ele>432.8</ele>
        <time>2014-03-08T13:19:59Z</time>
      </trkpt>
      <trkpt lat="43.51943" lon="5.87628">
        <ele>433.2</ele>
        <time>2014-03-08T13:20:00Z</time>
      </trkpt>
      <trkpt lat="43.51941" lon="5.87627">
        <ele>433.8</ele>
        <time>2014-03-08T13:20:01Z</time>
      </trkpt>
      <trkpt lat="43.5194" lon="5.87627">
        <ele>434.2</ele>
        <time>2014-03-08T13:20:02Z</time>
      </trkpt>
      <trkpt lat="43.51938" lon="5.87627">
        <ele>434.6</ele>
        <time>2014-03-08T13:20:03Z</time>
      </trkpt>
      <trkpt lat="43.51928" lon="5.87625">
        <ele>434.6</ele>
        <time>2014-03-08T13:20:08Z</time>
      </trkpt>
      <trkpt lat="43.51922" lon="5.87615">
        <ele>434.6</ele>
        <time>2014-03-08T13:20:13Z</time>
      </trkpt>
      <trkpt lat="43.51923" lon="5.87612">
        <ele>434.6</ele>
        <time>2014-03-08T13:20:14Z</time>
      </trkpt>
      <trkpt lat="43.51927" lon="5.87604">
        <ele>434.6</ele>
        <time>2014-03-08T13:20:18Z</time>
      </trkpt>
      <trkpt lat="43.51929" lon="5.87602">
        <ele>434.6</ele>
        <time>2014-03-08T13:20:19Z</time>
      </trkpt>
      <trkpt lat="43.51934" lon="5.87599">
        <ele>435</ele>
        <time>2014-03-08T13:20:22Z</time>
      </trkpt>
      <trkpt lat="43.5194" lon="5.87595">
        <ele>436.8</ele>
        <time>2014-03-08T13:20:26Z</time>
      </trkpt>
      <trkpt lat="43.51958" lon="5.87591">
        <ele>436.8</ele>
        <time>2014-03-08T13:20:35Z</time>
      </trkpt>
      <trkpt lat="43.51986" lon="5.87589">
        <ele>438.8</ele>
        <time>2014-03-08T13:20:51Z</time>
      </trkpt>
      <trkpt lat="43.51999" lon="5.87586">
        <ele>440.4</ele>
        <time>2014-03-08T13:20:57Z</time>
      </trkpt>
      <trkpt lat="43.52" lon="5.87585">
        <ele>440.8</ele>
        <time>2014-03-08T13:20:58Z</time>
      </trkpt>
      <trkpt lat="43.52002" lon="5.87584">
        <ele>440.8</ele>
        <time>2014-03-08T13:20:59Z</time>
      </trkpt>
      <trkpt lat="43.52004" lon="5.87573">
        <ele>440.8</ele>
        <time>2014-03-08T13:21:04Z</time>
      </trkpt>
      <trkpt lat="43.51998" lon="5.87565">
        <ele>441.2</ele>
        <time>2014-03-08T13:21:09Z</time>
      </trkpt>
      <trkpt lat="43.51997" lon="5.87564">
        <ele>441.6</ele>
        <time>2014-03-08T13:21:10Z</time>
      </trkpt>
      <trkpt lat="43.51995" lon="5.87562">
        <ele>442</ele>
        <time>2014-03-08T13:21:11Z</time>
      </trkpt>
      <trkpt lat="43.51994" lon="5.87561">
        <ele>442.4</ele>
        <time>2014-03-08T13:21:12Z</time>
      </trkpt>
      <trkpt lat="43.51971" lon="5.87546">
        <ele>443.8</ele>
        <time>2014-03-08T13:21:26Z</time>
      </trkpt>
      <trkpt lat="43.51969" lon="5.87546">
        <ele>444.2</ele>
        <time>2014-03-08T13:21:27Z</time>
      </trkpt>
      <trkpt lat="43.51941" lon="5.87528">
        <ele>446.2</ele>
        <time>2014-03-08T13:21:44Z</time>
      </trkpt>
      <trkpt lat="43.51937" lon="5.87526">
        <ele>447</ele>
        <time>2014-03-08T13:21:46Z</time>
      </trkpt>
      <trkpt lat="43.51929" lon="5.87524">
        <ele>447</ele>
        <time>2014-03-08T13:21:51Z</time>
      </trkpt>
      <trkpt lat="43.51918" lon="5.87524">
        <ele>447</ele>
        <time>2014-03-08T13:21:57Z</time>
      </trkpt>
      <trkpt lat="43.51914" lon="5.87526">
        <ele>447.6</ele>
        <time>2014-03-08T13:21:59Z</time>
      </trkpt>
      <trkpt lat="43.51913" lon="5.87527">
        <ele>448</ele>
        <time>2014-03-08T13:22:00Z</time>
      </trkpt>
      <trkpt lat="43.51911" lon="5.87529">
        <ele>448.4</ele>
        <time>2014-03-08T13:22:01Z</time>
      </trkpt>
      <trkpt lat="43.51909" lon="5.87531">
        <ele>448.8</ele>
        <time>2014-03-08T13:22:02Z</time>
      </trkpt>
      <trkpt lat="43.51906" lon="5.87533">
        <ele>449.2</ele>
        <time>2014-03-08T13:22:04Z</time>
      </trkpt>
      <trkpt lat="43.51896" lon="5.87548">
        <ele>449.2</ele>
        <time>2014-03-08T13:22:11Z</time>
      </trkpt>
      <trkpt lat="43.51887" lon="5.87557">
        <ele>449.6</ele>
        <time>2014-03-08T13:22:17Z</time>
      </trkpt>
      <trkpt lat="43.51885" lon="5.87559">
        <ele>450</ele>
        <time>2014-03-08T13:22:18Z</time>
      </trkpt>
      <trkpt lat="43.5188" lon="5.87561">
        <ele>451.4</ele>
        <time>2014-03-08T13:22:21Z</time>
      </trkpt>
      <trkpt lat="43.51871" lon="5.87563">
        <ele>451.4</ele>
        <time>2014-03-08T13:22:26Z</time>
      </trkpt>
      <trkpt lat="43.51862" lon="5.87554">
        <ele>451.8</ele>
        <time>2014-03-08T13:22:32Z</time>
      </trkpt>
      <trkpt lat="43.5186" lon="5.8755">
        <ele>452.6</ele>
        <time>2014-03-08T13:22:34Z</time>
      </trkpt>
      <trkpt lat="43.51859" lon="5.87545">
        <ele>453.4</ele>
        <time>2014-03-08T13:22:36Z</time>
      </trkpt>
      <trkpt lat="43.5186" lon="5.87539">
        <ele>453.4</ele>
        <time>2014-03-08T13:22:38Z</time>
      </trkpt>
      <trkpt lat="43.51866" lon="5.87526">
        <ele>453.4</ele>
        <time>2014-03-08T13:22:44Z</time>
      </trkpt>
      <trkpt lat="43.51881" lon="5.87506">
        <ele>455.2</ele>
        <time>2014-03-08T13:22:55Z</time>
      </trkpt>
      <trkpt lat="43.51904" lon="5.87481">
        <ele>456.4</ele>
        <time>2014-03-08T13:23:11Z</time>
      </trkpt>
      <trkpt lat="43.5193" lon="5.87459">
        <ele>459.2</ele>
        <time>2014-03-08T13:23:28Z</time>
      </trkpt>
      <trkpt lat="43.51931" lon="5.87459">
        <ele>459.6</ele>
        <time>2014-03-08T13:23:29Z</time>
      </trkpt>
      <trkpt lat="43.51946" lon="5.87446">
        <ele>459.6</ele>
        <time>2014-03-08T13:23:39Z</time>
      </trkpt>
      <trkpt lat="43.5195" lon="5.87441">
        <ele>460.8</ele>
        <time>2014-03-08T13:23:42Z</time>
      </trkpt>
      <trkpt lat="43.5195" lon="5.87439">
        <ele>461.2</ele>
        <time>2014-03-08T13:23:43Z</time>
      </trkpt>
      <trkpt lat="43.51951" lon="5.87438">
        <ele>461.8</ele>
        <time>2014-03-08T13:23:44Z</time>
      </trkpt>
      <trkpt lat="43.51952" lon="5.87437">
        <ele>461.8</ele>
        <time>2014-03-08T13:23:45Z</time>
      </trkpt>
      <trkpt lat="43.51963" lon="5.8742">
        <ele>461.8</ele>
        <time>2014-03-08T13:23:55Z</time>
      </trkpt>
      <trkpt lat="43.51965" lon="5.87415">
        <ele>462.6</ele>
        <time>2014-03-08T13:23:58Z</time>
      </trkpt>
      <trkpt lat="43.51966" lon="5.87414">
        <ele>463</ele>
        <time>2014-03-08T13:23:59Z</time>
      </trkpt>
      <trkpt lat="43.51967" lon="5.87413">
        <ele>463.4</ele>
        <time>2014-03-08T13:24:00Z</time>
      </trkpt>
      <trkpt lat="43.51976" lon="5.87396">
        <ele>463.8</ele>
        <time>2014-03-08T13:24:09Z</time>
      </trkpt>
      <trkpt lat="43.51985" lon="5.87385">
        <ele>465.4</ele>
        <time>2014-03-08T13:24:15Z</time>
      </trkpt>
      <trkpt lat="43.51986" lon="5.87383">
        <ele>465.8</ele>
        <time>2014-03-08T13:24:16Z</time>
      </trkpt>
      <trkpt lat="43.51988" lon="5.87378">
        <ele>465.8</ele>
        <time>2014-03-08T13:24:18Z</time>
      </trkpt>
      <trkpt lat="43.51994" lon="5.87369">
        <ele>465.8</ele>
        <time>2014-03-08T13:24:23Z</time>
      </trkpt>
      <trkpt lat="43.52008" lon="5.87354">
        <ele>467.2</ele>
        <time>2014-03-08T13:24:32Z</time>
      </trkpt>
      <trkpt lat="43.52017" lon="5.8734">
        <ele>468</ele>
        <time>2014-03-08T13:24:39Z</time>
      </trkpt>
      <trkpt lat="43.52023" lon="5.87333">
        <ele>469.8</ele>
        <time>2014-03-08T13:24:44Z</time>
      </trkpt>
      <trkpt lat="43.52025" lon="5.87331">
        <ele>470.4</ele>
        <time>2014-03-08T13:24:45Z</time>
      </trkpt>
      <trkpt lat="43.52039" lon="5.87316">
        <ele>470.4</ele>
        <time>2014-03-08T13:24:55Z</time>
      </trkpt>
      <trkpt lat="43.52041" lon="5.87314">
        <ele>471.2</ele>
        <time>2014-03-08T13:24:57Z</time>
      </trkpt>
      <trkpt lat="43.52043" lon="5.87312">
        <ele>471.6</ele>
        <time>2014-03-08T13:24:58Z</time>
      </trkpt>
      <trkpt lat="43.52044" lon="5.87311">
        <ele>472</ele>
        <time>2014-03-08T13:24:59Z</time>
      </trkpt>
      <trkpt lat="43.52045" lon="5.87309">
        <ele>472.4</ele>
        <time>2014-03-08T13:25:00Z</time>
      </trkpt>
      <trkpt lat="43.52084" lon="5.87266">
        <ele>474.4</ele>
        <time>2014-03-08T13:25:27Z</time>
      </trkpt>
      <trkpt lat="43.52093" lon="5.87261">
        <ele>474.4</ele>
        <time>2014-03-08T13:25:32Z</time>
      </trkpt>
      <trkpt lat="43.52106" lon="5.8726">
        <ele>474.8</ele>
        <time>2014-03-08T13:25:39Z</time>
      </trkpt>
      <trkpt lat="43.52108" lon="5.87259">
        <ele>475.8</ele>
        <time>2014-03-08T13:25:40Z</time>
      </trkpt>
      <trkpt lat="43.52109" lon="5.87259">
        <ele>476.2</ele>
        <time>2014-03-08T13:25:41Z</time>
      </trkpt>
      <trkpt lat="43.52111" lon="5.87259">
        <ele>476.6</ele>
        <time>2014-03-08T13:25:42Z</time>
      </trkpt>
      <trkpt lat="43.5212" lon="5.87256">
        <ele>476.6</ele>
        <time>2014-03-08T13:25:47Z</time>
      </trkpt>
      <trkpt lat="43.52128" lon="5.87253">
        <ele>477</ele>
        <time>2014-03-08T13:25:51Z</time>
      </trkpt>
      <trkpt lat="43.52144" lon="5.87241">
        <ele>478.6</ele>
        <time>2014-03-08T13:26:01Z</time>
      </trkpt>
      <trkpt lat="43.52151" lon="5.87231">
        <ele>479</ele>
        <time>2014-03-08T13:26:06Z</time>
      </trkpt>
      <trkpt lat="43.52161" lon="5.87207">
        <ele>480.6</ele>
        <time>2014-03-08T13:26:17Z</time>
      </trkpt>
      <trkpt lat="43.52174" lon="5.87189">
        <ele>482.8</ele>
        <time>2014-03-08T13:26:27Z</time>
      </trkpt>
      <trkpt lat="43.52193" lon="5.8715">
        <ele>484.8</ele>
        <time>2014-03-08T13:26:45Z</time>
      </trkpt>
      <trkpt lat="43.522" lon="5.87131">
        <ele>484.8</ele>
        <time>2014-03-08T13:26:53Z</time>
      </trkpt>
      <trkpt lat="43.52205" lon="5.87122">
        <ele>485.2</ele>
        <time>2014-03-08T13:26:58Z</time>
      </trkpt>
      <trkpt lat="43.52205" lon="5.8712">
        <ele>485.6</ele>
        <time>2014-03-08T13:26:59Z</time>
      </trkpt>
      <trkpt lat="43.52204" lon="5.87119">
        <ele>486</ele>
        <time>2014-03-08T13:27:00Z</time>
      </trkpt>
      <trkpt lat="43.52203" lon="5.87118">
        <ele>486.4</ele>
        <time>2014-03-08T13:27:01Z</time>
      </trkpt>
      <trkpt lat="43.52201" lon="5.87115">
        <ele>486.8</ele>
        <time>2014-03-08T13:27:03Z</time>
      </trkpt>
      <trkpt lat="43.52201" lon="5.87114">
        <ele>486.8</ele>
        <time>2014-03-08T13:27:04Z</time>
      </trkpt>
      <trkpt lat="43.52201" lon="5.87112">
        <ele>486.8</ele>
        <time>2014-03-08T13:27:44Z</time>
      </trkpt>
      <trkpt lat="43.52201" lon="5.87111">
        <ele>486.8</ele>
        <time>2014-03-08T13:27:45Z</time>
      </trkpt>
      <trkpt lat="43.52188" lon="5.87102">
        <ele>486.8</ele>
        <time>2014-03-08T13:27:55Z</time>
      </trkpt>
      <trkpt lat="43.52176" lon="5.87098">
        <ele>486.8</ele>
        <time>2014-03-08T13:28:01Z</time>
      </trkpt>
      <trkpt lat="43.52165" lon="5.87093">
        <ele>487.2</ele>
        <time>2014-03-08T13:28:06Z</time>
      </trkpt>
      <trkpt lat="43.52163" lon="5.87091">
        <ele>487.6</ele>
        <time>2014-03-08T13:28:07Z</time>
      </trkpt>
      <trkpt lat="43.52161" lon="5.87089">
        <ele>488.6</ele>
        <time>2014-03-08T13:28:08Z</time>
      </trkpt>
      <trkpt lat="43.5216" lon="5.87087">
        <ele>489</ele>
        <time>2014-03-08T13:28:09Z</time>
      </trkpt>
      <trkpt lat="43.52154" lon="5.87079">
        <ele>489</ele>
        <time>2014-03-08T13:28:13Z</time>
      </trkpt>
      <trkpt lat="43.52149" lon="5.87069">
        <ele>489</ele>
        <time>2014-03-08T13:28:18Z</time>
      </trkpt>
      <trkpt lat="43.52145" lon="5.87065">
        <ele>489.8</ele>
        <time>2014-03-08T13:28:20Z</time>
      </trkpt>
      <trkpt lat="43.52143" lon="5.87061">
        <ele>490.6</ele>
        <time>2014-03-08T13:28:22Z</time>
      </trkpt>
      <trkpt lat="43.52142" lon="5.87059">
        <ele>491</ele>
        <time>2014-03-08T13:28:23Z</time>
      </trkpt>
      <trkpt lat="43.52141" lon="5.87057">
        <ele>491</ele>
        <time>2014-03-08T13:28:24Z</time>
      </trkpt>
      <trkpt lat="43.52126" lon="5.87044">
        <ele>491.6</ele>
        <time>2014-03-08T13:28:33Z</time>
      </trkpt>
      <trkpt lat="43.52125" lon="5.87042">
        <ele>492</ele>
        <time>2014-03-08T13:28:34Z</time>
      </trkpt>
      <trkpt lat="43.52123" lon="5.87041">
        <ele>492.4</ele>
        <time>2014-03-08T13:28:35Z</time>
      </trkpt>
      <trkpt lat="43.52121" lon="5.87039">
        <ele>492.8</ele>
        <time>2014-03-08T13:28:36Z</time>
      </trkpt>
      <trkpt lat="43.5212" lon="5.87037">
        <ele>493.2</ele>
        <time>2014-03-08T13:28:37Z</time>
      </trkpt>
      <trkpt lat="43.52101" lon="5.87014">
        <ele>493.2</ele>
        <time>2014-03-08T13:28:49Z</time>
      </trkpt>
      <trkpt lat="43.52099" lon="5.87013">
        <ele>493.2</ele>
        <time>2014-03-08T13:28:50Z</time>
      </trkpt>
      <trkpt lat="43.52071" lon="5.86997">
        <ele>493.2</ele>
        <time>2014-03-08T13:29:01Z</time>
      </trkpt>
      <trkpt lat="43.52059" lon="5.86989">
        <ele>493.2</ele>
        <time>2014-03-08T13:29:05Z</time>
      </trkpt>
      <trkpt lat="43.52043" lon="5.86983">
        <ele>493.2</ele>
        <time>2014-03-08T13:29:11Z</time>
      </trkpt>
      <trkpt lat="43.51987" lon="5.86969">
        <ele>493.6</ele>
        <time>2014-03-08T13:29:33Z</time>
      </trkpt>
      <trkpt lat="43.51982" lon="5.86968">
        <ele>494.4</ele>
        <time>2014-03-08T13:29:35Z</time>
      </trkpt>
      <trkpt lat="43.51979" lon="5.86969">
        <ele>494.8</ele>
        <time>2014-03-08T13:29:36Z</time>
      </trkpt>
      <trkpt lat="43.51978" lon="5.8697">
        <ele>495.2</ele>
        <time>2014-03-08T13:29:37Z</time>
      </trkpt>
      <trkpt lat="43.51976" lon="5.86972">
        <ele>495.2</ele>
        <time>2014-03-08T13:29:38Z</time>
      </trkpt>
      <trkpt lat="43.51973" lon="5.86986">
        <ele>495.2</ele>
        <time>2014-03-08T13:29:43Z</time>
      </trkpt>
      <trkpt lat="43.51964" lon="5.86997">
        <ele>495.2</ele>
        <time>2014-03-08T13:29:49Z</time>
      </trkpt>
      <trkpt lat="43.51959" lon="5.87002">
        <ele>495.2</ele>
        <time>2014-03-08T13:29:52Z</time>
      </trkpt>
      <trkpt lat="43.51954" lon="5.87001">
        <ele>495.2</ele>
        <time>2014-03-08T13:29:54Z</time>
      </trkpt>
      <trkpt lat="43.51942" lon="5.86992">
        <ele>495.2</ele>
        <time>2014-03-08T13:30:00Z</time>
      </trkpt>
      <trkpt lat="43.51932" lon="5.8699">
        <ele>495.2</ele>
        <time>2014-03-08T13:30:04Z</time>
      </trkpt>
      <trkpt lat="43.51919" lon="5.87">
        <ele>495.2</ele>
        <time>2014-03-08T13:30:10Z</time>
      </trkpt>
      <trkpt lat="43.51907" lon="5.87001">
        <ele>495.6</ele>
        <time>2014-03-08T13:30:15Z</time>
      </trkpt>
      <trkpt lat="43.51906" lon="5.86999">
        <ele>496</ele>
        <time>2014-03-08T13:30:16Z</time>
      </trkpt>
      <trkpt lat="43.51905" lon="5.86996">
        <ele>496.4</ele>
        <time>2014-03-08T13:30:17Z</time>
      </trkpt>
      <trkpt lat="43.51905" lon="5.8699">
        <ele>497.2</ele>
        <time>2014-03-08T13:30:19Z</time>
      </trkpt>
      <trkpt lat="43.51905" lon="5.86988">
        <ele>497.2</ele>
        <time>2014-03-08T13:30:20Z</time>
      </trkpt>
      <trkpt lat="43.519" lon="5.86979">
        <ele>497.2</ele>
        <time>2014-03-08T13:30:25Z</time>
      </trkpt>
      <trkpt lat="43.51899" lon="5.86978">
        <ele>497.2</ele>
        <time>2014-03-08T13:30:26Z</time>
      </trkpt>
      <trkpt lat="43.51894" lon="5.86979">
        <ele>498</ele>
        <time>2014-03-08T13:30:29Z</time>
      </trkpt>
      <trkpt lat="43.51892" lon="5.86979">
        <ele>498.6</ele>
        <time>2014-03-08T13:30:30Z</time>
      </trkpt>
      <trkpt lat="43.51891" lon="5.86979">
        <ele>499</ele>
        <time>2014-03-08T13:30:31Z</time>
      </trkpt>
      <trkpt lat="43.51889" lon="5.86978">
        <ele>499.4</ele>
        <time>2014-03-08T13:30:32Z</time>
      </trkpt>
      <trkpt lat="43.51885" lon="5.86978">
        <ele>499.4</ele>
        <time>2014-03-08T13:30:36Z</time>
      </trkpt>
      <trkpt lat="43.51879" lon="5.86984">
        <ele>499.4</ele>
        <time>2014-03-08T13:30:40Z</time>
      </trkpt>
      <trkpt lat="43.51866" lon="5.86991">
        <ele>499.4</ele>
        <time>2014-03-08T13:30:47Z</time>
      </trkpt>
      <trkpt lat="43.51865" lon="5.86992">
        <ele>499.4</ele>
        <time>2014-03-08T13:30:48Z</time>
      </trkpt>
      <trkpt lat="43.51861" lon="5.86996">
        <ele>500.6</ele>
        <time>2014-03-08T13:30:51Z</time>
      </trkpt>
      <trkpt lat="43.5186" lon="5.86998">
        <ele>501</ele>
        <time>2014-03-08T13:30:52Z</time>
      </trkpt>
      <trkpt lat="43.51859" lon="5.87">
        <ele>501.4</ele>
        <time>2014-03-08T13:30:53Z</time>
      </trkpt>
      <trkpt lat="43.51853" lon="5.87004">
        <ele>501.4</ele>
        <time>2014-03-08T13:30:57Z</time>
      </trkpt>
      <trkpt lat="43.51849" lon="5.87007">
        <ele>501.4</ele>
        <time>2014-03-08T13:31:00Z</time>
      </trkpt>
      <trkpt lat="43.51846" lon="5.87013">
        <ele>501.4</ele>
        <time>2014-03-08T13:31:03Z</time>
      </trkpt>
      <trkpt lat="43.51834" lon="5.87024">
        <ele>501.4</ele>
        <time>2014-03-08T13:31:09Z</time>
      </trkpt>
      <trkpt lat="43.51825" lon="5.87028">
        <ele>501.4</ele>
        <time>2014-03-08T13:31:15Z</time>
      </trkpt>
      <trkpt lat="43.51815" lon="5.8705">
        <ele>501.4</ele>
        <time>2014-03-08T13:31:24Z</time>
      </trkpt>
      <trkpt lat="43.51811" lon="5.87058">
        <ele>501</ele>
        <time>2014-03-08T13:31:26Z</time>
      </trkpt>
      <trkpt lat="43.51808" lon="5.87061">
        <ele>500.6</ele>
        <time>2014-03-08T13:31:27Z</time>
      </trkpt>
      <trkpt lat="43.51805" lon="5.87062">
        <ele>500</ele>
        <time>2014-03-08T13:31:28Z</time>
      </trkpt>
      <trkpt lat="43.51803" lon="5.87063">
        <ele>499.6</ele>
        <time>2014-03-08T13:31:29Z</time>
      </trkpt>
      <trkpt lat="43.51791" lon="5.87064">
        <ele>499.2</ele>
        <time>2014-03-08T13:31:36Z</time>
      </trkpt>
      <trkpt lat="43.51779" lon="5.8707">
        <ele>499.2</ele>
        <time>2014-03-08T13:31:42Z</time>
      </trkpt>
      <trkpt lat="43.51771" lon="5.87068">
        <ele>499.2</ele>
        <time>2014-03-08T13:31:46Z</time>
      </trkpt>
      <trkpt lat="43.51769" lon="5.87066">
        <ele>499.2</ele>
        <time>2014-03-08T13:31:47Z</time>
      </trkpt>
      <trkpt lat="43.51769" lon="5.87056">
        <ele>499.2</ele>
        <time>2014-03-08T13:31:51Z</time>
      </trkpt>
      <trkpt lat="43.5177" lon="5.87053">
        <ele>499.2</ele>
        <time>2014-03-08T13:31:52Z</time>
      </trkpt>
      <trkpt lat="43.51768" lon="5.87046">
        <ele>499.2</ele>
        <time>2014-03-08T13:31:56Z</time>
      </trkpt>
      <trkpt lat="43.51767" lon="5.87045">
        <ele>499.2</ele>
        <time>2014-03-08T13:31:57Z</time>
      </trkpt>
      <trkpt lat="43.5176" lon="5.87053">
        <ele>499.2</ele>
        <time>2014-03-08T13:32:01Z</time>
      </trkpt>
      <trkpt lat="43.51759" lon="5.87055">
        <ele>499.2</ele>
        <time>2014-03-08T13:32:02Z</time>
      </trkpt>
      <trkpt lat="43.51757" lon="5.87057">
        <ele>499.2</ele>
        <time>2014-03-08T13:32:03Z</time>
      </trkpt>
      <trkpt lat="43.51753" lon="5.87061">
        <ele>499.2</ele>
        <time>2014-03-08T13:32:06Z</time>
      </trkpt>
      <trkpt lat="43.5174" lon="5.87076">
        <ele>499.2</ele>
        <time>2014-03-08T13:32:15Z</time>
      </trkpt>
      <trkpt lat="43.51738" lon="5.87077">
        <ele>499.2</ele>
        <time>2014-03-08T13:32:16Z</time>
      </trkpt>
      <trkpt lat="43.51734" lon="5.87076">
        <ele>498.8</ele>
        <time>2014-03-08T13:32:18Z</time>
      </trkpt>
      <trkpt lat="43.51733" lon="5.87075">
        <ele>498.2</ele>
        <time>2014-03-08T13:32:19Z</time>
      </trkpt>
      <trkpt lat="43.51731" lon="5.87074">
        <ele>497.8</ele>
        <time>2014-03-08T13:32:20Z</time>
      </trkpt>
      <trkpt lat="43.51729" lon="5.87074">
        <ele>497.4</ele>
        <time>2014-03-08T13:32:21Z</time>
      </trkpt>
      <trkpt lat="43.51727" lon="5.87075">
        <ele>497</ele>
        <time>2014-03-08T13:32:22Z</time>
      </trkpt>
      <trkpt lat="43.51726" lon="5.87076">
        <ele>497</ele>
        <time>2014-03-08T13:32:23Z</time>
      </trkpt>
      <trkpt lat="43.51715" lon="5.87077">
        <ele>497</ele>
        <time>2014-03-08T13:32:28Z</time>
      </trkpt>
      <trkpt lat="43.51711" lon="5.87082">
        <ele>496.6</ele>
        <time>2014-03-08T13:32:31Z</time>
      </trkpt>
      <trkpt lat="43.5171" lon="5.87083">
        <ele>495.6</ele>
        <time>2014-03-08T13:32:32Z</time>
      </trkpt>
      <trkpt lat="43.5171" lon="5.87084">
        <ele>495.2</ele>
        <time>2014-03-08T13:32:33Z</time>
      </trkpt>
      <trkpt lat="43.51703" lon="5.87082">
        <ele>494.8</ele>
        <time>2014-03-08T13:32:47Z</time>
      </trkpt>
      <trkpt lat="43.51696" lon="5.87089">
        <ele>494.8</ele>
        <time>2014-03-08T13:32:51Z</time>
      </trkpt>
      <trkpt lat="43.51694" lon="5.8709">
        <ele>494.8</ele>
        <time>2014-03-08T13:32:52Z</time>
      </trkpt>
      <trkpt lat="43.5169" lon="5.8709">
        <ele>494</ele>
        <time>2014-03-08T13:32:54Z</time>
      </trkpt>
      <trkpt lat="43.51688" lon="5.8709">
        <ele>493.6</ele>
        <time>2014-03-08T13:32:55Z</time>
      </trkpt>
      <trkpt lat="43.51686" lon="5.87092">
        <ele>493.2</ele>
        <time>2014-03-08T13:32:56Z</time>
      </trkpt>
      <trkpt lat="43.51681" lon="5.87101">
        <ele>492.8</ele>
        <time>2014-03-08T13:32:59Z</time>
      </trkpt>
      <trkpt lat="43.51676" lon="5.87106">
        <ele>492.8</ele>
        <time>2014-03-08T13:33:03Z</time>
      </trkpt>
      <trkpt lat="43.51674" lon="5.87106">
        <ele>492.8</ele>
        <time>2014-03-08T13:33:04Z</time>
      </trkpt>
      <trkpt lat="43.51668" lon="5.87109">
        <ele>492.4</ele>
        <time>2014-03-08T13:33:07Z</time>
      </trkpt>
      <trkpt lat="43.51666" lon="5.87109">
        <ele>491.8</ele>
        <time>2014-03-08T13:33:08Z</time>
      </trkpt>
      <trkpt lat="43.51663" lon="5.87107">
        <ele>491.4</ele>
        <time>2014-03-08T13:33:09Z</time>
      </trkpt>
      <trkpt lat="43.5166" lon="5.87108">
        <ele>491</ele>
        <time>2014-03-08T13:33:10Z</time>
      </trkpt>
      <trkpt lat="43.51637" lon="5.87117">
        <ele>490.2</ele>
        <time>2014-03-08T13:33:16Z</time>
      </trkpt>
      <trkpt lat="43.51634" lon="5.87118">
        <ele>489.8</ele>
        <time>2014-03-08T13:33:17Z</time>
      </trkpt>
      <trkpt lat="43.51631" lon="5.87119">
        <ele>489.2</ele>
        <time>2014-03-08T13:33:18Z</time>
      </trkpt>
      <trkpt lat="43.51623" lon="5.8712">
        <ele>488.4</ele>
        <time>2014-03-08T13:33:20Z</time>
      </trkpt>
      <trkpt lat="43.51617" lon="5.87124">
        <ele>488.4</ele>
        <time>2014-03-08T13:33:22Z</time>
      </trkpt>
      <trkpt lat="43.51608" lon="5.87124">
        <ele>488.4</ele>
        <time>2014-03-08T13:33:25Z</time>
      </trkpt>
      <trkpt lat="43.51601" lon="5.87127">
        <ele>488</ele>
        <time>2014-03-08T13:33:28Z</time>
      </trkpt>
      <trkpt lat="43.516" lon="5.87129">
        <ele>487.6</ele>
        <time>2014-03-08T13:33:29Z</time>
      </trkpt>
      <trkpt lat="43.51599" lon="5.8713">
        <ele>487.2</ele>
        <time>2014-03-08T13:33:30Z</time>
      </trkpt>
      <trkpt lat="43.51597" lon="5.87131">
        <ele>486.8</ele>
        <time>2014-03-08T13:33:31Z</time>
      </trkpt>
      <trkpt lat="43.51595" lon="5.87132">
        <ele>486.2</ele>
        <time>2014-03-08T13:33:32Z</time>
      </trkpt>
      <trkpt lat="43.51591" lon="5.87136">
        <ele>486.2</ele>
        <time>2014-03-08T13:33:34Z</time>
      </trkpt>
      <trkpt lat="43.51583" lon="5.87142">
        <ele>486.2</ele>
        <time>2014-03-08T13:33:38Z</time>
      </trkpt>
      <trkpt lat="43.5158" lon="5.87141">
        <ele>486.2</ele>
        <time>2014-03-08T13:33:39Z</time>
      </trkpt>
      <trkpt lat="43.51568" lon="5.87133">
        <ele>486.2</ele>
        <time>2014-03-08T13:33:44Z</time>
      </trkpt>
      <trkpt lat="43.51559" lon="5.8714">
        <ele>486.2</ele>
        <time>2014-03-08T13:33:49Z</time>
      </trkpt>
      <trkpt lat="43.5155" lon="5.87144">
        <ele>486.2</ele>
        <time>2014-03-08T13:33:54Z</time>
      </trkpt>
      <trkpt lat="43.51538" lon="5.87152">
        <ele>486.2</ele>
        <time>2014-03-08T13:33:59Z</time>
      </trkpt>
      <trkpt lat="43.51531" lon="5.87146">
        <ele>486.2</ele>
        <time>2014-03-08T13:34:02Z</time>
      </trkpt>
      <trkpt lat="43.51529" lon="5.87138">
        <ele>486.2</ele>
        <time>2014-03-08T13:34:04Z</time>
      </trkpt>
      <trkpt lat="43.5153" lon="5.87132">
        <ele>486.2</ele>
        <time>2014-03-08T13:34:06Z</time>
      </trkpt>
      <trkpt lat="43.51532" lon="5.87127">
        <ele>486.2</ele>
        <time>2014-03-08T13:34:08Z</time>
      </trkpt>
      <trkpt lat="43.51532" lon="5.87122">
        <ele>486.2</ele>
        <time>2014-03-08T13:34:10Z</time>
      </trkpt>
      <trkpt lat="43.51529" lon="5.87121">
        <ele>486.6</ele>
        <time>2014-03-08T13:34:12Z</time>
      </trkpt>
      <trkpt lat="43.51526" lon="5.87122">
        <ele>487.6</ele>
        <time>2014-03-08T13:34:14Z</time>
      </trkpt>
      <trkpt lat="43.51525" lon="5.87122">
        <ele>488</ele>
        <time>2014-03-08T13:34:15Z</time>
      </trkpt>
      <trkpt lat="43.51523" lon="5.87122">
        <ele>488.4</ele>
        <time>2014-03-08T13:34:16Z</time>
      </trkpt>
      <trkpt lat="43.51512" lon="5.87123">
        <ele>488.4</ele>
        <time>2014-03-08T13:34:21Z</time>
      </trkpt>
      <trkpt lat="43.51483" lon="5.8713">
        <ele>488.4</ele>
        <time>2014-03-08T13:34:31Z</time>
      </trkpt>
      <trkpt lat="43.51468" lon="5.87131">
        <ele>488.4</ele>
        <time>2014-03-08T13:34:36Z</time>
      </trkpt>
      <trkpt lat="43.51466" lon="5.8713">
        <ele>488.4</ele>
        <time>2014-03-08T13:34:37Z</time>
      </trkpt>
      <trkpt lat="43.51465" lon="5.87126">
        <ele>488.4</ele>
        <time>2014-03-08T13:34:39Z</time>
      </trkpt>
      <trkpt lat="43.51462" lon="5.87126">
        <ele>488.4</ele>
        <time>2014-03-08T13:34:41Z</time>
      </trkpt>
      <trkpt lat="43.51458" lon="5.87127">
        <ele>488.4</ele>
        <time>2014-03-08T13:34:42Z</time>
      </trkpt>
      <trkpt lat="43.51452" lon="5.87127">
        <ele>488.4</ele>
        <time>2014-03-08T13:34:44Z</time>
      </trkpt>
      <trkpt lat="43.51446" lon="5.87129">
        <ele>488</ele>
        <time>2014-03-08T13:34:46Z</time>
      </trkpt>
      <trkpt lat="43.51443" lon="5.8713">
        <ele>487.6</ele>
        <time>2014-03-08T13:34:47Z</time>
      </trkpt>
      <trkpt lat="43.51441" lon="5.87129">
        <ele>487</ele>
        <time>2014-03-08T13:34:48Z</time>
      </trkpt>
      <trkpt lat="43.51438" lon="5.87129">
        <ele>486.6</ele>
        <time>2014-03-08T13:34:49Z</time>
      </trkpt>
      <trkpt lat="43.51436" lon="5.87128">
        <ele>486.2</ele>
        <time>2014-03-08T13:34:50Z</time>
      </trkpt>
      <trkpt lat="43.51426" lon="5.87128">
        <ele>486.2</ele>
        <time>2014-03-08T13:34:54Z</time>
      </trkpt>
      <trkpt lat="43.51419" lon="5.87132">
        <ele>486.2</ele>
        <time>2014-03-08T13:34:58Z</time>
      </trkpt>
      <trkpt lat="43.51409" lon="5.87127">
        <ele>486.2</ele>
        <time>2014-03-08T13:35:02Z</time>
      </trkpt>
      <trkpt lat="43.51403" lon="5.87128">
        <ele>485.8</ele>
        <time>2014-03-08T13:35:04Z</time>
      </trkpt>
      <trkpt lat="43.514" lon="5.87128">
        <ele>485.4</ele>
        <time>2014-03-08T13:35:05Z</time>
      </trkpt>
      <trkpt lat="43.51397" lon="5.87127">
        <ele>485</ele>
        <time>2014-03-08T13:35:06Z</time>
      </trkpt>
      <trkpt lat="43.51395" lon="5.87125">
        <ele>484.6</ele>
        <time>2014-03-08T13:35:07Z</time>
      </trkpt>
      <trkpt lat="43.51393" lon="5.87123">
        <ele>484.2</ele>
        <time>2014-03-08T13:35:08Z</time>
      </trkpt>
      <trkpt lat="43.51385" lon="5.8712">
        <ele>484.2</ele>
        <time>2014-03-08T13:35:12Z</time>
      </trkpt>
      <trkpt lat="43.51382" lon="5.8712">
        <ele>484.2</ele>
        <time>2014-03-08T13:35:16Z</time>
      </trkpt>
      <trkpt lat="43.51381" lon="5.87117">
        <ele>484.2</ele>
        <time>2014-03-08T13:35:19Z</time>
      </trkpt>
      <trkpt lat="43.5138" lon="5.87116">
        <ele>484.2</ele>
        <time>2014-03-08T13:35:20Z</time>
      </trkpt>
      <trkpt lat="43.51376" lon="5.87109">
        <ele>484.2</ele>
        <time>2014-03-08T13:35:23Z</time>
      </trkpt>
      <trkpt lat="43.51374" lon="5.87108">
        <ele>484.2</ele>
        <time>2014-03-08T13:35:24Z</time>
      </trkpt>
      <trkpt lat="43.51367" lon="5.87102">
        <ele>484.2</ele>
        <time>2014-03-08T13:35:28Z</time>
      </trkpt>
      <trkpt lat="43.51359" lon="5.87093">
        <ele>484.2</ele>
        <time>2014-03-08T13:35:34Z</time>
      </trkpt>
      <trkpt lat="43.51354" lon="5.87083">
        <ele>484.2</ele>
        <time>2014-03-08T13:35:38Z</time>
      </trkpt>
      <trkpt lat="43.51333" lon="5.8707">
        <ele>484.2</ele>
        <time>2014-03-08T13:35:50Z</time>
      </trkpt>
      <trkpt lat="43.51325" lon="5.87062">
        <ele>484.2</ele>
        <time>2014-03-08T13:35:55Z</time>
      </trkpt>
      <trkpt lat="43.51323" lon="5.87057">
        <ele>484.2</ele>
        <time>2014-03-08T13:35:58Z</time>
      </trkpt>
      <trkpt lat="43.51322" lon="5.87052">
        <ele>484.6</ele>
        <time>2014-03-08T13:36:00Z</time>
      </trkpt>
      <trkpt lat="43.51321" lon="5.8705">
        <ele>485</ele>
        <time>2014-03-08T13:36:01Z</time>
      </trkpt>
      <trkpt lat="43.51318" lon="5.87046">
        <ele>486.4</ele>
        <time>2014-03-08T13:36:04Z</time>
      </trkpt>
      <trkpt lat="43.51317" lon="5.87044">
        <ele>486.4</ele>
        <time>2014-03-08T13:36:05Z</time>
      </trkpt>
      <trkpt lat="43.51315" lon="5.87044">
        <ele>486.4</ele>
        <time>2014-03-08T13:36:06Z</time>
      </trkpt>
      <trkpt lat="43.51312" lon="5.87044">
        <ele>486.4</ele>
        <time>2014-03-08T13:36:09Z</time>
      </trkpt>
      <trkpt lat="43.51307" lon="5.8704">
        <ele>487.2</ele>
        <time>2014-03-08T13:36:15Z</time>
      </trkpt>
      <trkpt lat="43.51306" lon="5.87039">
        <ele>487.6</ele>
        <time>2014-03-08T13:36:16Z</time>
      </trkpt>
      <trkpt lat="43.51304" lon="5.87038">
        <ele>488</ele>
        <time>2014-03-08T13:36:17Z</time>
      </trkpt>
      <trkpt lat="43.51304" lon="5.87036">
        <ele>488.4</ele>
        <time>2014-03-08T13:36:18Z</time>
      </trkpt>
      <trkpt lat="43.51303" lon="5.87034">
        <ele>488.4</ele>
        <time>2014-03-08T13:36:19Z</time>
      </trkpt>
      <trkpt lat="43.51299" lon="5.87031">
        <ele>488.4</ele>
        <time>2014-03-08T13:36:24Z</time>
      </trkpt>
      <trkpt lat="43.51299" lon="5.87031">
        <ele>488.4</ele>
        <time>2014-03-08T13:36:33Z</time>
      </trkpt>
      <trkpt lat="43.51296" lon="5.87028">
        <ele>488.4</ele>
        <time>2014-03-08T13:36:36Z</time>
      </trkpt>
      <trkpt lat="43.51295" lon="5.87027">
        <ele>488.4</ele>
        <time>2014-03-08T13:36:37Z</time>
      </trkpt>
      <trkpt lat="43.51293" lon="5.87022">
        <ele>488.4</ele>
        <time>2014-03-08T13:36:40Z</time>
      </trkpt>
      <trkpt lat="43.51287" lon="5.8701">
        <ele>488.8</ele>
        <time>2014-03-08T13:36:47Z</time>
      </trkpt>
      <trkpt lat="43.51286" lon="5.87009">
        <ele>489.2</ele>
        <time>2014-03-08T13:36:48Z</time>
      </trkpt>
      <trkpt lat="43.51283" lon="5.87007">
        <ele>490</ele>
        <time>2014-03-08T13:36:50Z</time>
      </trkpt>
      <trkpt lat="43.51282" lon="5.87006">
        <ele>490.4</ele>
        <time>2014-03-08T13:36:51Z</time>
      </trkpt>
      <trkpt lat="43.5128" lon="5.87004">
        <ele>490.4</ele>
        <time>2014-03-08T13:36:53Z</time>
      </trkpt>
      <trkpt lat="43.51278" lon="5.87003">
        <ele>490.4</ele>
        <time>2014-03-08T13:36:54Z</time>
      </trkpt>
      <trkpt lat="43.5127" lon="5.87006">
        <ele>490.4</ele>
        <time>2014-03-08T13:36:58Z</time>
      </trkpt>
      <trkpt lat="43.51261" lon="5.87001">
        <ele>490.4</ele>
        <time>2014-03-08T13:37:03Z</time>
      </trkpt>
      <trkpt lat="43.51249" lon="5.86998">
        <ele>490.4</ele>
        <time>2014-03-08T13:37:08Z</time>
      </trkpt>
      <trkpt lat="43.51242" lon="5.86993">
        <ele>490.4</ele>
        <time>2014-03-08T13:37:11Z</time>
      </trkpt>
      <trkpt lat="43.51217" lon="5.86986">
        <ele>490.4</ele>
        <time>2014-03-08T13:37:20Z</time>
      </trkpt>
      <trkpt lat="43.5121" lon="5.86979">
        <ele>490.4</ele>
        <time>2014-03-08T13:37:24Z</time>
      </trkpt>
      <trkpt lat="43.512" lon="5.86974">
        <ele>490.4</ele>
        <time>2014-03-08T13:37:28Z</time>
      </trkpt>
      <trkpt lat="43.51192" lon="5.86969">
        <ele>490.4</ele>
        <time>2014-03-08T13:37:31Z</time>
      </trkpt>
      <trkpt lat="43.51185" lon="5.8696">
        <ele>490.4</ele>
        <time>2014-03-08T13:37:35Z</time>
      </trkpt>
      <trkpt lat="43.51169" lon="5.86947">
        <ele>490.4</ele>
        <time>2014-03-08T13:37:42Z</time>
      </trkpt>
      <trkpt lat="43.51166" lon="5.86946">
        <ele>490.4</ele>
        <time>2014-03-08T13:37:43Z</time>
      </trkpt>
      <trkpt lat="43.51134" lon="5.86922">
        <ele>490.4</ele>
        <time>2014-03-08T13:37:59Z</time>
      </trkpt>
      <trkpt lat="43.51133" lon="5.86922">
        <ele>490.4</ele>
        <time>2014-03-08T13:38:00Z</time>
      </trkpt>
      <trkpt lat="43.51127" lon="5.86926">
        <ele>490.4</ele>
        <time>2014-03-08T13:38:03Z</time>
      </trkpt>
      <trkpt lat="43.51121" lon="5.86921">
        <ele>490.4</ele>
        <time>2014-03-08T13:38:06Z</time>
      </trkpt>
      <trkpt lat="43.51118" lon="5.8691">
        <ele>490.4</ele>
        <time>2014-03-08T13:38:11Z</time>
      </trkpt>
      <trkpt lat="43.51109" lon="5.86902">
        <ele>490.4</ele>
        <time>2014-03-08T13:38:17Z</time>
      </trkpt>
      <trkpt lat="43.51108" lon="5.86899">
        <ele>490.8</ele>
        <time>2014-03-08T13:38:18Z</time>
      </trkpt>
      <trkpt lat="43.51108" lon="5.86897">
        <ele>491.2</ele>
        <time>2014-03-08T13:38:19Z</time>
      </trkpt>
      <trkpt lat="43.51107" lon="5.86896">
        <ele>491.6</ele>
        <time>2014-03-08T13:38:20Z</time>
      </trkpt>
      <trkpt lat="43.51106" lon="5.86894">
        <ele>492</ele>
        <time>2014-03-08T13:38:21Z</time>
      </trkpt>
      <trkpt lat="43.51105" lon="5.86894">
        <ele>492.4</ele>
        <time>2014-03-08T13:38:22Z</time>
      </trkpt>
      <trkpt lat="43.51103" lon="5.86894">
        <ele>492.4</ele>
        <time>2014-03-08T13:38:26Z</time>
      </trkpt>
      <trkpt lat="43.51103" lon="5.86894">
        <ele>492.4</ele>
        <time>2014-03-08T13:38:33Z</time>
      </trkpt>
      <trkpt lat="43.51103" lon="5.86894">
        <ele>492.4</ele>
        <time>2014-03-08T13:39:09Z</time>
      </trkpt>
      <trkpt lat="43.51102" lon="5.86894">
        <ele>492.4</ele>
        <time>2014-03-08T13:39:57Z</time>
      </trkpt>
      <trkpt lat="43.51102" lon="5.86894">
        <ele>492.4</ele>
        <time>2014-03-08T13:40:31Z</time>
      </trkpt>
      <trkpt lat="43.51101" lon="5.86894">
        <ele>492.4</ele>
        <time>2014-03-08T13:40:33Z</time>
      </trkpt>
      <trkpt lat="43.51095" lon="5.86894">
        <ele>492.4</ele>
        <time>2014-03-08T13:40:36Z</time>
      </trkpt>
      <trkpt lat="43.51089" lon="5.86883">
        <ele>492.4</ele>
        <time>2014-03-08T13:40:39Z</time>
      </trkpt>
      <trkpt lat="43.51088" lon="5.86874">
        <ele>491.6</ele>
        <time>2014-03-08T13:40:41Z</time>
      </trkpt>
      <trkpt lat="43.51088" lon="5.86869">
        <ele>491.2</ele>
        <time>2014-03-08T13:40:42Z</time>
      </trkpt>
      <trkpt lat="43.51092" lon="5.86858">
        <ele>490.4</ele>
        <time>2014-03-08T13:40:44Z</time>
      </trkpt>
      <trkpt lat="43.51101" lon="5.86836">
        <ele>490.4</ele>
        <time>2014-03-08T13:40:49Z</time>
      </trkpt>
      <trkpt lat="43.51098" lon="5.86821">
        <ele>490.4</ele>
        <time>2014-03-08T13:40:52Z</time>
      </trkpt>
      <trkpt lat="43.51091" lon="5.86809">
        <ele>489.8</ele>
        <time>2014-03-08T13:40:55Z</time>
      </trkpt>
      <trkpt lat="43.51092" lon="5.86804">
        <ele>489.2</ele>
        <time>2014-03-08T13:40:56Z</time>
      </trkpt>
      <trkpt lat="43.51091" lon="5.86799">
        <ele>488.8</ele>
        <time>2014-03-08T13:40:57Z</time>
      </trkpt>
      <trkpt lat="43.5109" lon="5.86797">
        <ele>488.2</ele>
        <time>2014-03-08T13:40:58Z</time>
      </trkpt>
      <trkpt lat="43.51089" lon="5.86795">
        <ele>487.6</ele>
        <time>2014-03-08T13:40:59Z</time>
      </trkpt>
      <trkpt lat="43.51086" lon="5.86796">
        <ele>487.6</ele>
        <time>2014-03-08T13:41:00Z</time>
      </trkpt>
      <trkpt lat="43.51071" lon="5.86805">
        <ele>487.6</ele>
        <time>2014-03-08T13:41:03Z</time>
      </trkpt>
      <trkpt lat="43.5105" lon="5.86843">
        <ele>487.6</ele>
        <time>2014-03-08T13:41:10Z</time>
      </trkpt>
      <trkpt lat="43.51027" lon="5.8686">
        <ele>487.2</ele>
        <time>2014-03-08T13:41:15Z</time>
      </trkpt>
      <trkpt lat="43.51023" lon="5.86862">
        <ele>486.8</ele>
        <time>2014-03-08T13:41:16Z</time>
      </trkpt>
      <trkpt lat="43.5102" lon="5.8686">
        <ele>486.4</ele>
        <time>2014-03-08T13:41:17Z</time>
      </trkpt>
      <trkpt lat="43.51015" lon="5.8686">
        <ele>485.8</ele>
        <time>2014-03-08T13:41:18Z</time>
      </trkpt>
      <trkpt lat="43.51" lon="5.86868">
        <ele>485</ele>
        <time>2014-03-08T13:41:21Z</time>
      </trkpt>
      <trkpt lat="43.50995" lon="5.8687">
        <ele>484.4</ele>
        <time>2014-03-08T13:41:22Z</time>
      </trkpt>
      <trkpt lat="43.5099" lon="5.86869">
        <ele>484</ele>
        <time>2014-03-08T13:41:23Z</time>
      </trkpt>
      <trkpt lat="43.50981" lon="5.86863">
        <ele>482.8</ele>
        <time>2014-03-08T13:41:25Z</time>
      </trkpt>
      <trkpt lat="43.50977" lon="5.86859">
        <ele>482.2</ele>
        <time>2014-03-08T13:41:26Z</time>
      </trkpt>
      <trkpt lat="43.50975" lon="5.86855">
        <ele>481.6</ele>
        <time>2014-03-08T13:41:27Z</time>
      </trkpt>
      <trkpt lat="43.50976" lon="5.86849">
        <ele>480.8</ele>
        <time>2014-03-08T13:41:28Z</time>
      </trkpt>
      <trkpt lat="43.50972" lon="5.86828">
        <ele>480.8</ele>
        <time>2014-03-08T13:41:32Z</time>
      </trkpt>
      <trkpt lat="43.50967" lon="5.86819">
        <ele>480.8</ele>
        <time>2014-03-08T13:41:34Z</time>
      </trkpt>
      <trkpt lat="43.50957" lon="5.86805">
        <ele>480.4</ele>
        <time>2014-03-08T13:41:37Z</time>
      </trkpt>
      <trkpt lat="43.50954" lon="5.86799">
        <ele>479.8</ele>
        <time>2014-03-08T13:41:38Z</time>
      </trkpt>
      <trkpt lat="43.50946" lon="5.86787">
        <ele>478.8</ele>
        <time>2014-03-08T13:41:40Z</time>
      </trkpt>
      <trkpt lat="43.50942" lon="5.86783">
        <ele>478.2</ele>
        <time>2014-03-08T13:41:41Z</time>
      </trkpt>
      <trkpt lat="43.50937" lon="5.86781">
        <ele>477.6</ele>
        <time>2014-03-08T13:41:42Z</time>
      </trkpt>
      <trkpt lat="43.50932" lon="5.86782">
        <ele>477</ele>
        <time>2014-03-08T13:41:43Z</time>
      </trkpt>
      <trkpt lat="43.50926" lon="5.86782">
        <ele>476.2</ele>
        <time>2014-03-08T13:41:44Z</time>
      </trkpt>
      <trkpt lat="43.50921" lon="5.86779">
        <ele>475.6</ele>
        <time>2014-03-08T13:41:45Z</time>
      </trkpt>
      <trkpt lat="43.50916" lon="5.86773">
        <ele>474.6</ele>
        <time>2014-03-08T13:41:46Z</time>
      </trkpt>
      <trkpt lat="43.50913" lon="5.86766">
        <ele>473.8</ele>
        <time>2014-03-08T13:41:47Z</time>
      </trkpt>
      <trkpt lat="43.5091" lon="5.86754">
        <ele>472</ele>
        <time>2014-03-08T13:41:49Z</time>
      </trkpt>
      <trkpt lat="43.50909" lon="5.86751">
        <ele>471</ele>
        <time>2014-03-08T13:41:50Z</time>
      </trkpt>
      <trkpt lat="43.50906" lon="5.86748">
        <ele>471</ele>
        <time>2014-03-08T13:41:51Z</time>
      </trkpt>
      <trkpt lat="43.50897" lon="5.86749">
        <ele>471</ele>
        <time>2014-03-08T13:41:53Z</time>
      </trkpt>
      <trkpt lat="43.50882" lon="5.86745">
        <ele>471</ele>
        <time>2014-03-08T13:41:56Z</time>
      </trkpt>
      <trkpt lat="43.50877" lon="5.86744">
        <ele>471</ele>
        <time>2014-03-08T13:41:57Z</time>
      </trkpt>
      <trkpt lat="43.50871" lon="5.86745">
        <ele>470.6</ele>
        <time>2014-03-08T13:41:58Z</time>
      </trkpt>
      <trkpt lat="43.50862" lon="5.86754">
        <ele>469</ele>
        <time>2014-03-08T13:42:00Z</time>
      </trkpt>
      <trkpt lat="43.50851" lon="5.86758">
        <ele>467.8</ele>
        <time>2014-03-08T13:42:02Z</time>
      </trkpt>
      <trkpt lat="43.50844" lon="5.86759">
        <ele>467.2</ele>
        <time>2014-03-08T13:42:03Z</time>
      </trkpt>
      <trkpt lat="43.50832" lon="5.86758">
        <ele>466</ele>
        <time>2014-03-08T13:42:05Z</time>
      </trkpt>
      <trkpt lat="43.50825" lon="5.86759">
        <ele>465.2</ele>
        <time>2014-03-08T13:42:06Z</time>
      </trkpt>
      <trkpt lat="43.5082" lon="5.8676">
        <ele>464.6</ele>
        <time>2014-03-08T13:42:07Z</time>
      </trkpt>
      <trkpt lat="43.50817" lon="5.86759">
        <ele>463.8</ele>
        <time>2014-03-08T13:42:08Z</time>
      </trkpt>
      <trkpt lat="43.50814" lon="5.86758">
        <ele>463.4</ele>
        <time>2014-03-08T13:42:09Z</time>
      </trkpt>
      <trkpt lat="43.50809" lon="5.86755">
        <ele>462.2</ele>
        <time>2014-03-08T13:42:12Z</time>
      </trkpt>
      <trkpt lat="43.50803" lon="5.8675">
        <ele>461.8</ele>
        <time>2014-03-08T13:42:14Z</time>
      </trkpt>
      <trkpt lat="43.50795" lon="5.86745">
        <ele>461.8</ele>
        <time>2014-03-08T13:42:16Z</time>
      </trkpt>
      <trkpt lat="43.50782" lon="5.8674">
        <ele>461.8</ele>
        <time>2014-03-08T13:42:19Z</time>
      </trkpt>
      <trkpt lat="43.50778" lon="5.86737">
        <ele>461.2</ele>
        <time>2014-03-08T13:42:20Z</time>
      </trkpt>
      <trkpt lat="43.50776" lon="5.86732">
        <ele>460.8</ele>
        <time>2014-03-08T13:42:21Z</time>
      </trkpt>
      <trkpt lat="43.50776" lon="5.86726">
        <ele>460.4</ele>
        <time>2014-03-08T13:42:22Z</time>
      </trkpt>
      <trkpt lat="43.50767" lon="5.86683">
        <ele>459.4</ele>
        <time>2014-03-08T13:42:29Z</time>
      </trkpt>
      <trkpt lat="43.50764" lon="5.86677">
        <ele>459</ele>
        <time>2014-03-08T13:42:30Z</time>
      </trkpt>
      <trkpt lat="43.50758" lon="5.86673">
        <ele>458.4</ele>
        <time>2014-03-08T13:42:31Z</time>
      </trkpt>
      <trkpt lat="43.50751" lon="5.86671">
        <ele>457.8</ele>
        <time>2014-03-08T13:42:32Z</time>
      </trkpt>
      <trkpt lat="43.50744" lon="5.8667">
        <ele>457</ele>
        <time>2014-03-08T13:42:33Z</time>
      </trkpt>
      <trkpt lat="43.50739" lon="5.86667">
        <ele>456</ele>
        <time>2014-03-08T13:42:34Z</time>
      </trkpt>
      <trkpt lat="43.50728" lon="5.86658">
        <ele>454</ele>
        <time>2014-03-08T13:42:36Z</time>
      </trkpt>
      <trkpt lat="43.50722" lon="5.86655">
        <ele>453</ele>
        <time>2014-03-08T13:42:37Z</time>
      </trkpt>
      <trkpt lat="43.50716" lon="5.86654">
        <ele>451.8</ele>
        <time>2014-03-08T13:42:38Z</time>
      </trkpt>
      <trkpt lat="43.50707" lon="5.86659">
        <ele>449.8</ele>
        <time>2014-03-08T13:42:40Z</time>
      </trkpt>
      <trkpt lat="43.50702" lon="5.86662">
        <ele>448.6</ele>
        <time>2014-03-08T13:42:41Z</time>
      </trkpt>
      <trkpt lat="43.50698" lon="5.86666">
        <ele>447.4</ele>
        <time>2014-03-08T13:42:42Z</time>
      </trkpt>
      <trkpt lat="43.50695" lon="5.86668">
        <ele>446.2</ele>
        <time>2014-03-08T13:42:43Z</time>
      </trkpt>
      <trkpt lat="43.50693" lon="5.86671">
        <ele>445</ele>
        <time>2014-03-08T13:42:44Z</time>
      </trkpt>
      <trkpt lat="43.50693" lon="5.86674">
        <ele>443.8</ele>
        <time>2014-03-08T13:42:45Z</time>
      </trkpt>
      <trkpt lat="43.50694" lon="5.86679">
        <ele>442.8</ele>
        <time>2014-03-08T13:42:46Z</time>
      </trkpt>
      <trkpt lat="43.50696" lon="5.86682">
        <ele>441.8</ele>
        <time>2014-03-08T13:42:47Z</time>
      </trkpt>
      <trkpt lat="43.507" lon="5.86692">
        <ele>438.8</ele>
        <time>2014-03-08T13:42:49Z</time>
      </trkpt>
      <trkpt lat="43.50699" lon="5.86709">
        <ele>436</ele>
        <time>2014-03-08T13:42:53Z</time>
      </trkpt>
      <trkpt lat="43.50698" lon="5.86715">
        <ele>435</ele>
        <time>2014-03-08T13:42:54Z</time>
      </trkpt>
      <trkpt lat="43.50698" lon="5.86718">
        <ele>434</ele>
        <time>2014-03-08T13:42:55Z</time>
      </trkpt>
      <trkpt lat="43.50703" lon="5.86729">
        <ele>430.8</ele>
        <time>2014-03-08T13:42:58Z</time>
      </trkpt>
      <trkpt lat="43.50703" lon="5.86732">
        <ele>429.8</ele>
        <time>2014-03-08T13:42:59Z</time>
      </trkpt>
      <trkpt lat="43.50702" lon="5.86734">
        <ele>428.8</ele>
        <time>2014-03-08T13:43:00Z</time>
      </trkpt>
      <trkpt lat="43.507" lon="5.86735">
        <ele>428.2</ele>
        <time>2014-03-08T13:43:01Z</time>
      </trkpt>
      <trkpt lat="43.50699" lon="5.86735">
        <ele>427.8</ele>
        <time>2014-03-08T13:43:02Z</time>
      </trkpt>
      <trkpt lat="43.50692" lon="5.86729">
        <ele>426</ele>
        <time>2014-03-08T13:43:05Z</time>
      </trkpt>
      <trkpt lat="43.5069" lon="5.86728">
        <ele>425.4</ele>
        <time>2014-03-08T13:43:06Z</time>
      </trkpt>
      <trkpt lat="43.50688" lon="5.86728">
        <ele>424.8</ele>
        <time>2014-03-08T13:43:07Z</time>
      </trkpt>
      <trkpt lat="43.50681" lon="5.86726">
        <ele>423.4</ele>
        <time>2014-03-08T13:43:09Z</time>
      </trkpt>
      <trkpt lat="43.50677" lon="5.86728">
        <ele>422.8</ele>
        <time>2014-03-08T13:43:10Z</time>
      </trkpt>
      <trkpt lat="43.50675" lon="5.8673">
        <ele>422</ele>
        <time>2014-03-08T13:43:11Z</time>
      </trkpt>
      <trkpt lat="43.50676" lon="5.86733">
        <ele>421.2</ele>
        <time>2014-03-08T13:43:12Z</time>
      </trkpt>
      <trkpt lat="43.50677" lon="5.86737">
        <ele>419.2</ele>
        <time>2014-03-08T13:43:13Z</time>
      </trkpt>
      <trkpt lat="43.50678" lon="5.86742">
        <ele>418</ele>
        <time>2014-03-08T13:43:14Z</time>
      </trkpt>
      <trkpt lat="43.50671" lon="5.86764">
        <ele>414.6</ele>
        <time>2014-03-08T13:43:17Z</time>
      </trkpt>
      <trkpt lat="43.5067" lon="5.86773">
        <ele>413.2</ele>
        <time>2014-03-08T13:43:18Z</time>
      </trkpt>
      <trkpt lat="43.50668" lon="5.8678">
        <ele>411.8</ele>
        <time>2014-03-08T13:43:19Z</time>
      </trkpt>
      <trkpt lat="43.50652" lon="5.86804">
        <ele>405.8</ele>
        <time>2014-03-08T13:43:23Z</time>
      </trkpt>
      <trkpt lat="43.50647" lon="5.86816">
        <ele>403.4</ele>
        <time>2014-03-08T13:43:25Z</time>
      </trkpt>
      <trkpt lat="43.50644" lon="5.8682">
        <ele>402.2</ele>
        <time>2014-03-08T13:43:26Z</time>
      </trkpt>
      <trkpt lat="43.50641" lon="5.86824">
        <ele>401.2</ele>
        <time>2014-03-08T13:43:27Z</time>
      </trkpt>
      <trkpt lat="43.50638" lon="5.86828">
        <ele>400.2</ele>
        <time>2014-03-08T13:43:28Z</time>
      </trkpt>
      <trkpt lat="43.50634" lon="5.86831">
        <ele>399.4</ele>
        <time>2014-03-08T13:43:29Z</time>
      </trkpt>
      <trkpt lat="43.50631" lon="5.86835">
        <ele>398.6</ele>
        <time>2014-03-08T13:43:30Z</time>
      </trkpt>
      <trkpt lat="43.50629" lon="5.86841">
        <ele>397.8</ele>
        <time>2014-03-08T13:43:31Z</time>
      </trkpt>
      <trkpt lat="43.50627" lon="5.86848">
        <ele>396.8</ele>
        <time>2014-03-08T13:43:32Z</time>
      </trkpt>
      <trkpt lat="43.50625" lon="5.86851">
        <ele>395.8</ele>
        <time>2014-03-08T13:43:33Z</time>
      </trkpt>
      <trkpt lat="43.50624" lon="5.86854">
        <ele>395</ele>
        <time>2014-03-08T13:43:34Z</time>
      </trkpt>
      <trkpt lat="43.50623" lon="5.86857">
        <ele>394</ele>
        <time>2014-03-08T13:43:35Z</time>
      </trkpt>
      <trkpt lat="43.50624" lon="5.8686">
        <ele>393.2</ele>
        <time>2014-03-08T13:43:36Z</time>
      </trkpt>
      <trkpt lat="43.50622" lon="5.86863">
        <ele>392.4</ele>
        <time>2014-03-08T13:43:37Z</time>
      </trkpt>
      <trkpt lat="43.5062" lon="5.86865">
        <ele>391.6</ele>
        <time>2014-03-08T13:43:38Z</time>
      </trkpt>
      <trkpt lat="43.50616" lon="5.86867">
        <ele>391</ele>
        <time>2014-03-08T13:43:39Z</time>
      </trkpt>
      <trkpt lat="43.50611" lon="5.86868">
        <ele>390.4</ele>
        <time>2014-03-08T13:43:40Z</time>
      </trkpt>
      <trkpt lat="43.50608" lon="5.86871">
        <ele>389.8</ele>
        <time>2014-03-08T13:43:41Z</time>
      </trkpt>
      <trkpt lat="43.50603" lon="5.86874">
        <ele>389</ele>
        <time>2014-03-08T13:43:42Z</time>
      </trkpt>
      <trkpt lat="43.50599" lon="5.86875">
        <ele>388</ele>
        <time>2014-03-08T13:43:43Z</time>
      </trkpt>
      <trkpt lat="43.50594" lon="5.86873">
        <ele>387</ele>
        <time>2014-03-08T13:43:44Z</time>
      </trkpt>
      <trkpt lat="43.50585" lon="5.86868">
        <ele>385.2</ele>
        <time>2014-03-08T13:43:46Z</time>
      </trkpt>
      <trkpt lat="43.50581" lon="5.86864">
        <ele>384.2</ele>
        <time>2014-03-08T13:43:47Z</time>
      </trkpt>
      <trkpt lat="43.50578" lon="5.86851">
        <ele>381.8</ele>
        <time>2014-03-08T13:43:49Z</time>
      </trkpt>
      <trkpt lat="43.50575" lon="5.86847">
        <ele>380.8</ele>
        <time>2014-03-08T13:43:50Z</time>
      </trkpt>
      <trkpt lat="43.50571" lon="5.86849">
        <ele>379.6</ele>
        <time>2014-03-08T13:43:51Z</time>
      </trkpt>
      <trkpt lat="43.50568" lon="5.86854">
        <ele>378.4</ele>
        <time>2014-03-08T13:43:52Z</time>
      </trkpt>
      <trkpt lat="43.50557" lon="5.86886">
        <ele>376.6</ele>
        <time>2014-03-08T13:43:56Z</time>
      </trkpt>
      <trkpt lat="43.50552" lon="5.86893">
        <ele>375.8</ele>
        <time>2014-03-08T13:43:57Z</time>
      </trkpt>
      <trkpt lat="43.50534" lon="5.86914">
        <ele>373.6</ele>
        <time>2014-03-08T13:44:00Z</time>
      </trkpt>
      <trkpt lat="43.50526" lon="5.86919">
        <ele>372.8</ele>
        <time>2014-03-08T13:44:01Z</time>
      </trkpt>
      <trkpt lat="43.50512" lon="5.86927">
        <ele>370.4</ele>
        <time>2014-03-08T13:44:03Z</time>
      </trkpt>
      <trkpt lat="43.50507" lon="5.86927">
        <ele>369.4</ele>
        <time>2014-03-08T13:44:04Z</time>
      </trkpt>
      <trkpt lat="43.50505" lon="5.86924">
        <ele>368.6</ele>
        <time>2014-03-08T13:44:05Z</time>
      </trkpt>
      <trkpt lat="43.50502" lon="5.86916">
        <ele>366.8</ele>
        <time>2014-03-08T13:44:07Z</time>
      </trkpt>
      <trkpt lat="43.50496" lon="5.86911">
        <ele>366.8</ele>
        <time>2014-03-08T13:44:09Z</time>
      </trkpt>
      <trkpt lat="43.5048" lon="5.8691">
        <ele>365.8</ele>
        <time>2014-03-08T13:44:12Z</time>
      </trkpt>
      <trkpt lat="43.50445" lon="5.86884">
        <ele>362.4</ele>
        <time>2014-03-08T13:44:18Z</time>
      </trkpt>
      <trkpt lat="43.5044" lon="5.86877">
        <ele>361.6</ele>
        <time>2014-03-08T13:44:19Z</time>
      </trkpt>
      <trkpt lat="43.5043" lon="5.86855">
        <ele>359.6</ele>
        <time>2014-03-08T13:44:22Z</time>
      </trkpt>
      <trkpt lat="43.50338" lon="5.86766">
        <ele>358.2</ele>
        <time>2014-03-08T13:44:43Z</time>
      </trkpt>
      <trkpt lat="43.50331" lon="5.86774">
        <ele>358.2</ele>
        <time>2014-03-08T13:44:45Z</time>
      </trkpt>
      <trkpt lat="43.50327" lon="5.86778">
        <ele>358.2</ele>
        <time>2014-03-08T13:44:46Z</time>
      </trkpt>
      <trkpt lat="43.50325" lon="5.86783">
        <ele>357.8</ele>
        <time>2014-03-08T13:44:47Z</time>
      </trkpt>
      <trkpt lat="43.50323" lon="5.86791">
        <ele>357.2</ele>
        <time>2014-03-08T13:44:48Z</time>
      </trkpt>
      <trkpt lat="43.5032" lon="5.86797">
        <ele>356.8</ele>
        <time>2014-03-08T13:44:49Z</time>
      </trkpt>
      <trkpt lat="43.50319" lon="5.86802">
        <ele>356.2</ele>
        <time>2014-03-08T13:44:50Z</time>
      </trkpt>
      <trkpt lat="43.50326" lon="5.86843">
        <ele>351.6</ele>
        <time>2014-03-08T13:44:56Z</time>
      </trkpt>
      <trkpt lat="43.50326" lon="5.86852">
        <ele>351</ele>
        <time>2014-03-08T13:44:57Z</time>
      </trkpt>
      <trkpt lat="43.50324" lon="5.86872">
        <ele>349.6</ele>
        <time>2014-03-08T13:44:59Z</time>
      </trkpt>
      <trkpt lat="43.50325" lon="5.8688">
        <ele>349</ele>
        <time>2014-03-08T13:45:00Z</time>
      </trkpt>
      <trkpt lat="43.50327" lon="5.86886">
        <ele>348.4</ele>
        <time>2014-03-08T13:45:01Z</time>
      </trkpt>
      <trkpt lat="43.5033" lon="5.8689">
        <ele>347.6</ele>
        <time>2014-03-08T13:45:02Z</time>
      </trkpt>
      <trkpt lat="43.50331" lon="5.86894">
        <ele>347</ele>
        <time>2014-03-08T13:45:03Z</time>
      </trkpt>
      <trkpt lat="43.50329" lon="5.86896">
        <ele>346.2</ele>
        <time>2014-03-08T13:45:04Z</time>
      </trkpt>
      <trkpt lat="43.5032" lon="5.86909">
        <ele>345.8</ele>
        <time>2014-03-08T13:45:13Z</time>
      </trkpt>
      <trkpt lat="43.5032" lon="5.86909">
        <ele>344.2</ele>
        <time>2014-03-08T13:45:23Z</time>
      </trkpt>
      <trkpt lat="43.5032" lon="5.8691">
        <ele>344.2</ele>
        <time>2014-03-08T13:45:30Z</time>
      </trkpt>
      <trkpt lat="43.5032" lon="5.8691">
        <ele>344.2</ele>
        <time>2014-03-08T13:45:35Z</time>
      </trkpt>
      <trkpt lat="43.50321" lon="5.86909">
        <ele>344.2</ele>
        <time>2014-03-08T13:45:43Z</time>
      </trkpt>
      <trkpt lat="43.50321" lon="5.86909">
        <ele>344.2</ele>
        <time>2014-03-08T13:46:23Z</time>
      </trkpt>
      <trkpt lat="43.50321" lon="5.86909">
        <ele>344.2</ele>
        <time>2014-03-08T13:47:06Z</time>
      </trkpt>
      <trkpt lat="43.50321" lon="5.86909">
        <ele>344.2</ele>
        <time>2014-03-08T13:47:39Z</time>
      </trkpt>
      <trkpt lat="43.50321" lon="5.86909">
        <ele>344.2</ele>
        <time>2014-03-08T13:48:22Z</time>
      </trkpt>
      <trkpt lat="43.50321" lon="5.86909">
        <ele>344.2</ele>
        <time>2014-03-08T13:49:02Z</time>
      </trkpt>
      <trkpt lat="43.50322" lon="5.86909">
        <ele>344.2</ele>
        <time>2014-03-08T13:50:26Z</time>
      </trkpt>
      <trkpt lat="43.50321" lon="5.86909">
        <ele>344.2</ele>
        <time>2014-03-08T13:50:39Z</time>
      </trkpt>
      <trkpt lat="43.50321" lon="5.86909">
        <ele>344.2</ele>
        <time>2014-03-08T13:50:42Z</time>
      </trkpt>
      <trkpt lat="43.50321" lon="5.86909">
        <ele>344.2</ele>
        <time>2014-03-08T13:50:44Z</time>
      </trkpt>
      <trkpt lat="43.50313" lon="5.86916">
        <ele>343.4</ele>
        <time>2014-03-08T13:50:49Z</time>
      </trkpt>
      <trkpt lat="43.5031" lon="5.86917">
        <ele>343</ele>
        <time>2014-03-08T13:50:50Z</time>
      </trkpt>
      <trkpt lat="43.50308" lon="5.86918">
        <ele>342.6</ele>
        <time>2014-03-08T13:50:51Z</time>
      </trkpt>
      <trkpt lat="43.50306" lon="5.86919">
        <ele>342.2</ele>
        <time>2014-03-08T13:50:52Z</time>
      </trkpt>
      <trkpt lat="43.50291" lon="5.86932">
        <ele>342.2</ele>
        <time>2014-03-08T13:50:57Z</time>
      </trkpt>
      <trkpt lat="43.50244" lon="5.86969">
        <ele>337.2</ele>
        <time>2014-03-08T13:51:07Z</time>
      </trkpt>
      <trkpt lat="43.50234" lon="5.86979">
        <ele>336</ele>
        <time>2014-03-08T13:51:09Z</time>
      </trkpt>
      <trkpt lat="43.5023" lon="5.86984">
        <ele>335.4</ele>
        <time>2014-03-08T13:51:10Z</time>
      </trkpt>
      <trkpt lat="43.50215" lon="5.87004">
        <ele>334</ele>
        <time>2014-03-08T13:51:13Z</time>
      </trkpt>
      <trkpt lat="43.50204" lon="5.87017">
        <ele>332.6</ele>
        <time>2014-03-08T13:51:15Z</time>
      </trkpt>
      <trkpt lat="43.5004" lon="5.87192">
        <ele>320.4</ele>
        <time>2014-03-08T13:51:39Z</time>
      </trkpt>
      <trkpt lat="43.49992" lon="5.87264">
        <ele>316.8</ele>
        <time>2014-03-08T13:51:47Z</time>
      </trkpt>
      <trkpt lat="43.49985" lon="5.87271">
        <ele>316.2</ele>
        <time>2014-03-08T13:51:48Z</time>
      </trkpt>
      <trkpt lat="43.49978" lon="5.87277">
        <ele>315.8</ele>
        <time>2014-03-08T13:51:49Z</time>
      </trkpt>
      <trkpt lat="43.49971" lon="5.87281">
        <ele>315.2</ele>
        <time>2014-03-08T13:51:50Z</time>
      </trkpt>
      <trkpt lat="43.49957" lon="5.87289">
        <ele>315.2</ele>
        <time>2014-03-08T13:51:52Z</time>
      </trkpt>
      <trkpt lat="43.4987" lon="5.87388">
        <ele>315.2</ele>
        <time>2014-03-08T13:52:14Z</time>
      </trkpt>
      <trkpt lat="43.49864" lon="5.87392">
        <ele>315.2</ele>
        <time>2014-03-08T13:52:18Z</time>
      </trkpt>
      <trkpt lat="43.49862" lon="5.874">
        <ele>315.2</ele>
        <time>2014-03-08T13:52:21Z</time>
      </trkpt>
      <trkpt lat="43.49863" lon="5.87401">
        <ele>315.2</ele>
        <time>2014-03-08T13:52:22Z</time>
      </trkpt>
      <trkpt lat="43.49863" lon="5.87406">
        <ele>315.2</ele>
        <time>2014-03-08T13:52:26Z</time>
      </trkpt>
      <trkpt lat="43.49864" lon="5.87407">
        <ele>315.2</ele>
        <time>2014-03-08T13:52:27Z</time>
      </trkpt>
      <trkpt lat="43.49866" lon="5.8741">
        <ele>315.2</ele>
        <time>2014-03-08T13:52:30Z</time>
      </trkpt>
      <trkpt lat="43.49865" lon="5.87416">
        <ele>315.2</ele>
        <time>2014-03-08T13:52:34Z</time>
      </trkpt>
      <trkpt lat="43.49866" lon="5.87443">
        <ele>316</ele>
        <time>2014-03-08T13:52:45Z</time>
      </trkpt>
      <trkpt lat="43.49866" lon="5.87445">
        <ele>316.4</ele>
        <time>2014-03-08T13:52:46Z</time>
      </trkpt>
      <trkpt lat="43.49867" lon="5.8745">
        <ele>317.4</ele>
        <time>2014-03-08T13:52:48Z</time>
      </trkpt>
      <trkpt lat="43.49869" lon="5.87464">
        <ele>317.4</ele>
        <time>2014-03-08T13:52:54Z</time>
      </trkpt>
      <trkpt lat="43.49874" lon="5.8748">
        <ele>317.8</ele>
        <time>2014-03-08T13:53:01Z</time>
      </trkpt>
      <trkpt lat="43.49879" lon="5.8749">
        <ele>319.4</ele>
        <time>2014-03-08T13:53:05Z</time>
      </trkpt>
      <trkpt lat="43.49882" lon="5.87494">
        <ele>319.4</ele>
        <time>2014-03-08T13:53:07Z</time>
      </trkpt>
      <trkpt lat="43.49897" lon="5.87511">
        <ele>319.4</ele>
        <time>2014-03-08T13:53:16Z</time>
      </trkpt>
      <trkpt lat="43.49898" lon="5.87513">
        <ele>319.4</ele>
        <time>2014-03-08T13:53:17Z</time>
      </trkpt>
      <trkpt lat="43.499" lon="5.87515">
        <ele>319.8</ele>
        <time>2014-03-08T13:53:18Z</time>
      </trkpt>
      <trkpt lat="43.49902" lon="5.87516">
        <ele>320.2</ele>
        <time>2014-03-08T13:53:19Z</time>
      </trkpt>
      <trkpt lat="43.49936" lon="5.87546">
        <ele>321.6</ele>
        <time>2014-03-08T13:53:36Z</time>
      </trkpt>
      <trkpt lat="43.49951" lon="5.87557">
        <ele>323.2</ele>
        <time>2014-03-08T13:53:43Z</time>
      </trkpt>
      <trkpt lat="43.49953" lon="5.87558">
        <ele>323.6</ele>
        <time>2014-03-08T13:53:44Z</time>
      </trkpt>
      <trkpt lat="43.4997" lon="5.87563">
        <ele>323.6</ele>
        <time>2014-03-08T13:53:51Z</time>
      </trkpt>
      <trkpt lat="43.50033" lon="5.87565">
        <ele>326.6</ele>
        <time>2014-03-08T13:54:18Z</time>
      </trkpt>
      <trkpt lat="43.50036" lon="5.87565">
        <ele>327.4</ele>
        <time>2014-03-08T13:54:19Z</time>
      </trkpt>
      <trkpt lat="43.50038" lon="5.87564">
        <ele>327.8</ele>
        <time>2014-03-08T13:54:20Z</time>
      </trkpt>
      <trkpt lat="43.50072" lon="5.87567">
        <ele>327.8</ele>
        <time>2014-03-08T13:54:34Z</time>
      </trkpt>
      <trkpt lat="43.50081" lon="5.8757">
        <ele>328.2</ele>
        <time>2014-03-08T13:54:38Z</time>
      </trkpt>
      <trkpt lat="43.50088" lon="5.87574">
        <ele>329.6</ele>
        <time>2014-03-08T13:54:41Z</time>
      </trkpt>
      <trkpt lat="43.50103" lon="5.87587">
        <ele>330</ele>
        <time>2014-03-08T13:54:48Z</time>
      </trkpt>
      <trkpt lat="43.50157" lon="5.87682">
        <ele>331.6</ele>
        <time>2014-03-08T13:55:17Z</time>
      </trkpt>
      <trkpt lat="43.50158" lon="5.87685">
        <ele>332</ele>
        <time>2014-03-08T13:55:18Z</time>
      </trkpt>
      <trkpt lat="43.5016" lon="5.87688">
        <ele>332</ele>
        <time>2014-03-08T13:55:19Z</time>
      </trkpt>
      <trkpt lat="43.50209" lon="5.87772">
        <ele>335.6</ele>
        <time>2014-03-08T13:55:48Z</time>
      </trkpt>
      <trkpt lat="43.50211" lon="5.87775">
        <ele>336</ele>
        <time>2014-03-08T13:55:49Z</time>
      </trkpt>
      <trkpt lat="43.50213" lon="5.8778">
        <ele>336</ele>
        <time>2014-03-08T13:55:51Z</time>
      </trkpt>
      <trkpt lat="43.50212" lon="5.87788">
        <ele>336</ele>
        <time>2014-03-08T13:55:54Z</time>
      </trkpt>
      <trkpt lat="43.5021" lon="5.8779">
        <ele>336</ele>
        <time>2014-03-08T13:55:55Z</time>
      </trkpt>
      <trkpt lat="43.50145" lon="5.87819">
        <ele>335.6</ele>
        <time>2014-03-08T13:56:12Z</time>
      </trkpt>
      <trkpt lat="43.50142" lon="5.8782">
        <ele>335.2</ele>
        <time>2014-03-08T13:56:13Z</time>
      </trkpt>
      <trkpt lat="43.50139" lon="5.87821">
        <ele>334.6</ele>
        <time>2014-03-08T13:56:14Z</time>
      </trkpt>
      <trkpt lat="43.50137" lon="5.87822">
        <ele>334.2</ele>
        <time>2014-03-08T13:56:15Z</time>
      </trkpt>
      <trkpt lat="43.50135" lon="5.87824">
        <ele>333.8</ele>
        <time>2014-03-08T13:56:16Z</time>
      </trkpt>
      <trkpt lat="43.5013" lon="5.87825">
        <ele>333.8</ele>
        <time>2014-03-08T13:56:18Z</time>
      </trkpt>
      <trkpt lat="43.50115" lon="5.87834">
        <ele>333.8</ele>
        <time>2014-03-08T13:56:24Z</time>
      </trkpt>
      <trkpt lat="43.50103" lon="5.87848">
        <ele>333.8</ele>
        <time>2014-03-08T13:56:30Z</time>
      </trkpt>
      <trkpt lat="43.50089" lon="5.87868">
        <ele>334.2</ele>
        <time>2014-03-08T13:56:39Z</time>
      </trkpt>
      <trkpt lat="43.50064" lon="5.8791">
        <ele>337.4</ele>
        <time>2014-03-08T13:56:57Z</time>
      </trkpt>
      <trkpt lat="43.50063" lon="5.87912">
        <ele>337.8</ele>
        <time>2014-03-08T13:56:58Z</time>
      </trkpt>
      <trkpt lat="43.5006" lon="5.87915">
        <ele>337.8</ele>
        <time>2014-03-08T13:57:00Z</time>
      </trkpt>
      <trkpt lat="43.5005" lon="5.87924">
        <ele>338.2</ele>
        <time>2014-03-08T13:57:07Z</time>
      </trkpt>
      <trkpt lat="43.50047" lon="5.87926">
        <ele>339.2</ele>
        <time>2014-03-08T13:57:09Z</time>
      </trkpt>
      <trkpt lat="43.50022" lon="5.87947">
        <ele>342</ele>
        <time>2014-03-08T13:57:25Z</time>
      </trkpt>
      <trkpt lat="43.5002" lon="5.8795">
        <ele>342</ele>
        <time>2014-03-08T13:57:27Z</time>
      </trkpt>
      <trkpt lat="43.50012" lon="5.87958">
        <ele>342.8</ele>
        <time>2014-03-08T13:57:34Z</time>
      </trkpt>
      <trkpt lat="43.50011" lon="5.87959">
        <ele>343.2</ele>
        <time>2014-03-08T13:57:35Z</time>
      </trkpt>
      <trkpt lat="43.5001" lon="5.8796">
        <ele>343.6</ele>
        <time>2014-03-08T13:57:36Z</time>
      </trkpt>
      <trkpt lat="43.50009" lon="5.87961">
        <ele>344.2</ele>
        <time>2014-03-08T13:57:37Z</time>
      </trkpt>
      <trkpt lat="43.50003" lon="5.87964">
        <ele>344.2</ele>
        <time>2014-03-08T13:57:41Z</time>
      </trkpt>
      <trkpt lat="43.50002" lon="5.87967">
        <ele>345</ele>
        <time>2014-03-08T13:57:43Z</time>
      </trkpt>
      <trkpt lat="43.50001" lon="5.87968">
        <ele>345.4</ele>
        <time>2014-03-08T13:57:44Z</time>
      </trkpt>
      <trkpt lat="43.49999" lon="5.87969">
        <ele>345.8</ele>
        <time>2014-03-08T13:57:45Z</time>
      </trkpt>
      <trkpt lat="43.49997" lon="5.8797">
        <ele>346.2</ele>
        <time>2014-03-08T13:57:47Z</time>
      </trkpt>
      <trkpt lat="43.49983" lon="5.87983">
        <ele>347.4</ele>
        <time>2014-03-08T13:57:59Z</time>
      </trkpt>
      <trkpt lat="43.49982" lon="5.87984">
        <ele>348</ele>
        <time>2014-03-08T13:58:00Z</time>
      </trkpt>
      <trkpt lat="43.49981" lon="5.87985">
        <ele>348.4</ele>
        <time>2014-03-08T13:58:01Z</time>
      </trkpt>
      <trkpt lat="43.4998" lon="5.87986">
        <ele>348.4</ele>
        <time>2014-03-08T13:58:02Z</time>
      </trkpt>
      <trkpt lat="43.49975" lon="5.87993">
        <ele>349.2</ele>
        <time>2014-03-08T13:58:07Z</time>
      </trkpt>
      <trkpt lat="43.49974" lon="5.87995">
        <ele>349.6</ele>
        <time>2014-03-08T13:58:08Z</time>
      </trkpt>
      <trkpt lat="43.49973" lon="5.87996">
        <ele>350</ele>
        <time>2014-03-08T13:58:09Z</time>
      </trkpt>
      <trkpt lat="43.49972" lon="5.87997">
        <ele>350.4</ele>
        <time>2014-03-08T13:58:10Z</time>
      </trkpt>
      <trkpt lat="43.4997" lon="5.88001">
        <ele>350.4</ele>
        <time>2014-03-08T13:58:13Z</time>
      </trkpt>
      <trkpt lat="43.49963" lon="5.88012">
        <ele>351.2</ele>
        <time>2014-03-08T13:58:20Z</time>
      </trkpt>
      <trkpt lat="43.49962" lon="5.88014">
        <ele>351.6</ele>
        <time>2014-03-08T13:58:21Z</time>
      </trkpt>
      <trkpt lat="43.49962" lon="5.88016">
        <ele>352</ele>
        <time>2014-03-08T13:58:22Z</time>
      </trkpt>
      <trkpt lat="43.49961" lon="5.88017">
        <ele>352.4</ele>
        <time>2014-03-08T13:58:23Z</time>
      </trkpt>
      <trkpt lat="43.4996" lon="5.88021">
        <ele>352.4</ele>
        <time>2014-03-08T13:58:25Z</time>
      </trkpt>
      <trkpt lat="43.49958" lon="5.88031">
        <ele>352.8</ele>
        <time>2014-03-08T13:58:30Z</time>
      </trkpt>
      <trkpt lat="43.49957" lon="5.88032">
        <ele>353.4</ele>
        <time>2014-03-08T13:58:31Z</time>
      </trkpt>
      <trkpt lat="43.49957" lon="5.88034">
        <ele>354.2</ele>
        <time>2014-03-08T13:58:33Z</time>
      </trkpt>
      <trkpt lat="43.49957" lon="5.88036">
        <ele>354.6</ele>
        <time>2014-03-08T13:58:34Z</time>
      </trkpt>
      <trkpt lat="43.49953" lon="5.88045">
        <ele>354.6</ele>
        <time>2014-03-08T13:58:39Z</time>
      </trkpt>
      <trkpt lat="43.49952" lon="5.8805">
        <ele>355</ele>
        <time>2014-03-08T13:58:42Z</time>
      </trkpt>
      <trkpt lat="43.49952" lon="5.88052">
        <ele>355.4</ele>
        <time>2014-03-08T13:58:43Z</time>
      </trkpt>
      <trkpt lat="43.49952" lon="5.88054">
        <ele>355.8</ele>
        <time>2014-03-08T13:58:44Z</time>
      </trkpt>
      <trkpt lat="43.49953" lon="5.88056">
        <ele>356.2</ele>
        <time>2014-03-08T13:58:45Z</time>
      </trkpt>
      <trkpt lat="43.49953" lon="5.88069">
        <ele>356.6</ele>
        <time>2014-03-08T13:58:52Z</time>
      </trkpt>
      <trkpt lat="43.49952" lon="5.88077">
        <ele>357.6</ele>
        <time>2014-03-08T13:58:56Z</time>
      </trkpt>
      <trkpt lat="43.49951" lon="5.88077">
        <ele>358</ele>
        <time>2014-03-08T13:58:57Z</time>
      </trkpt>
      <trkpt lat="43.49949" lon="5.88079">
        <ele>358.4</ele>
        <time>2014-03-08T13:58:58Z</time>
      </trkpt>
      <trkpt lat="43.49948" lon="5.8808">
        <ele>358.8</ele>
        <time>2014-03-08T13:58:59Z</time>
      </trkpt>
      <trkpt lat="43.49945" lon="5.8808">
        <ele>358.8</ele>
        <time>2014-03-08T13:59:01Z</time>
      </trkpt>
      <trkpt lat="43.49944" lon="5.88079">
        <ele>358.8</ele>
        <time>2014-03-08T13:59:02Z</time>
      </trkpt>
      <trkpt lat="43.49943" lon="5.88077">
        <ele>359.2</ele>
        <time>2014-03-08T13:59:04Z</time>
      </trkpt>
      <trkpt lat="43.49942" lon="5.88076">
        <ele>359.6</ele>
        <time>2014-03-08T13:59:05Z</time>
      </trkpt>
      <trkpt lat="43.4994" lon="5.88075">
        <ele>360</ele>
        <time>2014-03-08T13:59:06Z</time>
      </trkpt>
      <trkpt lat="43.49939" lon="5.88075">
        <ele>360.4</ele>
        <time>2014-03-08T13:59:07Z</time>
      </trkpt>
      <trkpt lat="43.49937" lon="5.88074">
        <ele>360.8</ele>
        <time>2014-03-08T13:59:08Z</time>
      </trkpt>
      <trkpt lat="43.49933" lon="5.88067">
        <ele>360.8</ele>
        <time>2014-03-08T13:59:12Z</time>
      </trkpt>
      <trkpt lat="43.49925" lon="5.8807">
        <ele>360.8</ele>
        <time>2014-03-08T13:59:18Z</time>
      </trkpt>
      <trkpt lat="43.49924" lon="5.8807">
        <ele>361.4</ele>
        <time>2014-03-08T13:59:19Z</time>
      </trkpt>
      <trkpt lat="43.49923" lon="5.8807">
        <ele>361.8</ele>
        <time>2014-03-08T13:59:20Z</time>
      </trkpt>
      <trkpt lat="43.49921" lon="5.8807">
        <ele>362.2</ele>
        <time>2014-03-08T13:59:21Z</time>
      </trkpt>
      <trkpt lat="43.4992" lon="5.88071">
        <ele>362.8</ele>
        <time>2014-03-08T13:59:22Z</time>
      </trkpt>
      <trkpt lat="43.49919" lon="5.88072">
        <ele>363.2</ele>
        <time>2014-03-08T13:59:23Z</time>
      </trkpt>
      <trkpt lat="43.49918" lon="5.88074">
        <ele>363.2</ele>
        <time>2014-03-08T13:59:24Z</time>
      </trkpt>
      <trkpt lat="43.49914" lon="5.88082">
        <ele>363.6</ele>
        <time>2014-03-08T13:59:29Z</time>
      </trkpt>
      <trkpt lat="43.49912" lon="5.88083">
        <ele>364</ele>
        <time>2014-03-08T13:59:30Z</time>
      </trkpt>
      <trkpt lat="43.49911" lon="5.88083">
        <ele>364.4</ele>
        <time>2014-03-08T13:59:31Z</time>
      </trkpt>
      <trkpt lat="43.49905" lon="5.88089">
        <ele>365.2</ele>
        <time>2014-03-08T13:59:36Z</time>
      </trkpt>
      <trkpt lat="43.49894" lon="5.88095">
        <ele>365.6</ele>
        <time>2014-03-08T13:59:44Z</time>
      </trkpt>
      <trkpt lat="43.49892" lon="5.88097">
        <ele>366</ele>
        <time>2014-03-08T13:59:45Z</time>
      </trkpt>
      <trkpt lat="43.49889" lon="5.88101">
        <ele>367.4</ele>
        <time>2014-03-08T13:59:48Z</time>
      </trkpt>
      <trkpt lat="43.49885" lon="5.88105">
        <ele>367.4</ele>
        <time>2014-03-08T13:59:52Z</time>
      </trkpt>
      <trkpt lat="43.49872" lon="5.88114">
        <ele>367.4</ele>
        <time>2014-03-08T14:00:01Z</time>
      </trkpt>
      <trkpt lat="43.49869" lon="5.88114">
        <ele>367.4</ele>
        <time>2014-03-08T14:00:03Z</time>
      </trkpt>
      <trkpt lat="43.49866" lon="5.88109">
        <ele>367.4</ele>
        <time>2014-03-08T14:00:06Z</time>
      </trkpt>
      <trkpt lat="43.49865" lon="5.88107">
        <ele>367.4</ele>
        <time>2014-03-08T14:00:07Z</time>
      </trkpt>
      <trkpt lat="43.49861" lon="5.88104">
        <ele>367.4</ele>
        <time>2014-03-08T14:00:11Z</time>
      </trkpt>
      <trkpt lat="43.49861" lon="5.88102">
        <ele>367.4</ele>
        <time>2014-03-08T14:00:12Z</time>
      </trkpt>
      <trkpt lat="43.49861" lon="5.881">
        <ele>367.8</ele>
        <time>2014-03-08T14:00:17Z</time>
      </trkpt>
      <trkpt lat="43.49861" lon="5.881">
        <ele>369.4</ele>
        <time>2014-03-08T14:00:45Z</time>
      </trkpt>
      <trkpt lat="43.4986" lon="5.881">
        <ele>369.4</ele>
        <time>2014-03-08T14:00:50Z</time>
      </trkpt>
      <trkpt lat="43.49859" lon="5.881">
        <ele>369.4</ele>
        <time>2014-03-08T14:00:59Z</time>
      </trkpt>
      <trkpt lat="43.49859" lon="5.881">
        <ele>369.4</ele>
        <time>2014-03-08T14:01:06Z</time>
      </trkpt>
      <trkpt lat="43.4986" lon="5.88101">
        <ele>369.4</ele>
        <time>2014-03-08T14:01:49Z</time>
      </trkpt>
      <trkpt lat="43.4986" lon="5.881">
        <ele>369.4</ele>
        <time>2014-03-08T14:01:54Z</time>
      </trkpt>
      <trkpt lat="43.49863" lon="5.881">
        <ele>369.4</ele>
        <time>2014-03-08T14:01:56Z</time>
      </trkpt>
      <trkpt lat="43.49863" lon="5.881">
        <ele>369.4</ele>
        <time>2014-03-08T14:01:58Z</time>
      </trkpt>
      <trkpt lat="43.49863" lon="5.881">
        <ele>369.4</ele>
        <time>2014-03-08T14:02:05Z</time>
      </trkpt>
      <trkpt lat="43.49864" lon="5.881">
        <ele>369.4</ele>
        <time>2014-03-08T14:02:12Z</time>
      </trkpt>
      <trkpt lat="43.49861" lon="5.88095">
        <ele>369.4</ele>
        <time>2014-03-08T14:02:21Z</time>
      </trkpt>
      <trkpt lat="43.49843" lon="5.88076">
        <ele>369</ele>
        <time>2014-03-08T14:02:25Z</time>
      </trkpt>
      <trkpt lat="43.49842" lon="5.8807">
        <ele>368.2</ele>
        <time>2014-03-08T14:02:26Z</time>
      </trkpt>
      <trkpt lat="43.49844" lon="5.88063">
        <ele>367.6</ele>
        <time>2014-03-08T14:02:27Z</time>
      </trkpt>
      <trkpt lat="43.49848" lon="5.88057">
        <ele>367.2</ele>
        <time>2014-03-08T14:02:28Z</time>
      </trkpt>
      <trkpt lat="43.49875" lon="5.88031">
        <ele>366.4</ele>
        <time>2014-03-08T14:02:33Z</time>
      </trkpt>
      <trkpt lat="43.49879" lon="5.88025">
        <ele>366</ele>
        <time>2014-03-08T14:02:34Z</time>
      </trkpt>
      <trkpt lat="43.49881" lon="5.88017">
        <ele>365.4</ele>
        <time>2014-03-08T14:02:35Z</time>
      </trkpt>
      <trkpt lat="43.49879" lon="5.88005">
        <ele>365</ele>
        <time>2014-03-08T14:02:37Z</time>
      </trkpt>
      <trkpt lat="43.49884" lon="5.87996">
        <ele>365</ele>
        <time>2014-03-08T14:02:39Z</time>
      </trkpt>
      <trkpt lat="43.49898" lon="5.87991">
        <ele>365</ele>
        <time>2014-03-08T14:02:43Z</time>
      </trkpt>
      <trkpt lat="43.49908" lon="5.87981">
        <ele>365</ele>
        <time>2014-03-08T14:02:46Z</time>
      </trkpt>
      <trkpt lat="43.49924" lon="5.87954">
        <ele>365</ele>
        <time>2014-03-08T14:02:51Z</time>
      </trkpt>
      <trkpt lat="43.49928" lon="5.8795">
        <ele>365</ele>
        <time>2014-03-08T14:02:52Z</time>
      </trkpt>
      <trkpt lat="43.49937" lon="5.87943">
        <ele>365</ele>
        <time>2014-03-08T14:02:54Z</time>
      </trkpt>
      <trkpt lat="43.49946" lon="5.87935">
        <ele>365</ele>
        <time>2014-03-08T14:02:56Z</time>
      </trkpt>
      <trkpt lat="43.49951" lon="5.8792">
        <ele>364.6</ele>
        <time>2014-03-08T14:02:59Z</time>
      </trkpt>
      <trkpt lat="43.49951" lon="5.87917">
        <ele>364</ele>
        <time>2014-03-08T14:03:00Z</time>
      </trkpt>
      <trkpt lat="43.49953" lon="5.87916">
        <ele>363.4</ele>
        <time>2014-03-08T14:03:01Z</time>
      </trkpt>
      <trkpt lat="43.49955" lon="5.87919">
        <ele>363</ele>
        <time>2014-03-08T14:03:02Z</time>
      </trkpt>
      <trkpt lat="43.49957" lon="5.87924">
        <ele>362.4</ele>
        <time>2014-03-08T14:03:03Z</time>
      </trkpt>
      <trkpt lat="43.49958" lon="5.8793">
        <ele>362.4</ele>
        <time>2014-03-08T14:03:04Z</time>
      </trkpt>
      <trkpt lat="43.4996" lon="5.87939">
        <ele>361.6</ele>
        <time>2014-03-08T14:03:06Z</time>
      </trkpt>
      <trkpt lat="43.4996" lon="5.87942">
        <ele>361.2</ele>
        <time>2014-03-08T14:03:07Z</time>
      </trkpt>
      <trkpt lat="43.49959" lon="5.87963">
        <ele>360.2</ele>
        <time>2014-03-08T14:03:13Z</time>
      </trkpt>
      <trkpt lat="43.4996" lon="5.87964">
        <ele>360.2</ele>
        <time>2014-03-08T14:03:14Z</time>
      </trkpt>
      <trkpt lat="43.49961" lon="5.87965">
        <ele>359.8</ele>
        <time>2014-03-08T14:03:15Z</time>
      </trkpt>
      <trkpt lat="43.49961" lon="5.87967">
        <ele>359.2</ele>
        <time>2014-03-08T14:03:16Z</time>
      </trkpt>
      <trkpt lat="43.49961" lon="5.8797">
        <ele>358.8</ele>
        <time>2014-03-08T14:03:17Z</time>
      </trkpt>
      <trkpt lat="43.49962" lon="5.87971">
        <ele>358.2</ele>
        <time>2014-03-08T14:03:18Z</time>
      </trkpt>
      <trkpt lat="43.49965" lon="5.87972">
        <ele>357.2</ele>
        <time>2014-03-08T14:03:20Z</time>
      </trkpt>
      <trkpt lat="43.49966" lon="5.87975">
        <ele>356.8</ele>
        <time>2014-03-08T14:03:21Z</time>
      </trkpt>
      <trkpt lat="43.49966" lon="5.87997">
        <ele>354.2</ele>
        <time>2014-03-08T14:03:25Z</time>
      </trkpt>
      <trkpt lat="43.49967" lon="5.88">
        <ele>353.6</ele>
        <time>2014-03-08T14:03:26Z</time>
      </trkpt>
      <trkpt lat="43.49968" lon="5.88001">
        <ele>352.8</ele>
        <time>2014-03-08T14:03:27Z</time>
      </trkpt>
      <trkpt lat="43.49968" lon="5.88003">
        <ele>352.8</ele>
        <time>2014-03-08T14:03:35Z</time>
      </trkpt>
      <trkpt lat="43.49967" lon="5.88004">
        <ele>352.8</ele>
        <time>2014-03-08T14:03:36Z</time>
      </trkpt>
      <trkpt lat="43.49961" lon="5.88011">
        <ele>352.8</ele>
        <time>2014-03-08T14:03:43Z</time>
      </trkpt>
      <trkpt lat="43.49957" lon="5.88019">
        <ele>352.8</ele>
        <time>2014-03-08T14:03:50Z</time>
      </trkpt>
      <trkpt lat="43.49955" lon="5.88027">
        <ele>352.8</ele>
        <time>2014-03-08T14:03:57Z</time>
      </trkpt>
      <trkpt lat="43.49955" lon="5.88027">
        <ele>353.4</ele>
        <time>2014-03-08T14:04:00Z</time>
      </trkpt>
      <trkpt lat="43.49955" lon="5.88027">
        <ele>355</ele>
        <time>2014-03-08T14:04:05Z</time>
      </trkpt>
      <trkpt lat="43.49955" lon="5.88027">
        <ele>355</ele>
        <time>2014-03-08T14:04:27Z</time>
      </trkpt>
      <trkpt lat="43.49956" lon="5.88027">
        <ele>355</ele>
        <time>2014-03-08T14:04:37Z</time>
      </trkpt>
      <trkpt lat="43.49956" lon="5.88027">
        <ele>355</ele>
        <time>2014-03-08T14:05:20Z</time>
      </trkpt>
      <trkpt lat="43.49955" lon="5.88027">
        <ele>355</ele>
        <time>2014-03-08T14:05:43Z</time>
      </trkpt>
      <trkpt lat="43.49955" lon="5.88031">
        <ele>355</ele>
        <time>2014-03-08T14:05:59Z</time>
      </trkpt>
      <trkpt lat="43.49955" lon="5.88032">
        <ele>355</ele>
        <time>2014-03-08T14:06:12Z</time>
      </trkpt>
      <trkpt lat="43.49954" lon="5.88054">
        <ele>355.8</ele>
        <time>2014-03-08T14:06:23Z</time>
      </trkpt>
      <trkpt lat="43.49954" lon="5.88056">
        <ele>356.2</ele>
        <time>2014-03-08T14:06:24Z</time>
      </trkpt>
      <trkpt lat="43.49953" lon="5.88058">
        <ele>356.6</ele>
        <time>2014-03-08T14:06:25Z</time>
      </trkpt>
      <trkpt lat="43.49954" lon="5.88068">
        <ele>357</ele>
        <time>2014-03-08T14:06:29Z</time>
      </trkpt>
      <trkpt lat="43.49951" lon="5.8808">
        <ele>359.2</ele>
        <time>2014-03-08T14:06:36Z</time>
      </trkpt>
      <trkpt lat="43.4995" lon="5.88081">
        <ele>359.2</ele>
        <time>2014-03-08T14:06:37Z</time>
      </trkpt>
      <trkpt lat="43.49945" lon="5.88076">
        <ele>359.2</ele>
        <time>2014-03-08T14:06:41Z</time>
      </trkpt>
      <trkpt lat="43.49941" lon="5.88076">
        <ele>359.6</ele>
        <time>2014-03-08T14:06:43Z</time>
      </trkpt>
      <trkpt lat="43.4994" lon="5.88075">
        <ele>360</ele>
        <time>2014-03-08T14:06:44Z</time>
      </trkpt>
      <trkpt lat="43.49937" lon="5.88072">
        <ele>360.8</ele>
        <time>2014-03-08T14:06:46Z</time>
      </trkpt>
      <trkpt lat="43.49935" lon="5.88071">
        <ele>361.2</ele>
        <time>2014-03-08T14:06:47Z</time>
      </trkpt>
      <trkpt lat="43.49931" lon="5.88069">
        <ele>361.2</ele>
        <time>2014-03-08T14:06:50Z</time>
      </trkpt>
      <trkpt lat="43.49929" lon="5.88069">
        <ele>361.2</ele>
        <time>2014-03-08T14:06:51Z</time>
      </trkpt>
      <trkpt lat="43.49924" lon="5.8807">
        <ele>361.6</ele>
        <time>2014-03-08T14:06:55Z</time>
      </trkpt>
      <trkpt lat="43.49923" lon="5.8807">
        <ele>362</ele>
        <time>2014-03-08T14:06:56Z</time>
      </trkpt>
      <trkpt lat="43.49921" lon="5.88074">
        <ele>363.2</ele>
        <time>2014-03-08T14:06:58Z</time>
      </trkpt>
      <trkpt lat="43.49917" lon="5.88077">
        <ele>363.2</ele>
        <time>2014-03-08T14:07:02Z</time>
      </trkpt>
      <trkpt lat="43.49914" lon="5.88078">
        <ele>363.8</ele>
        <time>2014-03-08T14:07:04Z</time>
      </trkpt>
      <trkpt lat="43.49913" lon="5.88079">
        <ele>364.2</ele>
        <time>2014-03-08T14:07:05Z</time>
      </trkpt>
      <trkpt lat="43.49912" lon="5.88081">
        <ele>364.6</ele>
        <time>2014-03-08T14:07:06Z</time>
      </trkpt>
      <trkpt lat="43.4991" lon="5.88084">
        <ele>365.4</ele>
        <time>2014-03-08T14:07:08Z</time>
      </trkpt>
      <trkpt lat="43.49905" lon="5.88091">
        <ele>365.4</ele>
        <time>2014-03-08T14:07:13Z</time>
      </trkpt>
      <trkpt lat="43.49894" lon="5.88099">
        <ele>366.8</ele>
        <time>2014-03-08T14:07:22Z</time>
      </trkpt>
      <trkpt lat="43.49893" lon="5.881">
        <ele>367.2</ele>
        <time>2014-03-08T14:07:23Z</time>
      </trkpt>
      <trkpt lat="43.49891" lon="5.88099">
        <ele>367.6</ele>
        <time>2014-03-08T14:07:24Z</time>
      </trkpt>
      <trkpt lat="43.4989" lon="5.881">
        <ele>367.6</ele>
        <time>2014-03-08T14:07:25Z</time>
      </trkpt>
      <trkpt lat="43.4989" lon="5.88101">
        <ele>367.6</ele>
        <time>2014-03-08T14:07:26Z</time>
      </trkpt>
      <trkpt lat="43.49889" lon="5.88105">
        <ele>367.6</ele>
        <time>2014-03-08T14:07:28Z</time>
      </trkpt>
      <trkpt lat="43.49889" lon="5.88109">
        <ele>367.6</ele>
        <time>2014-03-08T14:07:31Z</time>
      </trkpt>
      <trkpt lat="43.49884" lon="5.88111">
        <ele>367.6</ele>
        <time>2014-03-08T14:07:35Z</time>
      </trkpt>
      <trkpt lat="43.49868" lon="5.88118">
        <ele>367.6</ele>
        <time>2014-03-08T14:07:48Z</time>
      </trkpt>
      <trkpt lat="43.49865" lon="5.88119">
        <ele>367.6</ele>
        <time>2014-03-08T14:07:50Z</time>
      </trkpt>
      <trkpt lat="43.4986" lon="5.88122">
        <ele>367.6</ele>
        <time>2014-03-08T14:07:54Z</time>
      </trkpt>
      <trkpt lat="43.49857" lon="5.88123">
        <ele>368</ele>
        <time>2014-03-08T14:07:56Z</time>
      </trkpt>
      <trkpt lat="43.49853" lon="5.88125">
        <ele>369.2</ele>
        <time>2014-03-08T14:07:59Z</time>
      </trkpt>
      <trkpt lat="43.49851" lon="5.88126">
        <ele>369.6</ele>
        <time>2014-03-08T14:08:00Z</time>
      </trkpt>
      <trkpt lat="43.4985" lon="5.88128">
        <ele>369.6</ele>
        <time>2014-03-08T14:08:01Z</time>
      </trkpt>
      <trkpt lat="43.49841" lon="5.88133">
        <ele>369.6</ele>
        <time>2014-03-08T14:08:10Z</time>
      </trkpt>
      <trkpt lat="43.49837" lon="5.88133">
        <ele>369.6</ele>
        <time>2014-03-08T14:08:14Z</time>
      </trkpt>
      <trkpt lat="43.4983" lon="5.88134">
        <ele>369.6</ele>
        <time>2014-03-08T14:08:18Z</time>
      </trkpt>
      <trkpt lat="43.49824" lon="5.88127">
        <ele>369.6</ele>
        <time>2014-03-08T14:08:22Z</time>
      </trkpt>
      <trkpt lat="43.4982" lon="5.88126">
        <ele>369.6</ele>
        <time>2014-03-08T14:08:24Z</time>
      </trkpt>
      <trkpt lat="43.49813" lon="5.88124">
        <ele>369.6</ele>
        <time>2014-03-08T14:08:28Z</time>
      </trkpt>
      <trkpt lat="43.49812" lon="5.88124">
        <ele>369.6</ele>
        <time>2014-03-08T14:08:29Z</time>
      </trkpt>
      <trkpt lat="43.4981" lon="5.88125">
        <ele>369.6</ele>
        <time>2014-03-08T14:08:32Z</time>
      </trkpt>
      <trkpt lat="43.49809" lon="5.88125">
        <ele>369.6</ele>
        <time>2014-03-08T14:08:38Z</time>
      </trkpt>
      <trkpt lat="43.4981" lon="5.88125">
        <ele>369.6</ele>
        <time>2014-03-08T14:08:43Z</time>
      </trkpt>
      <trkpt lat="43.4981" lon="5.88125">
        <ele>369.6</ele>
        <time>2014-03-08T14:08:48Z</time>
      </trkpt>
      <trkpt lat="43.49812" lon="5.88126">
        <ele>369.6</ele>
        <time>2014-03-08T14:08:53Z</time>
      </trkpt>
      <trkpt lat="43.4982" lon="5.88129">
        <ele>369.6</ele>
        <time>2014-03-08T14:09:01Z</time>
      </trkpt>
      <trkpt lat="43.49821" lon="5.88129">
        <ele>369.6</ele>
        <time>2014-03-08T14:09:02Z</time>
      </trkpt>
      <trkpt lat="43.49824" lon="5.8813">
        <ele>369.6</ele>
        <time>2014-03-08T14:09:06Z</time>
      </trkpt>
    </trkseg>
  </trk>
</gpx>